<?xml version='1.0' encoding='UTF-8'?><gpx version="1.1" creator="JPX - https://github.com/jenetics/jpx" xmlns="http://www.topografix.com/GPX/1/1"><trk><trkseg><trkpt lat="45.8021502" lon="11.9178149"><ele>216.0</ele><time>2026-04-24T09:22:15.214Z</time></trkpt><trkpt lat="45.8020812" lon="11.9177545"><ele>216.00000000000003</ele><time>2026-04-24T09:22:17.214Z</time></trkpt><trkpt lat="45.8019891" lon="11.9177071"><ele>216.00000000000003</ele><time>2026-04-24T09:22:19.214Z</time></trkpt><trkpt lat="45.8018953" lon="11.9176536"><ele>216.0</ele><time>2026-04-24T09:22:21.214Z</time></trkpt><trkpt lat="45.801826" lon="11.9175768"><ele>216.0</ele><time>2026-04-24T09:22:23.215Z</time></trkpt><trkpt lat="45.8017802" lon="11.9174261"><ele>215.20000000000002</ele><time>2026-04-24T09:22:25.214Z</time></trkpt><trkpt lat="45.8017575" lon="11.917261"><ele>214.40000000000003</ele><time>2026-04-24T09:22:27.214Z</time></trkpt><trkpt lat="45.8017533" lon="11.9170801"><ele>213.6</ele><time>2026-04-24T09:22:29.215Z</time></trkpt><trkpt lat="45.8017415" lon="11.9169905"><ele>212.8</ele><time>2026-04-24T09:22:30.215Z</time></trkpt><trkpt lat="45.8017158" lon="11.9168254"><ele>212.0</ele><time>2026-04-24T09:22:32.215Z</time></trkpt><trkpt lat="45.8017036" lon="11.9167282"><ele>212.0</ele><time>2026-04-24T09:22:33.214Z</time></trkpt><trkpt lat="45.8016827" lon="11.9166327"><ele>212.0</ele><time>2026-04-24T09:22:34.214Z</time></trkpt><trkpt lat="45.8016547" lon="11.9165517"><ele>212.0</ele><time>2026-04-24T09:22:35.214Z</time></trkpt><trkpt lat="45.801633" lon="11.9164643"><ele>212.0</ele><time>2026-04-24T09:22:36.215Z</time></trkpt><trkpt lat="45.80161" lon="11.9163701"><ele>212.0</ele><time>2026-04-24T09:22:37.214Z</time></trkpt><trkpt lat="45.8015944" lon="11.9162787"><ele>212.0</ele><time>2026-04-24T09:22:38.215Z</time></trkpt><trkpt lat="45.8015803" lon="11.9161906"><ele>212.0</ele><time>2026-04-24T09:22:39.214Z</time></trkpt><trkpt lat="45.8015757" lon="11.9160922"><ele>212.00000000000003</ele><time>2026-04-24T09:22:40.214Z</time></trkpt><trkpt lat="45.8015602" lon="11.9159963"><ele>212.0</ele><time>2026-04-24T09:22:41.214Z</time></trkpt><trkpt lat="45.8015301" lon="11.9158187"><ele>212.0</ele><time>2026-04-24T09:22:43.214Z</time></trkpt><trkpt lat="45.8015068" lon="11.915733"><ele>212.0</ele><time>2026-04-24T09:22:44.214Z</time></trkpt><trkpt lat="45.8014374" lon="11.9156037"><ele>212.00000000000003</ele><time>2026-04-24T09:22:46.215Z</time></trkpt><trkpt lat="45.8013818" lon="11.9155576"><ele>212.0</ele><time>2026-04-24T09:22:47.215Z</time></trkpt><trkpt lat="45.8012801" lon="11.9154824"><ele>212.66666666666669</ele><time>2026-04-24T09:22:49.214Z</time></trkpt><trkpt lat="45.8011874" lon="11.9154301"><ele>213.33333333333334</ele><time>2026-04-24T09:22:51.214Z</time></trkpt><trkpt lat="45.8011195" lon="11.9153783"><ele>214.0</ele><time>2026-04-24T09:22:53.214Z</time></trkpt><trkpt lat="45.8010629" lon="11.915309"><ele>214.66666666666669</ele><time>2026-04-24T09:22:55.214Z</time></trkpt><trkpt lat="45.8010045" lon="11.9152737"><ele>215.33333333333334</ele><time>2026-04-24T09:22:57.214Z</time></trkpt><trkpt lat="45.8009359" lon="11.9152437"><ele>216.0</ele><time>2026-04-24T09:23:00.214Z</time></trkpt><trkpt lat="45.8008706" lon="11.9152345"><ele>215.66666666666666</ele><time>2026-04-24T09:24:36.214Z</time></trkpt><trkpt lat="45.8008135" lon="11.9151908"><ele>215.33333333333331</ele><time>2026-04-24T09:24:40.213Z</time></trkpt><trkpt lat="45.800756" lon="11.9151399"><ele>215.0</ele><time>2026-04-24T09:24:43.213Z</time></trkpt><trkpt lat="45.8007073" lon="11.9150818"><ele>214.66666666666666</ele><time>2026-04-24T09:24:45.213Z</time></trkpt><trkpt lat="45.8006443" lon="11.9149754"><ele>214.33333333333331</ele><time>2026-04-24T09:24:48.213Z</time></trkpt><trkpt lat="45.8006067" lon="11.9148741"><ele>214.0</ele><time>2026-04-24T09:24:50.214Z</time></trkpt><trkpt lat="45.8006188" lon="11.9147286"><ele>213.99999999999997</ele><time>2026-04-24T09:24:52.214Z</time></trkpt><trkpt lat="45.8006452" lon="11.9145871"><ele>214.0</ele><time>2026-04-24T09:24:54.213Z</time></trkpt><trkpt lat="45.8006862" lon="11.9144808"><ele>214.0</ele><time>2026-04-24T09:24:56.213Z</time></trkpt><trkpt lat="45.8007165" lon="11.9143735"><ele>214.0</ele><time>2026-04-24T09:24:58.213Z</time></trkpt><trkpt lat="45.8007549" lon="11.9142665"><ele>213.99999999999997</ele><time>2026-04-24T09:25:01.214Z</time></trkpt><trkpt lat="45.8006948" lon="11.9141979"><ele>214.0</ele><time>2026-04-24T09:25:15.213Z</time></trkpt><trkpt lat="45.8006232" lon="11.9141291"><ele>212.99999999999997</ele><time>2026-04-24T09:25:17.213Z</time></trkpt><trkpt lat="45.800535" lon="11.9140806"><ele>212.0</ele><time>2026-04-24T09:25:19.213Z</time></trkpt><trkpt lat="45.8004768" lon="11.9140455"><ele>211.0</ele><time>2026-04-24T09:25:20.213Z</time></trkpt><trkpt lat="45.8004077" lon="11.9140081"><ele>210.0</ele><time>2026-04-24T09:25:21.213Z</time></trkpt><trkpt lat="45.800338" lon="11.9139696"><ele>208.99999999999997</ele><time>2026-04-24T09:25:22.213Z</time></trkpt><trkpt lat="45.8002611" lon="11.9139178"><ele>208.0</ele><time>2026-04-24T09:25:23.213Z</time></trkpt><trkpt lat="45.8001863" lon="11.9138712"><ele>207.8</ele><time>2026-04-24T09:25:24.214Z</time></trkpt><trkpt lat="45.8001105" lon="11.9138238"><ele>207.60000000000002</ele><time>2026-04-24T09:25:25.214Z</time></trkpt><trkpt lat="45.800028" lon="11.9137787"><ele>207.39999999999998</ele><time>2026-04-24T09:25:26.213Z</time></trkpt><trkpt lat="45.7999486" lon="11.9137429"><ele>207.2</ele><time>2026-04-24T09:25:27.213Z</time></trkpt><trkpt lat="45.7998161" lon="11.9137095"><ele>207.0</ele><time>2026-04-24T09:25:29.213Z</time></trkpt><trkpt lat="45.7997393" lon="11.9137115"><ele>207.0</ele><time>2026-04-24T09:25:30.213Z</time></trkpt><trkpt lat="45.7996542" lon="11.9137372"><ele>207.0</ele><time>2026-04-24T09:25:31.213Z</time></trkpt><trkpt lat="45.7995677" lon="11.9137792"><ele>207.0</ele><time>2026-04-24T09:25:32.213Z</time></trkpt><trkpt lat="45.7994878" lon="11.9138311"><ele>207.0</ele><time>2026-04-24T09:25:33.213Z</time></trkpt><trkpt lat="45.7994062" lon="11.9138849"><ele>207.0</ele><time>2026-04-24T09:25:34.213Z</time></trkpt><trkpt lat="45.7993306" lon="11.9139308"><ele>207.0</ele><time>2026-04-24T09:25:35.214Z</time></trkpt><trkpt lat="45.7992736" lon="11.9139879"><ele>204.66666666666666</ele><time>2026-04-24T09:25:36.214Z</time></trkpt><trkpt lat="45.7992119" lon="11.9140177"><ele>202.33333333333331</ele><time>2026-04-24T09:25:37.213Z</time></trkpt><trkpt lat="45.7991386" lon="11.9139984"><ele>200.0</ele><time>2026-04-24T09:25:38.214Z</time></trkpt><trkpt lat="45.7990234" lon="11.9139471"><ele>197.66666666666666</ele><time>2026-04-24T09:25:40.213Z</time></trkpt><trkpt lat="45.7989635" lon="11.9138636"><ele>195.33333333333331</ele><time>2026-04-24T09:25:41.213Z</time></trkpt><trkpt lat="45.7988896" lon="11.9137748"><ele>193.0</ele><time>2026-04-24T09:25:42.213Z</time></trkpt><trkpt lat="45.7988062" lon="11.9136966"><ele>193.0</ele><time>2026-04-24T09:25:43.213Z</time></trkpt><trkpt lat="45.7987129" lon="11.9136315"><ele>193.0</ele><time>2026-04-24T09:25:44.213Z</time></trkpt><trkpt lat="45.7986201" lon="11.9135784"><ele>193.0</ele><time>2026-04-24T09:25:45.214Z</time></trkpt><trkpt lat="45.7985407" lon="11.9135357"><ele>193.0</ele><time>2026-04-24T09:25:46.213Z</time></trkpt><trkpt lat="45.7984602" lon="11.9135098"><ele>193.0</ele><time>2026-04-24T09:25:47.213Z</time></trkpt><trkpt lat="45.7983815" lon="11.9134845"><ele>190.4</ele><time>2026-04-24T09:25:48.213Z</time></trkpt><trkpt lat="45.7982995" lon="11.9134597"><ele>187.8</ele><time>2026-04-24T09:25:49.213Z</time></trkpt><trkpt lat="45.7982057" lon="11.9134348"><ele>185.2</ele><time>2026-04-24T09:25:50.213Z</time></trkpt><trkpt lat="45.7981011" lon="11.913399"><ele>182.6</ele><time>2026-04-24T09:25:51.213Z</time></trkpt><trkpt lat="45.7979999" lon="11.9133658"><ele>180.0</ele><time>2026-04-24T09:25:52.213Z</time></trkpt><trkpt lat="45.7979084" lon="11.9133423"><ele>178.83333333333334</ele><time>2026-04-24T09:25:53.213Z</time></trkpt><trkpt lat="45.7978351" lon="11.9133152"><ele>177.66666666666666</ele><time>2026-04-24T09:25:54.213Z</time></trkpt><trkpt lat="45.7977126" lon="11.9132722"><ele>176.5</ele><time>2026-04-24T09:25:56.213Z</time></trkpt><trkpt lat="45.7976393" lon="11.9132587"><ele>175.33333333333331</ele><time>2026-04-24T09:25:57.213Z</time></trkpt><trkpt lat="45.7975631" lon="11.9132297"><ele>174.16666666666666</ele><time>2026-04-24T09:25:58.213Z</time></trkpt><trkpt lat="45.7974917" lon="11.9131672"><ele>173.0</ele><time>2026-04-24T09:25:59.213Z</time></trkpt><trkpt lat="45.7974354" lon="11.9130711"><ele>171.8</ele><time>2026-04-24T09:26:00.213Z</time></trkpt><trkpt lat="45.7973891" lon="11.9129544"><ele>170.60000000000002</ele><time>2026-04-24T09:26:01.213Z</time></trkpt><trkpt lat="45.7973257" lon="11.9128574"><ele>169.39999999999998</ele><time>2026-04-24T09:26:02.213Z</time></trkpt><trkpt lat="45.7972592" lon="11.9127562"><ele>168.2</ele><time>2026-04-24T09:26:03.213Z</time></trkpt><trkpt lat="45.7971957" lon="11.9126458"><ele>167.0</ele><time>2026-04-24T09:26:04.213Z</time></trkpt><trkpt lat="45.7971361" lon="11.9125186"><ele>164.75</ele><time>2026-04-24T09:26:05.214Z</time></trkpt><trkpt lat="45.7970736" lon="11.912391"><ele>162.5</ele><time>2026-04-24T09:26:06.213Z</time></trkpt><trkpt lat="45.7970116" lon="11.9122548"><ele>160.25</ele><time>2026-04-24T09:26:07.213Z</time></trkpt><trkpt lat="45.7969475" lon="11.912117"><ele>158.0</ele><time>2026-04-24T09:26:08.213Z</time></trkpt><trkpt lat="45.7968774" lon="11.9119811"><ele>158.75</ele><time>2026-04-24T09:26:09.213Z</time></trkpt><trkpt lat="45.7967973" lon="11.9118377"><ele>159.5</ele><time>2026-04-24T09:26:10.213Z</time></trkpt><trkpt lat="45.7967148" lon="11.9117014"><ele>160.25</ele><time>2026-04-24T09:26:11.213Z</time></trkpt><trkpt lat="45.7966197" lon="11.9115705"><ele>161.0</ele><time>2026-04-24T09:26:12.213Z</time></trkpt><trkpt lat="45.7965167" lon="11.9114511"><ele>158.75</ele><time>2026-04-24T09:26:13.213Z</time></trkpt><trkpt lat="45.7964041" lon="11.91134"><ele>156.5</ele><time>2026-04-24T09:26:14.214Z</time></trkpt><trkpt lat="45.7962816" lon="11.9112393"><ele>154.25</ele><time>2026-04-24T09:26:15.213Z</time></trkpt><trkpt lat="45.7961564" lon="11.9111518"><ele>152.0</ele><time>2026-04-24T09:26:16.213Z</time></trkpt><trkpt lat="45.7960278" lon="11.9110794"><ele>153.25</ele><time>2026-04-24T09:26:17.214Z</time></trkpt><trkpt lat="45.7958918" lon="11.9110169"><ele>154.5</ele><time>2026-04-24T09:26:18.213Z</time></trkpt><trkpt lat="45.7957532" lon="11.9109517"><ele>155.75</ele><time>2026-04-24T09:26:19.213Z</time></trkpt><trkpt lat="45.7956138" lon="11.910896"><ele>157.0</ele><time>2026-04-24T09:26:20.213Z</time></trkpt><trkpt lat="45.7954749" lon="11.9108536"><ele>153.25</ele><time>2026-04-24T09:26:21.213Z</time></trkpt><trkpt lat="45.7953374" lon="11.9108365"><ele>149.5</ele><time>2026-04-24T09:26:22.213Z</time></trkpt><trkpt lat="45.795202" lon="11.9108367"><ele>145.75</ele><time>2026-04-24T09:26:23.213Z</time></trkpt><trkpt lat="45.7950547" lon="11.9108317"><ele>142.0</ele><time>2026-04-24T09:26:24.213Z</time></trkpt><trkpt lat="45.7949043" lon="11.9107956"><ele>140.33333333333334</ele><time>2026-04-24T09:26:25.214Z</time></trkpt><trkpt lat="45.7947514" lon="11.9107702"><ele>138.66666666666666</ele><time>2026-04-24T09:26:26.214Z</time></trkpt><trkpt lat="45.7946018" lon="11.9107642"><ele>137.0</ele><time>2026-04-24T09:26:27.213Z</time></trkpt><trkpt lat="45.7944527" lon="11.9107752"><ele>136.0</ele><time>2026-04-24T09:26:28.213Z</time></trkpt><trkpt lat="45.7943076" lon="11.9108028"><ele>135.0</ele><time>2026-04-24T09:26:29.214Z</time></trkpt><trkpt lat="45.7941668" lon="11.9108401"><ele>134.0</ele><time>2026-04-24T09:26:30.213Z</time></trkpt><trkpt lat="45.7940236" lon="11.9108831"><ele>133.0</ele><time>2026-04-24T09:26:31.214Z</time></trkpt><trkpt lat="45.7938862" lon="11.9109151"><ele>133.0</ele><time>2026-04-24T09:26:32.213Z</time></trkpt><trkpt lat="45.7937486" lon="11.9109456"><ele>133.0</ele><time>2026-04-24T09:26:33.213Z</time></trkpt><trkpt lat="45.7936101" lon="11.9109727"><ele>133.0</ele><time>2026-04-24T09:26:34.213Z</time></trkpt><trkpt lat="45.7934776" lon="11.9109914"><ele>133.0</ele><time>2026-04-24T09:26:35.213Z</time></trkpt><trkpt lat="45.7933442" lon="11.9110084"><ele>132.0</ele><time>2026-04-24T09:26:36.213Z</time></trkpt><trkpt lat="45.7932123" lon="11.911013"><ele>131.0</ele><time>2026-04-24T09:26:37.214Z</time></trkpt><trkpt lat="45.7930842" lon="11.9109935"><ele>130.0</ele><time>2026-04-24T09:26:38.213Z</time></trkpt><trkpt lat="45.792954" lon="11.9109629"><ele>129.0</ele><time>2026-04-24T09:26:39.213Z</time></trkpt><trkpt lat="45.7928246" lon="11.910937"><ele>127.5</ele><time>2026-04-24T09:26:40.212Z</time></trkpt><trkpt lat="45.7926932" lon="11.9109071"><ele>126.0</ele><time>2026-04-24T09:26:41.212Z</time></trkpt><trkpt lat="45.7925682" lon="11.9108712"><ele>124.5</ele><time>2026-04-24T09:26:42.212Z</time></trkpt><trkpt lat="45.7924477" lon="11.9108199"><ele>123.0</ele><time>2026-04-24T09:26:43.212Z</time></trkpt><trkpt lat="45.7923285" lon="11.9107681"><ele>123.0</ele><time>2026-04-24T09:26:44.213Z</time></trkpt><trkpt lat="45.7922064" lon="11.9107152"><ele>123.0</ele><time>2026-04-24T09:26:45.212Z</time></trkpt><trkpt lat="45.7920746" lon="11.9106432"><ele>123.0</ele><time>2026-04-24T09:26:46.212Z</time></trkpt><trkpt lat="45.7919513" lon="11.9105458"><ele>123.0</ele><time>2026-04-24T09:26:47.212Z</time></trkpt><trkpt lat="45.7918307" lon="11.9104488"><ele>122.5</ele><time>2026-04-24T09:26:48.212Z</time></trkpt><trkpt lat="45.7917086" lon="11.9103573"><ele>122.0</ele><time>2026-04-24T09:26:49.212Z</time></trkpt><trkpt lat="45.7915907" lon="11.9102607"><ele>121.5</ele><time>2026-04-24T09:26:50.213Z</time></trkpt><trkpt lat="45.791475" lon="11.9101651"><ele>121.0</ele><time>2026-04-24T09:26:51.212Z</time></trkpt><trkpt lat="45.7913628" lon="11.9100691"><ele>120.0</ele><time>2026-04-24T09:26:52.212Z</time></trkpt><trkpt lat="45.7912416" lon="11.9099886"><ele>119.0</ele><time>2026-04-24T09:26:53.212Z</time></trkpt><trkpt lat="45.7911248" lon="11.9099175"><ele>118.0</ele><time>2026-04-24T09:26:54.212Z</time></trkpt><trkpt lat="45.7910123" lon="11.9098401"><ele>117.0</ele><time>2026-04-24T09:26:55.213Z</time></trkpt><trkpt lat="45.790893" lon="11.9097615"><ele>116.5</ele><time>2026-04-24T09:26:56.212Z</time></trkpt><trkpt lat="45.7907798" lon="11.9096793"><ele>116.0</ele><time>2026-04-24T09:26:57.213Z</time></trkpt><trkpt lat="45.7906667" lon="11.9096005"><ele>115.5</ele><time>2026-04-24T09:26:58.212Z</time></trkpt><trkpt lat="45.7905544" lon="11.9095308"><ele>115.0</ele><time>2026-04-24T09:26:59.212Z</time></trkpt><trkpt lat="45.790442" lon="11.9094626"><ele>115.0</ele><time>2026-04-24T09:27:00.212Z</time></trkpt><trkpt lat="45.7903349" lon="11.9093912"><ele>115.0</ele><time>2026-04-24T09:27:01.212Z</time></trkpt><trkpt lat="45.7902329" lon="11.9093208"><ele>115.0</ele><time>2026-04-24T09:27:02.213Z</time></trkpt><trkpt lat="45.7901337" lon="11.909249"><ele>115.0</ele><time>2026-04-24T09:27:03.212Z</time></trkpt><trkpt lat="45.7900401" lon="11.9091705"><ele>113.4</ele><time>2026-04-24T09:27:04.212Z</time></trkpt><trkpt lat="45.7899515" lon="11.9090708"><ele>111.8</ele><time>2026-04-24T09:27:05.213Z</time></trkpt><trkpt lat="45.7898759" lon="11.9089663"><ele>110.19999999999999</ele><time>2026-04-24T09:27:06.212Z</time></trkpt><trkpt lat="45.7898041" lon="11.9088559"><ele>108.6</ele><time>2026-04-24T09:27:07.212Z</time></trkpt><trkpt lat="45.7897363" lon="11.9087438"><ele>107.0</ele><time>2026-04-24T09:27:08.212Z</time></trkpt><trkpt lat="45.7896713" lon="11.9086345"><ele>106.99999999999999</ele><time>2026-04-24T09:27:09.213Z</time></trkpt><trkpt lat="45.7896039" lon="11.9085274"><ele>107.0</ele><time>2026-04-24T09:27:10.212Z</time></trkpt><trkpt lat="45.7895419" lon="11.908435"><ele>107.0</ele><time>2026-04-24T09:27:11.212Z</time></trkpt><trkpt lat="45.7894862" lon="11.9083476"><ele>107.0</ele><time>2026-04-24T09:27:12.213Z</time></trkpt><trkpt lat="45.7894382" lon="11.9082662"><ele>106.99999999999999</ele><time>2026-04-24T09:27:13.212Z</time></trkpt><trkpt lat="45.7893922" lon="11.9081938"><ele>107.0</ele><time>2026-04-24T09:27:14.213Z</time></trkpt><trkpt lat="45.7893255" lon="11.908097"><ele>106.66666666666666</ele><time>2026-04-24T09:27:16.212Z</time></trkpt><trkpt lat="45.7892652" lon="11.9080194"><ele>106.33333333333333</ele><time>2026-04-24T09:27:19.213Z</time></trkpt><trkpt lat="45.7892238" lon="11.90794"><ele>106.0</ele><time>2026-04-24T09:27:23.212Z</time></trkpt><trkpt lat="45.7892119" lon="11.9078191"><ele>105.66666666666666</ele><time>2026-04-24T09:27:27.212Z</time></trkpt><trkpt lat="45.7891968" lon="11.9077031"><ele>105.33333333333333</ele><time>2026-04-24T09:27:29.213Z</time></trkpt><trkpt lat="45.7891841" lon="11.9076127"><ele>105.0</ele><time>2026-04-24T09:27:31.212Z</time></trkpt><trkpt lat="45.789177" lon="11.9074906"><ele>104.8</ele><time>2026-04-24T09:27:33.212Z</time></trkpt><trkpt lat="45.7891619" lon="11.9073336"><ele>104.6</ele><time>2026-04-24T09:27:35.212Z</time></trkpt><trkpt lat="45.7891406" lon="11.907157"><ele>104.4</ele><time>2026-04-24T09:27:37.212Z</time></trkpt><trkpt lat="45.7891308" lon="11.9070671"><ele>104.2</ele><time>2026-04-24T09:27:38.213Z</time></trkpt><trkpt lat="45.7891033" lon="11.9068863"><ele>104.0</ele><time>2026-04-24T09:27:40.213Z</time></trkpt><trkpt lat="45.7890903" lon="11.9067871"><ele>104.14285714285714</ele><time>2026-04-24T09:27:41.212Z</time></trkpt><trkpt lat="45.7890682" lon="11.9066867"><ele>104.28571428571429</ele><time>2026-04-24T09:27:42.213Z</time></trkpt><trkpt lat="45.7890522" lon="11.9065858"><ele>104.42857142857143</ele><time>2026-04-24T09:27:43.213Z</time></trkpt><trkpt lat="45.789041" lon="11.906496"><ele>104.57142857142857</ele><time>2026-04-24T09:27:44.213Z</time></trkpt><trkpt lat="45.7890221" lon="11.9064048"><ele>104.71428571428572</ele><time>2026-04-24T09:27:45.212Z</time></trkpt><trkpt lat="45.7889929" lon="11.9063219"><ele>104.85714285714286</ele><time>2026-04-24T09:27:46.212Z</time></trkpt><trkpt lat="45.7889368" lon="11.9062751"><ele>105.0</ele><time>2026-04-24T09:27:47.212Z</time></trkpt><trkpt lat="45.7888238" lon="11.9062852"><ele>105.0</ele><time>2026-04-24T09:27:49.212Z</time></trkpt><trkpt lat="45.7887585" lon="11.9064075"><ele>105.0</ele><time>2026-04-24T09:27:51.212Z</time></trkpt><trkpt lat="45.7886948" lon="11.9065217"><ele>105.0</ele><time>2026-04-24T09:27:53.212Z</time></trkpt><trkpt lat="45.7886398" lon="11.9065661"><ele>105.0</ele><time>2026-04-24T09:27:54.212Z</time></trkpt><trkpt lat="45.788579" lon="11.9065952"><ele>105.0</ele><time>2026-04-24T09:27:55.212Z</time></trkpt><trkpt lat="45.7884446" lon="11.9066047"><ele>104.83333333333333</ele><time>2026-04-24T09:27:57.212Z</time></trkpt><trkpt lat="45.7883722" lon="11.9066013"><ele>104.66666666666666</ele><time>2026-04-24T09:27:58.212Z</time></trkpt><trkpt lat="45.7883003" lon="11.9066017"><ele>104.5</ele><time>2026-04-24T09:27:59.212Z</time></trkpt><trkpt lat="45.7882245" lon="11.9066051"><ele>104.33333333333333</ele><time>2026-04-24T09:28:00.212Z</time></trkpt><trkpt lat="45.7881505" lon="11.9066097"><ele>104.16666666666666</ele><time>2026-04-24T09:28:01.212Z</time></trkpt><trkpt lat="45.7880737" lon="11.9066176"><ele>104.0</ele><time>2026-04-24T09:28:02.212Z</time></trkpt><trkpt lat="45.7879953" lon="11.9066322"><ele>103.99999999999999</ele><time>2026-04-24T09:28:03.213Z</time></trkpt><trkpt lat="45.7879181" lon="11.9066475"><ele>104.0</ele><time>2026-04-24T09:28:04.212Z</time></trkpt><trkpt lat="45.7878396" lon="11.9066589"><ele>104.0</ele><time>2026-04-24T09:28:05.212Z</time></trkpt><trkpt lat="45.7877607" lon="11.9066664"><ele>104.0</ele><time>2026-04-24T09:28:06.213Z</time></trkpt><trkpt lat="45.7876876" lon="11.9066825"><ele>103.99999999999999</ele><time>2026-04-24T09:28:07.212Z</time></trkpt><trkpt lat="45.7876106" lon="11.9066971"><ele>104.0</ele><time>2026-04-24T09:28:08.213Z</time></trkpt><trkpt lat="45.787534" lon="11.9067113"><ele>103.33333333333333</ele><time>2026-04-24T09:28:09.212Z</time></trkpt><trkpt lat="45.7874576" lon="11.906717"><ele>102.66666666666666</ele><time>2026-04-24T09:28:10.212Z</time></trkpt><trkpt lat="45.7873844" lon="11.9067273"><ele>102.0</ele><time>2026-04-24T09:28:11.212Z</time></trkpt><trkpt lat="45.7873063" lon="11.9067329"><ele>101.33333333333334</ele><time>2026-04-24T09:28:12.212Z</time></trkpt><trkpt lat="45.7872358" lon="11.9067419"><ele>100.66666666666667</ele><time>2026-04-24T09:28:13.212Z</time></trkpt><trkpt lat="45.7871564" lon="11.9067559"><ele>100.0</ele><time>2026-04-24T09:28:14.212Z</time></trkpt><trkpt lat="45.7870766" lon="11.9067685"><ele>100.00000000000001</ele><time>2026-04-24T09:28:15.212Z</time></trkpt><trkpt lat="45.7869944" lon="11.9067855"><ele>100.0</ele><time>2026-04-24T09:28:16.213Z</time></trkpt><trkpt lat="45.786916" lon="11.9068023"><ele>100.0</ele><time>2026-04-24T09:28:17.212Z</time></trkpt><trkpt lat="45.7868341" lon="11.9068122"><ele>100.0</ele><time>2026-04-24T09:28:18.212Z</time></trkpt><trkpt lat="45.7867498" lon="11.9068238"><ele>100.00000000000001</ele><time>2026-04-24T09:28:19.213Z</time></trkpt><trkpt lat="45.7866654" lon="11.9068341"><ele>100.0</ele><time>2026-04-24T09:28:20.213Z</time></trkpt><trkpt lat="45.7865785" lon="11.9068449"><ele>99.50000000000001</ele><time>2026-04-24T09:28:21.212Z</time></trkpt><trkpt lat="45.7864934" lon="11.9068646"><ele>99.0</ele><time>2026-04-24T09:28:22.212Z</time></trkpt><trkpt lat="45.7864104" lon="11.9068783"><ele>98.5</ele><time>2026-04-24T09:28:23.212Z</time></trkpt><trkpt lat="45.7863288" lon="11.906887"><ele>98.0</ele><time>2026-04-24T09:28:24.212Z</time></trkpt><trkpt lat="45.7862488" lon="11.9069045"><ele>97.50000000000001</ele><time>2026-04-24T09:28:25.212Z</time></trkpt><trkpt lat="45.7861685" lon="11.906921"><ele>97.0</ele><time>2026-04-24T09:28:26.213Z</time></trkpt><trkpt lat="45.7860872" lon="11.9069375"><ele>96.83333333333334</ele><time>2026-04-24T09:28:27.212Z</time></trkpt><trkpt lat="45.7860039" lon="11.9069487"><ele>96.66666666666667</ele><time>2026-04-24T09:28:28.212Z</time></trkpt><trkpt lat="45.7859243" lon="11.9069611"><ele>96.5</ele><time>2026-04-24T09:28:29.212Z</time></trkpt><trkpt lat="45.7858413" lon="11.906974"><ele>96.33333333333334</ele><time>2026-04-24T09:28:30.212Z</time></trkpt><trkpt lat="45.7857564" lon="11.9069917"><ele>96.16666666666667</ele><time>2026-04-24T09:28:31.212Z</time></trkpt><trkpt lat="45.7856713" lon="11.9070116"><ele>96.0</ele><time>2026-04-24T09:28:32.212Z</time></trkpt><trkpt lat="45.7855831" lon="11.9070247"><ele>96.0</ele><time>2026-04-24T09:28:33.212Z</time></trkpt><trkpt lat="45.7855037" lon="11.9070445"><ele>96.0</ele><time>2026-04-24T09:28:34.212Z</time></trkpt><trkpt lat="45.785421" lon="11.9070585"><ele>96.0</ele><time>2026-04-24T09:28:35.212Z</time></trkpt><trkpt lat="45.7853341" lon="11.9070701"><ele>96.0</ele><time>2026-04-24T09:28:36.212Z</time></trkpt><trkpt lat="45.7852493" lon="11.9070763"><ele>96.0</ele><time>2026-04-24T09:28:37.212Z</time></trkpt><trkpt lat="45.7851671" lon="11.9070901"><ele>96.0</ele><time>2026-04-24T09:28:38.212Z</time></trkpt><trkpt lat="45.7850857" lon="11.9071063"><ele>95.66666666666667</ele><time>2026-04-24T09:28:39.212Z</time></trkpt><trkpt lat="45.7850021" lon="11.9071194"><ele>95.33333333333333</ele><time>2026-04-24T09:28:40.212Z</time></trkpt><trkpt lat="45.7849213" lon="11.907137"><ele>95.0</ele><time>2026-04-24T09:28:41.212Z</time></trkpt><trkpt lat="45.7848461" lon="11.9071469"><ele>94.66666666666666</ele><time>2026-04-24T09:28:42.212Z</time></trkpt><trkpt lat="45.784769" lon="11.9071568"><ele>94.33333333333333</ele><time>2026-04-24T09:28:43.212Z</time></trkpt><trkpt lat="45.7846907" lon="11.9071702"><ele>94.0</ele><time>2026-04-24T09:28:44.212Z</time></trkpt><trkpt lat="45.7846139" lon="11.9071771"><ele>94.0</ele><time>2026-04-24T09:28:45.212Z</time></trkpt><trkpt lat="45.7845354" lon="11.9071909"><ele>94.0</ele><time>2026-04-24T09:28:46.212Z</time></trkpt><trkpt lat="45.7844524" lon="11.9072057"><ele>94.0</ele><time>2026-04-24T09:28:47.213Z</time></trkpt><trkpt lat="45.7843711" lon="11.9072221"><ele>94.0</ele><time>2026-04-24T09:28:48.212Z</time></trkpt><trkpt lat="45.7842936" lon="11.9072353"><ele>94.0</ele><time>2026-04-24T09:28:49.212Z</time></trkpt><trkpt lat="45.7842161" lon="11.9072493"><ele>94.0</ele><time>2026-04-24T09:28:50.213Z</time></trkpt><trkpt lat="45.7841376" lon="11.9072705"><ele>93.83333333333333</ele><time>2026-04-24T09:28:51.212Z</time></trkpt><trkpt lat="45.7840605" lon="11.9072838"><ele>93.66666666666666</ele><time>2026-04-24T09:28:52.212Z</time></trkpt><trkpt lat="45.7839866" lon="11.9072967"><ele>93.5</ele><time>2026-04-24T09:28:53.212Z</time></trkpt><trkpt lat="45.7839105" lon="11.9073154"><ele>93.33333333333333</ele><time>2026-04-24T09:28:54.212Z</time></trkpt><trkpt lat="45.7838337" lon="11.9073361"><ele>93.16666666666667</ele><time>2026-04-24T09:28:55.213Z</time></trkpt><trkpt lat="45.783753" lon="11.9073595"><ele>93.0</ele><time>2026-04-24T09:28:56.213Z</time></trkpt><trkpt lat="45.783675" lon="11.9073807"><ele>93.0</ele><time>2026-04-24T09:28:57.212Z</time></trkpt><trkpt lat="45.7835959" lon="11.9074064"><ele>93.0</ele><time>2026-04-24T09:28:58.212Z</time></trkpt><trkpt lat="45.7835204" lon="11.9074321"><ele>93.0</ele><time>2026-04-24T09:28:59.212Z</time></trkpt><trkpt lat="45.7834421" lon="11.9074613"><ele>93.0</ele><time>2026-04-24T09:29:00.212Z</time></trkpt><trkpt lat="45.783364" lon="11.9074947"><ele>93.0</ele><time>2026-04-24T09:29:01.212Z</time></trkpt><trkpt lat="45.7832842" lon="11.9075187"><ele>93.0</ele><time>2026-04-24T09:29:02.212Z</time></trkpt><trkpt lat="45.7832042" lon="11.9075438"><ele>93.0</ele><time>2026-04-24T09:29:03.213Z</time></trkpt><trkpt lat="45.7831262" lon="11.9075819"><ele>93.0</ele><time>2026-04-24T09:29:04.212Z</time></trkpt><trkpt lat="45.7830485" lon="11.9076098"><ele>93.0</ele><time>2026-04-24T09:29:05.212Z</time></trkpt><trkpt lat="45.7829675" lon="11.9076367"><ele>93.0</ele><time>2026-04-24T09:29:06.212Z</time></trkpt><trkpt lat="45.7828883" lon="11.9076652"><ele>93.0</ele><time>2026-04-24T09:29:07.212Z</time></trkpt><trkpt lat="45.7828083" lon="11.9076983"><ele>93.0</ele><time>2026-04-24T09:29:08.212Z</time></trkpt><trkpt lat="45.7827305" lon="11.9077312"><ele>93.5</ele><time>2026-04-24T09:29:09.212Z</time></trkpt><trkpt lat="45.7826499" lon="11.9077638"><ele>94.0</ele><time>2026-04-24T09:29:10.212Z</time></trkpt><trkpt lat="45.7825717" lon="11.9077934"><ele>94.5</ele><time>2026-04-24T09:29:11.212Z</time></trkpt><trkpt lat="45.7824967" lon="11.9078252"><ele>95.0</ele><time>2026-04-24T09:29:12.213Z</time></trkpt><trkpt lat="45.7824193" lon="11.9078531"><ele>95.5</ele><time>2026-04-24T09:29:13.212Z</time></trkpt><trkpt lat="45.7823441" lon="11.907881"><ele>96.0</ele><time>2026-04-24T09:29:14.212Z</time></trkpt><trkpt lat="45.7822675" lon="11.9079088"><ele>96.0</ele><time>2026-04-24T09:29:15.213Z</time></trkpt><trkpt lat="45.7821956" lon="11.9079367"><ele>96.0</ele><time>2026-04-24T09:29:16.212Z</time></trkpt><trkpt lat="45.782122" lon="11.9079622"><ele>96.0</ele><time>2026-04-24T09:29:17.212Z</time></trkpt><trkpt lat="45.7820495" lon="11.9079894"><ele>96.0</ele><time>2026-04-24T09:29:18.212Z</time></trkpt><trkpt lat="45.7819736" lon="11.9080191"><ele>96.0</ele><time>2026-04-24T09:29:19.212Z</time></trkpt><trkpt lat="45.7819056" lon="11.9080459"><ele>96.0</ele><time>2026-04-24T09:29:20.212Z</time></trkpt><trkpt lat="45.7818327" lon="11.9080743"><ele>95.66666666666667</ele><time>2026-04-24T09:29:21.212Z</time></trkpt><trkpt lat="45.7817616" lon="11.9080992"><ele>95.33333333333333</ele><time>2026-04-24T09:29:22.212Z</time></trkpt><trkpt lat="45.7816881" lon="11.9081243"><ele>95.0</ele><time>2026-04-24T09:29:23.213Z</time></trkpt><trkpt lat="45.7816085" lon="11.9081521"><ele>94.66666666666666</ele><time>2026-04-24T09:29:24.212Z</time></trkpt><trkpt lat="45.7815354" lon="11.90818"><ele>94.33333333333333</ele><time>2026-04-24T09:29:25.212Z</time></trkpt><trkpt lat="45.7814614" lon="11.9082088"><ele>94.0</ele><time>2026-04-24T09:29:26.213Z</time></trkpt><trkpt lat="45.7813852" lon="11.9082364"><ele>94.0</ele><time>2026-04-24T09:29:27.212Z</time></trkpt><trkpt lat="45.7813116" lon="11.9082639"><ele>94.0</ele><time>2026-04-24T09:29:28.212Z</time></trkpt><trkpt lat="45.7812362" lon="11.9082939"><ele>94.0</ele><time>2026-04-24T09:29:29.212Z</time></trkpt><trkpt lat="45.7811651" lon="11.9083205"><ele>94.0</ele><time>2026-04-24T09:29:30.212Z</time></trkpt><trkpt lat="45.7810911" lon="11.9083458"><ele>94.0</ele><time>2026-04-24T09:29:31.212Z</time></trkpt><trkpt lat="45.7810213" lon="11.9083721"><ele>94.0</ele><time>2026-04-24T09:29:32.212Z</time></trkpt><trkpt lat="45.7809465" lon="11.9084006"><ele>93.57142857142857</ele><time>2026-04-24T09:29:33.212Z</time></trkpt><trkpt lat="45.7808748" lon="11.9084234"><ele>93.14285714285714</ele><time>2026-04-24T09:29:34.212Z</time></trkpt><trkpt lat="45.7808037" lon="11.9084535"><ele>92.71428571428572</ele><time>2026-04-24T09:29:35.213Z</time></trkpt><trkpt lat="45.7807325" lon="11.9084791"><ele>92.28571428571428</ele><time>2026-04-24T09:29:36.212Z</time></trkpt><trkpt lat="45.7806637" lon="11.9085086"><ele>91.85714285714286</ele><time>2026-04-24T09:29:37.212Z</time></trkpt><trkpt lat="45.7805952" lon="11.9085376"><ele>91.42857142857143</ele><time>2026-04-24T09:29:38.212Z</time></trkpt><trkpt lat="45.7805266" lon="11.908566"><ele>91.0</ele><time>2026-04-24T09:29:39.212Z</time></trkpt><trkpt lat="45.7804545" lon="11.9085908"><ele>91.0</ele><time>2026-04-24T09:29:40.212Z</time></trkpt><trkpt lat="45.7803836" lon="11.9086135"><ele>91.0</ele><time>2026-04-24T09:29:41.212Z</time></trkpt><trkpt lat="45.7803122" lon="11.9086342"><ele>91.0</ele><time>2026-04-24T09:29:42.213Z</time></trkpt><trkpt lat="45.7802398" lon="11.9086581"><ele>91.0</ele><time>2026-04-24T09:29:43.212Z</time></trkpt><trkpt lat="45.7801678" lon="11.9086792"><ele>91.0</ele><time>2026-04-24T09:29:44.212Z</time></trkpt><trkpt lat="45.7800988" lon="11.9086975"><ele>91.0</ele><time>2026-04-24T09:29:45.213Z</time></trkpt><trkpt lat="45.7800251" lon="11.9087134"><ele>91.0</ele><time>2026-04-24T09:29:46.213Z</time></trkpt><trkpt lat="45.779954" lon="11.9087314"><ele>90.85714285714286</ele><time>2026-04-24T09:29:47.212Z</time></trkpt><trkpt lat="45.7798796" lon="11.9087488"><ele>90.71428571428572</ele><time>2026-04-24T09:29:48.212Z</time></trkpt><trkpt lat="45.7798077" lon="11.9087672"><ele>90.57142857142857</ele><time>2026-04-24T09:29:49.212Z</time></trkpt><trkpt lat="45.7797347" lon="11.9087828"><ele>90.42857142857143</ele><time>2026-04-24T09:29:50.212Z</time></trkpt><trkpt lat="45.7796633" lon="11.9087904"><ele>90.28571428571429</ele><time>2026-04-24T09:29:51.212Z</time></trkpt><trkpt lat="45.7795851" lon="11.9088009"><ele>90.14285714285714</ele><time>2026-04-24T09:29:52.212Z</time></trkpt><trkpt lat="45.7795103" lon="11.9088117"><ele>90.0</ele><time>2026-04-24T09:29:53.212Z</time></trkpt><trkpt lat="45.7794385" lon="11.9088233"><ele>90.0</ele><time>2026-04-24T09:29:54.213Z</time></trkpt><trkpt lat="45.7793656" lon="11.9088344"><ele>90.0</ele><time>2026-04-24T09:29:55.212Z</time></trkpt><trkpt lat="45.7792904" lon="11.9088422"><ele>90.0</ele><time>2026-04-24T09:29:56.213Z</time></trkpt><trkpt lat="45.7792157" lon="11.9088518"><ele>90.0</ele><time>2026-04-24T09:29:57.212Z</time></trkpt><trkpt lat="45.7791412" lon="11.9088588"><ele>90.0</ele><time>2026-04-24T09:29:58.212Z</time></trkpt><trkpt lat="45.7790682" lon="11.908865"><ele>90.0</ele><time>2026-04-24T09:29:59.212Z</time></trkpt><trkpt lat="45.7789903" lon="11.9088763"><ele>89.85714285714285</ele><time>2026-04-24T09:30:00.212Z</time></trkpt><trkpt lat="45.778916" lon="11.9088867"><ele>89.71428571428572</ele><time>2026-04-24T09:30:01.213Z</time></trkpt><trkpt lat="45.7788417" lon="11.9088942"><ele>89.57142857142857</ele><time>2026-04-24T09:30:02.212Z</time></trkpt><trkpt lat="45.7787708" lon="11.9089042"><ele>89.42857142857142</ele><time>2026-04-24T09:30:03.212Z</time></trkpt><trkpt lat="45.7786999" lon="11.9089118"><ele>89.28571428571428</ele><time>2026-04-24T09:30:04.212Z</time></trkpt><trkpt lat="45.7786261" lon="11.9089214"><ele>89.14285714285714</ele><time>2026-04-24T09:30:05.212Z</time></trkpt><trkpt lat="45.7785504" lon="11.9089315"><ele>89.0</ele><time>2026-04-24T09:30:06.212Z</time></trkpt><trkpt lat="45.7784766" lon="11.9089405"><ele>88.85714285714285</ele><time>2026-04-24T09:30:07.213Z</time></trkpt><trkpt lat="45.7784057" lon="11.9089499"><ele>88.71428571428571</ele><time>2026-04-24T09:30:08.212Z</time></trkpt><trkpt lat="45.7783344" lon="11.9089623"><ele>88.57142857142857</ele><time>2026-04-24T09:30:09.212Z</time></trkpt><trkpt lat="45.778261" lon="11.9089737"><ele>88.42857142857142</ele><time>2026-04-24T09:30:10.212Z</time></trkpt><trkpt lat="45.7781861" lon="11.9089809"><ele>88.28571428571428</ele><time>2026-04-24T09:30:11.212Z</time></trkpt><trkpt lat="45.7781108" lon="11.9089837"><ele>88.14285714285714</ele><time>2026-04-24T09:30:12.212Z</time></trkpt><trkpt lat="45.7780351" lon="11.9089948"><ele>88.0</ele><time>2026-04-24T09:30:13.211Z</time></trkpt><trkpt lat="45.7779596" lon="11.9090036"><ele>88.0</ele><time>2026-04-24T09:30:14.211Z</time></trkpt><trkpt lat="45.777885" lon="11.9090105"><ele>88.0</ele><time>2026-04-24T09:30:15.211Z</time></trkpt><trkpt lat="45.777812" lon="11.9090213"><ele>88.0</ele><time>2026-04-24T09:30:16.211Z</time></trkpt><trkpt lat="45.7777391" lon="11.909033"><ele>88.0</ele><time>2026-04-24T09:30:17.212Z</time></trkpt><trkpt lat="45.777669" lon="11.9090421"><ele>88.0</ele><time>2026-04-24T09:30:18.211Z</time></trkpt><trkpt lat="45.777601" lon="11.9090525"><ele>88.0</ele><time>2026-04-24T09:30:19.211Z</time></trkpt><trkpt lat="45.7775317" lon="11.9090579"><ele>88.0</ele><time>2026-04-24T09:30:20.211Z</time></trkpt><trkpt lat="45.7774614" lon="11.9090661"><ele>88.14285714285714</ele><time>2026-04-24T09:30:21.211Z</time></trkpt><trkpt lat="45.7773977" lon="11.9090739"><ele>88.28571428571428</ele><time>2026-04-24T09:30:22.211Z</time></trkpt><trkpt lat="45.7773284" lon="11.9090816"><ele>88.42857142857142</ele><time>2026-04-24T09:30:23.211Z</time></trkpt><trkpt lat="45.7772567" lon="11.9090851"><ele>88.57142857142857</ele><time>2026-04-24T09:30:24.211Z</time></trkpt><trkpt lat="45.7771867" lon="11.9090974"><ele>88.71428571428571</ele><time>2026-04-24T09:30:25.211Z</time></trkpt><trkpt lat="45.7771208" lon="11.9091048"><ele>88.85714285714285</ele><time>2026-04-24T09:30:26.211Z</time></trkpt><trkpt lat="45.7770527" lon="11.9091108"><ele>89.0</ele><time>2026-04-24T09:30:27.211Z</time></trkpt><trkpt lat="45.7769818" lon="11.9091213"><ele>88.99999999999999</ele><time>2026-04-24T09:30:28.211Z</time></trkpt><trkpt lat="45.7769141" lon="11.9091251"><ele>89.0</ele><time>2026-04-24T09:30:29.212Z</time></trkpt><trkpt lat="45.7768447" lon="11.9091328"><ele>89.0</ele><time>2026-04-24T09:30:30.211Z</time></trkpt><trkpt lat="45.7767745" lon="11.9091379"><ele>89.0</ele><time>2026-04-24T09:30:31.212Z</time></trkpt><trkpt lat="45.7767062" lon="11.9091446"><ele>89.0</ele><time>2026-04-24T09:30:32.211Z</time></trkpt><trkpt lat="45.776634" lon="11.9091522"><ele>88.99999999999999</ele><time>2026-04-24T09:30:33.211Z</time></trkpt><trkpt lat="45.7765637" lon="11.9091621"><ele>89.0</ele><time>2026-04-24T09:30:34.212Z</time></trkpt><trkpt lat="45.7764932" lon="11.9091731"><ele>88.99999999999999</ele><time>2026-04-24T09:30:35.211Z</time></trkpt><trkpt lat="45.7764268" lon="11.909182"><ele>89.0</ele><time>2026-04-24T09:30:36.211Z</time></trkpt><trkpt lat="45.7763585" lon="11.9091862"><ele>89.0</ele><time>2026-04-24T09:30:37.211Z</time></trkpt><trkpt lat="45.7762932" lon="11.9091996"><ele>89.0</ele><time>2026-04-24T09:30:38.211Z</time></trkpt><trkpt lat="45.7762296" lon="11.9092074"><ele>89.0</ele><time>2026-04-24T09:30:39.211Z</time></trkpt><trkpt lat="45.7761663" lon="11.9092149"><ele>88.99999999999999</ele><time>2026-04-24T09:30:40.211Z</time></trkpt><trkpt lat="45.7761031" lon="11.9092254"><ele>89.0</ele><time>2026-04-24T09:30:41.212Z</time></trkpt><trkpt lat="45.7759799" lon="11.9092401"><ele>88.6</ele><time>2026-04-24T09:30:43.211Z</time></trkpt><trkpt lat="45.7759151" lon="11.9092472"><ele>88.2</ele><time>2026-04-24T09:30:44.212Z</time></trkpt><trkpt lat="45.7757939" lon="11.9092572"><ele>87.8</ele><time>2026-04-24T09:30:46.211Z</time></trkpt><trkpt lat="45.7756748" lon="11.9092716"><ele>87.39999999999999</ele><time>2026-04-24T09:30:48.211Z</time></trkpt><trkpt lat="45.7755661" lon="11.9092892"><ele>87.0</ele><time>2026-04-24T09:30:50.212Z</time></trkpt><trkpt lat="45.7754887" lon="11.9092995"><ele>87.0</ele><time>2026-04-24T09:30:52.211Z</time></trkpt><trkpt lat="45.775432" lon="11.9093771"><ele>87.0</ele><time>2026-04-24T09:31:21.211Z</time></trkpt><trkpt lat="45.7754085" lon="11.9094754"><ele>87.0</ele><time>2026-04-24T09:31:24.212Z</time></trkpt><trkpt lat="45.7753423" lon="11.9095314"><ele>87.0</ele><time>2026-04-24T09:31:27.211Z</time></trkpt><trkpt lat="45.7752744" lon="11.9095319"><ele>87.0</ele><time>2026-04-24T09:31:29.211Z</time></trkpt><trkpt lat="45.7751984" lon="11.9095404"><ele>87.0</ele><time>2026-04-24T09:31:31.211Z</time></trkpt><trkpt lat="45.7751192" lon="11.9095473"><ele>87.0</ele><time>2026-04-24T09:31:33.211Z</time></trkpt><trkpt lat="45.7750243" lon="11.9095569"><ele>87.0</ele><time>2026-04-24T09:31:35.211Z</time></trkpt><trkpt lat="45.7749268" lon="11.909576"><ele>87.0</ele><time>2026-04-24T09:31:37.211Z</time></trkpt><trkpt lat="45.7748212" lon="11.9095855"><ele>87.0</ele><time>2026-04-24T09:31:39.211Z</time></trkpt><trkpt lat="45.7747115" lon="11.909606"><ele>87.0</ele><time>2026-04-24T09:31:41.211Z</time></trkpt><trkpt lat="45.7746043" lon="11.9096171"><ele>87.0</ele><time>2026-04-24T09:31:43.212Z</time></trkpt><trkpt lat="45.7744966" lon="11.9096293"><ele>87.0</ele><time>2026-04-24T09:31:45.211Z</time></trkpt><trkpt lat="45.7743897" lon="11.9096415"><ele>87.0</ele><time>2026-04-24T09:31:47.212Z</time></trkpt><trkpt lat="45.7742924" lon="11.9096455"><ele>87.0</ele><time>2026-04-24T09:31:49.211Z</time></trkpt><trkpt lat="45.7741809" lon="11.9096676"><ele>87.0</ele><time>2026-04-24T09:31:51.212Z</time></trkpt><trkpt lat="45.7740726" lon="11.9096761"><ele>87.0</ele><time>2026-04-24T09:31:53.212Z</time></trkpt><trkpt lat="45.7739713" lon="11.9096905"><ele>87.0</ele><time>2026-04-24T09:31:55.211Z</time></trkpt><trkpt lat="45.7738651" lon="11.9097051"><ele>87.0</ele><time>2026-04-24T09:31:57.212Z</time></trkpt><trkpt lat="45.7737599" lon="11.9097211"><ele>87.0</ele><time>2026-04-24T09:31:59.211Z</time></trkpt><trkpt lat="45.7736601" lon="11.9096734"><ele>87.0</ele><time>2026-04-24T09:32:01.211Z</time></trkpt><trkpt lat="45.7735532" lon="11.9096634"><ele>87.25</ele><time>2026-04-24T09:32:03.211Z</time></trkpt><trkpt lat="45.773445" lon="11.9096775"><ele>87.5</ele><time>2026-04-24T09:32:05.211Z</time></trkpt><trkpt lat="45.77333" lon="11.9096922"><ele>87.75</ele><time>2026-04-24T09:32:07.211Z</time></trkpt><trkpt lat="45.773216" lon="11.909709"><ele>88.0</ele><time>2026-04-24T09:32:09.211Z</time></trkpt><trkpt lat="45.7730951" lon="11.9097271"><ele>88.0</ele><time>2026-04-24T09:32:11.211Z</time></trkpt><trkpt lat="45.773031" lon="11.9097357"><ele>88.0</ele><time>2026-04-24T09:32:12.211Z</time></trkpt><trkpt lat="45.7729149" lon="11.9097494"><ele>88.0</ele><time>2026-04-24T09:32:14.212Z</time></trkpt><trkpt lat="45.7728033" lon="11.9097642"><ele>88.0</ele><time>2026-04-24T09:32:16.211Z</time></trkpt><trkpt lat="45.772688" lon="11.9097814"><ele>88.0</ele><time>2026-04-24T09:32:18.211Z</time></trkpt><trkpt lat="45.7725806" lon="11.9098124"><ele>88.0</ele><time>2026-04-24T09:32:20.211Z</time></trkpt><trkpt lat="45.7724801" lon="11.909835"><ele>88.0</ele><time>2026-04-24T09:32:22.211Z</time></trkpt><trkpt lat="45.7723801" lon="11.9098513"><ele>88.0</ele><time>2026-04-24T09:32:24.211Z</time></trkpt><trkpt lat="45.7722804" lon="11.9098585"><ele>88.0</ele><time>2026-04-24T09:32:26.211Z</time></trkpt><trkpt lat="45.7721867" lon="11.9098612"><ele>88.0</ele><time>2026-04-24T09:32:28.211Z</time></trkpt><trkpt lat="45.7720943" lon="11.9098635"><ele>88.0</ele><time>2026-04-24T09:32:30.211Z</time></trkpt><trkpt lat="45.772004" lon="11.9098889"><ele>88.0</ele><time>2026-04-24T09:32:32.211Z</time></trkpt><trkpt lat="45.7719229" lon="11.9099348"><ele>88.0</ele><time>2026-04-24T09:32:34.211Z</time></trkpt><trkpt lat="45.7718483" lon="11.9100157"><ele>88.0</ele><time>2026-04-24T09:32:36.212Z</time></trkpt><trkpt lat="45.7717728" lon="11.910042"><ele>88.0</ele><time>2026-04-24T09:32:38.212Z</time></trkpt><trkpt lat="45.7717083" lon="11.9100722"><ele>88.0</ele><time>2026-04-24T09:32:40.212Z</time></trkpt><trkpt lat="45.771679" lon="11.9101721"><ele>87.60000000000001</ele><time>2026-04-24T09:32:42.211Z</time></trkpt><trkpt lat="45.7716632" lon="11.910306"><ele>87.2</ele><time>2026-04-24T09:32:44.212Z</time></trkpt><trkpt lat="45.771663" lon="11.9104508"><ele>86.8</ele><time>2026-04-24T09:32:46.211Z</time></trkpt><trkpt lat="45.7716823" lon="11.910598"><ele>86.4</ele><time>2026-04-24T09:32:48.211Z</time></trkpt><trkpt lat="45.7717097" lon="11.9107512"><ele>86.0</ele><time>2026-04-24T09:32:50.211Z</time></trkpt><trkpt lat="45.7717259" lon="11.9109106"><ele>86.0</ele><time>2026-04-24T09:32:52.212Z</time></trkpt><trkpt lat="45.7717565" lon="11.9110692"><ele>86.0</ele><time>2026-04-24T09:32:54.212Z</time></trkpt><trkpt lat="45.7717948" lon="11.9112284"><ele>86.0</ele><time>2026-04-24T09:32:56.211Z</time></trkpt><trkpt lat="45.7718408" lon="11.9113861"><ele>86.0</ele><time>2026-04-24T09:32:58.211Z</time></trkpt><trkpt lat="45.7718871" lon="11.911545"><ele>86.0</ele><time>2026-04-24T09:33:00.211Z</time></trkpt><trkpt lat="45.77191" lon="11.9116344"><ele>86.0</ele><time>2026-04-24T09:33:01.211Z</time></trkpt><trkpt lat="45.7719515" lon="11.9117974"><ele>86.0</ele><time>2026-04-24T09:33:03.211Z</time></trkpt><trkpt lat="45.7719946" lon="11.9119542"><ele>86.0</ele><time>2026-04-24T09:33:05.211Z</time></trkpt><trkpt lat="45.7720516" lon="11.9121068"><ele>86.0</ele><time>2026-04-24T09:33:07.211Z</time></trkpt><trkpt lat="45.7720764" lon="11.9121916"><ele>86.0</ele><time>2026-04-24T09:33:08.211Z</time></trkpt><trkpt lat="45.7721022" lon="11.9122765"><ele>86.0</ele><time>2026-04-24T09:33:09.211Z</time></trkpt><trkpt lat="45.7721529" lon="11.9124402"><ele>86.0</ele><time>2026-04-24T09:33:11.211Z</time></trkpt><trkpt lat="45.7722185" lon="11.9125936"><ele>86.0</ele><time>2026-04-24T09:33:13.211Z</time></trkpt><trkpt lat="45.7722537" lon="11.912671"><ele>86.0</ele><time>2026-04-24T09:33:14.211Z</time></trkpt><trkpt lat="45.7722928" lon="11.9127464"><ele>86.0</ele><time>2026-04-24T09:33:15.211Z</time></trkpt><trkpt lat="45.772329" lon="11.9128251"><ele>86.00000000000001</ele><time>2026-04-24T09:33:16.212Z</time></trkpt><trkpt lat="45.7723677" lon="11.912901"><ele>86.0</ele><time>2026-04-24T09:33:17.211Z</time></trkpt><trkpt lat="45.7724071" lon="11.9129727"><ele>86.0</ele><time>2026-04-24T09:33:18.212Z</time></trkpt><trkpt lat="45.7724453" lon="11.9130471"><ele>86.0</ele><time>2026-04-24T09:33:19.211Z</time></trkpt><trkpt lat="45.7724851" lon="11.9131208"><ele>86.0</ele><time>2026-04-24T09:33:20.211Z</time></trkpt><trkpt lat="45.772523" lon="11.9131935"><ele>86.00000000000001</ele><time>2026-04-24T09:33:21.212Z</time></trkpt><trkpt lat="45.7725635" lon="11.9132662"><ele>86.0</ele><time>2026-04-24T09:33:22.211Z</time></trkpt><trkpt lat="45.7726264" lon="11.9134156"><ele>86.0</ele><time>2026-04-24T09:33:24.211Z</time></trkpt><trkpt lat="45.7726934" lon="11.9135671"><ele>86.0</ele><time>2026-04-24T09:33:26.211Z</time></trkpt><trkpt lat="45.7727575" lon="11.9137156"><ele>86.0</ele><time>2026-04-24T09:33:28.211Z</time></trkpt><trkpt lat="45.7728191" lon="11.9138667"><ele>86.0</ele><time>2026-04-24T09:33:30.211Z</time></trkpt><trkpt lat="45.7728783" lon="11.9140219"><ele>86.0</ele><time>2026-04-24T09:33:32.211Z</time></trkpt><trkpt lat="45.7729289" lon="11.9141771"><ele>86.0</ele><time>2026-04-24T09:33:34.212Z</time></trkpt><trkpt lat="45.7729735" lon="11.9143326"><ele>86.0</ele><time>2026-04-24T09:33:36.211Z</time></trkpt><trkpt lat="45.7730177" lon="11.9144849"><ele>86.0</ele><time>2026-04-24T09:33:38.211Z</time></trkpt><trkpt lat="45.7730603" lon="11.9146341"><ele>86.0</ele><time>2026-04-24T09:33:40.212Z</time></trkpt><trkpt lat="45.7731032" lon="11.9147793"><ele>86.0</ele><time>2026-04-24T09:33:42.211Z</time></trkpt><trkpt lat="45.7731591" lon="11.9149143"><ele>86.0</ele><time>2026-04-24T09:33:44.212Z</time></trkpt><trkpt lat="45.7732238" lon="11.9150407"><ele>86.0</ele><time>2026-04-24T09:33:46.211Z</time></trkpt><trkpt lat="45.7732954" lon="11.915165"><ele>86.0</ele><time>2026-04-24T09:33:48.211Z</time></trkpt><trkpt lat="45.7733673" lon="11.9152892"><ele>86.0</ele><time>2026-04-24T09:33:50.21Z</time></trkpt><trkpt lat="45.7734357" lon="11.9154031"><ele>86.0</ele><time>2026-04-24T09:33:52.21Z</time></trkpt><trkpt lat="45.7735015" lon="11.9155129"><ele>86.0</ele><time>2026-04-24T09:33:54.21Z</time></trkpt><trkpt lat="45.7735827" lon="11.9156115"><ele>86.0</ele><time>2026-04-24T09:33:56.21Z</time></trkpt><trkpt lat="45.7736746" lon="11.9157053"><ele>86.0</ele><time>2026-04-24T09:33:58.21Z</time></trkpt><trkpt lat="45.7737641" lon="11.9157997"><ele>86.0</ele><time>2026-04-24T09:34:00.211Z</time></trkpt><trkpt lat="45.7738538" lon="11.9158904"><ele>86.0</ele><time>2026-04-24T09:34:02.21Z</time></trkpt><trkpt lat="45.773943" lon="11.9159943"><ele>86.0</ele><time>2026-04-24T09:34:04.21Z</time></trkpt><trkpt lat="45.7740252" lon="11.9161015"><ele>86.0</ele><time>2026-04-24T09:34:06.211Z</time></trkpt><trkpt lat="45.7741004" lon="11.9162157"><ele>86.0</ele><time>2026-04-24T09:34:08.21Z</time></trkpt><trkpt lat="45.7741771" lon="11.9163367"><ele>86.19999999999999</ele><time>2026-04-24T09:34:10.21Z</time></trkpt><trkpt lat="45.7742436" lon="11.9164694"><ele>86.39999999999999</ele><time>2026-04-24T09:34:12.21Z</time></trkpt><trkpt lat="45.7743054" lon="11.9166076"><ele>86.6</ele><time>2026-04-24T09:34:14.21Z</time></trkpt><trkpt lat="45.774361" lon="11.9167413"><ele>86.8</ele><time>2026-04-24T09:34:16.21Z</time></trkpt><trkpt lat="45.7744051" lon="11.9168725"><ele>87.0</ele><time>2026-04-24T09:34:18.21Z</time></trkpt><trkpt lat="45.7744474" lon="11.9170146"><ele>87.19999999999999</ele><time>2026-04-24T09:34:20.21Z</time></trkpt><trkpt lat="45.7744888" lon="11.9171529"><ele>87.4</ele><time>2026-04-24T09:34:22.211Z</time></trkpt><trkpt lat="45.7745357" lon="11.9172986"><ele>87.6</ele><time>2026-04-24T09:34:24.21Z</time></trkpt><trkpt lat="45.7745783" lon="11.9174355"><ele>87.80000000000001</ele><time>2026-04-24T09:34:26.211Z</time></trkpt><trkpt lat="45.7746232" lon="11.9175665"><ele>88.0</ele><time>2026-04-24T09:34:28.211Z</time></trkpt><trkpt lat="45.7746829" lon="11.9176592"><ele>88.0</ele><time>2026-04-24T09:34:30.21Z</time></trkpt><trkpt lat="45.7747528" lon="11.9177086"><ele>88.0</ele><time>2026-04-24T09:34:32.21Z</time></trkpt><trkpt lat="45.7748365" lon="11.9177017"><ele>88.0</ele><time>2026-04-24T09:34:34.21Z</time></trkpt><trkpt lat="45.7749019" lon="11.9176825"><ele>88.0</ele><time>2026-04-24T09:34:36.21Z</time></trkpt><trkpt lat="45.7748231" lon="11.9176794"><ele>88.0</ele><time>2026-04-24T09:34:41.21Z</time></trkpt><trkpt lat="45.7747573" lon="11.917727"><ele>88.0</ele><time>2026-04-24T09:34:43.21Z</time></trkpt><trkpt lat="45.7746705" lon="11.9177838"><ele>88.0</ele><time>2026-04-24T09:34:45.21Z</time></trkpt><trkpt lat="45.7745756" lon="11.9178362"><ele>88.0</ele><time>2026-04-24T09:34:47.21Z</time></trkpt><trkpt lat="45.7744763" lon="11.9178906"><ele>88.0</ele><time>2026-04-24T09:34:49.21Z</time></trkpt><trkpt lat="45.7743652" lon="11.9179515"><ele>88.0</ele><time>2026-04-24T09:34:51.21Z</time></trkpt><trkpt lat="45.7742542" lon="11.9180102"><ele>88.0</ele><time>2026-04-24T09:34:53.211Z</time></trkpt><trkpt lat="45.7741371" lon="11.9180669"><ele>88.0</ele><time>2026-04-24T09:34:55.21Z</time></trkpt><trkpt lat="45.7740169" lon="11.9181186"><ele>88.0</ele><time>2026-04-24T09:34:57.21Z</time></trkpt><trkpt lat="45.7739538" lon="11.9181413"><ele>88.0</ele><time>2026-04-24T09:34:58.21Z</time></trkpt><trkpt lat="45.7738303" lon="11.9181788"><ele>88.0</ele><time>2026-04-24T09:35:00.21Z</time></trkpt><trkpt lat="45.7737691" lon="11.9182055"><ele>88.0</ele><time>2026-04-24T09:35:01.21Z</time></trkpt><trkpt lat="45.7737023" lon="11.9182352"><ele>88.0</ele><time>2026-04-24T09:35:02.21Z</time></trkpt><trkpt lat="45.7736373" lon="11.918273"><ele>88.0</ele><time>2026-04-24T09:35:03.211Z</time></trkpt><trkpt lat="45.7735665" lon="11.9183101"><ele>88.0</ele><time>2026-04-24T09:35:04.21Z</time></trkpt><trkpt lat="45.7734973" lon="11.9183495"><ele>88.0</ele><time>2026-04-24T09:35:05.21Z</time></trkpt><trkpt lat="45.7734315" lon="11.9183843"><ele>88.0</ele><time>2026-04-24T09:35:06.21Z</time></trkpt><trkpt lat="45.7733658" lon="11.918418"><ele>88.0</ele><time>2026-04-24T09:35:07.21Z</time></trkpt><trkpt lat="45.7732978" lon="11.9184533"><ele>88.0</ele><time>2026-04-24T09:35:08.21Z</time></trkpt><trkpt lat="45.7732316" lon="11.9184886"><ele>88.14285714285714</ele><time>2026-04-24T09:35:09.21Z</time></trkpt><trkpt lat="45.7731638" lon="11.9185282"><ele>88.28571428571428</ele><time>2026-04-24T09:35:10.21Z</time></trkpt><trkpt lat="45.7730974" lon="11.9185652"><ele>88.42857142857142</ele><time>2026-04-24T09:35:11.211Z</time></trkpt><trkpt lat="45.7730296" lon="11.9185994"><ele>88.57142857142857</ele><time>2026-04-24T09:35:12.21Z</time></trkpt><trkpt lat="45.7729598" lon="11.9186374"><ele>88.71428571428571</ele><time>2026-04-24T09:35:13.21Z</time></trkpt><trkpt lat="45.7728938" lon="11.9186704"><ele>88.85714285714285</ele><time>2026-04-24T09:35:14.211Z</time></trkpt><trkpt lat="45.7728262" lon="11.9187021"><ele>89.0</ele><time>2026-04-24T09:35:15.211Z</time></trkpt><trkpt lat="45.7727607" lon="11.918745"><ele>88.99999999999999</ele><time>2026-04-24T09:35:16.21Z</time></trkpt><trkpt lat="45.772698" lon="11.9187905"><ele>89.0</ele><time>2026-04-24T09:35:17.21Z</time></trkpt><trkpt lat="45.7726366" lon="11.9188351"><ele>89.0</ele><time>2026-04-24T09:35:18.21Z</time></trkpt><trkpt lat="45.7725774" lon="11.9188822"><ele>89.0</ele><time>2026-04-24T09:35:19.21Z</time></trkpt><trkpt lat="45.7725209" lon="11.9189305"><ele>89.0</ele><time>2026-04-24T09:35:20.211Z</time></trkpt><trkpt lat="45.7724622" lon="11.9189726"><ele>88.99999999999999</ele><time>2026-04-24T09:35:21.21Z</time></trkpt><trkpt lat="45.7724018" lon="11.9190058"><ele>89.0</ele><time>2026-04-24T09:35:22.21Z</time></trkpt><trkpt lat="45.7723366" lon="11.9190325"><ele>88.85714285714285</ele><time>2026-04-24T09:35:23.21Z</time></trkpt><trkpt lat="45.7722664" lon="11.9190554"><ele>88.71428571428571</ele><time>2026-04-24T09:35:24.211Z</time></trkpt><trkpt lat="45.7721948" lon="11.9190728"><ele>88.57142857142857</ele><time>2026-04-24T09:35:25.21Z</time></trkpt><trkpt lat="45.7721268" lon="11.9190886"><ele>88.42857142857142</ele><time>2026-04-24T09:35:26.21Z</time></trkpt><trkpt lat="45.7720553" lon="11.9190992"><ele>88.28571428571428</ele><time>2026-04-24T09:35:27.21Z</time></trkpt><trkpt lat="45.7719864" lon="11.9191114"><ele>88.14285714285714</ele><time>2026-04-24T09:35:28.21Z</time></trkpt><trkpt lat="45.7719195" lon="11.9191272"><ele>88.0</ele><time>2026-04-24T09:35:29.21Z</time></trkpt><trkpt lat="45.7718509" lon="11.9191404"><ele>88.0</ele><time>2026-04-24T09:35:30.21Z</time></trkpt><trkpt lat="45.7717791" lon="11.9191548"><ele>88.0</ele><time>2026-04-24T09:35:31.21Z</time></trkpt><trkpt lat="45.7717062" lon="11.9191723"><ele>88.0</ele><time>2026-04-24T09:35:32.21Z</time></trkpt><trkpt lat="45.7716411" lon="11.9191853"><ele>88.0</ele><time>2026-04-24T09:35:33.21Z</time></trkpt><trkpt lat="45.7715735" lon="11.9192016"><ele>88.0</ele><time>2026-04-24T09:35:34.211Z</time></trkpt><trkpt lat="45.7715072" lon="11.9192215"><ele>88.0</ele><time>2026-04-24T09:35:35.211Z</time></trkpt><trkpt lat="45.7714391" lon="11.9192401"><ele>88.0</ele><time>2026-04-24T09:35:36.21Z</time></trkpt><trkpt lat="45.7713722" lon="11.9192627"><ele>88.0</ele><time>2026-04-24T09:35:37.211Z</time></trkpt><trkpt lat="45.7713069" lon="11.9192832"><ele>88.0</ele><time>2026-04-24T09:35:38.21Z</time></trkpt><trkpt lat="45.7712403" lon="11.9193035"><ele>88.0</ele><time>2026-04-24T09:35:39.21Z</time></trkpt><trkpt lat="45.7711724" lon="11.9193295"><ele>88.0</ele><time>2026-04-24T09:35:40.21Z</time></trkpt><trkpt lat="45.7711031" lon="11.9193509"><ele>88.0</ele><time>2026-04-24T09:35:41.211Z</time></trkpt><trkpt lat="45.771035" lon="11.9193718"><ele>88.0</ele><time>2026-04-24T09:35:42.21Z</time></trkpt><trkpt lat="45.7709726" lon="11.9193899"><ele>88.0</ele><time>2026-04-24T09:35:43.21Z</time></trkpt><trkpt lat="45.7709084" lon="11.9194072"><ele>87.80000000000001</ele><time>2026-04-24T09:35:44.21Z</time></trkpt><trkpt lat="45.7707856" lon="11.9194412"><ele>87.6</ele><time>2026-04-24T09:35:46.21Z</time></trkpt><trkpt lat="45.7706878" lon="11.9194782"><ele>87.4</ele><time>2026-04-24T09:35:48.21Z</time></trkpt><trkpt lat="45.7706181" lon="11.9195182"><ele>87.19999999999999</ele><time>2026-04-24T09:35:50.21Z</time></trkpt><trkpt lat="45.7705176" lon="11.9195522"><ele>87.0</ele><time>2026-04-24T09:35:52.21Z</time></trkpt><trkpt lat="45.7704026" lon="11.9195639"><ele>87.0</ele><time>2026-04-24T09:35:54.21Z</time></trkpt><trkpt lat="45.7702841" lon="11.9195987"><ele>87.0</ele><time>2026-04-24T09:35:56.21Z</time></trkpt><trkpt lat="45.7702199" lon="11.9196285"><ele>87.0</ele><time>2026-04-24T09:35:57.21Z</time></trkpt><trkpt lat="45.7701534" lon="11.9196546"><ele>87.0</ele><time>2026-04-24T09:35:58.211Z</time></trkpt><trkpt lat="45.770091" lon="11.9196741"><ele>87.0</ele><time>2026-04-24T09:35:59.21Z</time></trkpt><trkpt lat="45.7700283" lon="11.9196941"><ele>87.0</ele><time>2026-04-24T09:36:00.21Z</time></trkpt><trkpt lat="45.7699641" lon="11.919712"><ele>87.14285714285714</ele><time>2026-04-24T09:36:01.211Z</time></trkpt><trkpt lat="45.7698995" lon="11.9197321"><ele>87.28571428571429</ele><time>2026-04-24T09:36:02.21Z</time></trkpt><trkpt lat="45.7698367" lon="11.9197561"><ele>87.42857142857143</ele><time>2026-04-24T09:36:03.21Z</time></trkpt><trkpt lat="45.7697733" lon="11.919788"><ele>87.57142857142857</ele><time>2026-04-24T09:36:04.211Z</time></trkpt><trkpt lat="45.7697072" lon="11.9198153"><ele>87.71428571428571</ele><time>2026-04-24T09:36:05.21Z</time></trkpt><trkpt lat="45.7696414" lon="11.9198377"><ele>87.85714285714286</ele><time>2026-04-24T09:36:06.21Z</time></trkpt><trkpt lat="45.7695734" lon="11.9198592"><ele>88.0</ele><time>2026-04-24T09:36:07.211Z</time></trkpt><trkpt lat="45.7695082" lon="11.9198878"><ele>88.0</ele><time>2026-04-24T09:36:08.211Z</time></trkpt><trkpt lat="45.7694461" lon="11.9199196"><ele>88.0</ele><time>2026-04-24T09:36:09.21Z</time></trkpt><trkpt lat="45.7693824" lon="11.9199493"><ele>88.0</ele><time>2026-04-24T09:36:10.21Z</time></trkpt><trkpt lat="45.7693137" lon="11.9199742"><ele>88.0</ele><time>2026-04-24T09:36:11.21Z</time></trkpt><trkpt lat="45.7692528" lon="11.9199982"><ele>88.0</ele><time>2026-04-24T09:36:12.21Z</time></trkpt><trkpt lat="45.7691317" lon="11.9200223"><ele>88.0</ele><time>2026-04-24T09:36:14.21Z</time></trkpt><trkpt lat="45.7690438" lon="11.9199856"><ele>87.4</ele><time>2026-04-24T09:36:16.21Z</time></trkpt><trkpt lat="45.7689876" lon="11.9200622"><ele>86.80000000000001</ele><time>2026-04-24T09:36:18.21Z</time></trkpt><trkpt lat="45.7689081" lon="11.920149"><ele>86.2</ele><time>2026-04-24T09:36:20.21Z</time></trkpt><trkpt lat="45.768792" lon="11.9201901"><ele>85.6</ele><time>2026-04-24T09:36:22.21Z</time></trkpt><trkpt lat="45.7686737" lon="11.9202224"><ele>85.0</ele><time>2026-04-24T09:36:24.21Z</time></trkpt><trkpt lat="45.7685545" lon="11.920266"><ele>85.2</ele><time>2026-04-24T09:36:26.211Z</time></trkpt><trkpt lat="45.7684891" lon="11.9202886"><ele>85.4</ele><time>2026-04-24T09:36:27.21Z</time></trkpt><trkpt lat="45.7683689" lon="11.9203395"><ele>85.6</ele><time>2026-04-24T09:36:29.21Z</time></trkpt><trkpt lat="45.7682453" lon="11.9203819"><ele>85.8</ele><time>2026-04-24T09:36:31.211Z</time></trkpt><trkpt lat="45.7681806" lon="11.9204042"><ele>86.0</ele><time>2026-04-24T09:36:32.21Z</time></trkpt><trkpt lat="45.7681153" lon="11.9204267"><ele>86.00000000000001</ele><time>2026-04-24T09:36:33.21Z</time></trkpt><trkpt lat="45.7680472" lon="11.9204522"><ele>86.0</ele><time>2026-04-24T09:36:34.21Z</time></trkpt><trkpt lat="45.7679821" lon="11.9204734"><ele>86.0</ele><time>2026-04-24T09:36:35.21Z</time></trkpt><trkpt lat="45.7679157" lon="11.9204899"><ele>86.0</ele><time>2026-04-24T09:36:36.211Z</time></trkpt><trkpt lat="45.7678489" lon="11.9204992"><ele>86.0</ele><time>2026-04-24T09:36:37.21Z</time></trkpt><trkpt lat="45.7677829" lon="11.9205023"><ele>86.00000000000001</ele><time>2026-04-24T09:36:38.21Z</time></trkpt><trkpt lat="45.7677166" lon="11.9205038"><ele>86.0</ele><time>2026-04-24T09:36:39.21Z</time></trkpt><trkpt lat="45.7676499" lon="11.9205138"><ele>86.28571428571429</ele><time>2026-04-24T09:36:40.21Z</time></trkpt><trkpt lat="45.7675864" lon="11.9205367"><ele>86.57142857142857</ele><time>2026-04-24T09:36:41.21Z</time></trkpt><trkpt lat="45.7675207" lon="11.9205626"><ele>86.85714285714286</ele><time>2026-04-24T09:36:42.21Z</time></trkpt><trkpt lat="45.7674558" lon="11.9205922"><ele>87.14285714285714</ele><time>2026-04-24T09:36:43.21Z</time></trkpt><trkpt lat="45.7673917" lon="11.9206229"><ele>87.42857142857143</ele><time>2026-04-24T09:36:44.21Z</time></trkpt><trkpt lat="45.7673244" lon="11.9206548"><ele>87.71428571428572</ele><time>2026-04-24T09:36:45.21Z</time></trkpt><trkpt lat="45.7672584" lon="11.9206818"><ele>88.0</ele><time>2026-04-24T09:36:46.211Z</time></trkpt><trkpt lat="45.7671887" lon="11.9207087"><ele>88.0</ele><time>2026-04-24T09:36:47.21Z</time></trkpt><trkpt lat="45.7671207" lon="11.9207303"><ele>88.0</ele><time>2026-04-24T09:36:48.21Z</time></trkpt><trkpt lat="45.7670544" lon="11.9207594"><ele>88.0</ele><time>2026-04-24T09:36:49.21Z</time></trkpt><trkpt lat="45.7669911" lon="11.9207916"><ele>88.0</ele><time>2026-04-24T09:36:50.211Z</time></trkpt><trkpt lat="45.76692" lon="11.920821"><ele>88.0</ele><time>2026-04-24T09:36:51.21Z</time></trkpt><trkpt lat="45.7668537" lon="11.9208528"><ele>88.0</ele><time>2026-04-24T09:36:52.21Z</time></trkpt><trkpt lat="45.7667871" lon="11.9208797"><ele>88.0</ele><time>2026-04-24T09:36:53.21Z</time></trkpt><trkpt lat="45.7667202" lon="11.920906"><ele>87.71428571428572</ele><time>2026-04-24T09:36:54.21Z</time></trkpt><trkpt lat="45.7666545" lon="11.9209328"><ele>87.42857142857143</ele><time>2026-04-24T09:36:55.211Z</time></trkpt><trkpt lat="45.7665869" lon="11.9209577"><ele>87.14285714285714</ele><time>2026-04-24T09:36:56.21Z</time></trkpt><trkpt lat="45.7665218" lon="11.9209832"><ele>86.85714285714286</ele><time>2026-04-24T09:36:57.21Z</time></trkpt><trkpt lat="45.7664528" lon="11.9210118"><ele>86.57142857142857</ele><time>2026-04-24T09:36:58.21Z</time></trkpt><trkpt lat="45.7663831" lon="11.9210444"><ele>86.28571428571429</ele><time>2026-04-24T09:36:59.21Z</time></trkpt><trkpt lat="45.7663179" lon="11.9210773"><ele>86.0</ele><time>2026-04-24T09:37:00.21Z</time></trkpt><trkpt lat="45.7662526" lon="11.9211051"><ele>86.00000000000001</ele><time>2026-04-24T09:37:01.21Z</time></trkpt><trkpt lat="45.7661912" lon="11.9211334"><ele>86.0</ele><time>2026-04-24T09:37:02.21Z</time></trkpt><trkpt lat="45.7661268" lon="11.9211598"><ele>86.0</ele><time>2026-04-24T09:37:03.211Z</time></trkpt><trkpt lat="45.7660649" lon="11.9211788"><ele>86.0</ele><time>2026-04-24T09:37:04.21Z</time></trkpt><trkpt lat="45.7660017" lon="11.921201"><ele>86.0</ele><time>2026-04-24T09:37:05.21Z</time></trkpt><trkpt lat="45.7659346" lon="11.9212228"><ele>86.00000000000001</ele><time>2026-04-24T09:37:06.21Z</time></trkpt><trkpt lat="45.7658674" lon="11.9212438"><ele>86.0</ele><time>2026-04-24T09:37:07.21Z</time></trkpt><trkpt lat="45.7658033" lon="11.9212629"><ele>86.00000000000001</ele><time>2026-04-24T09:37:08.21Z</time></trkpt><trkpt lat="45.7657396" lon="11.9212844"><ele>86.0</ele><time>2026-04-24T09:37:09.21Z</time></trkpt><trkpt lat="45.7656749" lon="11.9213055"><ele>86.0</ele><time>2026-04-24T09:37:10.21Z</time></trkpt><trkpt lat="45.7656067" lon="11.9213323"><ele>86.0</ele><time>2026-04-24T09:37:11.211Z</time></trkpt><trkpt lat="45.7655405" lon="11.9213606"><ele>86.0</ele><time>2026-04-24T09:37:12.21Z</time></trkpt><trkpt lat="45.7654774" lon="11.9213878"><ele>86.00000000000001</ele><time>2026-04-24T09:37:13.21Z</time></trkpt><trkpt lat="45.7654156" lon="11.9214139"><ele>86.0</ele><time>2026-04-24T09:37:14.211Z</time></trkpt><trkpt lat="45.7652937" lon="11.9214477"><ele>85.6</ele><time>2026-04-24T09:37:16.21Z</time></trkpt><trkpt lat="45.7651672" lon="11.9214212"><ele>85.19999999999999</ele><time>2026-04-24T09:37:18.21Z</time></trkpt><trkpt lat="45.7651046" lon="11.9213988"><ele>84.80000000000001</ele><time>2026-04-24T09:37:19.211Z</time></trkpt><trkpt lat="45.7650411" lon="11.9213883"><ele>84.4</ele><time>2026-04-24T09:37:20.21Z</time></trkpt><trkpt lat="45.7649135" lon="11.9214201"><ele>84.0</ele><time>2026-04-24T09:37:22.21Z</time></trkpt><trkpt lat="45.7648525" lon="11.9214521"><ele>84.0</ele><time>2026-04-24T09:37:23.21Z</time></trkpt><trkpt lat="45.7647908" lon="11.9214812"><ele>84.0</ele><time>2026-04-24T09:37:24.211Z</time></trkpt><trkpt lat="45.764728" lon="11.9215133"><ele>84.0</ele><time>2026-04-24T09:37:25.21Z</time></trkpt><trkpt lat="45.7646653" lon="11.921548"><ele>84.0</ele><time>2026-04-24T09:37:26.21Z</time></trkpt><trkpt lat="45.7646048" lon="11.9215789"><ele>84.0</ele><time>2026-04-24T09:37:27.21Z</time></trkpt><trkpt lat="45.7645422" lon="11.9216118"><ele>84.0</ele><time>2026-04-24T09:37:28.209Z</time></trkpt><trkpt lat="45.7644801" lon="11.9216439"><ele>84.0</ele><time>2026-04-24T09:37:29.209Z</time></trkpt><trkpt lat="45.7644205" lon="11.9216741"><ele>83.80000000000001</ele><time>2026-04-24T09:37:30.209Z</time></trkpt><trkpt lat="45.7643022" lon="11.9217272"><ele>83.60000000000001</ele><time>2026-04-24T09:37:32.209Z</time></trkpt><trkpt lat="45.7641942" lon="11.9217818"><ele>83.4</ele><time>2026-04-24T09:37:34.209Z</time></trkpt><trkpt lat="45.7640939" lon="11.9218432"><ele>83.2</ele><time>2026-04-24T09:37:36.209Z</time></trkpt><trkpt lat="45.7639962" lon="11.9218847"><ele>83.0</ele><time>2026-04-24T09:37:38.209Z</time></trkpt><trkpt lat="45.7639017" lon="11.9219283"><ele>82.83333333333334</ele><time>2026-04-24T09:37:40.209Z</time></trkpt><trkpt lat="45.7638188" lon="11.921966"><ele>82.66666666666667</ele><time>2026-04-24T09:37:42.209Z</time></trkpt><trkpt lat="45.7637761" lon="11.9220602"><ele>82.5</ele><time>2026-04-24T09:37:45.209Z</time></trkpt><trkpt lat="45.7637904" lon="11.9221755"><ele>82.33333333333333</ele><time>2026-04-24T09:37:47.209Z</time></trkpt><trkpt lat="45.7638219" lon="11.9222726"><ele>82.16666666666666</ele><time>2026-04-24T09:37:49.209Z</time></trkpt><trkpt lat="45.7638599" lon="11.9223726"><ele>82.0</ele><time>2026-04-24T09:37:51.209Z</time></trkpt><trkpt lat="45.7638884" lon="11.9224654"><ele>82.39999999999999</ele><time>2026-04-24T09:37:53.209Z</time></trkpt><trkpt lat="45.7639309" lon="11.9225669"><ele>82.8</ele><time>2026-04-24T09:37:55.209Z</time></trkpt><trkpt lat="45.7639607" lon="11.9226862"><ele>83.2</ele><time>2026-04-24T09:37:57.209Z</time></trkpt><trkpt lat="45.7640009" lon="11.9228162"><ele>83.6</ele><time>2026-04-24T09:37:59.209Z</time></trkpt><trkpt lat="45.7640449" lon="11.922947"><ele>84.0</ele><time>2026-04-24T09:38:01.209Z</time></trkpt><trkpt lat="45.7640919" lon="11.9230785"><ele>84.0</ele><time>2026-04-24T09:38:03.209Z</time></trkpt><trkpt lat="45.7641321" lon="11.923221"><ele>84.0</ele><time>2026-04-24T09:38:05.209Z</time></trkpt><trkpt lat="45.7641776" lon="11.9233645"><ele>84.0</ele><time>2026-04-24T09:38:07.209Z</time></trkpt><trkpt lat="45.7642253" lon="11.9235068"><ele>84.0</ele><time>2026-04-24T09:38:09.209Z</time></trkpt><trkpt lat="45.7642595" lon="11.9236514"><ele>84.0</ele><time>2026-04-24T09:38:11.209Z</time></trkpt><trkpt lat="45.7642782" lon="11.923785"><ele>84.0</ele><time>2026-04-24T09:38:13.209Z</time></trkpt><trkpt lat="45.7642702" lon="11.923913"><ele>84.0</ele><time>2026-04-24T09:38:15.209Z</time></trkpt><trkpt lat="45.7642116" lon="11.9240008"><ele>84.0</ele><time>2026-04-24T09:38:17.209Z</time></trkpt><trkpt lat="45.7641177" lon="11.9240211"><ele>84.0</ele><time>2026-04-24T09:38:19.209Z</time></trkpt><trkpt lat="45.7640168" lon="11.9240484"><ele>84.0</ele><time>2026-04-24T09:38:21.209Z</time></trkpt><trkpt lat="45.7639038" lon="11.924066"><ele>84.0</ele><time>2026-04-24T09:38:23.21Z</time></trkpt><trkpt lat="45.7637842" lon="11.9240835"><ele>84.0</ele><time>2026-04-24T09:38:25.209Z</time></trkpt><trkpt lat="45.7637215" lon="11.9240969"><ele>84.0</ele><time>2026-04-24T09:38:26.21Z</time></trkpt><trkpt lat="45.7636" lon="11.9241218"><ele>84.0</ele><time>2026-04-24T09:38:28.209Z</time></trkpt><trkpt lat="45.7635371" lon="11.9241347"><ele>84.0</ele><time>2026-04-24T09:38:29.21Z</time></trkpt><trkpt lat="45.7634728" lon="11.9241461"><ele>84.0</ele><time>2026-04-24T09:38:30.21Z</time></trkpt><trkpt lat="45.7634083" lon="11.9241585"><ele>84.0</ele><time>2026-04-24T09:38:31.209Z</time></trkpt><trkpt lat="45.7633433" lon="11.9241725"><ele>84.0</ele><time>2026-04-24T09:38:32.209Z</time></trkpt><trkpt lat="45.7632735" lon="11.9241778"><ele>84.0</ele><time>2026-04-24T09:38:33.21Z</time></trkpt><trkpt lat="45.7632078" lon="11.9241887"><ele>84.0</ele><time>2026-04-24T09:38:34.21Z</time></trkpt><trkpt lat="45.7631396" lon="11.9242005"><ele>84.0</ele><time>2026-04-24T09:38:35.209Z</time></trkpt><trkpt lat="45.7630728" lon="11.924214"><ele>84.0</ele><time>2026-04-24T09:38:36.209Z</time></trkpt><trkpt lat="45.7630103" lon="11.9242289"><ele>84.0</ele><time>2026-04-24T09:38:37.21Z</time></trkpt><trkpt lat="45.7629447" lon="11.9242464"><ele>84.14285714285714</ele><time>2026-04-24T09:38:38.209Z</time></trkpt><trkpt lat="45.7628812" lon="11.9242587"><ele>84.28571428571428</ele><time>2026-04-24T09:38:39.21Z</time></trkpt><trkpt lat="45.7628175" lon="11.9242747"><ele>84.42857142857143</ele><time>2026-04-24T09:38:40.21Z</time></trkpt><trkpt lat="45.7627539" lon="11.9242959"><ele>84.57142857142857</ele><time>2026-04-24T09:38:41.209Z</time></trkpt><trkpt lat="45.7626857" lon="11.9243185"><ele>84.71428571428571</ele><time>2026-04-24T09:38:42.209Z</time></trkpt><trkpt lat="45.762618" lon="11.9243369"><ele>84.85714285714286</ele><time>2026-04-24T09:38:43.209Z</time></trkpt><trkpt lat="45.7625499" lon="11.9243507"><ele>85.0</ele><time>2026-04-24T09:38:44.209Z</time></trkpt><trkpt lat="45.7624799" lon="11.9243715"><ele>85.0</ele><time>2026-04-24T09:38:45.209Z</time></trkpt><trkpt lat="45.7624089" lon="11.9243947"><ele>85.0</ele><time>2026-04-24T09:38:46.209Z</time></trkpt><trkpt lat="45.7623403" lon="11.9244136"><ele>85.0</ele><time>2026-04-24T09:38:47.209Z</time></trkpt><trkpt lat="45.7622734" lon="11.9244345"><ele>85.0</ele><time>2026-04-24T09:38:48.21Z</time></trkpt><trkpt lat="45.762206" lon="11.9244489"><ele>85.0</ele><time>2026-04-24T09:38:49.209Z</time></trkpt><trkpt lat="45.7621375" lon="11.9244723"><ele>85.0</ele><time>2026-04-24T09:38:50.209Z</time></trkpt><trkpt lat="45.7620722" lon="11.9244894"><ele>85.0</ele><time>2026-04-24T09:38:51.209Z</time></trkpt><trkpt lat="45.7620073" lon="11.9245"><ele>85.0</ele><time>2026-04-24T09:38:52.21Z</time></trkpt><trkpt lat="45.7618892" lon="11.9245"><ele>85.0</ele><time>2026-04-24T09:38:54.209Z</time></trkpt><trkpt lat="45.7618261" lon="11.9244884"><ele>85.0</ele><time>2026-04-24T09:38:55.209Z</time></trkpt><trkpt lat="45.7617629" lon="11.9244713"><ele>85.0</ele><time>2026-04-24T09:38:56.209Z</time></trkpt><trkpt lat="45.7616982" lon="11.9244439"><ele>85.0</ele><time>2026-04-24T09:38:57.209Z</time></trkpt><trkpt lat="45.7616372" lon="11.9244173"><ele>85.0</ele><time>2026-04-24T09:38:58.209Z</time></trkpt><trkpt lat="45.7615754" lon="11.9243938"><ele>85.0</ele><time>2026-04-24T09:38:59.21Z</time></trkpt><trkpt lat="45.761457" lon="11.9243431"><ele>84.5</ele><time>2026-04-24T09:39:01.209Z</time></trkpt><trkpt lat="45.7613474" lon="11.9243063"><ele>84.0</ele><time>2026-04-24T09:39:03.209Z</time></trkpt><trkpt lat="45.7612301" lon="11.9243011"><ele>83.5</ele><time>2026-04-24T09:39:05.21Z</time></trkpt><trkpt lat="45.7611147" lon="11.924312"><ele>83.0</ele><time>2026-04-24T09:39:07.209Z</time></trkpt><trkpt lat="45.760996" lon="11.9243597"><ele>83.0</ele><time>2026-04-24T09:39:09.21Z</time></trkpt><trkpt lat="45.7609315" lon="11.9243809"><ele>83.0</ele><time>2026-04-24T09:39:10.209Z</time></trkpt><trkpt lat="45.7608656" lon="11.9244099"><ele>83.0</ele><time>2026-04-24T09:39:11.209Z</time></trkpt><trkpt lat="45.7607419" lon="11.924463"><ele>83.0</ele><time>2026-04-24T09:39:13.209Z</time></trkpt><trkpt lat="45.7606743" lon="11.9244811"><ele>83.0</ele><time>2026-04-24T09:39:14.209Z</time></trkpt><trkpt lat="45.7606093" lon="11.9245081"><ele>83.0</ele><time>2026-04-24T09:39:15.209Z</time></trkpt><trkpt lat="45.7604841" lon="11.9245573"><ele>83.0</ele><time>2026-04-24T09:39:17.209Z</time></trkpt><trkpt lat="45.7604142" lon="11.9245753"><ele>83.0</ele><time>2026-04-24T09:39:18.209Z</time></trkpt><trkpt lat="45.7603465" lon="11.9246"><ele>83.0</ele><time>2026-04-24T09:39:19.209Z</time></trkpt><trkpt lat="45.7602789" lon="11.9246259"><ele>83.0</ele><time>2026-04-24T09:39:20.209Z</time></trkpt><trkpt lat="45.760207" lon="11.9246584"><ele>83.0</ele><time>2026-04-24T09:39:21.209Z</time></trkpt><trkpt lat="45.7601373" lon="11.9246814"><ele>83.0</ele><time>2026-04-24T09:39:22.209Z</time></trkpt><trkpt lat="45.7600689" lon="11.9247114"><ele>83.0</ele><time>2026-04-24T09:39:23.21Z</time></trkpt><trkpt lat="45.7600025" lon="11.9247306"><ele>83.0</ele><time>2026-04-24T09:39:24.21Z</time></trkpt><trkpt lat="45.7599345" lon="11.9247533"><ele>83.0</ele><time>2026-04-24T09:39:25.209Z</time></trkpt><trkpt lat="45.7598681" lon="11.9247794"><ele>83.0</ele><time>2026-04-24T09:39:26.209Z</time></trkpt><trkpt lat="45.7598032" lon="11.9248063"><ele>83.0</ele><time>2026-04-24T09:39:27.209Z</time></trkpt><trkpt lat="45.7597374" lon="11.9248322"><ele>83.0</ele><time>2026-04-24T09:39:28.209Z</time></trkpt><trkpt lat="45.7596764" lon="11.9248599"><ele>83.0</ele><time>2026-04-24T09:39:29.209Z</time></trkpt><trkpt lat="45.75961" lon="11.924883"><ele>83.0</ele><time>2026-04-24T09:39:30.209Z</time></trkpt><trkpt lat="45.7595443" lon="11.9249055"><ele>83.0</ele><time>2026-04-24T09:39:31.21Z</time></trkpt><trkpt lat="45.7594779" lon="11.9249285"><ele>83.0</ele><time>2026-04-24T09:39:32.209Z</time></trkpt><trkpt lat="45.7594126" lon="11.9249553"><ele>83.0</ele><time>2026-04-24T09:39:33.209Z</time></trkpt><trkpt lat="45.7593491" lon="11.9249837"><ele>83.0</ele><time>2026-04-24T09:39:34.21Z</time></trkpt><trkpt lat="45.759284" lon="11.9250061"><ele>83.0</ele><time>2026-04-24T09:39:35.209Z</time></trkpt><trkpt lat="45.7592176" lon="11.925031"><ele>83.0</ele><time>2026-04-24T09:39:36.209Z</time></trkpt><trkpt lat="45.7591514" lon="11.9250548"><ele>83.0</ele><time>2026-04-24T09:39:37.21Z</time></trkpt><trkpt lat="45.7590856" lon="11.9250766"><ele>82.85714285714285</ele><time>2026-04-24T09:39:38.209Z</time></trkpt><trkpt lat="45.7590179" lon="11.9251013"><ele>82.71428571428572</ele><time>2026-04-24T09:39:39.209Z</time></trkpt><trkpt lat="45.7589531" lon="11.9251201"><ele>82.57142857142857</ele><time>2026-04-24T09:39:40.209Z</time></trkpt><trkpt lat="45.758891" lon="11.9251386"><ele>82.42857142857142</ele><time>2026-04-24T09:39:41.209Z</time></trkpt><trkpt lat="45.7588266" lon="11.9251531"><ele>82.28571428571428</ele><time>2026-04-24T09:39:42.209Z</time></trkpt><trkpt lat="45.7587624" lon="11.9251677"><ele>82.14285714285714</ele><time>2026-04-24T09:39:43.209Z</time></trkpt><trkpt lat="45.7586972" lon="11.9251787"><ele>82.0</ele><time>2026-04-24T09:39:44.209Z</time></trkpt><trkpt lat="45.7586336" lon="11.9251951"><ele>81.99999999999999</ele><time>2026-04-24T09:39:45.21Z</time></trkpt><trkpt lat="45.7585669" lon="11.9252123"><ele>82.0</ele><time>2026-04-24T09:39:46.209Z</time></trkpt><trkpt lat="45.7584994" lon="11.9252263"><ele>82.0</ele><time>2026-04-24T09:39:47.209Z</time></trkpt><trkpt lat="45.7584367" lon="11.9252384"><ele>82.0</ele><time>2026-04-24T09:39:48.209Z</time></trkpt><trkpt lat="45.7583708" lon="11.9252594"><ele>82.0</ele><time>2026-04-24T09:39:49.21Z</time></trkpt><trkpt lat="45.7583029" lon="11.9252821"><ele>81.99999999999999</ele><time>2026-04-24T09:39:50.209Z</time></trkpt><trkpt lat="45.7582372" lon="11.9252939"><ele>82.0</ele><time>2026-04-24T09:39:51.209Z</time></trkpt><trkpt lat="45.7581676" lon="11.925312"><ele>81.85714285714285</ele><time>2026-04-24T09:39:52.209Z</time></trkpt><trkpt lat="45.7580983" lon="11.9253317"><ele>81.71428571428571</ele><time>2026-04-24T09:39:53.209Z</time></trkpt><trkpt lat="45.758031" lon="11.9253471"><ele>81.57142857142857</ele><time>2026-04-24T09:39:54.209Z</time></trkpt><trkpt lat="45.7579619" lon="11.9253651"><ele>81.42857142857142</ele><time>2026-04-24T09:39:55.209Z</time></trkpt><trkpt lat="45.757895" lon="11.9253807"><ele>81.28571428571428</ele><time>2026-04-24T09:39:56.209Z</time></trkpt><trkpt lat="45.7578281" lon="11.9254046"><ele>81.14285714285714</ele><time>2026-04-24T09:39:57.21Z</time></trkpt><trkpt lat="45.7577597" lon="11.9254243"><ele>81.0</ele><time>2026-04-24T09:39:58.209Z</time></trkpt><trkpt lat="45.7576914" lon="11.925443"><ele>81.33333333333333</ele><time>2026-04-24T09:39:59.21Z</time></trkpt><trkpt lat="45.7576264" lon="11.9254633"><ele>81.66666666666667</ele><time>2026-04-24T09:40:00.209Z</time></trkpt><trkpt lat="45.7575639" lon="11.9254785"><ele>82.0</ele><time>2026-04-24T09:40:01.209Z</time></trkpt><trkpt lat="45.7575026" lon="11.9255003"><ele>82.33333333333334</ele><time>2026-04-24T09:40:02.209Z</time></trkpt><trkpt lat="45.75738" lon="11.9255407"><ele>82.66666666666667</ele><time>2026-04-24T09:40:04.209Z</time></trkpt><trkpt lat="45.7572622" lon="11.9255768"><ele>83.0</ele><time>2026-04-24T09:40:06.209Z</time></trkpt><trkpt lat="45.7571487" lon="11.9255994"><ele>83.0</ele><time>2026-04-24T09:40:08.209Z</time></trkpt><trkpt lat="45.7570431" lon="11.9256113"><ele>83.0</ele><time>2026-04-24T09:40:10.209Z</time></trkpt><trkpt lat="45.7569421" lon="11.9256308"><ele>83.0</ele><time>2026-04-24T09:40:12.209Z</time></trkpt><trkpt lat="45.7568491" lon="11.9256603"><ele>83.0</ele><time>2026-04-24T09:40:14.209Z</time></trkpt><trkpt lat="45.7567635" lon="11.9256762"><ele>83.0</ele><time>2026-04-24T09:40:16.21Z</time></trkpt><trkpt lat="45.756679" lon="11.9256608"><ele>83.0</ele><time>2026-04-24T09:40:18.209Z</time></trkpt><trkpt lat="45.7565729" lon="11.92569"><ele>83.0</ele><time>2026-04-24T09:40:20.209Z</time></trkpt><trkpt lat="45.7564786" lon="11.9257644"><ele>83.0</ele><time>2026-04-24T09:40:22.209Z</time></trkpt><trkpt lat="45.7563747" lon="11.9258258"><ele>83.0</ele><time>2026-04-24T09:40:24.209Z</time></trkpt><trkpt lat="45.7562579" lon="11.9258708"><ele>83.0</ele><time>2026-04-24T09:40:26.21Z</time></trkpt><trkpt lat="45.7561346" lon="11.9259183"><ele>82.85714285714285</ele><time>2026-04-24T09:40:28.209Z</time></trkpt><trkpt lat="45.7560712" lon="11.9259387"><ele>82.71428571428572</ele><time>2026-04-24T09:40:29.209Z</time></trkpt><trkpt lat="45.7560093" lon="11.9259642"><ele>82.57142857142857</ele><time>2026-04-24T09:40:30.209Z</time></trkpt><trkpt lat="45.7559408" lon="11.9259808"><ele>82.42857142857142</ele><time>2026-04-24T09:40:31.209Z</time></trkpt><trkpt lat="45.7558732" lon="11.9259965"><ele>82.28571428571428</ele><time>2026-04-24T09:40:32.209Z</time></trkpt><trkpt lat="45.7558054" lon="11.9260188"><ele>82.14285714285714</ele><time>2026-04-24T09:40:33.209Z</time></trkpt><trkpt lat="45.7557375" lon="11.9260416"><ele>82.0</ele><time>2026-04-24T09:40:34.209Z</time></trkpt><trkpt lat="45.7556735" lon="11.9260675"><ele>81.85714285714285</ele><time>2026-04-24T09:40:35.209Z</time></trkpt><trkpt lat="45.7556072" lon="11.9260878"><ele>81.71428571428571</ele><time>2026-04-24T09:40:36.209Z</time></trkpt><trkpt lat="45.7555393" lon="11.9261082"><ele>81.57142857142857</ele><time>2026-04-24T09:40:37.21Z</time></trkpt><trkpt lat="45.7554709" lon="11.9261287"><ele>81.42857142857142</ele><time>2026-04-24T09:40:38.209Z</time></trkpt><trkpt lat="45.7554003" lon="11.9261454"><ele>81.28571428571428</ele><time>2026-04-24T09:40:39.209Z</time></trkpt><trkpt lat="45.7553307" lon="11.9261645"><ele>81.14285714285714</ele><time>2026-04-24T09:40:40.209Z</time></trkpt><trkpt lat="45.7552632" lon="11.9261804"><ele>81.0</ele><time>2026-04-24T09:40:41.209Z</time></trkpt><trkpt lat="45.7551912" lon="11.9262066"><ele>81.0</ele><time>2026-04-24T09:40:42.21Z</time></trkpt><trkpt lat="45.7550739" lon="11.9262639"><ele>81.0</ele><time>2026-04-24T09:40:44.209Z</time></trkpt><trkpt lat="45.7550056" lon="11.926284"><ele>81.0</ele><time>2026-04-24T09:40:45.209Z</time></trkpt><trkpt lat="45.7549391" lon="11.9263056"><ele>81.0</ele><time>2026-04-24T09:40:46.21Z</time></trkpt><trkpt lat="45.7548715" lon="11.926327"><ele>81.0</ele><time>2026-04-24T09:40:47.209Z</time></trkpt><trkpt lat="45.754797" lon="11.9263467"><ele>81.0</ele><time>2026-04-24T09:40:48.209Z</time></trkpt><trkpt lat="45.754728" lon="11.9263675"><ele>81.0</ele><time>2026-04-24T09:40:49.209Z</time></trkpt><trkpt lat="45.7546581" lon="11.9263866"><ele>81.0</ele><time>2026-04-24T09:40:50.209Z</time></trkpt><trkpt lat="45.7545833" lon="11.9264039"><ele>81.0</ele><time>2026-04-24T09:40:51.209Z</time></trkpt><trkpt lat="45.7545119" lon="11.9264218"><ele>81.0</ele><time>2026-04-24T09:40:52.209Z</time></trkpt><trkpt lat="45.7544411" lon="11.9264401"><ele>81.0</ele><time>2026-04-24T09:40:53.209Z</time></trkpt><trkpt lat="45.7543689" lon="11.9264621"><ele>81.0</ele><time>2026-04-24T09:40:54.209Z</time></trkpt><trkpt lat="45.7542947" lon="11.9264915"><ele>81.0</ele><time>2026-04-24T09:40:55.21Z</time></trkpt><trkpt lat="45.7542239" lon="11.926509"><ele>80.85714285714286</ele><time>2026-04-24T09:40:56.21Z</time></trkpt><trkpt lat="45.7541551" lon="11.926533"><ele>80.71428571428571</ele><time>2026-04-24T09:40:57.209Z</time></trkpt><trkpt lat="45.7540829" lon="11.9265657"><ele>80.57142857142857</ele><time>2026-04-24T09:40:58.209Z</time></trkpt><trkpt lat="45.7540094" lon="11.9265972"><ele>80.42857142857143</ele><time>2026-04-24T09:40:59.209Z</time></trkpt><trkpt lat="45.7539399" lon="11.9266214"><ele>80.28571428571429</ele><time>2026-04-24T09:41:00.21Z</time></trkpt><trkpt lat="45.7538697" lon="11.9266432"><ele>80.14285714285714</ele><time>2026-04-24T09:41:01.209Z</time></trkpt><trkpt lat="45.7538022" lon="11.9266634"><ele>80.0</ele><time>2026-04-24T09:41:02.21Z</time></trkpt><trkpt lat="45.7537356" lon="11.9266855"><ele>80.0</ele><time>2026-04-24T09:41:03.21Z</time></trkpt><trkpt lat="45.7536656" lon="11.9267078"><ele>80.0</ele><time>2026-04-24T09:41:04.209Z</time></trkpt><trkpt lat="45.7535963" lon="11.9267303"><ele>80.0</ele><time>2026-04-24T09:41:05.208Z</time></trkpt><trkpt lat="45.7535258" lon="11.926747"><ele>80.0</ele><time>2026-04-24T09:41:06.208Z</time></trkpt><trkpt lat="45.7534528" lon="11.926772"><ele>80.0</ele><time>2026-04-24T09:41:07.208Z</time></trkpt><trkpt lat="45.7533816" lon="11.9267923"><ele>80.0</ele><time>2026-04-24T09:41:08.208Z</time></trkpt><trkpt lat="45.7533143" lon="11.9268093"><ele>80.0</ele><time>2026-04-24T09:41:09.208Z</time></trkpt><trkpt lat="45.7532447" lon="11.9268284"><ele>80.0</ele><time>2026-04-24T09:41:10.209Z</time></trkpt><trkpt lat="45.7531724" lon="11.9268503"><ele>80.0</ele><time>2026-04-24T09:41:11.208Z</time></trkpt><trkpt lat="45.7531048" lon="11.9268715"><ele>80.0</ele><time>2026-04-24T09:41:12.208Z</time></trkpt><trkpt lat="45.7530372" lon="11.9268899"><ele>80.0</ele><time>2026-04-24T09:41:13.209Z</time></trkpt><trkpt lat="45.7529709" lon="11.9269145"><ele>80.0</ele><time>2026-04-24T09:41:14.208Z</time></trkpt><trkpt lat="45.752902" lon="11.9269339"><ele>80.0</ele><time>2026-04-24T09:41:15.208Z</time></trkpt><trkpt lat="45.7528354" lon="11.9269523"><ele>80.0</ele><time>2026-04-24T09:41:16.208Z</time></trkpt><trkpt lat="45.7527707" lon="11.9269699"><ele>79.71428571428571</ele><time>2026-04-24T09:41:17.208Z</time></trkpt><trkpt lat="45.7527054" lon="11.9269931"><ele>79.42857142857143</ele><time>2026-04-24T09:41:18.208Z</time></trkpt><trkpt lat="45.7526414" lon="11.9270105"><ele>79.14285714285714</ele><time>2026-04-24T09:41:19.208Z</time></trkpt><trkpt lat="45.7525773" lon="11.9270278"><ele>78.85714285714286</ele><time>2026-04-24T09:41:20.208Z</time></trkpt><trkpt lat="45.7525134" lon="11.9270466"><ele>78.57142857142857</ele><time>2026-04-24T09:41:21.208Z</time></trkpt><trkpt lat="45.7524481" lon="11.9270626"><ele>78.28571428571429</ele><time>2026-04-24T09:41:22.208Z</time></trkpt><trkpt lat="45.7523816" lon="11.9270792"><ele>78.0</ele><time>2026-04-24T09:41:23.209Z</time></trkpt><trkpt lat="45.7523163" lon="11.9270885"><ele>78.0</ele><time>2026-04-24T09:41:24.208Z</time></trkpt><trkpt lat="45.7522533" lon="11.9271082"><ele>78.0</ele><time>2026-04-24T09:41:25.209Z</time></trkpt><trkpt lat="45.7521884" lon="11.927128"><ele>78.0</ele><time>2026-04-24T09:41:26.208Z</time></trkpt><trkpt lat="45.7521231" lon="11.9271465"><ele>78.0</ele><time>2026-04-24T09:41:27.209Z</time></trkpt><trkpt lat="45.7520552" lon="11.9271628"><ele>78.0</ele><time>2026-04-24T09:41:28.208Z</time></trkpt><trkpt lat="45.7519935" lon="11.9271842"><ele>78.0</ele><time>2026-04-24T09:41:29.208Z</time></trkpt><trkpt lat="45.7519303" lon="11.9272062"><ele>78.0</ele><time>2026-04-24T09:41:30.209Z</time></trkpt><trkpt lat="45.7518665" lon="11.9272241"><ele>78.0</ele><time>2026-04-24T09:41:31.208Z</time></trkpt><trkpt lat="45.7518008" lon="11.9272385"><ele>78.0</ele><time>2026-04-24T09:41:32.208Z</time></trkpt><trkpt lat="45.7517332" lon="11.927252"><ele>78.0</ele><time>2026-04-24T09:41:33.208Z</time></trkpt><trkpt lat="45.7516615" lon="11.9272641"><ele>78.0</ele><time>2026-04-24T09:41:34.208Z</time></trkpt><trkpt lat="45.7515949" lon="11.92728"><ele>78.0</ele><time>2026-04-24T09:41:35.209Z</time></trkpt><trkpt lat="45.7515297" lon="11.9273009"><ele>78.0</ele><time>2026-04-24T09:41:36.208Z</time></trkpt><trkpt lat="45.7514063" lon="11.9273367"><ele>78.0</ele><time>2026-04-24T09:41:38.208Z</time></trkpt><trkpt lat="45.751286" lon="11.9273782"><ele>78.0</ele><time>2026-04-24T09:41:40.208Z</time></trkpt><trkpt lat="45.7511586" lon="11.9274071"><ele>78.0</ele><time>2026-04-24T09:41:42.208Z</time></trkpt><trkpt lat="45.7510296" lon="11.9274227"><ele>78.0</ele><time>2026-04-24T09:41:44.208Z</time></trkpt><trkpt lat="45.7509648" lon="11.9274429"><ele>78.0</ele><time>2026-04-24T09:41:45.208Z</time></trkpt><trkpt lat="45.7509013" lon="11.9274624"><ele>78.2</ele><time>2026-04-24T09:41:46.209Z</time></trkpt><trkpt lat="45.7507785" lon="11.9274961"><ele>78.4</ele><time>2026-04-24T09:41:48.208Z</time></trkpt><trkpt lat="45.7506549" lon="11.9275195"><ele>78.60000000000001</ele><time>2026-04-24T09:41:50.208Z</time></trkpt><trkpt lat="45.750532" lon="11.9275495"><ele>78.8</ele><time>2026-04-24T09:41:52.208Z</time></trkpt><trkpt lat="45.7504699" lon="11.927567"><ele>79.0</ele><time>2026-04-24T09:41:53.208Z</time></trkpt><trkpt lat="45.7503525" lon="11.9276099"><ele>79.0</ele><time>2026-04-24T09:41:55.208Z</time></trkpt><trkpt lat="45.7502429" lon="11.9276516"><ele>79.0</ele><time>2026-04-24T09:41:57.208Z</time></trkpt><trkpt lat="45.7501357" lon="11.9276992"><ele>79.0</ele><time>2026-04-24T09:41:59.209Z</time></trkpt><trkpt lat="45.7500305" lon="11.927734"><ele>79.0</ele><time>2026-04-24T09:42:01.208Z</time></trkpt><trkpt lat="45.7499157" lon="11.927777"><ele>78.66666666666666</ele><time>2026-04-24T09:42:03.208Z</time></trkpt><trkpt lat="45.7498187" lon="11.9278544"><ele>78.33333333333333</ele><time>2026-04-24T09:42:05.208Z</time></trkpt><trkpt lat="45.7497212" lon="11.9279486"><ele>78.0</ele><time>2026-04-24T09:42:07.208Z</time></trkpt><trkpt lat="45.7496664" lon="11.927995"><ele>77.66666666666667</ele><time>2026-04-24T09:42:08.208Z</time></trkpt><trkpt lat="45.7496029" lon="11.9280163"><ele>77.33333333333334</ele><time>2026-04-24T09:42:09.208Z</time></trkpt><trkpt lat="45.7495362" lon="11.928029"><ele>77.0</ele><time>2026-04-24T09:42:10.208Z</time></trkpt><trkpt lat="45.7494697" lon="11.9280423"><ele>77.0</ele><time>2026-04-24T09:42:11.208Z</time></trkpt><trkpt lat="45.7494073" lon="11.9280646"><ele>77.0</ele><time>2026-04-24T09:42:12.208Z</time></trkpt><trkpt lat="45.7493434" lon="11.9280784"><ele>77.0</ele><time>2026-04-24T09:42:13.209Z</time></trkpt><trkpt lat="45.7492221" lon="11.9281069"><ele>77.0</ele><time>2026-04-24T09:42:15.208Z</time></trkpt><trkpt lat="45.7491572" lon="11.9281272"><ele>77.0</ele><time>2026-04-24T09:42:16.209Z</time></trkpt><trkpt lat="45.7490909" lon="11.9281431"><ele>77.0</ele><time>2026-04-24T09:42:17.208Z</time></trkpt><trkpt lat="45.7490263" lon="11.928159"><ele>76.85714285714286</ele><time>2026-04-24T09:42:18.208Z</time></trkpt><trkpt lat="45.7489602" lon="11.9281747"><ele>76.71428571428572</ele><time>2026-04-24T09:42:19.209Z</time></trkpt><trkpt lat="45.7488958" lon="11.9281915"><ele>76.57142857142857</ele><time>2026-04-24T09:42:20.208Z</time></trkpt><trkpt lat="45.7488295" lon="11.9282097"><ele>76.42857142857143</ele><time>2026-04-24T09:42:21.208Z</time></trkpt><trkpt lat="45.7487616" lon="11.9282297"><ele>76.28571428571429</ele><time>2026-04-24T09:42:22.208Z</time></trkpt><trkpt lat="45.7486959" lon="11.9282418"><ele>76.14285714285714</ele><time>2026-04-24T09:42:23.208Z</time></trkpt><trkpt lat="45.7486263" lon="11.9282595"><ele>76.0</ele><time>2026-04-24T09:42:24.208Z</time></trkpt><trkpt lat="45.7485532" lon="11.9282787"><ele>76.0</ele><time>2026-04-24T09:42:25.208Z</time></trkpt><trkpt lat="45.7484822" lon="11.9283031"><ele>76.0</ele><time>2026-04-24T09:42:26.208Z</time></trkpt><trkpt lat="45.7484148" lon="11.9283292"><ele>76.0</ele><time>2026-04-24T09:42:27.208Z</time></trkpt><trkpt lat="45.7483477" lon="11.9283486"><ele>76.0</ele><time>2026-04-24T09:42:28.208Z</time></trkpt><trkpt lat="45.748284" lon="11.9283566"><ele>76.0</ele><time>2026-04-24T09:42:29.208Z</time></trkpt><trkpt lat="45.7482182" lon="11.9283602"><ele>76.0</ele><time>2026-04-24T09:42:30.208Z</time></trkpt><trkpt lat="45.7481504" lon="11.9283808"><ele>76.0</ele><time>2026-04-24T09:42:31.208Z</time></trkpt><trkpt lat="45.7480788" lon="11.9284007"><ele>76.0</ele><time>2026-04-24T09:42:32.209Z</time></trkpt><trkpt lat="45.7480036" lon="11.9284227"><ele>76.0</ele><time>2026-04-24T09:42:33.208Z</time></trkpt><trkpt lat="45.7479317" lon="11.9284426"><ele>76.0</ele><time>2026-04-24T09:42:34.208Z</time></trkpt><trkpt lat="45.7478603" lon="11.9284585"><ele>76.0</ele><time>2026-04-24T09:42:35.208Z</time></trkpt><trkpt lat="45.7477899" lon="11.9284784"><ele>76.0</ele><time>2026-04-24T09:42:36.208Z</time></trkpt><trkpt lat="45.74772" lon="11.9284908"><ele>76.0</ele><time>2026-04-24T09:42:37.208Z</time></trkpt><trkpt lat="45.7476465" lon="11.9285094"><ele>76.0</ele><time>2026-04-24T09:42:38.208Z</time></trkpt><trkpt lat="45.7475785" lon="11.9285291"><ele>76.0</ele><time>2026-04-24T09:42:39.208Z</time></trkpt><trkpt lat="45.7475087" lon="11.9285476"><ele>76.0</ele><time>2026-04-24T09:42:40.208Z</time></trkpt><trkpt lat="45.7474392" lon="11.9285652"><ele>76.0</ele><time>2026-04-24T09:42:41.209Z</time></trkpt><trkpt lat="45.7473712" lon="11.9285845"><ele>76.0</ele><time>2026-04-24T09:42:42.208Z</time></trkpt><trkpt lat="45.7473005" lon="11.9286084"><ele>76.0</ele><time>2026-04-24T09:42:43.208Z</time></trkpt><trkpt lat="45.7472299" lon="11.928639"><ele>76.0</ele><time>2026-04-24T09:42:44.208Z</time></trkpt><trkpt lat="45.7471595" lon="11.9286595"><ele>76.0</ele><time>2026-04-24T09:42:45.208Z</time></trkpt><trkpt lat="45.7470874" lon="11.9286774"><ele>76.0</ele><time>2026-04-24T09:42:46.208Z</time></trkpt><trkpt lat="45.7470143" lon="11.9286958"><ele>76.0</ele><time>2026-04-24T09:42:47.209Z</time></trkpt><trkpt lat="45.746943" lon="11.92871"><ele>76.0</ele><time>2026-04-24T09:42:48.208Z</time></trkpt><trkpt lat="45.7468691" lon="11.9287332"><ele>76.0</ele><time>2026-04-24T09:42:49.208Z</time></trkpt><trkpt lat="45.7467951" lon="11.9287517"><ele>76.0</ele><time>2026-04-24T09:42:50.208Z</time></trkpt><trkpt lat="45.7467219" lon="11.928773"><ele>76.0</ele><time>2026-04-24T09:42:51.208Z</time></trkpt><trkpt lat="45.7466521" lon="11.9287877"><ele>76.0</ele><time>2026-04-24T09:42:52.208Z</time></trkpt><trkpt lat="45.746579" lon="11.9288046"><ele>75.85714285714285</ele><time>2026-04-24T09:42:53.208Z</time></trkpt><trkpt lat="45.7465095" lon="11.9288165"><ele>75.71428571428572</ele><time>2026-04-24T09:42:54.208Z</time></trkpt><trkpt lat="45.7464358" lon="11.9288328"><ele>75.57142857142857</ele><time>2026-04-24T09:42:55.208Z</time></trkpt><trkpt lat="45.7463664" lon="11.9288482"><ele>75.42857142857142</ele><time>2026-04-24T09:42:56.208Z</time></trkpt><trkpt lat="45.7462957" lon="11.9288708"><ele>75.28571428571428</ele><time>2026-04-24T09:42:57.208Z</time></trkpt><trkpt lat="45.7462246" lon="11.9288893"><ele>75.14285714285714</ele><time>2026-04-24T09:42:58.208Z</time></trkpt><trkpt lat="45.7461513" lon="11.928914"><ele>75.0</ele><time>2026-04-24T09:42:59.208Z</time></trkpt><trkpt lat="45.7460779" lon="11.9289367"><ele>75.14285714285714</ele><time>2026-04-24T09:43:00.208Z</time></trkpt><trkpt lat="45.7460043" lon="11.9289538"><ele>75.28571428571428</ele><time>2026-04-24T09:43:01.208Z</time></trkpt><trkpt lat="45.7459331" lon="11.9289735"><ele>75.42857142857142</ele><time>2026-04-24T09:43:02.208Z</time></trkpt><trkpt lat="45.7458645" lon="11.9289922"><ele>75.57142857142857</ele><time>2026-04-24T09:43:03.209Z</time></trkpt><trkpt lat="45.7457932" lon="11.9290083"><ele>75.71428571428572</ele><time>2026-04-24T09:43:04.208Z</time></trkpt><trkpt lat="45.7457254" lon="11.9290255"><ele>75.85714285714285</ele><time>2026-04-24T09:43:05.208Z</time></trkpt><trkpt lat="45.7456583" lon="11.9290415"><ele>76.0</ele><time>2026-04-24T09:43:06.208Z</time></trkpt><trkpt lat="45.7455911" lon="11.9290608"><ele>76.0</ele><time>2026-04-24T09:43:07.208Z</time></trkpt><trkpt lat="45.7455243" lon="11.9290795"><ele>76.0</ele><time>2026-04-24T09:43:08.208Z</time></trkpt><trkpt lat="45.7454613" lon="11.9290974"><ele>76.0</ele><time>2026-04-24T09:43:09.209Z</time></trkpt><trkpt lat="45.7453968" lon="11.9291142"><ele>76.0</ele><time>2026-04-24T09:43:10.209Z</time></trkpt><trkpt lat="45.7453301" lon="11.9291301"><ele>76.0</ele><time>2026-04-24T09:43:11.208Z</time></trkpt><trkpt lat="45.7452618" lon="11.9291544"><ele>76.0</ele><time>2026-04-24T09:43:12.208Z</time></trkpt><trkpt lat="45.7451915" lon="11.9291809"><ele>76.0</ele><time>2026-04-24T09:43:13.208Z</time></trkpt><trkpt lat="45.7451213" lon="11.9292005"><ele>75.85714285714285</ele><time>2026-04-24T09:43:14.208Z</time></trkpt><trkpt lat="45.7450507" lon="11.9292213"><ele>75.71428571428572</ele><time>2026-04-24T09:43:15.208Z</time></trkpt><trkpt lat="45.7449814" lon="11.9292455"><ele>75.57142857142857</ele><time>2026-04-24T09:43:16.208Z</time></trkpt><trkpt lat="45.7449136" lon="11.9292737"><ele>75.42857142857142</ele><time>2026-04-24T09:43:17.208Z</time></trkpt><trkpt lat="45.7448471" lon="11.9293011"><ele>75.28571428571428</ele><time>2026-04-24T09:43:18.208Z</time></trkpt><trkpt lat="45.7447834" lon="11.92933"><ele>75.14285714285714</ele><time>2026-04-24T09:43:19.208Z</time></trkpt><trkpt lat="45.7447181" lon="11.9293493"><ele>75.0</ele><time>2026-04-24T09:43:20.209Z</time></trkpt><trkpt lat="45.7446517" lon="11.9293678"><ele>75.0</ele><time>2026-04-24T09:43:21.209Z</time></trkpt><trkpt lat="45.7445284" lon="11.9294084"><ele>75.0</ele><time>2026-04-24T09:43:23.208Z</time></trkpt><trkpt lat="45.7444648" lon="11.9294275"><ele>75.0</ele><time>2026-04-24T09:43:24.208Z</time></trkpt><trkpt lat="45.7443998" lon="11.9294455"><ele>75.0</ele><time>2026-04-24T09:43:25.208Z</time></trkpt><trkpt lat="45.7443347" lon="11.9294648"><ele>75.0</ele><time>2026-04-24T09:43:26.208Z</time></trkpt><trkpt lat="45.7442664" lon="11.9294858"><ele>75.0</ele><time>2026-04-24T09:43:27.208Z</time></trkpt><trkpt lat="45.7441982" lon="11.9295083"><ele>74.85714285714285</ele><time>2026-04-24T09:43:28.208Z</time></trkpt><trkpt lat="45.7441277" lon="11.9295252"><ele>74.71428571428571</ele><time>2026-04-24T09:43:29.208Z</time></trkpt><trkpt lat="45.7440556" lon="11.9295472"><ele>74.57142857142857</ele><time>2026-04-24T09:43:30.208Z</time></trkpt><trkpt lat="45.7439896" lon="11.9295708"><ele>74.42857142857142</ele><time>2026-04-24T09:43:31.208Z</time></trkpt><trkpt lat="45.7439219" lon="11.9295898"><ele>74.28571428571428</ele><time>2026-04-24T09:43:32.208Z</time></trkpt><trkpt lat="45.7438564" lon="11.9296094"><ele>74.14285714285714</ele><time>2026-04-24T09:43:33.208Z</time></trkpt><trkpt lat="45.7437878" lon="11.929625"><ele>74.0</ele><time>2026-04-24T09:43:34.208Z</time></trkpt><trkpt lat="45.7436665" lon="11.9296644"><ele>74.0</ele><time>2026-04-24T09:43:36.208Z</time></trkpt><trkpt lat="45.743601" lon="11.9296836"><ele>74.0</ele><time>2026-04-24T09:43:37.209Z</time></trkpt><trkpt lat="45.743535" lon="11.9297081"><ele>74.0</ele><time>2026-04-24T09:43:38.208Z</time></trkpt><trkpt lat="45.7434723" lon="11.929724"><ele>74.0</ele><time>2026-04-24T09:43:39.208Z</time></trkpt><trkpt lat="45.7433539" lon="11.9297654"><ele>74.0</ele><time>2026-04-24T09:43:41.208Z</time></trkpt><trkpt lat="45.7432344" lon="11.9297927"><ele>74.0</ele><time>2026-04-24T09:43:43.208Z</time></trkpt><trkpt lat="45.7431226" lon="11.9298446"><ele>74.0</ele><time>2026-04-24T09:43:45.209Z</time></trkpt><trkpt lat="45.7430084" lon="11.9298963"><ele>74.0</ele><time>2026-04-24T09:43:47.208Z</time></trkpt><trkpt lat="45.742898" lon="11.9299402"><ele>74.0</ele><time>2026-04-24T09:43:49.208Z</time></trkpt><trkpt lat="45.7427799" lon="11.9299862"><ele>74.0</ele><time>2026-04-24T09:43:51.208Z</time></trkpt><trkpt lat="45.7426605" lon="11.9300216"><ele>73.8</ele><time>2026-04-24T09:43:53.209Z</time></trkpt><trkpt lat="45.7425977" lon="11.9300436"><ele>73.60000000000001</ele><time>2026-04-24T09:43:54.208Z</time></trkpt><trkpt lat="45.7424749" lon="11.9300793"><ele>73.4</ele><time>2026-04-24T09:43:56.208Z</time></trkpt><trkpt lat="45.7423516" lon="11.9301165"><ele>73.2</ele><time>2026-04-24T09:43:58.208Z</time></trkpt><trkpt lat="45.7422304" lon="11.9301583"><ele>73.0</ele><time>2026-04-24T09:44:00.208Z</time></trkpt><trkpt lat="45.7421105" lon="11.9302059"><ele>73.0</ele><time>2026-04-24T09:44:02.208Z</time></trkpt><trkpt lat="45.7419927" lon="11.930247"><ele>73.0</ele><time>2026-04-24T09:44:04.209Z</time></trkpt><trkpt lat="45.7418712" lon="11.9302857"><ele>73.0</ele><time>2026-04-24T09:44:06.208Z</time></trkpt><trkpt lat="45.7418091" lon="11.9303069"><ele>73.0</ele><time>2026-04-24T09:44:07.208Z</time></trkpt><trkpt lat="45.7417475" lon="11.9303313"><ele>73.0</ele><time>2026-04-24T09:44:08.208Z</time></trkpt><trkpt lat="45.7416842" lon="11.930356"><ele>73.0</ele><time>2026-04-24T09:44:09.209Z</time></trkpt><trkpt lat="45.7416188" lon="11.930384"><ele>73.14285714285714</ele><time>2026-04-24T09:44:10.208Z</time></trkpt><trkpt lat="45.741551" lon="11.9304033"><ele>73.28571428571429</ele><time>2026-04-24T09:44:11.208Z</time></trkpt><trkpt lat="45.7414827" lon="11.9304156"><ele>73.42857142857143</ele><time>2026-04-24T09:44:12.208Z</time></trkpt><trkpt lat="45.7414174" lon="11.9304414"><ele>73.57142857142857</ele><time>2026-04-24T09:44:13.208Z</time></trkpt><trkpt lat="45.7413535" lon="11.9304678"><ele>73.71428571428571</ele><time>2026-04-24T09:44:14.208Z</time></trkpt><trkpt lat="45.7412913" lon="11.9304929"><ele>73.85714285714286</ele><time>2026-04-24T09:44:15.209Z</time></trkpt><trkpt lat="45.7412239" lon="11.9305185"><ele>74.0</ele><time>2026-04-24T09:44:16.209Z</time></trkpt><trkpt lat="45.7411601" lon="11.9305428"><ele>74.0</ele><time>2026-04-24T09:44:17.209Z</time></trkpt><trkpt lat="45.7410956" lon="11.9305675"><ele>74.0</ele><time>2026-04-24T09:44:18.209Z</time></trkpt><trkpt lat="45.7410304" lon="11.9305905"><ele>74.0</ele><time>2026-04-24T09:44:19.208Z</time></trkpt><trkpt lat="45.7409667" lon="11.9306168"><ele>74.0</ele><time>2026-04-24T09:44:20.209Z</time></trkpt><trkpt lat="45.7409048" lon="11.9306408"><ele>74.0</ele><time>2026-04-24T09:44:21.208Z</time></trkpt><trkpt lat="45.7407833" lon="11.9306904"><ele>74.0</ele><time>2026-04-24T09:44:23.208Z</time></trkpt><trkpt lat="45.7407218" lon="11.9307099"><ele>73.85714285714286</ele><time>2026-04-24T09:44:24.208Z</time></trkpt><trkpt lat="45.740659" lon="11.9307282"><ele>73.71428571428571</ele><time>2026-04-24T09:44:25.208Z</time></trkpt><trkpt lat="45.7405923" lon="11.9307543"><ele>73.57142857142857</ele><time>2026-04-24T09:44:26.208Z</time></trkpt><trkpt lat="45.7405244" lon="11.9307831"><ele>73.42857142857143</ele><time>2026-04-24T09:44:27.208Z</time></trkpt><trkpt lat="45.7404585" lon="11.9308071"><ele>73.28571428571429</ele><time>2026-04-24T09:44:28.208Z</time></trkpt><trkpt lat="45.7403919" lon="11.9308318"><ele>73.14285714285714</ele><time>2026-04-24T09:44:29.208Z</time></trkpt><trkpt lat="45.7403253" lon="11.9308529"><ele>73.0</ele><time>2026-04-24T09:44:30.209Z</time></trkpt><trkpt lat="45.7402562" lon="11.9308701"><ele>73.0</ele><time>2026-04-24T09:44:31.208Z</time></trkpt><trkpt lat="45.7401892" lon="11.9308809"><ele>73.0</ele><time>2026-04-24T09:44:32.208Z</time></trkpt><trkpt lat="45.7401195" lon="11.930898"><ele>73.0</ele><time>2026-04-24T09:44:33.208Z</time></trkpt><trkpt lat="45.7400498" lon="11.9309218"><ele>73.0</ele><time>2026-04-24T09:44:34.208Z</time></trkpt><trkpt lat="45.7399827" lon="11.930943"><ele>73.0</ele><time>2026-04-24T09:44:35.208Z</time></trkpt><trkpt lat="45.7399138" lon="11.9309498"><ele>73.0</ele><time>2026-04-24T09:44:36.208Z</time></trkpt><trkpt lat="45.73984" lon="11.9309562"><ele>73.0</ele><time>2026-04-24T09:44:37.208Z</time></trkpt><trkpt lat="45.7397682" lon="11.9309608"><ele>73.0</ele><time>2026-04-24T09:44:38.209Z</time></trkpt><trkpt lat="45.7396926" lon="11.9309669"><ele>73.0</ele><time>2026-04-24T09:44:39.208Z</time></trkpt><trkpt lat="45.7396205" lon="11.9309737"><ele>73.0</ele><time>2026-04-24T09:44:40.207Z</time></trkpt><trkpt lat="45.739551" lon="11.9309842"><ele>73.0</ele><time>2026-04-24T09:44:41.207Z</time></trkpt><trkpt lat="45.739478" lon="11.93099"><ele>73.0</ele><time>2026-04-24T09:44:42.207Z</time></trkpt><trkpt lat="45.7394062" lon="11.9309973"><ele>73.0</ele><time>2026-04-24T09:44:43.207Z</time></trkpt><trkpt lat="45.7393327" lon="11.9310062"><ele>73.0</ele><time>2026-04-24T09:44:44.207Z</time></trkpt><trkpt lat="45.7392592" lon="11.9310147"><ele>72.71428571428571</ele><time>2026-04-24T09:44:45.207Z</time></trkpt><trkpt lat="45.739188" lon="11.9310249"><ele>72.42857142857143</ele><time>2026-04-24T09:44:46.207Z</time></trkpt><trkpt lat="45.7391194" lon="11.931033"><ele>72.14285714285714</ele><time>2026-04-24T09:44:47.207Z</time></trkpt><trkpt lat="45.7390541" lon="11.9310439"><ele>71.85714285714286</ele><time>2026-04-24T09:44:48.208Z</time></trkpt><trkpt lat="45.7389848" lon="11.9310513"><ele>71.57142857142857</ele><time>2026-04-24T09:44:49.207Z</time></trkpt><trkpt lat="45.7389132" lon="11.9310674"><ele>71.28571428571428</ele><time>2026-04-24T09:44:50.207Z</time></trkpt><trkpt lat="45.7388402" lon="11.9310856"><ele>71.0</ele><time>2026-04-24T09:44:51.207Z</time></trkpt><trkpt lat="45.7387688" lon="11.9311023"><ele>71.0</ele><time>2026-04-24T09:44:52.207Z</time></trkpt><trkpt lat="45.7387023" lon="11.9311203"><ele>71.0</ele><time>2026-04-24T09:44:53.207Z</time></trkpt><trkpt lat="45.7386285" lon="11.9311379"><ele>71.0</ele><time>2026-04-24T09:44:54.207Z</time></trkpt><trkpt lat="45.7385588" lon="11.9311543"><ele>71.0</ele><time>2026-04-24T09:44:55.207Z</time></trkpt><trkpt lat="45.7384946" lon="11.9311667"><ele>71.0</ele><time>2026-04-24T09:44:56.207Z</time></trkpt><trkpt lat="45.7384276" lon="11.9311825"><ele>71.0</ele><time>2026-04-24T09:44:57.207Z</time></trkpt><trkpt lat="45.7383628" lon="11.9311996"><ele>71.0</ele><time>2026-04-24T09:44:58.207Z</time></trkpt><trkpt lat="45.7382911" lon="11.931223"><ele>70.85714285714286</ele><time>2026-04-24T09:44:59.207Z</time></trkpt><trkpt lat="45.7382222" lon="11.9312405"><ele>70.71428571428571</ele><time>2026-04-24T09:45:00.208Z</time></trkpt><trkpt lat="45.7381567" lon="11.9312548"><ele>70.57142857142857</ele><time>2026-04-24T09:45:01.207Z</time></trkpt><trkpt lat="45.7380898" lon="11.931272"><ele>70.42857142857143</ele><time>2026-04-24T09:45:02.207Z</time></trkpt><trkpt lat="45.7380211" lon="11.9312937"><ele>70.28571428571428</ele><time>2026-04-24T09:45:03.208Z</time></trkpt><trkpt lat="45.7379586" lon="11.9313108"><ele>70.14285714285714</ele><time>2026-04-24T09:45:04.207Z</time></trkpt><trkpt lat="45.7378951" lon="11.9313301"><ele>70.0</ele><time>2026-04-24T09:45:05.207Z</time></trkpt><trkpt lat="45.7378317" lon="11.9313493"><ele>70.0</ele><time>2026-04-24T09:45:06.207Z</time></trkpt><trkpt lat="45.7377684" lon="11.9313638"><ele>70.0</ele><time>2026-04-24T09:45:07.207Z</time></trkpt><trkpt lat="45.7377027" lon="11.9313802"><ele>70.0</ele><time>2026-04-24T09:45:08.207Z</time></trkpt><trkpt lat="45.7376391" lon="11.9313982"><ele>70.0</ele><time>2026-04-24T09:45:09.207Z</time></trkpt><trkpt lat="45.7375746" lon="11.9314126"><ele>70.0</ele><time>2026-04-24T09:45:10.207Z</time></trkpt><trkpt lat="45.7375081" lon="11.9314303"><ele>70.0</ele><time>2026-04-24T09:45:11.208Z</time></trkpt><trkpt lat="45.7374435" lon="11.9314396"><ele>70.0</ele><time>2026-04-24T09:45:12.207Z</time></trkpt><trkpt lat="45.7373759" lon="11.9314596"><ele>70.0</ele><time>2026-04-24T09:45:13.207Z</time></trkpt><trkpt lat="45.7373089" lon="11.9314786"><ele>70.0</ele><time>2026-04-24T09:45:14.207Z</time></trkpt><trkpt lat="45.7372408" lon="11.931498"><ele>70.0</ele><time>2026-04-24T09:45:15.207Z</time></trkpt><trkpt lat="45.7371714" lon="11.9315115"><ele>70.0</ele><time>2026-04-24T09:45:16.207Z</time></trkpt><trkpt lat="45.7371083" lon="11.9315299"><ele>70.0</ele><time>2026-04-24T09:45:17.207Z</time></trkpt><trkpt lat="45.7369847" lon="11.9315561"><ele>70.0</ele><time>2026-04-24T09:45:19.207Z</time></trkpt><trkpt lat="45.7369226" lon="11.9315757"><ele>70.0</ele><time>2026-04-24T09:45:20.207Z</time></trkpt><trkpt lat="45.7368075" lon="11.9316098"><ele>70.0</ele><time>2026-04-24T09:45:22.207Z</time></trkpt><trkpt lat="45.7366946" lon="11.9316387"><ele>70.0</ele><time>2026-04-24T09:45:24.207Z</time></trkpt><trkpt lat="45.7366119" lon="11.9316708"><ele>70.0</ele><time>2026-04-24T09:45:26.208Z</time></trkpt><trkpt lat="45.7365406" lon="11.9317235"><ele>70.0</ele><time>2026-04-24T09:45:33.208Z</time></trkpt><trkpt lat="45.7364648" lon="11.9317796"><ele>70.0</ele><time>2026-04-24T09:45:36.207Z</time></trkpt><trkpt lat="45.7363634" lon="11.9318246"><ele>70.0</ele><time>2026-04-24T09:45:39.208Z</time></trkpt><trkpt lat="45.7362753" lon="11.9318515"><ele>70.0</ele><time>2026-04-24T09:45:41.207Z</time></trkpt><trkpt lat="45.7361773" lon="11.931883"><ele>70.0</ele><time>2026-04-24T09:45:43.207Z</time></trkpt><trkpt lat="45.7360712" lon="11.9319095"><ele>70.0</ele><time>2026-04-24T09:45:45.207Z</time></trkpt><trkpt lat="45.7359556" lon="11.9319565"><ele>69.6</ele><time>2026-04-24T09:45:47.208Z</time></trkpt><trkpt lat="45.7358409" lon="11.9319904"><ele>69.2</ele><time>2026-04-24T09:45:49.207Z</time></trkpt><trkpt lat="45.7357229" lon="11.9320257"><ele>68.8</ele><time>2026-04-24T09:45:51.207Z</time></trkpt><trkpt lat="45.7356025" lon="11.9320741"><ele>68.4</ele><time>2026-04-24T09:45:53.207Z</time></trkpt><trkpt lat="45.7355397" lon="11.9320939"><ele>68.0</ele><time>2026-04-24T09:45:54.207Z</time></trkpt><trkpt lat="45.7354773" lon="11.9321117"><ele>67.99999999999999</ele><time>2026-04-24T09:45:55.207Z</time></trkpt><trkpt lat="45.735413" lon="11.9321336"><ele>68.0</ele><time>2026-04-24T09:45:56.207Z</time></trkpt><trkpt lat="45.73535" lon="11.9321464"><ele>68.0</ele><time>2026-04-24T09:45:57.207Z</time></trkpt><trkpt lat="45.7352859" lon="11.9321651"><ele>68.0</ele><time>2026-04-24T09:45:58.207Z</time></trkpt><trkpt lat="45.7352223" lon="11.9321876"><ele>68.0</ele><time>2026-04-24T09:45:59.207Z</time></trkpt><trkpt lat="45.7351577" lon="11.9322087"><ele>67.99999999999999</ele><time>2026-04-24T09:46:00.208Z</time></trkpt><trkpt lat="45.7350912" lon="11.9322334"><ele>68.0</ele><time>2026-04-24T09:46:01.207Z</time></trkpt><trkpt lat="45.7350271" lon="11.9322577"><ele>68.0</ele><time>2026-04-24T09:46:02.207Z</time></trkpt><trkpt lat="45.7349048" lon="11.9322982"><ele>68.0</ele><time>2026-04-24T09:46:04.207Z</time></trkpt><trkpt lat="45.7348413" lon="11.9323187"><ele>68.0</ele><time>2026-04-24T09:46:05.207Z</time></trkpt><trkpt lat="45.7347771" lon="11.9323348"><ele>68.0</ele><time>2026-04-24T09:46:06.207Z</time></trkpt><trkpt lat="45.7347127" lon="11.9323605"><ele>68.0</ele><time>2026-04-24T09:46:07.208Z</time></trkpt><trkpt lat="45.7346473" lon="11.9323792"><ele>68.0</ele><time>2026-04-24T09:46:08.207Z</time></trkpt><trkpt lat="45.7345802" lon="11.9323946"><ele>67.99999999999999</ele><time>2026-04-24T09:46:09.208Z</time></trkpt><trkpt lat="45.7345156" lon="11.9324187"><ele>68.0</ele><time>2026-04-24T09:46:10.208Z</time></trkpt><trkpt lat="45.7344506" lon="11.9324496"><ele>68.0</ele><time>2026-04-24T09:46:11.208Z</time></trkpt><trkpt lat="45.7343849" lon="11.9324735"><ele>68.0</ele><time>2026-04-24T09:46:12.207Z</time></trkpt><trkpt lat="45.7343166" lon="11.9324926"><ele>68.0</ele><time>2026-04-24T09:46:13.207Z</time></trkpt><trkpt lat="45.7342512" lon="11.9325091"><ele>67.99999999999999</ele><time>2026-04-24T09:46:14.207Z</time></trkpt><trkpt lat="45.7341843" lon="11.9325233"><ele>68.0</ele><time>2026-04-24T09:46:15.207Z</time></trkpt><trkpt lat="45.7341207" lon="11.9325383"><ele>68.33333333333334</ele><time>2026-04-24T09:46:16.207Z</time></trkpt><trkpt lat="45.7340579" lon="11.9325642"><ele>68.66666666666667</ele><time>2026-04-24T09:46:17.207Z</time></trkpt><trkpt lat="45.7339379" lon="11.9325985"><ele>69.0</ele><time>2026-04-24T09:46:19.207Z</time></trkpt><trkpt lat="45.7338742" lon="11.9326214"><ele>69.33333333333333</ele><time>2026-04-24T09:46:20.207Z</time></trkpt><trkpt lat="45.7338088" lon="11.9326454"><ele>69.66666666666666</ele><time>2026-04-24T09:46:21.208Z</time></trkpt><trkpt lat="45.7337472" lon="11.9326709"><ele>70.0</ele><time>2026-04-24T09:46:22.207Z</time></trkpt><trkpt lat="45.7336848" lon="11.9327017"><ele>70.0</ele><time>2026-04-24T09:46:23.207Z</time></trkpt><trkpt lat="45.7336218" lon="11.9327332"><ele>70.0</ele><time>2026-04-24T09:46:24.207Z</time></trkpt><trkpt lat="45.7335603" lon="11.9327676"><ele>70.0</ele><time>2026-04-24T09:46:25.207Z</time></trkpt><trkpt lat="45.7334989" lon="11.9328056"><ele>70.0</ele><time>2026-04-24T09:46:26.208Z</time></trkpt><trkpt lat="45.7334364" lon="11.9328438"><ele>70.0</ele><time>2026-04-24T09:46:27.208Z</time></trkpt><trkpt lat="45.7333712" lon="11.9328777"><ele>70.0</ele><time>2026-04-24T09:46:28.207Z</time></trkpt><trkpt lat="45.7333048" lon="11.9329029"><ele>70.0</ele><time>2026-04-24T09:46:29.208Z</time></trkpt><trkpt lat="45.7332392" lon="11.9329262"><ele>69.85714285714286</ele><time>2026-04-24T09:46:30.208Z</time></trkpt><trkpt lat="45.7331725" lon="11.9329421"><ele>69.71428571428572</ele><time>2026-04-24T09:46:31.207Z</time></trkpt><trkpt lat="45.7331074" lon="11.9329536"><ele>69.57142857142857</ele><time>2026-04-24T09:46:32.207Z</time></trkpt><trkpt lat="45.7330422" lon="11.9329619"><ele>69.42857142857143</ele><time>2026-04-24T09:46:33.207Z</time></trkpt><trkpt lat="45.7329766" lon="11.9329764"><ele>69.28571428571429</ele><time>2026-04-24T09:46:34.207Z</time></trkpt><trkpt lat="45.7329096" lon="11.9329975"><ele>69.14285714285714</ele><time>2026-04-24T09:46:35.207Z</time></trkpt><trkpt lat="45.7328421" lon="11.9330179"><ele>69.0</ele><time>2026-04-24T09:46:36.207Z</time></trkpt><trkpt lat="45.7327745" lon="11.9330337"><ele>69.0</ele><time>2026-04-24T09:46:37.207Z</time></trkpt><trkpt lat="45.7327066" lon="11.933052"><ele>69.0</ele><time>2026-04-24T09:46:38.207Z</time></trkpt><trkpt lat="45.7326393" lon="11.9330707"><ele>69.0</ele><time>2026-04-24T09:46:39.208Z</time></trkpt><trkpt lat="45.7325721" lon="11.9330917"><ele>69.0</ele><time>2026-04-24T09:46:40.207Z</time></trkpt><trkpt lat="45.7325091" lon="11.9331124"><ele>69.0</ele><time>2026-04-24T09:46:41.207Z</time></trkpt><trkpt lat="45.7324454" lon="11.9331348"><ele>69.0</ele><time>2026-04-24T09:46:42.208Z</time></trkpt><trkpt lat="45.7323275" lon="11.9331606"><ele>69.0</ele><time>2026-04-24T09:46:44.207Z</time></trkpt><trkpt lat="45.7322643" lon="11.9331786"><ele>69.0</ele><time>2026-04-24T09:46:45.208Z</time></trkpt><trkpt lat="45.7321405" lon="11.9332109"><ele>69.0</ele><time>2026-04-24T09:46:47.207Z</time></trkpt><trkpt lat="45.7320788" lon="11.933229"><ele>69.0</ele><time>2026-04-24T09:46:48.207Z</time></trkpt><trkpt lat="45.7320169" lon="11.9332482"><ele>69.0</ele><time>2026-04-24T09:46:49.207Z</time></trkpt><trkpt lat="45.7319524" lon="11.9332655"><ele>69.0</ele><time>2026-04-24T09:46:50.207Z</time></trkpt><trkpt lat="45.7318873" lon="11.9332819"><ele>69.0</ele><time>2026-04-24T09:46:51.208Z</time></trkpt><trkpt lat="45.7318241" lon="11.9333005"><ele>69.14285714285714</ele><time>2026-04-24T09:46:52.207Z</time></trkpt><trkpt lat="45.7317611" lon="11.9333172"><ele>69.28571428571429</ele><time>2026-04-24T09:46:53.207Z</time></trkpt><trkpt lat="45.7316958" lon="11.9333342"><ele>69.42857142857143</ele><time>2026-04-24T09:46:54.207Z</time></trkpt><trkpt lat="45.7316295" lon="11.9333518"><ele>69.57142857142857</ele><time>2026-04-24T09:46:55.207Z</time></trkpt><trkpt lat="45.7315652" lon="11.9333672"><ele>69.71428571428572</ele><time>2026-04-24T09:46:56.208Z</time></trkpt><trkpt lat="45.7314959" lon="11.9333891"><ele>69.85714285714286</ele><time>2026-04-24T09:46:57.207Z</time></trkpt><trkpt lat="45.7314301" lon="11.9334095"><ele>70.0</ele><time>2026-04-24T09:46:58.208Z</time></trkpt><trkpt lat="45.731366" lon="11.9334279"><ele>69.6</ele><time>2026-04-24T09:46:59.207Z</time></trkpt><trkpt lat="45.7312995" lon="11.9334449"><ele>69.2</ele><time>2026-04-24T09:47:00.207Z</time></trkpt><trkpt lat="45.7311764" lon="11.9334766"><ele>68.8</ele><time>2026-04-24T09:47:02.207Z</time></trkpt><trkpt lat="45.7310589" lon="11.9335121"><ele>68.4</ele><time>2026-04-24T09:47:04.208Z</time></trkpt><trkpt lat="45.7309432" lon="11.9335452"><ele>68.0</ele><time>2026-04-24T09:47:06.207Z</time></trkpt><trkpt lat="45.7308321" lon="11.9335754"><ele>67.83333333333334</ele><time>2026-04-24T09:47:08.208Z</time></trkpt><trkpt lat="45.7307122" lon="11.9335968"><ele>67.66666666666667</ele><time>2026-04-24T09:47:10.207Z</time></trkpt><trkpt lat="45.7306477" lon="11.9336035"><ele>67.5</ele><time>2026-04-24T09:47:11.207Z</time></trkpt><trkpt lat="45.7305829" lon="11.9336063"><ele>67.33333333333333</ele><time>2026-04-24T09:47:12.208Z</time></trkpt><trkpt lat="45.7305157" lon="11.9336095"><ele>67.16666666666666</ele><time>2026-04-24T09:47:13.207Z</time></trkpt><trkpt lat="45.7304457" lon="11.9336072"><ele>67.0</ele><time>2026-04-24T09:47:14.207Z</time></trkpt><trkpt lat="45.7303753" lon="11.9335946"><ele>67.0</ele><time>2026-04-24T09:47:15.207Z</time></trkpt><trkpt lat="45.7303108" lon="11.9335729"><ele>67.0</ele><time>2026-04-24T09:47:16.207Z</time></trkpt><trkpt lat="45.7302474" lon="11.9335554"><ele>67.0</ele><time>2026-04-24T09:47:17.207Z</time></trkpt><trkpt lat="45.7301843" lon="11.9335398"><ele>67.0</ele><time>2026-04-24T09:47:18.207Z</time></trkpt><trkpt lat="45.7300617" lon="11.9335312"><ele>67.0</ele><time>2026-04-24T09:47:20.207Z</time></trkpt><trkpt lat="45.7299562" lon="11.9335862"><ele>67.0</ele><time>2026-04-24T09:47:22.207Z</time></trkpt><trkpt lat="45.7299037" lon="11.9336368"><ele>67.14285714285714</ele><time>2026-04-24T09:47:23.207Z</time></trkpt><trkpt lat="45.7298482" lon="11.9336882"><ele>67.28571428571428</ele><time>2026-04-24T09:47:24.207Z</time></trkpt><trkpt lat="45.7297931" lon="11.9337327"><ele>67.42857142857142</ele><time>2026-04-24T09:47:25.207Z</time></trkpt><trkpt lat="45.729735" lon="11.9337811"><ele>67.57142857142857</ele><time>2026-04-24T09:47:26.208Z</time></trkpt><trkpt lat="45.7296756" lon="11.9338278"><ele>67.71428571428571</ele><time>2026-04-24T09:47:27.207Z</time></trkpt><trkpt lat="45.7296135" lon="11.9338722"><ele>67.85714285714285</ele><time>2026-04-24T09:47:28.208Z</time></trkpt><trkpt lat="45.7295535" lon="11.9339092"><ele>68.0</ele><time>2026-04-24T09:47:29.207Z</time></trkpt><trkpt lat="45.7294928" lon="11.9339408"><ele>68.0</ele><time>2026-04-24T09:47:30.207Z</time></trkpt><trkpt lat="45.7294264" lon="11.9339675"><ele>68.0</ele><time>2026-04-24T09:47:31.207Z</time></trkpt><trkpt lat="45.7293593" lon="11.9339969"><ele>68.0</ele><time>2026-04-24T09:47:32.207Z</time></trkpt><trkpt lat="45.7292938" lon="11.9340238"><ele>68.0</ele><time>2026-04-24T09:47:33.207Z</time></trkpt><trkpt lat="45.7292305" lon="11.9340535"><ele>68.0</ele><time>2026-04-24T09:47:34.207Z</time></trkpt><trkpt lat="45.7291615" lon="11.9340793"><ele>68.0</ele><time>2026-04-24T09:47:35.207Z</time></trkpt><trkpt lat="45.7290419" lon="11.9341255"><ele>67.8</ele><time>2026-04-24T09:47:37.208Z</time></trkpt><trkpt lat="45.728913" lon="11.9341406"><ele>67.6</ele><time>2026-04-24T09:47:39.207Z</time></trkpt><trkpt lat="45.7287932" lon="11.9341901"><ele>67.4</ele><time>2026-04-24T09:47:41.207Z</time></trkpt><trkpt lat="45.7287306" lon="11.9342052"><ele>67.2</ele><time>2026-04-24T09:47:42.207Z</time></trkpt><trkpt lat="45.7286129" lon="11.9342414"><ele>67.0</ele><time>2026-04-24T09:47:44.208Z</time></trkpt><trkpt lat="45.7284931" lon="11.934267"><ele>67.0</ele><time>2026-04-24T09:47:46.207Z</time></trkpt><trkpt lat="45.7283694" lon="11.934279"><ele>67.0</ele><time>2026-04-24T09:47:48.207Z</time></trkpt><trkpt lat="45.7282492" lon="11.9342968"><ele>67.0</ele><time>2026-04-24T09:47:50.207Z</time></trkpt><trkpt lat="45.728185" lon="11.9343097"><ele>67.0</ele><time>2026-04-24T09:47:51.208Z</time></trkpt><trkpt lat="45.7281197" lon="11.9343198"><ele>67.0</ele><time>2026-04-24T09:47:52.208Z</time></trkpt><trkpt lat="45.7280572" lon="11.9343373"><ele>67.0</ele><time>2026-04-24T09:47:53.208Z</time></trkpt><trkpt lat="45.7279907" lon="11.9343549"><ele>67.0</ele><time>2026-04-24T09:47:54.207Z</time></trkpt><trkpt lat="45.7279265" lon="11.9343759"><ele>67.0</ele><time>2026-04-24T09:47:55.207Z</time></trkpt><trkpt lat="45.7278631" lon="11.9344014"><ele>67.0</ele><time>2026-04-24T09:47:56.207Z</time></trkpt><trkpt lat="45.7277955" lon="11.9344199"><ele>67.0</ele><time>2026-04-24T09:47:57.208Z</time></trkpt><trkpt lat="45.7276746" lon="11.9344672"><ele>67.0</ele><time>2026-04-24T09:47:59.207Z</time></trkpt><trkpt lat="45.7276122" lon="11.9344912"><ele>67.0</ele><time>2026-04-24T09:48:00.207Z</time></trkpt><trkpt lat="45.7275474" lon="11.9345114"><ele>66.85714285714286</ele><time>2026-04-24T09:48:01.207Z</time></trkpt><trkpt lat="45.7274808" lon="11.934526"><ele>66.71428571428571</ele><time>2026-04-24T09:48:02.207Z</time></trkpt><trkpt lat="45.7274158" lon="11.9345433"><ele>66.57142857142857</ele><time>2026-04-24T09:48:03.207Z</time></trkpt><trkpt lat="45.7273512" lon="11.9345634"><ele>66.42857142857143</ele><time>2026-04-24T09:48:04.207Z</time></trkpt><trkpt lat="45.7272856" lon="11.9345836"><ele>66.28571428571429</ele><time>2026-04-24T09:48:05.208Z</time></trkpt><trkpt lat="45.7272232" lon="11.9346095"><ele>66.14285714285714</ele><time>2026-04-24T09:48:06.207Z</time></trkpt><trkpt lat="45.727158" lon="11.9346262"><ele>66.0</ele><time>2026-04-24T09:48:07.207Z</time></trkpt><trkpt lat="45.7270947" lon="11.9346416"><ele>66.0</ele><time>2026-04-24T09:48:08.207Z</time></trkpt><trkpt lat="45.7270275" lon="11.9346644"><ele>66.0</ele><time>2026-04-24T09:48:09.208Z</time></trkpt><trkpt lat="45.7269628" lon="11.9346798"><ele>66.0</ele><time>2026-04-24T09:48:10.207Z</time></trkpt><trkpt lat="45.7268996" lon="11.9346934"><ele>66.0</ele><time>2026-04-24T09:48:11.207Z</time></trkpt><trkpt lat="45.7268381" lon="11.9347151"><ele>66.0</ele><time>2026-04-24T09:48:12.207Z</time></trkpt><trkpt lat="45.7267703" lon="11.9347377"><ele>66.0</ele><time>2026-04-24T09:48:13.207Z</time></trkpt><trkpt lat="45.7267045" lon="11.9347573"><ele>66.0</ele><time>2026-04-24T09:48:14.207Z</time></trkpt><trkpt lat="45.7266371" lon="11.9347726"><ele>65.85714285714286</ele><time>2026-04-24T09:48:15.207Z</time></trkpt><trkpt lat="45.7265675" lon="11.9347964"><ele>65.71428571428572</ele><time>2026-04-24T09:48:16.206Z</time></trkpt><trkpt lat="45.7264986" lon="11.93482"><ele>65.57142857142858</ele><time>2026-04-24T09:48:17.206Z</time></trkpt><trkpt lat="45.7264308" lon="11.9348443"><ele>65.42857142857143</ele><time>2026-04-24T09:48:18.206Z</time></trkpt><trkpt lat="45.7263611" lon="11.9348673"><ele>65.28571428571429</ele><time>2026-04-24T09:48:19.206Z</time></trkpt><trkpt lat="45.726292" lon="11.93489"><ele>65.14285714285715</ele><time>2026-04-24T09:48:20.206Z</time></trkpt><trkpt lat="45.7262219" lon="11.9349063"><ele>65.0</ele><time>2026-04-24T09:48:21.206Z</time></trkpt><trkpt lat="45.7261543" lon="11.9349271"><ele>65.0</ele><time>2026-04-24T09:48:22.206Z</time></trkpt><trkpt lat="45.7260894" lon="11.9349493"><ele>65.0</ele><time>2026-04-24T09:48:23.206Z</time></trkpt><trkpt lat="45.7260241" lon="11.9349685"><ele>65.0</ele><time>2026-04-24T09:48:24.206Z</time></trkpt><trkpt lat="45.7259605" lon="11.934988"><ele>65.0</ele><time>2026-04-24T09:48:25.206Z</time></trkpt><trkpt lat="45.7258958" lon="11.9350057"><ele>65.0</ele><time>2026-04-24T09:48:26.206Z</time></trkpt><trkpt lat="45.7258325" lon="11.9350245"><ele>65.0</ele><time>2026-04-24T09:48:27.206Z</time></trkpt><trkpt lat="45.7257129" lon="11.9350603"><ele>65.0</ele><time>2026-04-24T09:48:29.206Z</time></trkpt><trkpt lat="45.7256011" lon="11.935098"><ele>65.0</ele><time>2026-04-24T09:48:31.206Z</time></trkpt><trkpt lat="45.7254839" lon="11.935127"><ele>65.0</ele><time>2026-04-24T09:48:33.206Z</time></trkpt><trkpt lat="45.7253658" lon="11.9351654"><ele>65.0</ele><time>2026-04-24T09:48:35.206Z</time></trkpt><trkpt lat="45.7252451" lon="11.9352033"><ele>64.83333333333334</ele><time>2026-04-24T09:48:37.207Z</time></trkpt><trkpt lat="45.7251827" lon="11.9352269"><ele>64.66666666666667</ele><time>2026-04-24T09:48:38.206Z</time></trkpt><trkpt lat="45.7251196" lon="11.9352477"><ele>64.5</ele><time>2026-04-24T09:48:39.206Z</time></trkpt><trkpt lat="45.7250555" lon="11.9352634"><ele>64.33333333333333</ele><time>2026-04-24T09:48:40.207Z</time></trkpt><trkpt lat="45.7249906" lon="11.9352798"><ele>64.16666666666666</ele><time>2026-04-24T09:48:41.206Z</time></trkpt><trkpt lat="45.7249247" lon="11.935301"><ele>64.0</ele><time>2026-04-24T09:48:42.206Z</time></trkpt><trkpt lat="45.7248003" lon="11.9353306"><ele>64.0</ele><time>2026-04-24T09:48:44.206Z</time></trkpt><trkpt lat="45.7247367" lon="11.9353481"><ele>64.0</ele><time>2026-04-24T09:48:45.206Z</time></trkpt><trkpt lat="45.724674" lon="11.9353715"><ele>64.0</ele><time>2026-04-24T09:48:46.206Z</time></trkpt><trkpt lat="45.724557" lon="11.9354055"><ele>64.0</ele><time>2026-04-24T09:48:48.206Z</time></trkpt><trkpt lat="45.7244483" lon="11.9354498"><ele>64.0</ele><time>2026-04-24T09:48:50.206Z</time></trkpt><trkpt lat="45.7243408" lon="11.9354855"><ele>63.75</ele><time>2026-04-24T09:48:52.206Z</time></trkpt><trkpt lat="45.7242303" lon="11.9355118"><ele>63.5</ele><time>2026-04-24T09:48:54.206Z</time></trkpt><trkpt lat="45.7241124" lon="11.9355447"><ele>63.25</ele><time>2026-04-24T09:48:56.206Z</time></trkpt><trkpt lat="45.7239959" lon="11.9355816"><ele>63.0</ele><time>2026-04-24T09:48:58.207Z</time></trkpt><trkpt lat="45.7238749" lon="11.9356176"><ele>63.0</ele><time>2026-04-24T09:49:00.206Z</time></trkpt><trkpt lat="45.723812" lon="11.9356333"><ele>63.0</ele><time>2026-04-24T09:49:01.206Z</time></trkpt><trkpt lat="45.7237473" lon="11.9356542"><ele>63.0</ele><time>2026-04-24T09:49:02.206Z</time></trkpt><trkpt lat="45.7236848" lon="11.9356731"><ele>63.0</ele><time>2026-04-24T09:49:03.206Z</time></trkpt><trkpt lat="45.7236226" lon="11.9356901"><ele>63.0</ele><time>2026-04-24T09:49:04.206Z</time></trkpt><trkpt lat="45.7234948" lon="11.9357368"><ele>63.0</ele><time>2026-04-24T09:49:06.206Z</time></trkpt><trkpt lat="45.723372" lon="11.9357808"><ele>63.166666666666664</ele><time>2026-04-24T09:49:08.206Z</time></trkpt><trkpt lat="45.7233067" lon="11.9357952"><ele>63.33333333333333</ele><time>2026-04-24T09:49:09.206Z</time></trkpt><trkpt lat="45.7232447" lon="11.9358161"><ele>63.5</ele><time>2026-04-24T09:49:10.206Z</time></trkpt><trkpt lat="45.7231181" lon="11.9358489"><ele>63.666666666666664</ele><time>2026-04-24T09:49:12.206Z</time></trkpt><trkpt lat="45.7230547" lon="11.935868"><ele>63.83333333333333</ele><time>2026-04-24T09:49:13.206Z</time></trkpt><trkpt lat="45.7229908" lon="11.9358859"><ele>64.0</ele><time>2026-04-24T09:49:14.206Z</time></trkpt><trkpt lat="45.7229249" lon="11.935906"><ele>64.0</ele><time>2026-04-24T09:49:15.206Z</time></trkpt><trkpt lat="45.7228604" lon="11.9359198"><ele>64.0</ele><time>2026-04-24T09:49:16.206Z</time></trkpt><trkpt lat="45.7227973" lon="11.9359382"><ele>64.0</ele><time>2026-04-24T09:49:17.207Z</time></trkpt><trkpt lat="45.7226788" lon="11.9359779"><ele>64.0</ele><time>2026-04-24T09:49:19.206Z</time></trkpt><trkpt lat="45.722565" lon="11.9360061"><ele>64.0</ele><time>2026-04-24T09:49:21.206Z</time></trkpt><trkpt lat="45.722453" lon="11.9360426"><ele>63.99999999999999</ele><time>2026-04-24T09:49:23.206Z</time></trkpt><trkpt lat="45.7223319" lon="11.9360708"><ele>64.0</ele><time>2026-04-24T09:49:25.207Z</time></trkpt><trkpt lat="45.7222118" lon="11.9361003"><ele>64.0</ele><time>2026-04-24T09:49:27.206Z</time></trkpt><trkpt lat="45.7221467" lon="11.9361184"><ele>64.0</ele><time>2026-04-24T09:49:28.206Z</time></trkpt><trkpt lat="45.7220826" lon="11.9361361"><ele>63.99999999999999</ele><time>2026-04-24T09:49:29.206Z</time></trkpt><trkpt lat="45.7220202" lon="11.9361609"><ele>64.0</ele><time>2026-04-24T09:49:30.206Z</time></trkpt><trkpt lat="45.7219576" lon="11.9361802"><ele>63.99999999999999</ele><time>2026-04-24T09:49:31.206Z</time></trkpt><trkpt lat="45.7218937" lon="11.9361957"><ele>64.0</ele><time>2026-04-24T09:49:32.206Z</time></trkpt><trkpt lat="45.7218311" lon="11.9362184"><ele>64.0</ele><time>2026-04-24T09:49:33.206Z</time></trkpt><trkpt lat="45.7217094" lon="11.9362577"><ele>64.0</ele><time>2026-04-24T09:49:35.206Z</time></trkpt><trkpt lat="45.7216473" lon="11.9362749"><ele>63.99999999999999</ele><time>2026-04-24T09:49:36.207Z</time></trkpt><trkpt lat="45.7215286" lon="11.9363078"><ele>64.0</ele><time>2026-04-24T09:49:38.206Z</time></trkpt><trkpt lat="45.7214151" lon="11.9363412"><ele>64.0</ele><time>2026-04-24T09:49:40.206Z</time></trkpt><trkpt lat="45.7213025" lon="11.9363795"><ele>64.0</ele><time>2026-04-24T09:49:42.206Z</time></trkpt><trkpt lat="45.7211924" lon="11.936421"><ele>64.0</ele><time>2026-04-24T09:49:44.207Z</time></trkpt><trkpt lat="45.7210746" lon="11.9364515"><ele>64.0</ele><time>2026-04-24T09:49:46.206Z</time></trkpt><trkpt lat="45.7209528" lon="11.936486"><ele>64.16666666666666</ele><time>2026-04-24T09:49:48.207Z</time></trkpt><trkpt lat="45.7208305" lon="11.9365242"><ele>64.33333333333333</ele><time>2026-04-24T09:49:50.206Z</time></trkpt><trkpt lat="45.7207092" lon="11.9365616"><ele>64.5</ele><time>2026-04-24T09:49:52.206Z</time></trkpt><trkpt lat="45.720644" lon="11.9365819"><ele>64.66666666666667</ele><time>2026-04-24T09:49:53.206Z</time></trkpt><trkpt lat="45.7205804" lon="11.9366018"><ele>64.83333333333334</ele><time>2026-04-24T09:49:54.206Z</time></trkpt><trkpt lat="45.7205154" lon="11.9366245"><ele>65.0</ele><time>2026-04-24T09:49:55.206Z</time></trkpt><trkpt lat="45.7204511" lon="11.9366455"><ele>65.00000000000001</ele><time>2026-04-24T09:49:56.206Z</time></trkpt><trkpt lat="45.7203856" lon="11.9366639"><ele>65.0</ele><time>2026-04-24T09:49:57.206Z</time></trkpt><trkpt lat="45.7203208" lon="11.9366852"><ele>65.0</ele><time>2026-04-24T09:49:58.206Z</time></trkpt><trkpt lat="45.720254" lon="11.9367034"><ele>65.0</ele><time>2026-04-24T09:49:59.206Z</time></trkpt><trkpt lat="45.7201879" lon="11.9367179"><ele>65.0</ele><time>2026-04-24T09:50:00.206Z</time></trkpt><trkpt lat="45.7201178" lon="11.9367379"><ele>65.00000000000001</ele><time>2026-04-24T09:50:01.206Z</time></trkpt><trkpt lat="45.720046" lon="11.9367617"><ele>65.0</ele><time>2026-04-24T09:50:02.206Z</time></trkpt><trkpt lat="45.7199797" lon="11.9367752"><ele>64.85714285714286</ele><time>2026-04-24T09:50:03.206Z</time></trkpt><trkpt lat="45.719913" lon="11.9367913"><ele>64.71428571428572</ele><time>2026-04-24T09:50:04.206Z</time></trkpt><trkpt lat="45.7198472" lon="11.9368048"><ele>64.57142857142857</ele><time>2026-04-24T09:50:05.206Z</time></trkpt><trkpt lat="45.7197801" lon="11.9368134"><ele>64.42857142857143</ele><time>2026-04-24T09:50:06.206Z</time></trkpt><trkpt lat="45.7197157" lon="11.9368264"><ele>64.28571428571428</ele><time>2026-04-24T09:50:07.206Z</time></trkpt><trkpt lat="45.719648" lon="11.9368365"><ele>64.14285714285714</ele><time>2026-04-24T09:50:08.206Z</time></trkpt><trkpt lat="45.7195841" lon="11.9368513"><ele>64.0</ele><time>2026-04-24T09:50:09.206Z</time></trkpt><trkpt lat="45.7195134" lon="11.9368518"><ele>63.99999999999999</ele><time>2026-04-24T09:50:10.206Z</time></trkpt><trkpt lat="45.7194463" lon="11.9368505"><ele>64.0</ele><time>2026-04-24T09:50:11.206Z</time></trkpt><trkpt lat="45.7193813" lon="11.9368618"><ele>64.0</ele><time>2026-04-24T09:50:12.207Z</time></trkpt><trkpt lat="45.7192606" lon="11.9368768"><ele>64.0</ele><time>2026-04-24T09:50:14.206Z</time></trkpt><trkpt lat="45.7191939" lon="11.9368903"><ele>63.99999999999999</ele><time>2026-04-24T09:50:15.206Z</time></trkpt><trkpt lat="45.7191274" lon="11.9369067"><ele>64.0</ele><time>2026-04-24T09:50:16.206Z</time></trkpt><trkpt lat="45.7190614" lon="11.9369256"><ele>63.857142857142854</ele><time>2026-04-24T09:50:17.207Z</time></trkpt><trkpt lat="45.7189932" lon="11.9369452"><ele>63.71428571428571</ele><time>2026-04-24T09:50:18.206Z</time></trkpt><trkpt lat="45.7189229" lon="11.9369675"><ele>63.57142857142857</ele><time>2026-04-24T09:50:19.207Z</time></trkpt><trkpt lat="45.7188552" lon="11.9369877"><ele>63.42857142857143</ele><time>2026-04-24T09:50:20.207Z</time></trkpt><trkpt lat="45.7187881" lon="11.9370172"><ele>63.285714285714285</ele><time>2026-04-24T09:50:21.206Z</time></trkpt><trkpt lat="45.7187218" lon="11.9370367"><ele>63.14285714285714</ele><time>2026-04-24T09:50:22.206Z</time></trkpt><trkpt lat="45.7186586" lon="11.9370602"><ele>63.0</ele><time>2026-04-24T09:50:23.207Z</time></trkpt><trkpt lat="45.7185897" lon="11.9370814"><ele>62.833333333333336</ele><time>2026-04-24T09:50:24.206Z</time></trkpt><trkpt lat="45.7185167" lon="11.9371027"><ele>62.66666666666667</ele><time>2026-04-24T09:50:25.206Z</time></trkpt><trkpt lat="45.7184463" lon="11.9371235"><ele>62.5</ele><time>2026-04-24T09:50:26.206Z</time></trkpt><trkpt lat="45.7183762" lon="11.9371492"><ele>62.333333333333336</ele><time>2026-04-24T09:50:27.206Z</time></trkpt><trkpt lat="45.7182455" lon="11.9371844"><ele>62.16666666666667</ele><time>2026-04-24T09:50:29.206Z</time></trkpt><trkpt lat="45.7181719" lon="11.9372055"><ele>62.0</ele><time>2026-04-24T09:50:30.206Z</time></trkpt><trkpt lat="45.7181061" lon="11.9372277"><ele>62.0</ele><time>2026-04-24T09:50:31.206Z</time></trkpt><trkpt lat="45.7180321" lon="11.9372518"><ele>62.00000000000001</ele><time>2026-04-24T09:50:32.206Z</time></trkpt><trkpt lat="45.7179611" lon="11.9372786"><ele>62.0</ele><time>2026-04-24T09:50:33.207Z</time></trkpt><trkpt lat="45.7178903" lon="11.937297"><ele>62.0</ele><time>2026-04-24T09:50:34.206Z</time></trkpt><trkpt lat="45.7178157" lon="11.9373191"><ele>62.00000000000001</ele><time>2026-04-24T09:50:35.206Z</time></trkpt><trkpt lat="45.7177447" lon="11.937342"><ele>62.0</ele><time>2026-04-24T09:50:36.206Z</time></trkpt><trkpt lat="45.7176751" lon="11.9373652"><ele>62.0</ele><time>2026-04-24T09:50:37.207Z</time></trkpt><trkpt lat="45.7176038" lon="11.9373876"><ele>62.0</ele><time>2026-04-24T09:50:38.206Z</time></trkpt><trkpt lat="45.7175355" lon="11.9374074"><ele>62.00000000000001</ele><time>2026-04-24T09:50:39.206Z</time></trkpt><trkpt lat="45.717463" lon="11.937426"><ele>62.0</ele><time>2026-04-24T09:50:40.206Z</time></trkpt><trkpt lat="45.7173924" lon="11.9374461"><ele>62.0</ele><time>2026-04-24T09:50:41.206Z</time></trkpt><trkpt lat="45.7173203" lon="11.9374672"><ele>62.00000000000001</ele><time>2026-04-24T09:50:42.206Z</time></trkpt><trkpt lat="45.7172469" lon="11.9374855"><ele>62.0</ele><time>2026-04-24T09:50:43.206Z</time></trkpt><trkpt lat="45.7171749" lon="11.937506"><ele>62.0</ele><time>2026-04-24T09:50:44.206Z</time></trkpt><trkpt lat="45.7171027" lon="11.937525"><ele>62.0</ele><time>2026-04-24T09:50:45.206Z</time></trkpt><trkpt lat="45.7170322" lon="11.9375519"><ele>62.00000000000001</ele><time>2026-04-24T09:50:46.206Z</time></trkpt><trkpt lat="45.7169624" lon="11.9375714"><ele>62.0</ele><time>2026-04-24T09:50:47.206Z</time></trkpt><trkpt lat="45.7168927" lon="11.9375946"><ele>62.0</ele><time>2026-04-24T09:50:48.207Z</time></trkpt><trkpt lat="45.7168265" lon="11.9376157"><ele>62.00000000000001</ele><time>2026-04-24T09:50:49.206Z</time></trkpt><trkpt lat="45.7167586" lon="11.9376431"><ele>62.0</ele><time>2026-04-24T09:50:50.206Z</time></trkpt><trkpt lat="45.7166891" lon="11.9376719"><ele>62.0</ele><time>2026-04-24T09:50:51.206Z</time></trkpt><trkpt lat="45.716621" lon="11.9376937"><ele>61.85714285714286</ele><time>2026-04-24T09:50:52.206Z</time></trkpt><trkpt lat="45.7165549" lon="11.9377079"><ele>61.71428571428572</ele><time>2026-04-24T09:50:53.206Z</time></trkpt><trkpt lat="45.7164816" lon="11.9377284"><ele>61.57142857142857</ele><time>2026-04-24T09:50:54.206Z</time></trkpt><trkpt lat="45.7164133" lon="11.9377523"><ele>61.42857142857143</ele><time>2026-04-24T09:50:55.206Z</time></trkpt><trkpt lat="45.7163437" lon="11.937774"><ele>61.285714285714285</ele><time>2026-04-24T09:50:56.206Z</time></trkpt><trkpt lat="45.7162792" lon="11.9377973"><ele>61.14285714285714</ele><time>2026-04-24T09:50:57.207Z</time></trkpt><trkpt lat="45.7162128" lon="11.9378131"><ele>60.99999999999999</ele><time>2026-04-24T09:50:58.206Z</time></trkpt><trkpt lat="45.716147" lon="11.9378342"><ele>60.99999999999999</ele><time>2026-04-24T09:50:59.206Z</time></trkpt><trkpt lat="45.7160782" lon="11.9378509"><ele>61.0</ele><time>2026-04-24T09:51:00.206Z</time></trkpt><trkpt lat="45.7160102" lon="11.9378699"><ele>61.0</ele><time>2026-04-24T09:51:01.206Z</time></trkpt><trkpt lat="45.7159421" lon="11.9378904"><ele>61.0</ele><time>2026-04-24T09:51:02.206Z</time></trkpt><trkpt lat="45.7158699" lon="11.9379108"><ele>60.99999999999999</ele><time>2026-04-24T09:51:03.207Z</time></trkpt><trkpt lat="45.7157426" lon="11.9379472"><ele>61.0</ele><time>2026-04-24T09:51:05.206Z</time></trkpt><trkpt lat="45.7156748" lon="11.9379646"><ele>60.8</ele><time>2026-04-24T09:51:06.206Z</time></trkpt><trkpt lat="45.7156117" lon="11.9379891"><ele>60.599999999999994</ele><time>2026-04-24T09:51:07.206Z</time></trkpt><trkpt lat="45.7154847" lon="11.9380426"><ele>60.4</ele><time>2026-04-24T09:51:09.206Z</time></trkpt><trkpt lat="45.7154209" lon="11.9380694"><ele>60.2</ele><time>2026-04-24T09:51:10.206Z</time></trkpt><trkpt lat="45.7152949" lon="11.9381127"><ele>60.0</ele><time>2026-04-24T09:51:12.207Z</time></trkpt><trkpt lat="45.7152308" lon="11.9381259"><ele>59.85714285714286</ele><time>2026-04-24T09:51:13.207Z</time></trkpt><trkpt lat="45.7151631" lon="11.9381469"><ele>59.71428571428571</ele><time>2026-04-24T09:51:14.206Z</time></trkpt><trkpt lat="45.7150949" lon="11.9381745"><ele>59.57142857142857</ele><time>2026-04-24T09:51:15.206Z</time></trkpt><trkpt lat="45.7150274" lon="11.9382011"><ele>59.42857142857143</ele><time>2026-04-24T09:51:16.207Z</time></trkpt><trkpt lat="45.7149574" lon="11.9382276"><ele>59.28571428571429</ele><time>2026-04-24T09:51:17.207Z</time></trkpt><trkpt lat="45.7148867" lon="11.9382437"><ele>59.14285714285714</ele><time>2026-04-24T09:51:18.206Z</time></trkpt><trkpt lat="45.7148173" lon="11.9382696"><ele>59.0</ele><time>2026-04-24T09:51:19.206Z</time></trkpt><trkpt lat="45.714747" lon="11.9382898"><ele>59.0</ele><time>2026-04-24T09:51:20.207Z</time></trkpt><trkpt lat="45.7146812" lon="11.938307"><ele>59.0</ele><time>2026-04-24T09:51:21.206Z</time></trkpt><trkpt lat="45.7146127" lon="11.9383212"><ele>59.0</ele><time>2026-04-24T09:51:22.206Z</time></trkpt><trkpt lat="45.7145486" lon="11.9383413"><ele>59.0</ele><time>2026-04-24T09:51:23.207Z</time></trkpt><trkpt lat="45.7144829" lon="11.9383594"><ele>59.0</ele><time>2026-04-24T09:51:24.206Z</time></trkpt><trkpt lat="45.7144136" lon="11.9383774"><ele>59.0</ele><time>2026-04-24T09:51:25.206Z</time></trkpt><trkpt lat="45.7143449" lon="11.9383972"><ele>59.0</ele><time>2026-04-24T09:51:26.206Z</time></trkpt><trkpt lat="45.7142747" lon="11.9384135"><ele>58.71428571428571</ele><time>2026-04-24T09:51:27.206Z</time></trkpt><trkpt lat="45.7142025" lon="11.9384306"><ele>58.42857142857143</ele><time>2026-04-24T09:51:28.206Z</time></trkpt><trkpt lat="45.7141353" lon="11.9384449"><ele>58.14285714285714</ele><time>2026-04-24T09:51:29.206Z</time></trkpt><trkpt lat="45.7140686" lon="11.938462"><ele>57.857142857142854</ele><time>2026-04-24T09:51:30.206Z</time></trkpt><trkpt lat="45.713998" lon="11.9384737"><ele>57.57142857142857</ele><time>2026-04-24T09:51:31.206Z</time></trkpt><trkpt lat="45.7139316" lon="11.9384967"><ele>57.285714285714285</ele><time>2026-04-24T09:51:32.206Z</time></trkpt><trkpt lat="45.7138667" lon="11.9385102"><ele>57.0</ele><time>2026-04-24T09:51:33.206Z</time></trkpt><trkpt lat="45.713746" lon="11.9385308"><ele>57.0</ele><time>2026-04-24T09:51:35.206Z</time></trkpt><trkpt lat="45.7136276" lon="11.9385468"><ele>57.0</ele><time>2026-04-24T09:51:37.206Z</time></trkpt><trkpt lat="45.7135114" lon="11.9385757"><ele>57.0</ele><time>2026-04-24T09:51:39.206Z</time></trkpt><trkpt lat="45.7133872" lon="11.9386079"><ele>57.0</ele><time>2026-04-24T09:51:41.206Z</time></trkpt><trkpt lat="45.7132672" lon="11.938637"><ele>57.400000000000006</ele><time>2026-04-24T09:51:43.206Z</time></trkpt><trkpt lat="45.7131535" lon="11.9386764"><ele>57.800000000000004</ele><time>2026-04-24T09:51:45.206Z</time></trkpt><trkpt lat="45.7130448" lon="11.9387169"><ele>58.2</ele><time>2026-04-24T09:51:47.206Z</time></trkpt><trkpt lat="45.7129389" lon="11.9387538"><ele>58.6</ele><time>2026-04-24T09:51:49.205Z</time></trkpt><trkpt lat="45.7128427" lon="11.9388034"><ele>59.0</ele><time>2026-04-24T09:51:51.205Z</time></trkpt><trkpt lat="45.7127451" lon="11.9388552"><ele>59.0</ele><time>2026-04-24T09:51:53.208Z</time></trkpt><trkpt lat="45.7126351" lon="11.9388674"><ele>59.0</ele><time>2026-04-24T09:51:55.207Z</time></trkpt><trkpt lat="45.7125224" lon="11.9388921"><ele>59.0</ele><time>2026-04-24T09:51:57.207Z</time></trkpt><trkpt lat="45.7124089" lon="11.938941"><ele>59.0</ele><time>2026-04-24T09:51:59.207Z</time></trkpt><trkpt lat="45.712301" lon="11.9389519"><ele>59.0</ele><time>2026-04-24T09:52:01.207Z</time></trkpt><trkpt lat="45.7121863" lon="11.9389906"><ele>59.0</ele><time>2026-04-24T09:52:03.207Z</time></trkpt><trkpt lat="45.7120926" lon="11.9390666"><ele>59.0</ele><time>2026-04-24T09:52:05.207Z</time></trkpt><trkpt lat="45.7119983" lon="11.9391649"><ele>59.0</ele><time>2026-04-24T09:52:07.207Z</time></trkpt><trkpt lat="45.7118912" lon="11.939233"><ele>58.66666666666667</ele><time>2026-04-24T09:52:09.207Z</time></trkpt><trkpt lat="45.7117784" lon="11.9392749"><ele>58.333333333333336</ele><time>2026-04-24T09:52:11.207Z</time></trkpt><trkpt lat="45.7116642" lon="11.9393211"><ele>58.0</ele><time>2026-04-24T09:52:13.207Z</time></trkpt><trkpt lat="45.7116025" lon="11.9393433"><ele>57.66666666666667</ele><time>2026-04-24T09:52:14.207Z</time></trkpt><trkpt lat="45.7115409" lon="11.9393631"><ele>57.333333333333336</ele><time>2026-04-24T09:52:15.207Z</time></trkpt><trkpt lat="45.7114778" lon="11.9393846"><ele>57.0</ele><time>2026-04-24T09:52:16.207Z</time></trkpt><trkpt lat="45.7113571" lon="11.9394322"><ele>57.0</ele><time>2026-04-24T09:52:18.207Z</time></trkpt><trkpt lat="45.7112361" lon="11.9394818"><ele>57.0</ele><time>2026-04-24T09:52:20.208Z</time></trkpt><trkpt lat="45.7111706" lon="11.9395111"><ele>57.0</ele><time>2026-04-24T09:52:21.207Z</time></trkpt><trkpt lat="45.7111085" lon="11.9395363"><ele>57.0</ele><time>2026-04-24T09:52:22.207Z</time></trkpt><trkpt lat="45.7110447" lon="11.9395607"><ele>57.0</ele><time>2026-04-24T09:52:23.207Z</time></trkpt><trkpt lat="45.7109818" lon="11.9395839"><ele>57.0</ele><time>2026-04-24T09:52:24.207Z</time></trkpt><trkpt lat="45.7109166" lon="11.9396073"><ele>57.0</ele><time>2026-04-24T09:52:25.207Z</time></trkpt><trkpt lat="45.7108544" lon="11.9396313"><ele>57.0</ele><time>2026-04-24T09:52:26.208Z</time></trkpt><trkpt lat="45.7107935" lon="11.9396545"><ele>57.0</ele><time>2026-04-24T09:52:27.207Z</time></trkpt><trkpt lat="45.7106729" lon="11.9396982"><ele>57.0</ele><time>2026-04-24T09:52:29.207Z</time></trkpt><trkpt lat="45.7105532" lon="11.9397162"><ele>57.0</ele><time>2026-04-24T09:52:31.207Z</time></trkpt><trkpt lat="45.7104325" lon="11.9396824"><ele>57.0</ele><time>2026-04-24T09:52:33.207Z</time></trkpt><trkpt lat="45.7103714" lon="11.9396602"><ele>56.99999999999999</ele><time>2026-04-24T09:52:34.207Z</time></trkpt><trkpt lat="45.7103088" lon="11.9396337"><ele>57.0</ele><time>2026-04-24T09:52:35.207Z</time></trkpt><trkpt lat="45.7101824" lon="11.939636"><ele>57.0</ele><time>2026-04-24T09:52:37.208Z</time></trkpt><trkpt lat="45.7101184" lon="11.9396455"><ele>56.99999999999999</ele><time>2026-04-24T09:52:38.207Z</time></trkpt><trkpt lat="45.7100555" lon="11.9396563"><ele>57.0</ele><time>2026-04-24T09:52:39.207Z</time></trkpt><trkpt lat="45.7099917" lon="11.9396721"><ele>57.0</ele><time>2026-04-24T09:52:40.207Z</time></trkpt><trkpt lat="45.7099258" lon="11.9396919"><ele>56.833333333333336</ele><time>2026-04-24T09:52:41.207Z</time></trkpt><trkpt lat="45.7098617" lon="11.9397058"><ele>56.66666666666667</ele><time>2026-04-24T09:52:42.207Z</time></trkpt><trkpt lat="45.7097375" lon="11.9397456"><ele>56.5</ele><time>2026-04-24T09:52:44.208Z</time></trkpt><trkpt lat="45.7096736" lon="11.9397685"><ele>56.333333333333336</ele><time>2026-04-24T09:52:45.207Z</time></trkpt><trkpt lat="45.7096099" lon="11.9397915"><ele>56.16666666666667</ele><time>2026-04-24T09:52:46.207Z</time></trkpt><trkpt lat="45.7095426" lon="11.9398086"><ele>56.0</ele><time>2026-04-24T09:52:47.207Z</time></trkpt><trkpt lat="45.7094761" lon="11.9398243"><ele>56.00000000000001</ele><time>2026-04-24T09:52:48.207Z</time></trkpt><trkpt lat="45.7094103" lon="11.9398406"><ele>56.0</ele><time>2026-04-24T09:52:49.207Z</time></trkpt><trkpt lat="45.7092878" lon="11.9398752"><ele>56.0</ele><time>2026-04-24T09:52:51.207Z</time></trkpt><trkpt lat="45.7092259" lon="11.9398927"><ele>56.0</ele><time>2026-04-24T09:52:52.208Z</time></trkpt><trkpt lat="45.7091629" lon="11.9399119"><ele>56.00000000000001</ele><time>2026-04-24T09:52:53.207Z</time></trkpt><trkpt lat="45.7090981" lon="11.9399281"><ele>56.0</ele><time>2026-04-24T09:52:54.207Z</time></trkpt><trkpt lat="45.709034" lon="11.9399435"><ele>56.0</ele><time>2026-04-24T09:52:55.207Z</time></trkpt><trkpt lat="45.7089689" lon="11.9399627"><ele>56.0</ele><time>2026-04-24T09:52:56.207Z</time></trkpt><trkpt lat="45.7089062" lon="11.9399792"><ele>56.0</ele><time>2026-04-24T09:52:57.207Z</time></trkpt><trkpt lat="45.7088359" lon="11.9400053"><ele>56.0</ele><time>2026-04-24T09:52:58.208Z</time></trkpt><trkpt lat="45.7087688" lon="11.9400261"><ele>56.0</ele><time>2026-04-24T09:52:59.207Z</time></trkpt><trkpt lat="45.708704" lon="11.9400453"><ele>56.0</ele><time>2026-04-24T09:53:00.207Z</time></trkpt><trkpt lat="45.7086405" lon="11.9400596"><ele>56.0</ele><time>2026-04-24T09:53:01.208Z</time></trkpt><trkpt lat="45.7085769" lon="11.9400776"><ele>56.0</ele><time>2026-04-24T09:53:02.207Z</time></trkpt><trkpt lat="45.708515" lon="11.9400963"><ele>55.99999999999999</ele><time>2026-04-24T09:53:03.208Z</time></trkpt><trkpt lat="45.7083979" lon="11.9401294"><ele>55.99999999999999</ele><time>2026-04-24T09:53:05.207Z</time></trkpt><trkpt lat="45.7082861" lon="11.9401648"><ele>56.0</ele><time>2026-04-24T09:53:07.208Z</time></trkpt><trkpt lat="45.708178" lon="11.9401847"><ele>56.0</ele><time>2026-04-24T09:53:09.207Z</time></trkpt><trkpt lat="45.7080802" lon="11.9402158"><ele>56.00000000000001</ele><time>2026-04-24T09:53:11.207Z</time></trkpt><trkpt lat="45.7079964" lon="11.9402496"><ele>56.0</ele><time>2026-04-24T09:53:13.207Z</time></trkpt><trkpt lat="45.7079334" lon="11.9402571"><ele>56.0</ele><time>2026-04-24T09:53:15.207Z</time></trkpt><trkpt lat="45.707849" lon="11.9402271"><ele>56.0</ele><time>2026-04-24T09:53:18.207Z</time></trkpt><trkpt lat="45.7077964" lon="11.9401684"><ele>56.00000000000001</ele><time>2026-04-24T09:53:20.208Z</time></trkpt><trkpt lat="45.7077376" lon="11.9400656"><ele>56.0</ele><time>2026-04-24T09:53:22.207Z</time></trkpt><trkpt lat="45.7076931" lon="11.9399465"><ele>56.199999999999996</ele><time>2026-04-24T09:53:24.208Z</time></trkpt><trkpt lat="45.7076412" lon="11.9398221"><ele>56.39999999999999</ele><time>2026-04-24T09:53:26.207Z</time></trkpt><trkpt lat="45.7075873" lon="11.9396854"><ele>56.6</ele><time>2026-04-24T09:53:28.207Z</time></trkpt><trkpt lat="45.7075296" lon="11.9395381"><ele>56.8</ele><time>2026-04-24T09:53:30.207Z</time></trkpt><trkpt lat="45.7074721" lon="11.939389"><ele>57.0</ele><time>2026-04-24T09:53:32.207Z</time></trkpt><trkpt lat="45.7074217" lon="11.9392334"><ele>56.6</ele><time>2026-04-24T09:53:34.208Z</time></trkpt><trkpt lat="45.7073862" lon="11.9390616"><ele>56.2</ele><time>2026-04-24T09:53:36.207Z</time></trkpt><trkpt lat="45.7073561" lon="11.9388824"><ele>55.8</ele><time>2026-04-24T09:53:38.208Z</time></trkpt><trkpt lat="45.7073413" lon="11.9387943"><ele>55.4</ele><time>2026-04-24T09:53:39.208Z</time></trkpt><trkpt lat="45.7073267" lon="11.9387043"><ele>55.0</ele><time>2026-04-24T09:53:40.207Z</time></trkpt><trkpt lat="45.707294" lon="11.9385257"><ele>54.99999999999999</ele><time>2026-04-24T09:53:42.207Z</time></trkpt><trkpt lat="45.7072766" lon="11.9384287"><ele>55.0</ele><time>2026-04-24T09:53:43.207Z</time></trkpt><trkpt lat="45.7072591" lon="11.9383366"><ele>55.0</ele><time>2026-04-24T09:53:44.207Z</time></trkpt><trkpt lat="45.7072385" lon="11.9382408"><ele>55.0</ele><time>2026-04-24T09:53:45.207Z</time></trkpt><trkpt lat="45.7072201" lon="11.9381476"><ele>55.0</ele><time>2026-04-24T09:53:46.207Z</time></trkpt><trkpt lat="45.7071976" lon="11.9380481"><ele>54.99999999999999</ele><time>2026-04-24T09:53:47.207Z</time></trkpt><trkpt lat="45.7071771" lon="11.9379473"><ele>55.0</ele><time>2026-04-24T09:53:48.207Z</time></trkpt><trkpt lat="45.7071564" lon="11.9378476"><ele>54.857142857142854</ele><time>2026-04-24T09:53:49.207Z</time></trkpt><trkpt lat="45.7071336" lon="11.9377502"><ele>54.714285714285715</ele><time>2026-04-24T09:53:50.208Z</time></trkpt><trkpt lat="45.7071112" lon="11.9376501"><ele>54.57142857142857</ele><time>2026-04-24T09:53:51.207Z</time></trkpt><trkpt lat="45.7070937" lon="11.9375466"><ele>54.42857142857143</ele><time>2026-04-24T09:53:52.207Z</time></trkpt><trkpt lat="45.7070743" lon="11.937447"><ele>54.285714285714285</ele><time>2026-04-24T09:53:53.207Z</time></trkpt><trkpt lat="45.7070486" lon="11.9373466"><ele>54.14285714285714</ele><time>2026-04-24T09:53:54.207Z</time></trkpt><trkpt lat="45.707022" lon="11.9372485"><ele>54.0</ele><time>2026-04-24T09:53:55.207Z</time></trkpt><trkpt lat="45.7070029" lon="11.9371462"><ele>54.0</ele><time>2026-04-24T09:53:56.207Z</time></trkpt><trkpt lat="45.7069866" lon="11.9370496"><ele>54.0</ele><time>2026-04-24T09:53:57.207Z</time></trkpt><trkpt lat="45.7069691" lon="11.9369524"><ele>54.0</ele><time>2026-04-24T09:53:58.207Z</time></trkpt><trkpt lat="45.706951" lon="11.936856"><ele>54.0</ele><time>2026-04-24T09:53:59.207Z</time></trkpt><trkpt lat="45.7069293" lon="11.9367609"><ele>54.0</ele><time>2026-04-24T09:54:00.207Z</time></trkpt><trkpt lat="45.7069062" lon="11.936664"><ele>54.0</ele><time>2026-04-24T09:54:01.207Z</time></trkpt><trkpt lat="45.7068741" lon="11.9365724"><ele>54.0</ele><time>2026-04-24T09:54:02.208Z</time></trkpt><trkpt lat="45.7068355" lon="11.936491"><ele>54.0</ele><time>2026-04-24T09:54:03.207Z</time></trkpt><trkpt lat="45.7067914" lon="11.9364095"><ele>54.0</ele><time>2026-04-24T09:54:04.207Z</time></trkpt><trkpt lat="45.706744" lon="11.9363291"><ele>54.0</ele><time>2026-04-24T09:54:05.208Z</time></trkpt><trkpt lat="45.7066959" lon="11.9362515"><ele>54.0</ele><time>2026-04-24T09:54:06.208Z</time></trkpt><trkpt lat="45.706647" lon="11.9361817"><ele>54.0</ele><time>2026-04-24T09:54:07.207Z</time></trkpt><trkpt lat="45.706602" lon="11.9361103"><ele>54.0</ele><time>2026-04-24T09:54:08.207Z</time></trkpt><trkpt lat="45.7065633" lon="11.9360371"><ele>54.0</ele><time>2026-04-24T09:54:09.207Z</time></trkpt><trkpt lat="45.70652" lon="11.9359695"><ele>54.0</ele><time>2026-04-24T09:54:10.207Z</time></trkpt><trkpt lat="45.7064793" lon="11.9358942"><ele>54.0</ele><time>2026-04-24T09:54:11.207Z</time></trkpt><trkpt lat="45.7064344" lon="11.9358131"><ele>54.0</ele><time>2026-04-24T09:54:12.207Z</time></trkpt><trkpt lat="45.7063984" lon="11.9357309"><ele>54.0</ele><time>2026-04-24T09:54:13.207Z</time></trkpt><trkpt lat="45.7063627" lon="11.9356515"><ele>54.0</ele><time>2026-04-24T09:54:14.207Z</time></trkpt><trkpt lat="45.7063298" lon="11.9355708"><ele>54.0</ele><time>2026-04-24T09:54:15.208Z</time></trkpt><trkpt lat="45.7063004" lon="11.9354797"><ele>54.0</ele><time>2026-04-24T09:54:16.207Z</time></trkpt><trkpt lat="45.7062806" lon="11.9353862"><ele>53.857142857142854</ele><time>2026-04-24T09:54:17.207Z</time></trkpt><trkpt lat="45.7062652" lon="11.9352869"><ele>53.71428571428571</ele><time>2026-04-24T09:54:18.207Z</time></trkpt><trkpt lat="45.706251" lon="11.9351855"><ele>53.57142857142857</ele><time>2026-04-24T09:54:19.207Z</time></trkpt><trkpt lat="45.7062359" lon="11.9350821"><ele>53.42857142857143</ele><time>2026-04-24T09:54:20.207Z</time></trkpt><trkpt lat="45.7062223" lon="11.9349866"><ele>53.285714285714285</ele><time>2026-04-24T09:54:21.207Z</time></trkpt><trkpt lat="45.7062085" lon="11.9348908"><ele>53.142857142857146</ele><time>2026-04-24T09:54:22.207Z</time></trkpt><trkpt lat="45.7061931" lon="11.9347964"><ele>53.0</ele><time>2026-04-24T09:54:23.207Z</time></trkpt><trkpt lat="45.7061751" lon="11.9347072"><ele>53.0</ele><time>2026-04-24T09:54:24.208Z</time></trkpt><trkpt lat="45.7061528" lon="11.9345431"><ele>53.0</ele><time>2026-04-24T09:54:26.207Z</time></trkpt><trkpt lat="45.7061235" lon="11.9343651"><ele>53.0</ele><time>2026-04-24T09:54:28.207Z</time></trkpt><trkpt lat="45.7061158" lon="11.9342736"><ele>53.0</ele><time>2026-04-24T09:54:29.207Z</time></trkpt><trkpt lat="45.7061044" lon="11.9341808"><ele>53.0</ele><time>2026-04-24T09:54:30.207Z</time></trkpt><trkpt lat="45.7060781" lon="11.9340058"><ele>53.0</ele><time>2026-04-24T09:54:32.207Z</time></trkpt><trkpt lat="45.7060554" lon="11.933837"><ele>53.0</ele><time>2026-04-24T09:54:34.207Z</time></trkpt><trkpt lat="45.7060307" lon="11.9336771"><ele>53.0</ele><time>2026-04-24T09:54:36.207Z</time></trkpt><trkpt lat="45.7060027" lon="11.9335098"><ele>53.0</ele><time>2026-04-24T09:54:38.207Z</time></trkpt><trkpt lat="45.7060037" lon="11.9333434"><ele>53.0</ele><time>2026-04-24T09:54:40.207Z</time></trkpt><trkpt lat="45.7060043" lon="11.9332526"><ele>53.0</ele><time>2026-04-24T09:54:41.207Z</time></trkpt><trkpt lat="45.7060151" lon="11.9330789"><ele>53.0</ele><time>2026-04-24T09:54:43.207Z</time></trkpt><trkpt lat="45.7060297" lon="11.9329879"><ele>53.0</ele><time>2026-04-24T09:54:44.207Z</time></trkpt><trkpt lat="45.7060473" lon="11.9328154"><ele>53.0</ele><time>2026-04-24T09:54:46.207Z</time></trkpt><trkpt lat="45.7060761" lon="11.9326476"><ele>53.4</ele><time>2026-04-24T09:54:48.207Z</time></trkpt><trkpt lat="45.7061004" lon="11.932482"><ele>53.8</ele><time>2026-04-24T09:54:50.207Z</time></trkpt><trkpt lat="45.7061082" lon="11.9323067"><ele>54.2</ele><time>2026-04-24T09:54:52.207Z</time></trkpt><trkpt lat="45.7061145" lon="11.9322101"><ele>54.6</ele><time>2026-04-24T09:54:53.207Z</time></trkpt><trkpt lat="45.706118" lon="11.9321106"><ele>55.0</ele><time>2026-04-24T09:54:54.207Z</time></trkpt><trkpt lat="45.7061121" lon="11.9319329"><ele>55.0</ele><time>2026-04-24T09:54:56.207Z</time></trkpt><trkpt lat="45.7060901" lon="11.9317506"><ele>55.0</ele><time>2026-04-24T09:54:58.207Z</time></trkpt><trkpt lat="45.70608" lon="11.9316559"><ele>55.0</ele><time>2026-04-24T09:54:59.207Z</time></trkpt><trkpt lat="45.7060662" lon="11.9314895"><ele>55.0</ele><time>2026-04-24T09:55:01.208Z</time></trkpt><trkpt lat="45.7060196" lon="11.9313236"><ele>55.0</ele><time>2026-04-24T09:55:03.207Z</time></trkpt><trkpt lat="45.7059706" lon="11.931177"><ele>54.75</ele><time>2026-04-24T09:55:05.207Z</time></trkpt><trkpt lat="45.7059258" lon="11.9310247"><ele>54.5</ele><time>2026-04-24T09:55:07.207Z</time></trkpt><trkpt lat="45.705883" lon="11.930872"><ele>54.25</ele><time>2026-04-24T09:55:09.207Z</time></trkpt><trkpt lat="45.7058505" lon="11.9307227"><ele>54.0</ele><time>2026-04-24T09:55:11.208Z</time></trkpt><trkpt lat="45.7058255" lon="11.9305682"><ele>54.0</ele><time>2026-04-24T09:55:13.208Z</time></trkpt><trkpt lat="45.7058086" lon="11.9304296"><ele>54.00000000000001</ele><time>2026-04-24T09:55:15.207Z</time></trkpt><trkpt lat="45.7057932" lon="11.9303072"><ele>54.00000000000001</ele><time>2026-04-24T09:55:17.208Z</time></trkpt><trkpt lat="45.7057803" lon="11.9301875"><ele>54.0</ele><time>2026-04-24T09:55:19.207Z</time></trkpt><trkpt lat="45.7057535" lon="11.9300551"><ele>54.0</ele><time>2026-04-24T09:55:21.207Z</time></trkpt><trkpt lat="45.7056832" lon="11.9299496"><ele>54.0</ele><time>2026-04-24T09:55:23.206Z</time></trkpt><trkpt lat="45.7055741" lon="11.9299131"><ele>54.00000000000001</ele><time>2026-04-24T09:55:25.206Z</time></trkpt><trkpt lat="45.7054613" lon="11.9298726"><ele>54.00000000000001</ele><time>2026-04-24T09:55:27.206Z</time></trkpt><trkpt lat="45.7053574" lon="11.9298452"><ele>54.0</ele><time>2026-04-24T09:55:29.206Z</time></trkpt><trkpt lat="45.7052597" lon="11.9298397"><ele>54.0</ele><time>2026-04-24T09:55:31.207Z</time></trkpt><trkpt lat="45.7051629" lon="11.9298107"><ele>53.800000000000004</ele><time>2026-04-24T09:55:33.206Z</time></trkpt><trkpt lat="45.7050719" lon="11.9297986"><ele>53.60000000000001</ele><time>2026-04-24T09:55:35.206Z</time></trkpt><trkpt lat="45.7049799" lon="11.9297876"><ele>53.4</ele><time>2026-04-24T09:55:37.206Z</time></trkpt><trkpt lat="45.7048865" lon="11.9297692"><ele>53.2</ele><time>2026-04-24T09:55:39.207Z</time></trkpt><trkpt lat="45.7047887" lon="11.9297527"><ele>53.0</ele><time>2026-04-24T09:55:41.207Z</time></trkpt><trkpt lat="45.7046886" lon="11.9297498"><ele>53.0</ele><time>2026-04-24T09:55:43.206Z</time></trkpt><trkpt lat="45.704588" lon="11.9297242"><ele>53.0</ele><time>2026-04-24T09:55:45.206Z</time></trkpt><trkpt lat="45.7044745" lon="11.9297131"><ele>53.0</ele><time>2026-04-24T09:55:47.206Z</time></trkpt><trkpt lat="45.7043648" lon="11.9296898"><ele>53.0</ele><time>2026-04-24T09:55:49.206Z</time></trkpt><trkpt lat="45.704259" lon="11.9296765"><ele>53.0</ele><time>2026-04-24T09:55:51.206Z</time></trkpt><trkpt lat="45.7041495" lon="11.9296656"><ele>53.2</ele><time>2026-04-24T09:55:53.206Z</time></trkpt><trkpt lat="45.7040445" lon="11.9296571"><ele>53.4</ele><time>2026-04-24T09:55:55.206Z</time></trkpt><trkpt lat="45.7039349" lon="11.9296279"><ele>53.60000000000001</ele><time>2026-04-24T09:55:57.206Z</time></trkpt><trkpt lat="45.7038241" lon="11.92961"><ele>53.800000000000004</ele><time>2026-04-24T09:55:59.206Z</time></trkpt><trkpt lat="45.7037132" lon="11.9295946"><ele>54.0</ele><time>2026-04-24T09:56:01.206Z</time></trkpt><trkpt lat="45.7036026" lon="11.9295736"><ele>53.5</ele><time>2026-04-24T09:56:03.207Z</time></trkpt><trkpt lat="45.7034905" lon="11.9295584"><ele>53.0</ele><time>2026-04-24T09:56:05.207Z</time></trkpt><trkpt lat="45.7033756" lon="11.9295307"><ele>52.5</ele><time>2026-04-24T09:56:07.206Z</time></trkpt><trkpt lat="45.7032605" lon="11.9295036"><ele>52.0</ele><time>2026-04-24T09:56:09.206Z</time></trkpt><trkpt lat="45.703144" lon="11.9294825"><ele>52.0</ele><time>2026-04-24T09:56:11.206Z</time></trkpt><trkpt lat="45.7030319" lon="11.9294678"><ele>52.0</ele><time>2026-04-24T09:56:13.206Z</time></trkpt><trkpt lat="45.7029191" lon="11.9294475"><ele>52.0</ele><time>2026-04-24T09:56:15.207Z</time></trkpt><trkpt lat="45.7027988" lon="11.9294237"><ele>52.0</ele><time>2026-04-24T09:56:17.206Z</time></trkpt><trkpt lat="45.7026813" lon="11.929414"><ele>51.5</ele><time>2026-04-24T09:56:19.207Z</time></trkpt><trkpt lat="45.702565" lon="11.9293991"><ele>51.0</ele><time>2026-04-24T09:56:21.206Z</time></trkpt><trkpt lat="45.7024517" lon="11.9293921"><ele>50.5</ele><time>2026-04-24T09:56:23.207Z</time></trkpt><trkpt lat="45.7023308" lon="11.9293869"><ele>50.0</ele><time>2026-04-24T09:56:25.206Z</time></trkpt><trkpt lat="45.702212" lon="11.9293745"><ele>50.0</ele><time>2026-04-24T09:56:27.206Z</time></trkpt><trkpt lat="45.7020925" lon="11.9293758"><ele>50.0</ele><time>2026-04-24T09:56:29.206Z</time></trkpt><trkpt lat="45.7019826" lon="11.9293698"><ele>50.0</ele><time>2026-04-24T09:56:31.206Z</time></trkpt><trkpt lat="45.7018737" lon="11.9293749"><ele>50.0</ele><time>2026-04-24T09:56:33.206Z</time></trkpt><trkpt lat="45.701769" lon="11.929374"><ele>50.0</ele><time>2026-04-24T09:56:35.206Z</time></trkpt><trkpt lat="45.7016774" lon="11.9293775"><ele>50.16666666666667</ele><time>2026-04-24T09:56:37.206Z</time></trkpt><trkpt lat="45.7016067" lon="11.9293917"><ele>50.333333333333336</ele><time>2026-04-24T09:56:39.206Z</time></trkpt><trkpt lat="45.7015396" lon="11.9293999"><ele>50.5</ele><time>2026-04-24T09:56:41.206Z</time></trkpt><trkpt lat="45.7014585" lon="11.9293958"><ele>50.66666666666667</ele><time>2026-04-24T09:56:43.207Z</time></trkpt><trkpt lat="45.7013612" lon="11.9293875"><ele>50.833333333333336</ele><time>2026-04-24T09:56:45.206Z</time></trkpt><trkpt lat="45.7012637" lon="11.9293685"><ele>51.0</ele><time>2026-04-24T09:56:47.207Z</time></trkpt><trkpt lat="45.7011566" lon="11.9293447"><ele>50.8</ele><time>2026-04-24T09:56:49.207Z</time></trkpt><trkpt lat="45.7010664" lon="11.9292854"><ele>50.599999999999994</ele><time>2026-04-24T09:56:51.206Z</time></trkpt><trkpt lat="45.7009747" lon="11.9292367"><ele>50.4</ele><time>2026-04-24T09:56:53.206Z</time></trkpt><trkpt lat="45.7008683" lon="11.9292111"><ele>50.2</ele><time>2026-04-24T09:56:55.207Z</time></trkpt><trkpt lat="45.7007612" lon="11.929179"><ele>50.0</ele><time>2026-04-24T09:56:57.206Z</time></trkpt><trkpt lat="45.7006652" lon="11.9291455"><ele>50.16666666666667</ele><time>2026-04-24T09:56:59.206Z</time></trkpt><trkpt lat="45.7005759" lon="11.9291297"><ele>50.333333333333336</ele><time>2026-04-24T09:57:01.206Z</time></trkpt><trkpt lat="45.7005101" lon="11.9291008"><ele>50.5</ele><time>2026-04-24T09:57:05.207Z</time></trkpt><trkpt lat="45.7004432" lon="11.9290182"><ele>50.66666666666667</ele><time>2026-04-24T09:57:08.206Z</time></trkpt><trkpt lat="45.7003689" lon="11.9290142"><ele>50.833333333333336</ele><time>2026-04-24T09:57:10.206Z</time></trkpt><trkpt lat="45.7002903" lon="11.9290646"><ele>51.0</ele><time>2026-04-24T09:57:13.206Z</time></trkpt><trkpt lat="45.7002254" lon="11.9290373"><ele>51.0</ele><time>2026-04-24T09:57:15.207Z</time></trkpt><trkpt lat="45.7001278" lon="11.9289898"><ele>51.0</ele><time>2026-04-24T09:57:17.206Z</time></trkpt><trkpt lat="45.7000354" lon="11.9289736"><ele>51.0</ele><time>2026-04-24T09:57:19.207Z</time></trkpt><trkpt lat="45.6999255" lon="11.9289443"><ele>51.0</ele><time>2026-04-24T09:57:21.206Z</time></trkpt><trkpt lat="45.6998174" lon="11.9289031"><ele>51.0</ele><time>2026-04-24T09:57:23.206Z</time></trkpt><trkpt lat="45.6996978" lon="11.928869"><ele>51.0</ele><time>2026-04-24T09:57:25.206Z</time></trkpt><trkpt lat="45.6995762" lon="11.9288292"><ele>51.0</ele><time>2026-04-24T09:57:27.207Z</time></trkpt><trkpt lat="45.6995099" lon="11.9288097"><ele>51.0</ele><time>2026-04-24T09:57:28.206Z</time></trkpt><trkpt lat="45.6994426" lon="11.9287863"><ele>51.0</ele><time>2026-04-24T09:57:29.207Z</time></trkpt><trkpt lat="45.699378" lon="11.9287675"><ele>51.0</ele><time>2026-04-24T09:57:30.206Z</time></trkpt><trkpt lat="45.6993149" lon="11.928748"><ele>51.0</ele><time>2026-04-24T09:57:31.206Z</time></trkpt><trkpt lat="45.6992466" lon="11.928725"><ele>50.85714285714286</ele><time>2026-04-24T09:57:32.206Z</time></trkpt><trkpt lat="45.6991768" lon="11.9287041"><ele>50.714285714285715</ele><time>2026-04-24T09:57:33.206Z</time></trkpt><trkpt lat="45.699109" lon="11.9286896"><ele>50.57142857142857</ele><time>2026-04-24T09:57:34.206Z</time></trkpt><trkpt lat="45.6990433" lon="11.928671"><ele>50.42857142857143</ele><time>2026-04-24T09:57:35.206Z</time></trkpt><trkpt lat="45.6989748" lon="11.9286516"><ele>50.285714285714285</ele><time>2026-04-24T09:57:36.206Z</time></trkpt><trkpt lat="45.6989113" lon="11.9286258"><ele>50.142857142857146</ele><time>2026-04-24T09:57:37.206Z</time></trkpt><trkpt lat="45.6988408" lon="11.928605"><ele>50.0</ele><time>2026-04-24T09:57:38.207Z</time></trkpt><trkpt lat="45.6987709" lon="11.9285879"><ele>50.00000000000001</ele><time>2026-04-24T09:57:39.206Z</time></trkpt><trkpt lat="45.6986974" lon="11.9285688"><ele>50.0</ele><time>2026-04-24T09:57:40.207Z</time></trkpt><trkpt lat="45.6986274" lon="11.9285441"><ele>50.0</ele><time>2026-04-24T09:57:41.206Z</time></trkpt><trkpt lat="45.6985588" lon="11.9285231"><ele>50.0</ele><time>2026-04-24T09:57:42.206Z</time></trkpt><trkpt lat="45.6984957" lon="11.9285079"><ele>50.0</ele><time>2026-04-24T09:57:43.206Z</time></trkpt><trkpt lat="45.6984309" lon="11.9284926"><ele>50.00000000000001</ele><time>2026-04-24T09:57:44.207Z</time></trkpt><trkpt lat="45.6983591" lon="11.9284708"><ele>50.0</ele><time>2026-04-24T09:57:45.206Z</time></trkpt><trkpt lat="45.6982903" lon="11.9284525"><ele>50.00000000000001</ele><time>2026-04-24T09:57:46.206Z</time></trkpt><trkpt lat="45.6982244" lon="11.9284364"><ele>50.0</ele><time>2026-04-24T09:57:47.206Z</time></trkpt><trkpt lat="45.6981547" lon="11.9284234"><ele>50.0</ele><time>2026-04-24T09:57:48.206Z</time></trkpt><trkpt lat="45.698082" lon="11.9284098"><ele>50.0</ele><time>2026-04-24T09:57:49.206Z</time></trkpt><trkpt lat="45.6980082" lon="11.9283949"><ele>50.0</ele><time>2026-04-24T09:57:50.206Z</time></trkpt><trkpt lat="45.6979377" lon="11.9283859"><ele>50.00000000000001</ele><time>2026-04-24T09:57:51.206Z</time></trkpt><trkpt lat="45.6978665" lon="11.9283716"><ele>50.0</ele><time>2026-04-24T09:57:52.206Z</time></trkpt><trkpt lat="45.6977985" lon="11.928364"><ele>50.142857142857146</ele><time>2026-04-24T09:57:53.206Z</time></trkpt><trkpt lat="45.697726" lon="11.9283637"><ele>50.285714285714285</ele><time>2026-04-24T09:57:54.207Z</time></trkpt><trkpt lat="45.6976582" lon="11.9283514"><ele>50.42857142857143</ele><time>2026-04-24T09:57:55.206Z</time></trkpt><trkpt lat="45.697594" lon="11.9283425"><ele>50.57142857142857</ele><time>2026-04-24T09:57:56.206Z</time></trkpt><trkpt lat="45.697523" lon="11.9283312"><ele>50.714285714285715</ele><time>2026-04-24T09:57:57.206Z</time></trkpt><trkpt lat="45.6974512" lon="11.9283216"><ele>50.85714285714286</ele><time>2026-04-24T09:57:58.206Z</time></trkpt><trkpt lat="45.6973849" lon="11.9283145"><ele>51.0</ele><time>2026-04-24T09:57:59.206Z</time></trkpt><trkpt lat="45.6973162" lon="11.9283071"><ele>51.0</ele><time>2026-04-24T09:58:00.206Z</time></trkpt><trkpt lat="45.6972435" lon="11.9282998"><ele>51.0</ele><time>2026-04-24T09:58:01.206Z</time></trkpt><trkpt lat="45.6971706" lon="11.9282852"><ele>51.0</ele><time>2026-04-24T09:58:02.206Z</time></trkpt><trkpt lat="45.6970986" lon="11.9282722"><ele>51.0</ele><time>2026-04-24T09:58:03.207Z</time></trkpt><trkpt lat="45.697028" lon="11.9282612"><ele>51.0</ele><time>2026-04-24T09:58:04.206Z</time></trkpt><trkpt lat="45.6969606" lon="11.9282497"><ele>51.0</ele><time>2026-04-24T09:58:05.206Z</time></trkpt><trkpt lat="45.6968915" lon="11.9282284"><ele>51.0</ele><time>2026-04-24T09:58:06.206Z</time></trkpt><trkpt lat="45.6968231" lon="11.928204"><ele>51.0</ele><time>2026-04-24T09:58:07.206Z</time></trkpt><trkpt lat="45.6967573" lon="11.9281814"><ele>51.0</ele><time>2026-04-24T09:58:08.207Z</time></trkpt><trkpt lat="45.6966955" lon="11.9281613"><ele>51.0</ele><time>2026-04-24T09:58:09.207Z</time></trkpt><trkpt lat="45.6966305" lon="11.9281302"><ele>51.0</ele><time>2026-04-24T09:58:10.206Z</time></trkpt><trkpt lat="45.6965665" lon="11.9281038"><ele>51.0</ele><time>2026-04-24T09:58:11.206Z</time></trkpt><trkpt lat="45.6965006" lon="11.9280753"><ele>51.0</ele><time>2026-04-24T09:58:12.206Z</time></trkpt><trkpt lat="45.6964375" lon="11.9280434"><ele>51.0</ele><time>2026-04-24T09:58:13.207Z</time></trkpt><trkpt lat="45.6963718" lon="11.928015"><ele>51.0</ele><time>2026-04-24T09:58:14.206Z</time></trkpt><trkpt lat="45.6963067" lon="11.9279893"><ele>51.0</ele><time>2026-04-24T09:58:15.206Z</time></trkpt><trkpt lat="45.6962427" lon="11.9279609"><ele>51.0</ele><time>2026-04-24T09:58:16.206Z</time></trkpt><trkpt lat="45.6961832" lon="11.9279246"><ele>51.0</ele><time>2026-04-24T09:58:17.206Z</time></trkpt><trkpt lat="45.6961161" lon="11.9278827"><ele>51.0</ele><time>2026-04-24T09:58:18.206Z</time></trkpt><trkpt lat="45.696055" lon="11.9278491"><ele>51.0</ele><time>2026-04-24T09:58:19.206Z</time></trkpt><trkpt lat="45.695994" lon="11.9278179"><ele>51.0</ele><time>2026-04-24T09:58:20.206Z</time></trkpt><trkpt lat="45.6959333" lon="11.9277893"><ele>50.85714285714286</ele><time>2026-04-24T09:58:21.206Z</time></trkpt><trkpt lat="45.6958694" lon="11.9277642"><ele>50.714285714285715</ele><time>2026-04-24T09:58:22.206Z</time></trkpt><trkpt lat="45.6958085" lon="11.9277404"><ele>50.57142857142857</ele><time>2026-04-24T09:58:23.206Z</time></trkpt><trkpt lat="45.6957489" lon="11.9277096"><ele>50.42857142857143</ele><time>2026-04-24T09:58:24.206Z</time></trkpt><trkpt lat="45.6956894" lon="11.9276747"><ele>50.285714285714285</ele><time>2026-04-24T09:58:25.206Z</time></trkpt><trkpt lat="45.6956266" lon="11.9276452"><ele>50.142857142857146</ele><time>2026-04-24T09:58:26.206Z</time></trkpt><trkpt lat="45.6955658" lon="11.9276107"><ele>50.0</ele><time>2026-04-24T09:58:27.206Z</time></trkpt><trkpt lat="45.6955032" lon="11.927582"><ele>50.0</ele><time>2026-04-24T09:58:28.206Z</time></trkpt><trkpt lat="45.6953873" lon="11.927552"><ele>50.0</ele><time>2026-04-24T09:58:30.206Z</time></trkpt><trkpt lat="45.6952747" lon="11.9275228"><ele>50.0</ele><time>2026-04-24T09:58:32.206Z</time></trkpt><trkpt lat="45.695164" lon="11.9275105"><ele>50.0</ele><time>2026-04-24T09:58:34.206Z</time></trkpt><trkpt lat="45.695048" lon="11.9275047"><ele>50.0</ele><time>2026-04-24T09:58:36.207Z</time></trkpt><trkpt lat="45.6949382" lon="11.9275007"><ele>50.0</ele><time>2026-04-24T09:58:38.206Z</time></trkpt><trkpt lat="45.6948354" lon="11.9275104"><ele>50.0</ele><time>2026-04-24T09:58:40.206Z</time></trkpt><trkpt lat="45.6947236" lon="11.927537"><ele>50.0</ele><time>2026-04-24T09:58:42.206Z</time></trkpt><trkpt lat="45.6945986" lon="11.9275262"><ele>50.0</ele><time>2026-04-24T09:58:44.207Z</time></trkpt><trkpt lat="45.6945328" lon="11.9275148"><ele>50.0</ele><time>2026-04-24T09:58:45.206Z</time></trkpt><trkpt lat="45.6944105" lon="11.9275225"><ele>50.0</ele><time>2026-04-24T09:58:47.207Z</time></trkpt><trkpt lat="45.6942966" lon="11.9275285"><ele>50.0</ele><time>2026-04-24T09:58:49.207Z</time></trkpt><trkpt lat="45.694176" lon="11.9275288"><ele>50.0</ele><time>2026-04-24T09:58:51.206Z</time></trkpt><trkpt lat="45.6940626" lon="11.9275304"><ele>49.75</ele><time>2026-04-24T09:58:53.206Z</time></trkpt><trkpt lat="45.6939469" lon="11.9275219"><ele>49.5</ele><time>2026-04-24T09:58:55.205Z</time></trkpt><trkpt lat="45.6938278" lon="11.9275183"><ele>49.25</ele><time>2026-04-24T09:58:57.205Z</time></trkpt><trkpt lat="45.6937059" lon="11.92752"><ele>49.0</ele><time>2026-04-24T09:58:59.205Z</time></trkpt><trkpt lat="45.6935817" lon="11.9275282"><ele>48.99999999999999</ele><time>2026-04-24T09:59:01.205Z</time></trkpt><trkpt lat="45.6934639" lon="11.9275237"><ele>49.0</ele><time>2026-04-24T09:59:03.205Z</time></trkpt><trkpt lat="45.693398" lon="11.9275124"><ele>49.0</ele><time>2026-04-24T09:59:04.205Z</time></trkpt><trkpt lat="45.693275" lon="11.9275103"><ele>49.0</ele><time>2026-04-24T09:59:06.205Z</time></trkpt><trkpt lat="45.6932101" lon="11.927504"><ele>48.99999999999999</ele><time>2026-04-24T09:59:07.205Z</time></trkpt><trkpt lat="45.6931453" lon="11.9274987"><ele>49.0</ele><time>2026-04-24T09:59:08.205Z</time></trkpt><trkpt lat="45.6930814" lon="11.927497"><ele>49.0</ele><time>2026-04-24T09:59:09.205Z</time></trkpt><trkpt lat="45.6930162" lon="11.9274992"><ele>49.0</ele><time>2026-04-24T09:59:10.205Z</time></trkpt><trkpt lat="45.692951" lon="11.9274982"><ele>49.0</ele><time>2026-04-24T09:59:11.205Z</time></trkpt><trkpt lat="45.6928296" lon="11.9274975"><ele>49.0</ele><time>2026-04-24T09:59:13.205Z</time></trkpt><trkpt lat="45.6927142" lon="11.9275023"><ele>49.0</ele><time>2026-04-24T09:59:15.205Z</time></trkpt><trkpt lat="45.692598" lon="11.9275018"><ele>49.0</ele><time>2026-04-24T09:59:17.205Z</time></trkpt><trkpt lat="45.6925307" lon="11.9275034"><ele>49.0</ele><time>2026-04-24T09:59:18.205Z</time></trkpt><trkpt lat="45.6924673" lon="11.9275042"><ele>49.0</ele><time>2026-04-24T09:59:19.205Z</time></trkpt><trkpt lat="45.6923452" lon="11.9275072"><ele>49.0</ele><time>2026-04-24T09:59:21.206Z</time></trkpt><trkpt lat="45.6922274" lon="11.9275017"><ele>49.0</ele><time>2026-04-24T09:59:23.206Z</time></trkpt><trkpt lat="45.6921105" lon="11.9275006"><ele>49.0</ele><time>2026-04-24T09:59:25.206Z</time></trkpt><trkpt lat="45.6919939" lon="11.9275006"><ele>49.0</ele><time>2026-04-24T09:59:27.205Z</time></trkpt><trkpt lat="45.6918842" lon="11.9275041"><ele>49.0</ele><time>2026-04-24T09:59:29.205Z</time></trkpt><trkpt lat="45.6917734" lon="11.9275066"><ele>49.0</ele><time>2026-04-24T09:59:31.205Z</time></trkpt><trkpt lat="45.691666" lon="11.9275082"><ele>49.0</ele><time>2026-04-24T09:59:33.206Z</time></trkpt><trkpt lat="45.6915463" lon="11.927514"><ele>48.400000000000006</ele><time>2026-04-24T09:59:35.205Z</time></trkpt><trkpt lat="45.6914313" lon="11.9275152"><ele>47.8</ele><time>2026-04-24T09:59:37.205Z</time></trkpt><trkpt lat="45.6913177" lon="11.9275193"><ele>47.2</ele><time>2026-04-24T09:59:39.205Z</time></trkpt><trkpt lat="45.6912114" lon="11.9275069"><ele>46.599999999999994</ele><time>2026-04-24T09:59:41.205Z</time></trkpt><trkpt lat="45.6911126" lon="11.9275052"><ele>46.0</ele><time>2026-04-24T09:59:43.205Z</time></trkpt><trkpt lat="45.6910158" lon="11.9274915"><ele>45.8</ele><time>2026-04-24T09:59:45.205Z</time></trkpt><trkpt lat="45.6909233" lon="11.9274692"><ele>45.599999999999994</ele><time>2026-04-24T09:59:47.205Z</time></trkpt><trkpt lat="45.6908248" lon="11.9274682"><ele>45.4</ele><time>2026-04-24T09:59:49.205Z</time></trkpt><trkpt lat="45.6907148" lon="11.9274791"><ele>45.2</ele><time>2026-04-24T09:59:51.205Z</time></trkpt><trkpt lat="45.69061" lon="11.9274728"><ele>45.0</ele><time>2026-04-24T09:59:53.205Z</time></trkpt><trkpt lat="45.6904991" lon="11.9274659"><ele>45.0</ele><time>2026-04-24T09:59:55.205Z</time></trkpt><trkpt lat="45.6903838" lon="11.9274634"><ele>45.0</ele><time>2026-04-24T09:59:57.205Z</time></trkpt><trkpt lat="45.6902659" lon="11.927469"><ele>45.0</ele><time>2026-04-24T09:59:59.205Z</time></trkpt><trkpt lat="45.690201" lon="11.9274789"><ele>45.0</ele><time>2026-04-24T10:00:00.206Z</time></trkpt><trkpt lat="45.6900843" lon="11.9274822"><ele>45.0</ele><time>2026-04-24T10:00:02.205Z</time></trkpt><trkpt lat="45.6900208" lon="11.9274852"><ele>45.25</ele><time>2026-04-24T10:00:03.206Z</time></trkpt><trkpt lat="45.6899046" lon="11.9274929"><ele>45.5</ele><time>2026-04-24T10:00:05.205Z</time></trkpt><trkpt lat="45.6897832" lon="11.9275009"><ele>45.75</ele><time>2026-04-24T10:00:07.205Z</time></trkpt><trkpt lat="45.6896642" lon="11.9275002"><ele>46.0</ele><time>2026-04-24T10:00:09.205Z</time></trkpt><trkpt lat="45.6895468" lon="11.9274958"><ele>46.0</ele><time>2026-04-24T10:00:11.205Z</time></trkpt><trkpt lat="45.6894831" lon="11.9274979"><ele>46.0</ele><time>2026-04-24T10:00:12.205Z</time></trkpt><trkpt lat="45.6893599" lon="11.9275"><ele>46.0</ele><time>2026-04-24T10:00:14.205Z</time></trkpt><trkpt lat="45.6892349" lon="11.9275039"><ele>46.0</ele><time>2026-04-24T10:00:16.205Z</time></trkpt><trkpt lat="45.6891695" lon="11.9275052"><ele>46.0</ele><time>2026-04-24T10:00:17.206Z</time></trkpt><trkpt lat="45.6891054" lon="11.9274975"><ele>46.0</ele><time>2026-04-24T10:00:18.205Z</time></trkpt><trkpt lat="45.6890419" lon="11.9275013"><ele>46.0</ele><time>2026-04-24T10:00:19.205Z</time></trkpt><trkpt lat="45.688932" lon="11.9275034"><ele>46.0</ele><time>2026-04-24T10:00:21.206Z</time></trkpt><trkpt lat="45.6888206" lon="11.9274989"><ele>46.0</ele><time>2026-04-24T10:00:23.206Z</time></trkpt><trkpt lat="45.6887097" lon="11.9274998"><ele>46.0</ele><time>2026-04-24T10:00:25.205Z</time></trkpt><trkpt lat="45.6885968" lon="11.9275019"><ele>46.0</ele><time>2026-04-24T10:00:27.205Z</time></trkpt><trkpt lat="45.6884893" lon="11.9274583"><ele>46.0</ele><time>2026-04-24T10:00:29.205Z</time></trkpt><trkpt lat="45.6883934" lon="11.9273674"><ele>46.0</ele><time>2026-04-24T10:00:31.206Z</time></trkpt><trkpt lat="45.6883172" lon="11.9272424"><ele>46.0</ele><time>2026-04-24T10:00:33.206Z</time></trkpt><trkpt lat="45.6882336" lon="11.927155"><ele>46.0</ele><time>2026-04-24T10:00:35.205Z</time></trkpt><trkpt lat="45.6881365" lon="11.9271033"><ele>46.0</ele><time>2026-04-24T10:00:37.206Z</time></trkpt><trkpt lat="45.6880819" lon="11.9270308"><ele>46.0</ele><time>2026-04-24T10:00:39.205Z</time></trkpt><trkpt lat="45.6880217" lon="11.9270963"><ele>46.0</ele><time>2026-04-24T10:00:45.205Z</time></trkpt><trkpt lat="45.6879529" lon="11.9271521"><ele>46.0</ele><time>2026-04-24T10:00:48.206Z</time></trkpt><trkpt lat="45.6879439" lon="11.9272455"><ele>46.0</ele><time>2026-04-24T10:00:50.205Z</time></trkpt><trkpt lat="45.6879154" lon="11.9273405"><ele>46.0</ele><time>2026-04-24T10:00:52.205Z</time></trkpt><trkpt lat="45.6878542" lon="11.9274076"><ele>46.0</ele><time>2026-04-24T10:00:54.205Z</time></trkpt><trkpt lat="45.6877877" lon="11.9274457"><ele>46.0</ele><time>2026-04-24T10:00:56.205Z</time></trkpt><trkpt lat="45.6877119" lon="11.9274444"><ele>45.833333333333336</ele><time>2026-04-24T10:00:58.206Z</time></trkpt><trkpt lat="45.6876415" lon="11.927438"><ele>45.66666666666667</ele><time>2026-04-24T10:01:00.205Z</time></trkpt><trkpt lat="45.6875616" lon="11.9274274"><ele>45.5</ele><time>2026-04-24T10:01:02.205Z</time></trkpt><trkpt lat="45.6874807" lon="11.927416"><ele>45.333333333333336</ele><time>2026-04-24T10:01:04.205Z</time></trkpt><trkpt lat="45.6873909" lon="11.9274066"><ele>45.166666666666664</ele><time>2026-04-24T10:01:06.205Z</time></trkpt><trkpt lat="45.6873066" lon="11.9273947"><ele>45.0</ele><time>2026-04-24T10:01:08.205Z</time></trkpt><trkpt lat="45.6872204" lon="11.9273856"><ele>45.0</ele><time>2026-04-24T10:01:10.205Z</time></trkpt><trkpt lat="45.6871221" lon="11.9273683"><ele>45.0</ele><time>2026-04-24T10:01:12.205Z</time></trkpt><trkpt lat="45.6870105" lon="11.9273664"><ele>45.0</ele><time>2026-04-24T10:01:14.205Z</time></trkpt><trkpt lat="45.6869145" lon="11.9273563"><ele>45.0</ele><time>2026-04-24T10:01:16.205Z</time></trkpt><trkpt lat="45.6868119" lon="11.9273411"><ele>45.0</ele><time>2026-04-24T10:01:18.205Z</time></trkpt><trkpt lat="45.6867076" lon="11.9273349"><ele>44.8</ele><time>2026-04-24T10:01:20.206Z</time></trkpt><trkpt lat="45.6866087" lon="11.9273166"><ele>44.6</ele><time>2026-04-24T10:01:22.206Z</time></trkpt><trkpt lat="45.6865107" lon="11.9273079"><ele>44.400000000000006</ele><time>2026-04-24T10:01:24.205Z</time></trkpt><trkpt lat="45.6864127" lon="11.9272867"><ele>44.2</ele><time>2026-04-24T10:01:26.205Z</time></trkpt><trkpt lat="45.6863064" lon="11.9272691"><ele>44.0</ele><time>2026-04-24T10:01:28.205Z</time></trkpt><trkpt lat="45.6861942" lon="11.9272493"><ele>44.2</ele><time>2026-04-24T10:01:30.205Z</time></trkpt><trkpt lat="45.6860802" lon="11.9272463"><ele>44.400000000000006</ele><time>2026-04-24T10:01:32.206Z</time></trkpt><trkpt lat="45.6859668" lon="11.9272289"><ele>44.6</ele><time>2026-04-24T10:01:34.205Z</time></trkpt><trkpt lat="45.6858633" lon="11.9272141"><ele>44.8</ele><time>2026-04-24T10:01:36.205Z</time></trkpt><trkpt lat="45.6857613" lon="11.9272111"><ele>45.0</ele><time>2026-04-24T10:01:38.206Z</time></trkpt><trkpt lat="45.6856566" lon="11.9271971"><ele>45.0</ele><time>2026-04-24T10:01:40.205Z</time></trkpt><trkpt lat="45.6855585" lon="11.9271815"><ele>45.0</ele><time>2026-04-24T10:01:42.205Z</time></trkpt><trkpt lat="45.6854519" lon="11.9271706"><ele>45.0</ele><time>2026-04-24T10:01:44.205Z</time></trkpt><trkpt lat="45.6853503" lon="11.9271517"><ele>45.0</ele><time>2026-04-24T10:01:46.206Z</time></trkpt><trkpt lat="45.6852573" lon="11.9271392"><ele>45.0</ele><time>2026-04-24T10:01:48.205Z</time></trkpt><trkpt lat="45.6851617" lon="11.9271313"><ele>45.0</ele><time>2026-04-24T10:01:50.205Z</time></trkpt><trkpt lat="45.6850651" lon="11.9271242"><ele>45.0</ele><time>2026-04-24T10:01:52.205Z</time></trkpt><trkpt lat="45.6849751" lon="11.9271086"><ele>45.0</ele><time>2026-04-24T10:01:54.206Z</time></trkpt><trkpt lat="45.6848889" lon="11.9270937"><ele>45.0</ele><time>2026-04-24T10:01:56.205Z</time></trkpt><trkpt lat="45.6848033" lon="11.9270927"><ele>45.0</ele><time>2026-04-24T10:01:58.205Z</time></trkpt><trkpt lat="45.6847195" lon="11.9270831"><ele>45.0</ele><time>2026-04-24T10:02:00.205Z</time></trkpt><trkpt lat="45.6846381" lon="11.9270695"><ele>45.0</ele><time>2026-04-24T10:02:02.205Z</time></trkpt><trkpt lat="45.6845445" lon="11.9270554"><ele>45.0</ele><time>2026-04-24T10:02:04.206Z</time></trkpt><trkpt lat="45.6844551" lon="11.9270438"><ele>45.0</ele><time>2026-04-24T10:02:06.206Z</time></trkpt><trkpt lat="45.6843739" lon="11.927042"><ele>45.0</ele><time>2026-04-24T10:02:08.205Z</time></trkpt><trkpt lat="45.6842894" lon="11.9270203"><ele>45.0</ele><time>2026-04-24T10:02:10.205Z</time></trkpt><trkpt lat="45.6842063" lon="11.9270202"><ele>45.0</ele><time>2026-04-24T10:02:12.206Z</time></trkpt><trkpt lat="45.684126" lon="11.9270025"><ele>44.833333333333336</ele><time>2026-04-24T10:02:14.205Z</time></trkpt><trkpt lat="45.6840467" lon="11.9269819"><ele>44.666666666666664</ele><time>2026-04-24T10:02:16.206Z</time></trkpt><trkpt lat="45.6839742" lon="11.9269483"><ele>44.5</ele><time>2026-04-24T10:02:18.205Z</time></trkpt><trkpt lat="45.6838891" lon="11.9269141"><ele>44.33333333333333</ele><time>2026-04-24T10:02:20.206Z</time></trkpt><trkpt lat="45.6838059" lon="11.9268713"><ele>44.166666666666664</ele><time>2026-04-24T10:02:22.205Z</time></trkpt><trkpt lat="45.6837322" lon="11.9267697"><ele>44.0</ele><time>2026-04-24T10:02:24.205Z</time></trkpt><trkpt lat="45.68366" lon="11.9266747"><ele>44.0</ele><time>2026-04-24T10:02:26.205Z</time></trkpt><trkpt lat="45.6836026" lon="11.9265899"><ele>44.0</ele><time>2026-04-24T10:02:28.204Z</time></trkpt><trkpt lat="45.6833539" lon="11.9267006"><ele>44.0</ele><time>2026-04-24T10:02:39.204Z</time></trkpt><trkpt lat="45.6832889" lon="11.9267549"><ele>44.0</ele><time>2026-04-24T10:02:42.204Z</time></trkpt><trkpt lat="45.6832238" lon="11.9266851"><ele>43.85714285714286</ele><time>2026-04-24T10:02:45.204Z</time></trkpt><trkpt lat="45.6832509" lon="11.9265923"><ele>43.714285714285715</ele><time>2026-04-24T10:02:48.204Z</time></trkpt><trkpt lat="45.683319" lon="11.9266171"><ele>43.57142857142857</ele><time>2026-04-24T10:02:51.204Z</time></trkpt><trkpt lat="45.6833374" lon="11.9267213"><ele>43.42857142857143</ele><time>2026-04-24T10:02:54.204Z</time></trkpt><trkpt lat="45.6832821" lon="11.9267938"><ele>43.285714285714285</ele><time>2026-04-24T10:02:57.204Z</time></trkpt><trkpt lat="45.683227" lon="11.9268374"><ele>43.142857142857146</ele><time>2026-04-24T10:02:59.204Z</time></trkpt><trkpt lat="45.6831668" lon="11.9268786"><ele>43.0</ele><time>2026-04-24T10:03:01.205Z</time></trkpt><trkpt lat="45.6830973" lon="11.9268822"><ele>43.0</ele><time>2026-04-24T10:03:03.204Z</time></trkpt><trkpt lat="45.6830258" lon="11.9268844"><ele>43.0</ele><time>2026-04-24T10:03:05.204Z</time></trkpt><trkpt lat="45.6829511" lon="11.9268771"><ele>43.0</ele><time>2026-04-24T10:03:07.204Z</time></trkpt><trkpt lat="45.6828896" lon="11.9268989"><ele>43.0</ele><time>2026-04-24T10:03:10.204Z</time></trkpt><trkpt lat="45.682813" lon="11.9269083"><ele>43.0</ele><time>2026-04-24T10:03:13.204Z</time></trkpt><trkpt lat="45.6827352" lon="11.9269026"><ele>43.0</ele><time>2026-04-24T10:03:15.204Z</time></trkpt><trkpt lat="45.6826476" lon="11.9268944"><ele>43.0</ele><time>2026-04-24T10:03:17.204Z</time></trkpt><trkpt lat="45.6825532" lon="11.9268813"><ele>43.0</ele><time>2026-04-24T10:03:19.205Z</time></trkpt><trkpt lat="45.6824615" lon="11.9268659"><ele>43.0</ele><time>2026-04-24T10:03:21.204Z</time></trkpt><trkpt lat="45.6823673" lon="11.9268552"><ele>43.0</ele><time>2026-04-24T10:03:23.205Z</time></trkpt><trkpt lat="45.6822697" lon="11.9268316"><ele>43.0</ele><time>2026-04-24T10:03:25.204Z</time></trkpt><trkpt lat="45.6821698" lon="11.9268197"><ele>43.0</ele><time>2026-04-24T10:03:27.204Z</time></trkpt><trkpt lat="45.6820666" lon="11.9268034"><ele>43.0</ele><time>2026-04-24T10:03:29.204Z</time></trkpt><trkpt lat="45.6819526" lon="11.9267805"><ele>43.0</ele><time>2026-04-24T10:03:31.204Z</time></trkpt><trkpt lat="45.68184" lon="11.9267741"><ele>43.0</ele><time>2026-04-24T10:03:33.205Z</time></trkpt><trkpt lat="45.6817251" lon="11.9267653"><ele>43.0</ele><time>2026-04-24T10:03:35.204Z</time></trkpt><trkpt lat="45.6816115" lon="11.9267619"><ele>43.0</ele><time>2026-04-24T10:03:37.205Z</time></trkpt><trkpt lat="45.6814991" lon="11.9267575"><ele>43.0</ele><time>2026-04-24T10:03:39.204Z</time></trkpt><trkpt lat="45.6813843" lon="11.9267454"><ele>43.0</ele><time>2026-04-24T10:03:41.205Z</time></trkpt><trkpt lat="45.6812704" lon="11.9267285"><ele>43.0</ele><time>2026-04-24T10:03:43.204Z</time></trkpt><trkpt lat="45.6811563" lon="11.9267078"><ele>43.0</ele><time>2026-04-24T10:03:45.204Z</time></trkpt><trkpt lat="45.6810547" lon="11.926692"><ele>43.0</ele><time>2026-04-24T10:03:47.204Z</time></trkpt><trkpt lat="45.6809318" lon="11.9266689"><ele>43.0</ele><time>2026-04-24T10:03:49.205Z</time></trkpt><trkpt lat="45.6808671" lon="11.9266638"><ele>43.0</ele><time>2026-04-24T10:03:50.204Z</time></trkpt><trkpt lat="45.6808037" lon="11.9266551"><ele>43.0</ele><time>2026-04-24T10:03:51.204Z</time></trkpt><trkpt lat="45.6807363" lon="11.9266519"><ele>43.0</ele><time>2026-04-24T10:03:52.205Z</time></trkpt><trkpt lat="45.6806126" lon="11.9266368"><ele>43.0</ele><time>2026-04-24T10:03:54.204Z</time></trkpt><trkpt lat="45.6804954" lon="11.9266156"><ele>43.0</ele><time>2026-04-24T10:03:56.204Z</time></trkpt><trkpt lat="45.6803753" lon="11.9266079"><ele>43.0</ele><time>2026-04-24T10:03:58.204Z</time></trkpt><trkpt lat="45.6802519" lon="11.9266038"><ele>43.0</ele><time>2026-04-24T10:04:00.204Z</time></trkpt><trkpt lat="45.6801316" lon="11.9265878"><ele>42.8</ele><time>2026-04-24T10:04:02.204Z</time></trkpt><trkpt lat="45.680008" lon="11.9265717"><ele>42.599999999999994</ele><time>2026-04-24T10:04:04.204Z</time></trkpt><trkpt lat="45.6799426" lon="11.926569"><ele>42.400000000000006</ele><time>2026-04-24T10:04:05.205Z</time></trkpt><trkpt lat="45.6798188" lon="11.9265556"><ele>42.2</ele><time>2026-04-24T10:04:07.204Z</time></trkpt><trkpt lat="45.6797118" lon="11.9265551"><ele>42.0</ele><time>2026-04-24T10:04:09.204Z</time></trkpt><trkpt lat="45.6796013" lon="11.9265395"><ele>42.0</ele><time>2026-04-24T10:04:11.204Z</time></trkpt><trkpt lat="45.6794939" lon="11.926527"><ele>42.0</ele><time>2026-04-24T10:04:13.204Z</time></trkpt><trkpt lat="45.6793948" lon="11.926526"><ele>42.0</ele><time>2026-04-24T10:04:15.204Z</time></trkpt><trkpt lat="45.6792884" lon="11.9264869"><ele>42.0</ele><time>2026-04-24T10:04:17.204Z</time></trkpt><trkpt lat="45.679187" lon="11.9264519"><ele>42.0</ele><time>2026-04-24T10:04:19.204Z</time></trkpt><trkpt lat="45.6790873" lon="11.9264374"><ele>42.0</ele><time>2026-04-24T10:04:21.204Z</time></trkpt><trkpt lat="45.678993" lon="11.9264437"><ele>42.0</ele><time>2026-04-24T10:04:23.205Z</time></trkpt><trkpt lat="45.6788774" lon="11.9264288"><ele>42.0</ele><time>2026-04-24T10:04:25.205Z</time></trkpt><trkpt lat="45.6787661" lon="11.9264159"><ele>42.0</ele><time>2026-04-24T10:04:27.204Z</time></trkpt><trkpt lat="45.6786514" lon="11.9263936"><ele>42.0</ele><time>2026-04-24T10:04:29.205Z</time></trkpt><trkpt lat="45.6785396" lon="11.9263653"><ele>42.0</ele><time>2026-04-24T10:04:31.204Z</time></trkpt><trkpt lat="45.6784281" lon="11.9263555"><ele>42.0</ele><time>2026-04-24T10:04:33.205Z</time></trkpt><trkpt lat="45.6783088" lon="11.9263524"><ele>42.0</ele><time>2026-04-24T10:04:35.204Z</time></trkpt><trkpt lat="45.678202" lon="11.9263429"><ele>42.0</ele><time>2026-04-24T10:04:37.204Z</time></trkpt><trkpt lat="45.6780942" lon="11.9263346"><ele>42.0</ele><time>2026-04-24T10:04:39.204Z</time></trkpt><trkpt lat="45.677988" lon="11.9263194"><ele>42.0</ele><time>2026-04-24T10:04:41.204Z</time></trkpt><trkpt lat="45.6778749" lon="11.9263034"><ele>42.0</ele><time>2026-04-24T10:04:43.205Z</time></trkpt><trkpt lat="45.6777657" lon="11.9262878"><ele>42.0</ele><time>2026-04-24T10:04:45.204Z</time></trkpt><trkpt lat="45.677649" lon="11.9262742"><ele>42.0</ele><time>2026-04-24T10:04:47.204Z</time></trkpt><trkpt lat="45.6775294" lon="11.9262801"><ele>42.400000000000006</ele><time>2026-04-24T10:04:49.204Z</time></trkpt><trkpt lat="45.6774134" lon="11.9262855"><ele>42.800000000000004</ele><time>2026-04-24T10:04:51.204Z</time></trkpt><trkpt lat="45.6772882" lon="11.9262884"><ele>43.2</ele><time>2026-04-24T10:04:53.204Z</time></trkpt><trkpt lat="45.6771688" lon="11.9263139"><ele>43.6</ele><time>2026-04-24T10:04:55.204Z</time></trkpt><trkpt lat="45.6770981" lon="11.9263328"><ele>44.0</ele><time>2026-04-24T10:04:56.204Z</time></trkpt><trkpt lat="45.6770356" lon="11.9263555"><ele>44.0</ele><time>2026-04-24T10:04:57.204Z</time></trkpt><trkpt lat="45.676972" lon="11.9263799"><ele>44.0</ele><time>2026-04-24T10:04:58.204Z</time></trkpt><trkpt lat="45.676909" lon="11.926399"><ele>44.0</ele><time>2026-04-24T10:04:59.205Z</time></trkpt><trkpt lat="45.6768471" lon="11.9264171"><ele>44.0</ele><time>2026-04-24T10:05:00.204Z</time></trkpt><trkpt lat="45.6767852" lon="11.926442"><ele>44.0</ele><time>2026-04-24T10:05:01.204Z</time></trkpt><trkpt lat="45.6767177" lon="11.9264659"><ele>44.0</ele><time>2026-04-24T10:05:02.204Z</time></trkpt><trkpt lat="45.6766539" lon="11.9264879"><ele>44.0</ele><time>2026-04-24T10:05:03.204Z</time></trkpt><trkpt lat="45.676592" lon="11.9265066"><ele>44.0</ele><time>2026-04-24T10:05:04.204Z</time></trkpt><trkpt lat="45.6764739" lon="11.9265438"><ele>44.0</ele><time>2026-04-24T10:05:06.204Z</time></trkpt><trkpt lat="45.676354" lon="11.92658"><ele>44.0</ele><time>2026-04-24T10:05:08.204Z</time></trkpt><trkpt lat="45.6762908" lon="11.9266005"><ele>44.0</ele><time>2026-04-24T10:05:09.204Z</time></trkpt><trkpt lat="45.6762282" lon="11.9266217"><ele>44.0</ele><time>2026-04-24T10:05:10.204Z</time></trkpt><trkpt lat="45.6761639" lon="11.9266397"><ele>44.0</ele><time>2026-04-24T10:05:11.204Z</time></trkpt><trkpt lat="45.6760974" lon="11.9266557"><ele>43.85714285714286</ele><time>2026-04-24T10:05:12.204Z</time></trkpt><trkpt lat="45.6760287" lon="11.9266686"><ele>43.714285714285715</ele><time>2026-04-24T10:05:13.204Z</time></trkpt><trkpt lat="45.675964" lon="11.9266771"><ele>43.57142857142857</ele><time>2026-04-24T10:05:14.205Z</time></trkpt><trkpt lat="45.6758981" lon="11.9266895"><ele>43.42857142857143</ele><time>2026-04-24T10:05:15.204Z</time></trkpt><trkpt lat="45.6758332" lon="11.9267111"><ele>43.285714285714285</ele><time>2026-04-24T10:05:16.205Z</time></trkpt><trkpt lat="45.6757637" lon="11.9267344"><ele>43.142857142857146</ele><time>2026-04-24T10:05:17.204Z</time></trkpt><trkpt lat="45.6756992" lon="11.9267493"><ele>43.0</ele><time>2026-04-24T10:05:18.205Z</time></trkpt><trkpt lat="45.675637" lon="11.9267682"><ele>43.0</ele><time>2026-04-24T10:05:19.205Z</time></trkpt><trkpt lat="45.6755729" lon="11.9267878"><ele>43.0</ele><time>2026-04-24T10:05:20.204Z</time></trkpt><trkpt lat="45.6755098" lon="11.9268005"><ele>43.0</ele><time>2026-04-24T10:05:21.204Z</time></trkpt><trkpt lat="45.6754415" lon="11.9268259"><ele>43.0</ele><time>2026-04-24T10:05:22.204Z</time></trkpt><trkpt lat="45.6753769" lon="11.9268465"><ele>43.0</ele><time>2026-04-24T10:05:23.204Z</time></trkpt><trkpt lat="45.6753132" lon="11.9268631"><ele>43.0</ele><time>2026-04-24T10:05:24.205Z</time></trkpt><trkpt lat="45.6751943" lon="11.9269015"><ele>43.0</ele><time>2026-04-24T10:05:26.204Z</time></trkpt><trkpt lat="45.6750788" lon="11.9269388"><ele>43.0</ele><time>2026-04-24T10:05:28.204Z</time></trkpt><trkpt lat="45.6749689" lon="11.9269732"><ele>43.0</ele><time>2026-04-24T10:05:30.204Z</time></trkpt><trkpt lat="45.6748624" lon="11.9270051"><ele>43.0</ele><time>2026-04-24T10:05:32.204Z</time></trkpt><trkpt lat="45.6747675" lon="11.9270451"><ele>43.0</ele><time>2026-04-24T10:05:34.205Z</time></trkpt><trkpt lat="45.6747006" lon="11.9270773"><ele>43.0</ele><time>2026-04-24T10:05:36.204Z</time></trkpt><trkpt lat="45.6746143" lon="11.9271003"><ele>43.0</ele><time>2026-04-24T10:06:16.203Z</time></trkpt><trkpt lat="45.6745544" lon="11.9271293"><ele>43.0</ele><time>2026-04-24T10:06:18.203Z</time></trkpt><trkpt lat="45.6744829" lon="11.9271693"><ele>43.0</ele><time>2026-04-24T10:06:20.203Z</time></trkpt><trkpt lat="45.6743929" lon="11.9271902"><ele>43.0</ele><time>2026-04-24T10:06:22.203Z</time></trkpt><trkpt lat="45.6743008" lon="11.9272211"><ele>43.0</ele><time>2026-04-24T10:06:24.203Z</time></trkpt><trkpt lat="45.6742095" lon="11.9272505"><ele>43.2</ele><time>2026-04-24T10:06:26.204Z</time></trkpt><trkpt lat="45.674117" lon="11.9272936"><ele>43.4</ele><time>2026-04-24T10:06:28.203Z</time></trkpt><trkpt lat="45.6740273" lon="11.9273346"><ele>43.6</ele><time>2026-04-24T10:06:30.203Z</time></trkpt><trkpt lat="45.6739229" lon="11.9273589"><ele>43.800000000000004</ele><time>2026-04-24T10:06:32.203Z</time></trkpt><trkpt lat="45.6738313" lon="11.9273796"><ele>44.0</ele><time>2026-04-24T10:06:34.203Z</time></trkpt><trkpt lat="45.673743" lon="11.9274024"><ele>44.0</ele><time>2026-04-24T10:06:36.203Z</time></trkpt><trkpt lat="45.673655" lon="11.9274045"><ele>44.0</ele><time>2026-04-24T10:06:38.204Z</time></trkpt><trkpt lat="45.6735749" lon="11.9274108"><ele>44.0</ele><time>2026-04-24T10:06:40.203Z</time></trkpt><trkpt lat="45.673497" lon="11.927412"><ele>44.0</ele><time>2026-04-24T10:06:42.203Z</time></trkpt><trkpt lat="45.6733943" lon="11.9274247"><ele>44.0</ele><time>2026-04-24T10:06:44.203Z</time></trkpt><trkpt lat="45.6732912" lon="11.9274386"><ele>44.166666666666664</ele><time>2026-04-24T10:06:46.203Z</time></trkpt><trkpt lat="45.6731993" lon="11.9274076"><ele>44.33333333333333</ele><time>2026-04-24T10:06:48.203Z</time></trkpt><trkpt lat="45.6731309" lon="11.9273684"><ele>44.5</ele><time>2026-04-24T10:06:50.203Z</time></trkpt><trkpt lat="45.6731306" lon="11.9272486"><ele>44.666666666666664</ele><time>2026-04-24T10:06:53.203Z</time></trkpt><trkpt lat="45.673164" lon="11.927161"><ele>44.833333333333336</ele><time>2026-04-24T10:06:55.203Z</time></trkpt><trkpt lat="45.6731801" lon="11.9270559"><ele>45.0</ele><time>2026-04-24T10:06:57.203Z</time></trkpt><trkpt lat="45.6731919" lon="11.9269392"><ele>45.0</ele><time>2026-04-24T10:06:59.203Z</time></trkpt><trkpt lat="45.673184" lon="11.9268337"><ele>45.0</ele><time>2026-04-24T10:07:01.203Z</time></trkpt><trkpt lat="45.673177" lon="11.9267259"><ele>45.0</ele><time>2026-04-24T10:07:03.204Z</time></trkpt><trkpt lat="45.6731542" lon="11.9266298"><ele>45.0</ele><time>2026-04-24T10:07:05.204Z</time></trkpt><trkpt lat="45.6731215" lon="11.9265444"><ele>45.0</ele><time>2026-04-24T10:07:07.204Z</time></trkpt><trkpt lat="45.6730794" lon="11.9264207"><ele>45.0</ele><time>2026-04-24T10:07:10.204Z</time></trkpt><trkpt lat="45.6730574" lon="11.9263216"><ele>45.0</ele><time>2026-04-24T10:07:12.204Z</time></trkpt><trkpt lat="45.6730348" lon="11.9262167"><ele>45.0</ele><time>2026-04-24T10:07:14.203Z</time></trkpt><trkpt lat="45.6729998" lon="11.9261005"><ele>45.0</ele><time>2026-04-24T10:07:16.203Z</time></trkpt><trkpt lat="45.6729809" lon="11.9259986"><ele>45.0</ele><time>2026-04-24T10:07:18.203Z</time></trkpt><trkpt lat="45.6729501" lon="11.9259104"><ele>45.0</ele><time>2026-04-24T10:07:20.203Z</time></trkpt><trkpt lat="45.672923" lon="11.9258188"><ele>45.0</ele><time>2026-04-24T10:07:22.203Z</time></trkpt><trkpt lat="45.6728834" lon="11.9257307"><ele>45.0</ele><time>2026-04-24T10:07:24.204Z</time></trkpt><trkpt lat="45.6728664" lon="11.9256228"><ele>45.0</ele><time>2026-04-24T10:07:26.203Z</time></trkpt><trkpt lat="45.6728461" lon="11.9255169"><ele>45.0</ele><time>2026-04-24T10:07:28.204Z</time></trkpt><trkpt lat="45.6728167" lon="11.9254263"><ele>45.0</ele><time>2026-04-24T10:07:30.204Z</time></trkpt><trkpt lat="45.6727763" lon="11.9253063"><ele>45.0</ele><time>2026-04-24T10:07:33.203Z</time></trkpt><trkpt lat="45.6727637" lon="11.9252126"><ele>45.0</ele><time>2026-04-24T10:07:35.203Z</time></trkpt><trkpt lat="45.6727469" lon="11.9251094"><ele>45.0</ele><time>2026-04-24T10:07:37.203Z</time></trkpt><trkpt lat="45.6727255" lon="11.9250162"><ele>45.0</ele><time>2026-04-24T10:07:39.204Z</time></trkpt><trkpt lat="45.6727061" lon="11.9249234"><ele>45.0</ele><time>2026-04-24T10:07:41.203Z</time></trkpt><trkpt lat="45.6726797" lon="11.9247961"><ele>45.0</ele><time>2026-04-24T10:07:44.204Z</time></trkpt><trkpt lat="45.6726566" lon="11.924698"><ele>45.0</ele><time>2026-04-24T10:07:46.203Z</time></trkpt><trkpt lat="45.67264" lon="11.9245857"><ele>45.0</ele><time>2026-04-24T10:07:48.204Z</time></trkpt><trkpt lat="45.6726159" lon="11.9244871"><ele>45.0</ele><time>2026-04-24T10:07:50.203Z</time></trkpt><trkpt lat="45.6725946" lon="11.9243916"><ele>45.0</ele><time>2026-04-24T10:07:52.203Z</time></trkpt><trkpt lat="45.6725636" lon="11.9242768"><ele>45.0</ele><time>2026-04-24T10:07:54.203Z</time></trkpt><trkpt lat="45.6725366" lon="11.9241792"><ele>45.0</ele><time>2026-04-24T10:07:56.204Z</time></trkpt><trkpt lat="45.6725075" lon="11.9240752"><ele>45.0</ele><time>2026-04-24T10:07:58.203Z</time></trkpt><trkpt lat="45.6724769" lon="11.92397"><ele>45.0</ele><time>2026-04-24T10:08:00.203Z</time></trkpt><trkpt lat="45.6724693" lon="11.9238803"><ele>44.833333333333336</ele><time>2026-04-24T10:08:02.203Z</time></trkpt><trkpt lat="45.6724331" lon="11.9237629"><ele>44.666666666666664</ele><time>2026-04-24T10:08:05.203Z</time></trkpt><trkpt lat="45.6724218" lon="11.9236532"><ele>44.5</ele><time>2026-04-24T10:08:07.203Z</time></trkpt><trkpt lat="45.6724365" lon="11.9235496"><ele>44.33333333333333</ele><time>2026-04-24T10:08:09.203Z</time></trkpt><trkpt lat="45.6724648" lon="11.9234353"><ele>44.166666666666664</ele><time>2026-04-24T10:08:11.204Z</time></trkpt><trkpt lat="45.6724699" lon="11.9233137"><ele>44.0</ele><time>2026-04-24T10:08:13.203Z</time></trkpt><trkpt lat="45.6724745" lon="11.923203"><ele>44.0</ele><time>2026-04-24T10:08:15.203Z</time></trkpt><trkpt lat="45.6724462" lon="11.9230963"><ele>44.0</ele><time>2026-04-24T10:08:18.203Z</time></trkpt><trkpt lat="45.6724103" lon="11.9230199"><ele>44.0</ele><time>2026-04-24T10:08:20.204Z</time></trkpt><trkpt lat="45.6723924" lon="11.9228969"><ele>44.0</ele><time>2026-04-24T10:08:22.203Z</time></trkpt><trkpt lat="45.6723747" lon="11.9227724"><ele>44.0</ele><time>2026-04-24T10:08:24.203Z</time></trkpt><trkpt lat="45.6723501" lon="11.9226446"><ele>44.0</ele><time>2026-04-24T10:08:26.203Z</time></trkpt><trkpt lat="45.6723334" lon="11.9225065"><ele>43.666666666666664</ele><time>2026-04-24T10:08:28.204Z</time></trkpt><trkpt lat="45.6723139" lon="11.9223603"><ele>43.33333333333333</ele><time>2026-04-24T10:08:30.203Z</time></trkpt><trkpt lat="45.6722929" lon="11.9222363"><ele>43.0</ele><time>2026-04-24T10:08:32.203Z</time></trkpt><trkpt lat="45.6722913" lon="11.922118"><ele>42.666666666666664</ele><time>2026-04-24T10:08:34.203Z</time></trkpt><trkpt lat="45.6722327" lon="11.9220715"><ele>42.333333333333336</ele><time>2026-04-24T10:08:36.203Z</time></trkpt><trkpt lat="45.67216" lon="11.9221411"><ele>42.0</ele><time>2026-04-24T10:08:38.203Z</time></trkpt><trkpt lat="45.6720741" lon="11.9222147"><ele>42.0</ele><time>2026-04-24T10:08:40.204Z</time></trkpt><trkpt lat="45.6719852" lon="11.9222983"><ele>42.0</ele><time>2026-04-24T10:08:42.204Z</time></trkpt><trkpt lat="45.671894" lon="11.9223603"><ele>42.0</ele><time>2026-04-24T10:08:44.203Z</time></trkpt><trkpt lat="45.6718002" lon="11.9224204"><ele>42.0</ele><time>2026-04-24T10:08:46.203Z</time></trkpt><trkpt lat="45.6717167" lon="11.9224549"><ele>42.0</ele><time>2026-04-24T10:08:48.203Z</time></trkpt><trkpt lat="45.6716285" lon="11.9224899"><ele>42.0</ele><time>2026-04-24T10:08:50.204Z</time></trkpt><trkpt lat="45.6715316" lon="11.9224352"><ele>42.0</ele><time>2026-04-24T10:08:52.203Z</time></trkpt><trkpt lat="45.6714343" lon="11.9223667"><ele>42.0</ele><time>2026-04-24T10:08:54.204Z</time></trkpt><trkpt lat="45.6713322" lon="11.9223346"><ele>42.0</ele><time>2026-04-24T10:08:56.204Z</time></trkpt><trkpt lat="45.6712441" lon="11.9223246"><ele>42.0</ele><time>2026-04-24T10:08:58.203Z</time></trkpt><trkpt lat="45.671157" lon="11.9223285"><ele>42.0</ele><time>2026-04-24T10:09:00.203Z</time></trkpt><trkpt lat="45.6710706" lon="11.9223487"><ele>42.0</ele><time>2026-04-24T10:09:02.203Z</time></trkpt><trkpt lat="45.6709886" lon="11.9223081"><ele>42.0</ele><time>2026-04-24T10:09:04.204Z</time></trkpt><trkpt lat="45.6709528" lon="11.9221849"><ele>42.0</ele><time>2026-04-24T10:09:06.204Z</time></trkpt><trkpt lat="45.6709271" lon="11.922024"><ele>42.0</ele><time>2026-04-24T10:09:08.203Z</time></trkpt><trkpt lat="45.6708977" lon="11.9218728"><ele>41.8</ele><time>2026-04-24T10:09:10.203Z</time></trkpt><trkpt lat="45.6708648" lon="11.9217242"><ele>41.6</ele><time>2026-04-24T10:09:12.204Z</time></trkpt><trkpt lat="45.6708083" lon="11.9215825"><ele>41.4</ele><time>2026-04-24T10:09:14.203Z</time></trkpt><trkpt lat="45.6707058" lon="11.9215284"><ele>41.199999999999996</ele><time>2026-04-24T10:09:16.203Z</time></trkpt><trkpt lat="45.6705984" lon="11.9215397"><ele>41.0</ele><time>2026-04-24T10:09:18.203Z</time></trkpt><trkpt lat="45.6705004" lon="11.9215937"><ele>41.0</ele><time>2026-04-24T10:09:20.203Z</time></trkpt><trkpt lat="45.6704033" lon="11.9216468"><ele>41.0</ele><time>2026-04-24T10:09:22.203Z</time></trkpt><trkpt lat="45.6703151" lon="11.921671"><ele>41.0</ele><time>2026-04-24T10:09:24.203Z</time></trkpt><trkpt lat="45.6702508" lon="11.9216076"><ele>41.0</ele><time>2026-04-24T10:09:26.203Z</time></trkpt><trkpt lat="45.6702344" lon="11.9214806"><ele>41.0</ele><time>2026-04-24T10:09:28.203Z</time></trkpt><trkpt lat="45.6701949" lon="11.9213351"><ele>41.0</ele><time>2026-04-24T10:09:30.202Z</time></trkpt><trkpt lat="45.6701595" lon="11.9212005"><ele>41.0</ele><time>2026-04-24T10:09:32.202Z</time></trkpt><trkpt lat="45.6701319" lon="11.9210659"><ele>41.0</ele><time>2026-04-24T10:09:34.202Z</time></trkpt><trkpt lat="45.6701011" lon="11.9209162"><ele>41.0</ele><time>2026-04-24T10:09:36.202Z</time></trkpt><trkpt lat="45.6700707" lon="11.920771"><ele>41.0</ele><time>2026-04-24T10:09:38.202Z</time></trkpt><trkpt lat="45.670042" lon="11.9206291"><ele>41.0</ele><time>2026-04-24T10:09:40.202Z</time></trkpt><trkpt lat="45.6700012" lon="11.9204937"><ele>41.0</ele><time>2026-04-24T10:09:42.202Z</time></trkpt><trkpt lat="45.6699446" lon="11.9203446"><ele>41.0</ele><time>2026-04-24T10:09:44.202Z</time></trkpt><trkpt lat="45.6699" lon="11.920183"><ele>41.0</ele><time>2026-04-24T10:09:46.202Z</time></trkpt><trkpt lat="45.6698556" lon="11.920025"><ele>41.4</ele><time>2026-04-24T10:09:48.202Z</time></trkpt><trkpt lat="45.6698302" lon="11.919939"><ele>41.8</ele><time>2026-04-24T10:09:49.202Z</time></trkpt><trkpt lat="45.6697802" lon="11.919776"><ele>42.199999999999996</ele><time>2026-04-24T10:09:51.202Z</time></trkpt><trkpt lat="45.6697004" lon="11.9196462"><ele>42.599999999999994</ele><time>2026-04-24T10:09:53.202Z</time></trkpt><trkpt lat="45.6695972" lon="11.9195426"><ele>43.0</ele><time>2026-04-24T10:09:55.203Z</time></trkpt><trkpt lat="45.6695395" lon="11.9195024"><ele>42.8</ele><time>2026-04-24T10:09:56.202Z</time></trkpt><trkpt lat="45.6694393" lon="11.9193984"><ele>42.599999999999994</ele><time>2026-04-24T10:09:58.203Z</time></trkpt><trkpt lat="45.6693373" lon="11.919307"><ele>42.400000000000006</ele><time>2026-04-24T10:10:00.202Z</time></trkpt><trkpt lat="45.6692256" lon="11.919232"><ele>42.2</ele><time>2026-04-24T10:10:02.202Z</time></trkpt><trkpt lat="45.6691674" lon="11.9191901"><ele>42.0</ele><time>2026-04-24T10:10:03.202Z</time></trkpt><trkpt lat="45.669107" lon="11.9191504"><ele>42.0</ele><time>2026-04-24T10:10:04.202Z</time></trkpt><trkpt lat="45.6690467" lon="11.9191161"><ele>42.0</ele><time>2026-04-24T10:10:05.202Z</time></trkpt><trkpt lat="45.6689892" lon="11.9190782"><ele>42.0</ele><time>2026-04-24T10:10:06.202Z</time></trkpt><trkpt lat="45.6689319" lon="11.9190344"><ele>42.0</ele><time>2026-04-24T10:10:07.203Z</time></trkpt><trkpt lat="45.668873" lon="11.9189959"><ele>42.0</ele><time>2026-04-24T10:10:08.202Z</time></trkpt><trkpt lat="45.6688114" lon="11.918949"><ele>42.0</ele><time>2026-04-24T10:10:09.202Z</time></trkpt><trkpt lat="45.668753" lon="11.9188984"><ele>42.0</ele><time>2026-04-24T10:10:10.202Z</time></trkpt><trkpt lat="45.6686908" lon="11.9188583"><ele>42.0</ele><time>2026-04-24T10:10:11.202Z</time></trkpt><trkpt lat="45.6686276" lon="11.9188169"><ele>42.0</ele><time>2026-04-24T10:10:12.202Z</time></trkpt><trkpt lat="45.6685603" lon="11.9187772"><ele>42.0</ele><time>2026-04-24T10:10:13.203Z</time></trkpt><trkpt lat="45.6684973" lon="11.9187348"><ele>42.0</ele><time>2026-04-24T10:10:14.203Z</time></trkpt><trkpt lat="45.6684396" lon="11.9186884"><ele>42.0</ele><time>2026-04-24T10:10:15.202Z</time></trkpt><trkpt lat="45.6683821" lon="11.9186434"><ele>42.0</ele><time>2026-04-24T10:10:16.202Z</time></trkpt><trkpt lat="45.6683187" lon="11.9185999"><ele>42.0</ele><time>2026-04-24T10:10:17.202Z</time></trkpt><trkpt lat="45.6682083" lon="11.918511"><ele>41.833333333333336</ele><time>2026-04-24T10:10:19.203Z</time></trkpt><trkpt lat="45.6680966" lon="11.9184303"><ele>41.666666666666664</ele><time>2026-04-24T10:10:21.202Z</time></trkpt><trkpt lat="45.6680339" lon="11.9183875"><ele>41.5</ele><time>2026-04-24T10:10:22.202Z</time></trkpt><trkpt lat="45.6679699" lon="11.9183451"><ele>41.33333333333333</ele><time>2026-04-24T10:10:23.202Z</time></trkpt><trkpt lat="45.6679072" lon="11.9183006"><ele>41.166666666666664</ele><time>2026-04-24T10:10:24.202Z</time></trkpt><trkpt lat="45.6678405" lon="11.9182554"><ele>41.0</ele><time>2026-04-24T10:10:25.203Z</time></trkpt><trkpt lat="45.6677774" lon="11.9182102"><ele>41.14285714285714</ele><time>2026-04-24T10:10:26.202Z</time></trkpt><trkpt lat="45.6677214" lon="11.918157"><ele>41.285714285714285</ele><time>2026-04-24T10:10:27.202Z</time></trkpt><trkpt lat="45.6676636" lon="11.9181116"><ele>41.42857142857143</ele><time>2026-04-24T10:10:28.203Z</time></trkpt><trkpt lat="45.667606" lon="11.9180678"><ele>41.57142857142857</ele><time>2026-04-24T10:10:29.203Z</time></trkpt><trkpt lat="45.6675474" lon="11.9180211"><ele>41.714285714285715</ele><time>2026-04-24T10:10:30.202Z</time></trkpt><trkpt lat="45.6674826" lon="11.917967"><ele>41.857142857142854</ele><time>2026-04-24T10:10:31.203Z</time></trkpt><trkpt lat="45.6674231" lon="11.9179115"><ele>42.0</ele><time>2026-04-24T10:10:32.203Z</time></trkpt><trkpt lat="45.6673656" lon="11.9178635"><ele>42.0</ele><time>2026-04-24T10:10:33.202Z</time></trkpt><trkpt lat="45.6673093" lon="11.9178162"><ele>42.0</ele><time>2026-04-24T10:10:34.202Z</time></trkpt><trkpt lat="45.667256" lon="11.9177607"><ele>42.0</ele><time>2026-04-24T10:10:35.202Z</time></trkpt><trkpt lat="45.6672015" lon="11.9177054"><ele>42.0</ele><time>2026-04-24T10:10:36.202Z</time></trkpt><trkpt lat="45.6671484" lon="11.9176535"><ele>42.0</ele><time>2026-04-24T10:10:37.202Z</time></trkpt><trkpt lat="45.667095" lon="11.9176041"><ele>42.0</ele><time>2026-04-24T10:10:38.203Z</time></trkpt><trkpt lat="45.6670396" lon="11.9175527"><ele>42.0</ele><time>2026-04-24T10:10:39.203Z</time></trkpt><trkpt lat="45.6669396" lon="11.9174534"><ele>41.6</ele><time>2026-04-24T10:10:41.203Z</time></trkpt><trkpt lat="45.6668449" lon="11.9173603"><ele>41.2</ele><time>2026-04-24T10:10:43.202Z</time></trkpt><trkpt lat="45.666759" lon="11.9172788"><ele>40.8</ele><time>2026-04-24T10:10:45.202Z</time></trkpt><trkpt lat="45.6666679" lon="11.9172037"><ele>40.4</ele><time>2026-04-24T10:10:47.203Z</time></trkpt><trkpt lat="45.6665758" lon="11.9171293"><ele>40.0</ele><time>2026-04-24T10:10:49.202Z</time></trkpt><trkpt lat="45.6664899" lon="11.917048"><ele>40.0</ele><time>2026-04-24T10:10:51.202Z</time></trkpt><trkpt lat="45.6663867" lon="11.9169714"><ele>40.0</ele><time>2026-04-24T10:10:53.202Z</time></trkpt><trkpt lat="45.6663327" lon="11.9169219"><ele>40.0</ele><time>2026-04-24T10:10:54.202Z</time></trkpt><trkpt lat="45.6662776" lon="11.916876"><ele>40.0</ele><time>2026-04-24T10:10:55.202Z</time></trkpt><trkpt lat="45.6662175" lon="11.9168245"><ele>40.0</ele><time>2026-04-24T10:10:56.202Z</time></trkpt><trkpt lat="45.6661593" lon="11.9167764"><ele>40.0</ele><time>2026-04-24T10:10:57.202Z</time></trkpt><trkpt lat="45.6660979" lon="11.9167215"><ele>39.857142857142854</ele><time>2026-04-24T10:10:58.203Z</time></trkpt><trkpt lat="45.6660389" lon="11.9166655"><ele>39.714285714285715</ele><time>2026-04-24T10:10:59.202Z</time></trkpt><trkpt lat="45.6659794" lon="11.9166126"><ele>39.57142857142857</ele><time>2026-04-24T10:11:00.202Z</time></trkpt><trkpt lat="45.6659204" lon="11.916562"><ele>39.42857142857143</ele><time>2026-04-24T10:11:01.202Z</time></trkpt><trkpt lat="45.6658615" lon="11.9165077"><ele>39.285714285714285</ele><time>2026-04-24T10:11:02.202Z</time></trkpt><trkpt lat="45.6658012" lon="11.9164539"><ele>39.142857142857146</ele><time>2026-04-24T10:11:03.202Z</time></trkpt><trkpt lat="45.665741" lon="11.9164106"><ele>39.0</ele><time>2026-04-24T10:11:04.202Z</time></trkpt><trkpt lat="45.665679" lon="11.9163768"><ele>39.0</ele><time>2026-04-24T10:11:05.202Z</time></trkpt><trkpt lat="45.6656201" lon="11.916342"><ele>39.0</ele><time>2026-04-24T10:11:06.202Z</time></trkpt><trkpt lat="45.6655614" lon="11.9163024"><ele>39.0</ele><time>2026-04-24T10:11:07.202Z</time></trkpt><trkpt lat="45.6654519" lon="11.9162303"><ele>39.0</ele><time>2026-04-24T10:11:09.203Z</time></trkpt><trkpt lat="45.665344" lon="11.9161681"><ele>39.0</ele><time>2026-04-24T10:11:11.202Z</time></trkpt><trkpt lat="45.6652298" lon="11.9160976"><ele>39.0</ele><time>2026-04-24T10:11:13.202Z</time></trkpt><trkpt lat="45.665168" lon="11.9160636"><ele>39.0</ele><time>2026-04-24T10:11:14.203Z</time></trkpt><trkpt lat="45.6650536" lon="11.9159996"><ele>39.0</ele><time>2026-04-24T10:11:16.202Z</time></trkpt><trkpt lat="45.6649973" lon="11.9159575"><ele>39.0</ele><time>2026-04-24T10:11:17.202Z</time></trkpt><trkpt lat="45.6649381" lon="11.9159158"><ele>39.0</ele><time>2026-04-24T10:11:18.202Z</time></trkpt><trkpt lat="45.664878" lon="11.9158789"><ele>39.0</ele><time>2026-04-24T10:11:19.202Z</time></trkpt><trkpt lat="45.6647626" lon="11.9158064"><ele>39.0</ele><time>2026-04-24T10:11:21.202Z</time></trkpt><trkpt lat="45.6647061" lon="11.9157599"><ele>39.0</ele><time>2026-04-24T10:11:22.202Z</time></trkpt><trkpt lat="45.6646" lon="11.9156833"><ele>39.0</ele><time>2026-04-24T10:11:24.203Z</time></trkpt><trkpt lat="45.6645068" lon="11.9156267"><ele>39.0</ele><time>2026-04-24T10:11:26.203Z</time></trkpt><trkpt lat="45.6643949" lon="11.9155592"><ele>39.0</ele><time>2026-04-24T10:11:28.202Z</time></trkpt><trkpt lat="45.6643362" lon="11.9155235"><ele>39.333333333333336</ele><time>2026-04-24T10:11:29.203Z</time></trkpt><trkpt lat="45.664278" lon="11.9154809"><ele>39.666666666666664</ele><time>2026-04-24T10:11:30.202Z</time></trkpt><trkpt lat="45.6641719" lon="11.9153955"><ele>40.0</ele><time>2026-04-24T10:11:32.202Z</time></trkpt><trkpt lat="45.6641167" lon="11.9153506"><ele>40.33333333333333</ele><time>2026-04-24T10:11:33.202Z</time></trkpt><trkpt lat="45.6640603" lon="11.915303"><ele>40.666666666666664</ele><time>2026-04-24T10:11:34.202Z</time></trkpt><trkpt lat="45.6640002" lon="11.9152504"><ele>41.0</ele><time>2026-04-24T10:11:35.202Z</time></trkpt><trkpt lat="45.6638946" lon="11.9151663"><ele>41.0</ele><time>2026-04-24T10:11:37.202Z</time></trkpt><trkpt lat="45.6637881" lon="11.915095"><ele>41.0</ele><time>2026-04-24T10:11:39.202Z</time></trkpt><trkpt lat="45.6637037" lon="11.9150238"><ele>41.0</ele><time>2026-04-24T10:11:41.202Z</time></trkpt><trkpt lat="45.6636305" lon="11.9149593"><ele>41.0</ele><time>2026-04-24T10:11:43.203Z</time></trkpt><trkpt lat="45.6635663" lon="11.9148906"><ele>41.0</ele><time>2026-04-24T10:11:45.202Z</time></trkpt><trkpt lat="45.6634926" lon="11.9148355"><ele>41.199999999999996</ele><time>2026-04-24T10:11:47.202Z</time></trkpt><trkpt lat="45.6633924" lon="11.9147611"><ele>41.4</ele><time>2026-04-24T10:11:49.202Z</time></trkpt><trkpt lat="45.6632854" lon="11.9146721"><ele>41.6</ele><time>2026-04-24T10:11:51.202Z</time></trkpt><trkpt lat="45.6631757" lon="11.9145852"><ele>41.8</ele><time>2026-04-24T10:11:53.202Z</time></trkpt><trkpt lat="45.6631178" lon="11.9145357"><ele>42.0</ele><time>2026-04-24T10:11:54.202Z</time></trkpt><trkpt lat="45.6630632" lon="11.914485"><ele>42.0</ele><time>2026-04-24T10:11:55.203Z</time></trkpt><trkpt lat="45.663008" lon="11.9144356"><ele>42.0</ele><time>2026-04-24T10:11:56.202Z</time></trkpt><trkpt lat="45.6628987" lon="11.9143498"><ele>42.0</ele><time>2026-04-24T10:11:58.202Z</time></trkpt><trkpt lat="45.6628475" lon="11.9142966"><ele>42.0</ele><time>2026-04-24T10:11:59.202Z</time></trkpt><trkpt lat="45.662809" lon="11.9142241"><ele>42.0</ele><time>2026-04-24T10:12:00.202Z</time></trkpt><trkpt lat="45.6627308" lon="11.914102"><ele>42.0</ele><time>2026-04-24T10:12:02.202Z</time></trkpt><trkpt lat="45.6626239" lon="11.9139973"><ele>41.57142857142857</ele><time>2026-04-24T10:12:04.202Z</time></trkpt><trkpt lat="45.6625656" lon="11.9139383"><ele>41.14285714285714</ele><time>2026-04-24T10:12:05.202Z</time></trkpt><trkpt lat="45.6625104" lon="11.9138825"><ele>40.714285714285715</ele><time>2026-04-24T10:12:06.202Z</time></trkpt><trkpt lat="45.6624481" lon="11.9138316"><ele>40.285714285714285</ele><time>2026-04-24T10:12:07.202Z</time></trkpt><trkpt lat="45.6623865" lon="11.9137793"><ele>39.857142857142854</ele><time>2026-04-24T10:12:08.202Z</time></trkpt><trkpt lat="45.6623228" lon="11.9137259"><ele>39.42857142857143</ele><time>2026-04-24T10:12:09.203Z</time></trkpt><trkpt lat="45.6622583" lon="11.913674"><ele>39.0</ele><time>2026-04-24T10:12:10.202Z</time></trkpt><trkpt lat="45.6621926" lon="11.9136187"><ele>39.0</ele><time>2026-04-24T10:12:11.203Z</time></trkpt><trkpt lat="45.6621288" lon="11.9135638"><ele>39.0</ele><time>2026-04-24T10:12:12.202Z</time></trkpt><trkpt lat="45.6620632" lon="11.9135092"><ele>39.0</ele><time>2026-04-24T10:12:13.203Z</time></trkpt><trkpt lat="45.6619959" lon="11.9134569"><ele>39.0</ele><time>2026-04-24T10:12:14.202Z</time></trkpt><trkpt lat="45.6619295" lon="11.9134003"><ele>39.0</ele><time>2026-04-24T10:12:15.202Z</time></trkpt><trkpt lat="45.6618614" lon="11.9133448"><ele>39.0</ele><time>2026-04-24T10:12:16.202Z</time></trkpt><trkpt lat="45.6617952" lon="11.9132893"><ele>39.0</ele><time>2026-04-24T10:12:17.203Z</time></trkpt><trkpt lat="45.6617324" lon="11.9132344"><ele>39.0</ele><time>2026-04-24T10:12:18.202Z</time></trkpt><trkpt lat="45.6616697" lon="11.913188"><ele>39.0</ele><time>2026-04-24T10:12:19.202Z</time></trkpt><trkpt lat="45.6616078" lon="11.9131402"><ele>39.0</ele><time>2026-04-24T10:12:20.202Z</time></trkpt><trkpt lat="45.6615443" lon="11.9130984"><ele>39.0</ele><time>2026-04-24T10:12:21.202Z</time></trkpt><trkpt lat="45.6614822" lon="11.9130507"><ele>39.0</ele><time>2026-04-24T10:12:22.202Z</time></trkpt><trkpt lat="45.6614258" lon="11.9130023"><ele>39.0</ele><time>2026-04-24T10:12:23.202Z</time></trkpt><trkpt lat="45.6613644" lon="11.9129528"><ele>39.0</ele><time>2026-04-24T10:12:24.202Z</time></trkpt><trkpt lat="45.6613027" lon="11.9129016"><ele>39.0</ele><time>2026-04-24T10:12:25.202Z</time></trkpt><trkpt lat="45.6612421" lon="11.9128515"><ele>39.0</ele><time>2026-04-24T10:12:26.202Z</time></trkpt><trkpt lat="45.6611794" lon="11.912807"><ele>39.0</ele><time>2026-04-24T10:12:27.202Z</time></trkpt><trkpt lat="45.6611161" lon="11.9127594"><ele>39.0</ele><time>2026-04-24T10:12:28.202Z</time></trkpt><trkpt lat="45.661055" lon="11.9127103"><ele>39.0</ele><time>2026-04-24T10:12:29.202Z</time></trkpt><trkpt lat="45.660992" lon="11.9126685"><ele>39.0</ele><time>2026-04-24T10:12:30.202Z</time></trkpt><trkpt lat="45.660933" lon="11.9126215"><ele>39.0</ele><time>2026-04-24T10:12:31.203Z</time></trkpt><trkpt lat="45.6608719" lon="11.9125749"><ele>39.0</ele><time>2026-04-24T10:12:32.202Z</time></trkpt><trkpt lat="45.6608149" lon="11.9125237"><ele>39.0</ele><time>2026-04-24T10:12:33.202Z</time></trkpt><trkpt lat="45.6607554" lon="11.9124704"><ele>39.0</ele><time>2026-04-24T10:12:34.203Z</time></trkpt><trkpt lat="45.660694" lon="11.9124167"><ele>39.0</ele><time>2026-04-24T10:12:35.202Z</time></trkpt><trkpt lat="45.660626" lon="11.9123639"><ele>39.0</ele><time>2026-04-24T10:12:36.202Z</time></trkpt><trkpt lat="45.6605648" lon="11.9123159"><ele>39.0</ele><time>2026-04-24T10:12:37.202Z</time></trkpt><trkpt lat="45.6605019" lon="11.9122667"><ele>39.0</ele><time>2026-04-24T10:12:38.202Z</time></trkpt><trkpt lat="45.6604345" lon="11.912218"><ele>39.0</ele><time>2026-04-24T10:12:39.203Z</time></trkpt><trkpt lat="45.6603704" lon="11.9121657"><ele>39.0</ele><time>2026-04-24T10:12:40.202Z</time></trkpt><trkpt lat="45.6603094" lon="11.9121145"><ele>39.0</ele><time>2026-04-24T10:12:41.202Z</time></trkpt><trkpt lat="45.6602474" lon="11.9120654"><ele>39.0</ele><time>2026-04-24T10:12:42.202Z</time></trkpt><trkpt lat="45.6601305" lon="11.9119751"><ele>39.0</ele><time>2026-04-24T10:12:44.202Z</time></trkpt><trkpt lat="45.6600716" lon="11.911923"><ele>39.0</ele><time>2026-04-24T10:12:45.202Z</time></trkpt><trkpt lat="45.6600127" lon="11.9118706"><ele>39.0</ele><time>2026-04-24T10:12:46.202Z</time></trkpt><trkpt lat="45.6599512" lon="11.9118226"><ele>39.0</ele><time>2026-04-24T10:12:47.203Z</time></trkpt><trkpt lat="45.6598896" lon="11.9117683"><ele>39.0</ele><time>2026-04-24T10:12:48.202Z</time></trkpt><trkpt lat="45.6598262" lon="11.9117157"><ele>39.0</ele><time>2026-04-24T10:12:49.202Z</time></trkpt><trkpt lat="45.6597615" lon="11.9116671"><ele>39.0</ele><time>2026-04-24T10:12:50.202Z</time></trkpt><trkpt lat="45.6596994" lon="11.911615"><ele>39.0</ele><time>2026-04-24T10:12:51.202Z</time></trkpt><trkpt lat="45.659639" lon="11.9115713"><ele>38.833333333333336</ele><time>2026-04-24T10:12:52.202Z</time></trkpt><trkpt lat="45.6595809" lon="11.9115314"><ele>38.666666666666664</ele><time>2026-04-24T10:12:53.202Z</time></trkpt><trkpt lat="45.65952" lon="11.9114862"><ele>38.5</ele><time>2026-04-24T10:12:54.203Z</time></trkpt><trkpt lat="45.6594619" lon="11.9114446"><ele>38.33333333333333</ele><time>2026-04-24T10:12:55.202Z</time></trkpt><trkpt lat="45.6594087" lon="11.9113939"><ele>38.166666666666664</ele><time>2026-04-24T10:12:56.202Z</time></trkpt><trkpt lat="45.6592983" lon="11.9112997"><ele>38.0</ele><time>2026-04-24T10:12:58.203Z</time></trkpt><trkpt lat="45.6592406" lon="11.911252"><ele>38.0</ele><time>2026-04-24T10:12:59.202Z</time></trkpt><trkpt lat="45.6591824" lon="11.9112068"><ele>38.0</ele><time>2026-04-24T10:13:00.201Z</time></trkpt><trkpt lat="45.659123" lon="11.91116"><ele>38.0</ele><time>2026-04-24T10:13:01.202Z</time></trkpt><trkpt lat="45.6590644" lon="11.9111133"><ele>38.0</ele><time>2026-04-24T10:13:02.201Z</time></trkpt><trkpt lat="45.6590064" lon="11.9110646"><ele>38.0</ele><time>2026-04-24T10:13:03.201Z</time></trkpt><trkpt lat="45.6589475" lon="11.9110197"><ele>38.0</ele><time>2026-04-24T10:13:04.201Z</time></trkpt><trkpt lat="45.6588877" lon="11.9109712"><ele>38.0</ele><time>2026-04-24T10:13:05.202Z</time></trkpt><trkpt lat="45.6588279" lon="11.9109245"><ele>37.857142857142854</ele><time>2026-04-24T10:13:06.201Z</time></trkpt><trkpt lat="45.6587675" lon="11.9108673"><ele>37.714285714285715</ele><time>2026-04-24T10:13:07.201Z</time></trkpt><trkpt lat="45.6587074" lon="11.9108175"><ele>37.57142857142857</ele><time>2026-04-24T10:13:08.201Z</time></trkpt><trkpt lat="45.6586463" lon="11.9107701"><ele>37.42857142857143</ele><time>2026-04-24T10:13:09.201Z</time></trkpt><trkpt lat="45.6585874" lon="11.9107225"><ele>37.285714285714285</ele><time>2026-04-24T10:13:10.202Z</time></trkpt><trkpt lat="45.6585284" lon="11.9106778"><ele>37.142857142857146</ele><time>2026-04-24T10:13:11.201Z</time></trkpt><trkpt lat="45.6584722" lon="11.9106344"><ele>37.0</ele><time>2026-04-24T10:13:12.201Z</time></trkpt><trkpt lat="45.6584158" lon="11.9105861"><ele>37.0</ele><time>2026-04-24T10:13:13.201Z</time></trkpt><trkpt lat="45.6583583" lon="11.9105446"><ele>37.0</ele><time>2026-04-24T10:13:14.202Z</time></trkpt><trkpt lat="45.6583007" lon="11.910493"><ele>37.0</ele><time>2026-04-24T10:13:15.201Z</time></trkpt><trkpt lat="45.6582444" lon="11.9104471"><ele>37.0</ele><time>2026-04-24T10:13:16.202Z</time></trkpt><trkpt lat="45.6581827" lon="11.9103983"><ele>37.0</ele><time>2026-04-24T10:13:17.201Z</time></trkpt><trkpt lat="45.6581245" lon="11.9103479"><ele>37.0</ele><time>2026-04-24T10:13:18.201Z</time></trkpt><trkpt lat="45.6580644" lon="11.9102993"><ele>37.0</ele><time>2026-04-24T10:13:19.201Z</time></trkpt><trkpt lat="45.658007" lon="11.910248"><ele>37.0</ele><time>2026-04-24T10:13:20.201Z</time></trkpt><trkpt lat="45.6579447" lon="11.9102005"><ele>37.0</ele><time>2026-04-24T10:13:21.201Z</time></trkpt><trkpt lat="45.657883" lon="11.9101543"><ele>37.0</ele><time>2026-04-24T10:13:22.201Z</time></trkpt><trkpt lat="45.6577639" lon="11.9100594"><ele>37.0</ele><time>2026-04-24T10:13:24.201Z</time></trkpt><trkpt lat="45.6577017" lon="11.9100115"><ele>37.0</ele><time>2026-04-24T10:13:25.201Z</time></trkpt><trkpt lat="45.6576431" lon="11.9099652"><ele>37.0</ele><time>2026-04-24T10:13:26.201Z</time></trkpt><trkpt lat="45.6575803" lon="11.9099136"><ele>37.142857142857146</ele><time>2026-04-24T10:13:27.201Z</time></trkpt><trkpt lat="45.6575171" lon="11.909864"><ele>37.285714285714285</ele><time>2026-04-24T10:13:28.201Z</time></trkpt><trkpt lat="45.6574523" lon="11.9098119"><ele>37.42857142857143</ele><time>2026-04-24T10:13:29.201Z</time></trkpt><trkpt lat="45.6573891" lon="11.9097603"><ele>37.57142857142857</ele><time>2026-04-24T10:13:30.201Z</time></trkpt><trkpt lat="45.6573281" lon="11.9097057"><ele>37.714285714285715</ele><time>2026-04-24T10:13:31.201Z</time></trkpt><trkpt lat="45.6572642" lon="11.9096565"><ele>37.857142857142854</ele><time>2026-04-24T10:13:32.201Z</time></trkpt><trkpt lat="45.6572001" lon="11.9096048"><ele>38.0</ele><time>2026-04-24T10:13:33.201Z</time></trkpt><trkpt lat="45.6571384" lon="11.9095518"><ele>38.0</ele><time>2026-04-24T10:13:34.201Z</time></trkpt><trkpt lat="45.6570737" lon="11.9095035"><ele>38.0</ele><time>2026-04-24T10:13:35.201Z</time></trkpt><trkpt lat="45.6570116" lon="11.9094542"><ele>38.0</ele><time>2026-04-24T10:13:36.202Z</time></trkpt><trkpt lat="45.6569537" lon="11.9094011"><ele>38.0</ele><time>2026-04-24T10:13:37.201Z</time></trkpt><trkpt lat="45.6568924" lon="11.9093515"><ele>38.0</ele><time>2026-04-24T10:13:38.201Z</time></trkpt><trkpt lat="45.6568281" lon="11.9093055"><ele>38.0</ele><time>2026-04-24T10:13:39.201Z</time></trkpt><trkpt lat="45.6567622" lon="11.909251"><ele>38.0</ele><time>2026-04-24T10:13:40.202Z</time></trkpt><trkpt lat="45.6567012" lon="11.9091987"><ele>37.857142857142854</ele><time>2026-04-24T10:13:41.201Z</time></trkpt><trkpt lat="45.6566378" lon="11.9091547"><ele>37.714285714285715</ele><time>2026-04-24T10:13:42.201Z</time></trkpt><trkpt lat="45.6565803" lon="11.9091144"><ele>37.57142857142857</ele><time>2026-04-24T10:13:43.201Z</time></trkpt><trkpt lat="45.6565214" lon="11.9090775"><ele>37.42857142857143</ele><time>2026-04-24T10:13:44.201Z</time></trkpt><trkpt lat="45.6564617" lon="11.9090349"><ele>37.285714285714285</ele><time>2026-04-24T10:13:45.202Z</time></trkpt><trkpt lat="45.6563995" lon="11.9089906"><ele>37.142857142857146</ele><time>2026-04-24T10:13:46.201Z</time></trkpt><trkpt lat="45.6563376" lon="11.9089441"><ele>37.0</ele><time>2026-04-24T10:13:47.201Z</time></trkpt><trkpt lat="45.6562733" lon="11.9088964"><ele>37.0</ele><time>2026-04-24T10:13:48.201Z</time></trkpt><trkpt lat="45.6562116" lon="11.9088517"><ele>37.0</ele><time>2026-04-24T10:13:49.201Z</time></trkpt><trkpt lat="45.6561495" lon="11.9088002"><ele>37.0</ele><time>2026-04-24T10:13:50.201Z</time></trkpt><trkpt lat="45.6560876" lon="11.9087507"><ele>37.0</ele><time>2026-04-24T10:13:51.201Z</time></trkpt><trkpt lat="45.6560291" lon="11.9087071"><ele>37.0</ele><time>2026-04-24T10:13:52.201Z</time></trkpt><trkpt lat="45.655918" lon="11.9086171"><ele>37.0</ele><time>2026-04-24T10:13:54.201Z</time></trkpt><trkpt lat="45.6558573" lon="11.9085681"><ele>37.142857142857146</ele><time>2026-04-24T10:13:55.201Z</time></trkpt><trkpt lat="45.6557921" lon="11.9085315"><ele>37.285714285714285</ele><time>2026-04-24T10:13:56.201Z</time></trkpt><trkpt lat="45.6557315" lon="11.9084978"><ele>37.42857142857143</ele><time>2026-04-24T10:13:57.201Z</time></trkpt><trkpt lat="45.6556718" lon="11.9084598"><ele>37.57142857142857</ele><time>2026-04-24T10:13:58.201Z</time></trkpt><trkpt lat="45.6556169" lon="11.9084121"><ele>37.714285714285715</ele><time>2026-04-24T10:13:59.201Z</time></trkpt><trkpt lat="45.6555136" lon="11.9083288"><ele>37.857142857142854</ele><time>2026-04-24T10:14:01.201Z</time></trkpt><trkpt lat="45.6554579" lon="11.9082854"><ele>38.0</ele><time>2026-04-24T10:14:02.201Z</time></trkpt><trkpt lat="45.6553462" lon="11.9082109"><ele>38.0</ele><time>2026-04-24T10:14:04.201Z</time></trkpt><trkpt lat="45.6552842" lon="11.9081641"><ele>38.0</ele><time>2026-04-24T10:14:05.202Z</time></trkpt><trkpt lat="45.6552227" lon="11.9081195"><ele>38.0</ele><time>2026-04-24T10:14:06.201Z</time></trkpt><trkpt lat="45.6551591" lon="11.9081096"><ele>38.0</ele><time>2026-04-24T10:14:07.201Z</time></trkpt><trkpt lat="45.6550954" lon="11.9081311"><ele>38.0</ele><time>2026-04-24T10:14:08.201Z</time></trkpt><trkpt lat="45.6550454" lon="11.9081928"><ele>38.0</ele><time>2026-04-24T10:14:09.202Z</time></trkpt><trkpt lat="45.6549928" lon="11.9082566"><ele>38.0</ele><time>2026-04-24T10:14:10.201Z</time></trkpt><trkpt lat="45.6549346" lon="11.9083099"><ele>38.0</ele><time>2026-04-24T10:14:11.201Z</time></trkpt><trkpt lat="45.654876" lon="11.9083496"><ele>38.0</ele><time>2026-04-24T10:14:12.202Z</time></trkpt><trkpt lat="45.6548164" lon="11.908382"><ele>38.0</ele><time>2026-04-24T10:14:13.201Z</time></trkpt><trkpt lat="45.6547007" lon="11.9084554"><ele>38.0</ele><time>2026-04-24T10:14:15.201Z</time></trkpt><trkpt lat="45.6546377" lon="11.9084937"><ele>38.0</ele><time>2026-04-24T10:14:16.202Z</time></trkpt><trkpt lat="45.6545755" lon="11.9085356"><ele>38.0</ele><time>2026-04-24T10:14:17.201Z</time></trkpt><trkpt lat="45.6545175" lon="11.9085783"><ele>38.166666666666664</ele><time>2026-04-24T10:14:18.201Z</time></trkpt><trkpt lat="45.6544485" lon="11.9086172"><ele>38.33333333333333</ele><time>2026-04-24T10:14:19.202Z</time></trkpt><trkpt lat="45.6543916" lon="11.9086658"><ele>38.5</ele><time>2026-04-24T10:14:20.201Z</time></trkpt><trkpt lat="45.6543331" lon="11.908703"><ele>38.666666666666664</ele><time>2026-04-24T10:14:21.202Z</time></trkpt><trkpt lat="45.6542731" lon="11.9087411"><ele>38.833333333333336</ele><time>2026-04-24T10:14:22.201Z</time></trkpt><trkpt lat="45.6542142" lon="11.9087793"><ele>39.0</ele><time>2026-04-24T10:14:23.201Z</time></trkpt><trkpt lat="45.6540958" lon="11.9088599"><ele>39.0</ele><time>2026-04-24T10:14:25.201Z</time></trkpt><trkpt lat="45.6540372" lon="11.9088939"><ele>39.0</ele><time>2026-04-24T10:14:26.202Z</time></trkpt><trkpt lat="45.6539244" lon="11.9089466"><ele>39.0</ele><time>2026-04-24T10:14:28.202Z</time></trkpt><trkpt lat="45.6538045" lon="11.9089823"><ele>39.0</ele><time>2026-04-24T10:14:30.201Z</time></trkpt><trkpt lat="45.6536802" lon="11.9089975"><ele>39.0</ele><time>2026-04-24T10:14:32.201Z</time></trkpt><trkpt lat="45.6536168" lon="11.9090037"><ele>38.8</ele><time>2026-04-24T10:14:33.202Z</time></trkpt><trkpt lat="45.6535563" lon="11.9090299"><ele>38.599999999999994</ele><time>2026-04-24T10:14:34.202Z</time></trkpt><trkpt lat="45.6534771" lon="11.9091478"><ele>38.4</ele><time>2026-04-24T10:14:36.201Z</time></trkpt><trkpt lat="45.6534174" lon="11.9093138"><ele>38.199999999999996</ele><time>2026-04-24T10:14:38.201Z</time></trkpt><trkpt lat="45.6533733" lon="11.9093809"><ele>38.0</ele><time>2026-04-24T10:14:39.202Z</time></trkpt><trkpt lat="45.6532618" lon="11.9094613"><ele>37.83333333333333</ele><time>2026-04-24T10:14:41.201Z</time></trkpt><trkpt lat="45.6531391" lon="11.9095266"><ele>37.666666666666664</ele><time>2026-04-24T10:14:43.201Z</time></trkpt><trkpt lat="45.6530766" lon="11.9095711"><ele>37.5</ele><time>2026-04-24T10:14:44.201Z</time></trkpt><trkpt lat="45.6530147" lon="11.9096186"><ele>37.333333333333336</ele><time>2026-04-24T10:14:45.202Z</time></trkpt><trkpt lat="45.6529501" lon="11.9096559"><ele>37.16666666666667</ele><time>2026-04-24T10:14:46.201Z</time></trkpt><trkpt lat="45.6528896" lon="11.9096932"><ele>37.0</ele><time>2026-04-24T10:14:47.201Z</time></trkpt><trkpt lat="45.6528312" lon="11.909739"><ele>36.833333333333336</ele><time>2026-04-24T10:14:48.201Z</time></trkpt><trkpt lat="45.65277" lon="11.9097757"><ele>36.66666666666667</ele><time>2026-04-24T10:14:49.202Z</time></trkpt><trkpt lat="45.6527041" lon="11.9098159"><ele>36.5</ele><time>2026-04-24T10:14:50.202Z</time></trkpt><trkpt lat="45.6526388" lon="11.9098655"><ele>36.333333333333336</ele><time>2026-04-24T10:14:51.201Z</time></trkpt><trkpt lat="45.6525242" lon="11.909961"><ele>36.166666666666664</ele><time>2026-04-24T10:14:53.201Z</time></trkpt><trkpt lat="45.6524564" lon="11.9100081"><ele>36.0</ele><time>2026-04-24T10:14:54.201Z</time></trkpt><trkpt lat="45.6523938" lon="11.9100583"><ele>36.00000000000001</ele><time>2026-04-24T10:14:55.201Z</time></trkpt><trkpt lat="45.6523349" lon="11.9101031"><ele>36.0</ele><time>2026-04-24T10:14:56.201Z</time></trkpt><trkpt lat="45.6522741" lon="11.9101482"><ele>36.0</ele><time>2026-04-24T10:14:57.201Z</time></trkpt><trkpt lat="45.6522129" lon="11.9101886"><ele>36.0</ele><time>2026-04-24T10:14:58.201Z</time></trkpt><trkpt lat="45.652157" lon="11.910232"><ele>36.0</ele><time>2026-04-24T10:14:59.202Z</time></trkpt><trkpt lat="45.6521003" lon="11.9102729"><ele>36.00000000000001</ele><time>2026-04-24T10:15:00.201Z</time></trkpt><trkpt lat="45.6520464" lon="11.9103205"><ele>36.0</ele><time>2026-04-24T10:15:01.201Z</time></trkpt><trkpt lat="45.6519944" lon="11.9103716"><ele>36.00000000000001</ele><time>2026-04-24T10:15:02.201Z</time></trkpt><trkpt lat="45.6519435" lon="11.9104252"><ele>36.0</ele><time>2026-04-24T10:15:03.202Z</time></trkpt><trkpt lat="45.6518913" lon="11.9104838"><ele>36.0</ele><time>2026-04-24T10:15:04.201Z</time></trkpt><trkpt lat="45.6518347" lon="11.9105384"><ele>36.0</ele><time>2026-04-24T10:15:05.201Z</time></trkpt><trkpt lat="45.6517771" lon="11.9105946"><ele>36.0</ele><time>2026-04-24T10:15:06.201Z</time></trkpt><trkpt lat="45.6517202" lon="11.9106505"><ele>36.00000000000001</ele><time>2026-04-24T10:15:07.201Z</time></trkpt><trkpt lat="45.6516641" lon="11.9107089"><ele>36.0</ele><time>2026-04-24T10:15:08.201Z</time></trkpt><trkpt lat="45.6516065" lon="11.9107645"><ele>36.00000000000001</ele><time>2026-04-24T10:15:09.202Z</time></trkpt><trkpt lat="45.6515482" lon="11.910825"><ele>36.0</ele><time>2026-04-24T10:15:10.201Z</time></trkpt><trkpt lat="45.6514883" lon="11.9108689"><ele>36.0</ele><time>2026-04-24T10:15:11.202Z</time></trkpt><trkpt lat="45.6514257" lon="11.9109141"><ele>36.0</ele><time>2026-04-24T10:15:12.201Z</time></trkpt><trkpt lat="45.6513567" lon="11.91095"><ele>36.0</ele><time>2026-04-24T10:15:13.201Z</time></trkpt><trkpt lat="45.6512895" lon="11.910981"><ele>36.00000000000001</ele><time>2026-04-24T10:15:14.201Z</time></trkpt><trkpt lat="45.6512189" lon="11.9110046"><ele>36.0</ele><time>2026-04-24T10:15:15.201Z</time></trkpt><trkpt lat="45.6511451" lon="11.9110205"><ele>35.85714285714286</ele><time>2026-04-24T10:15:16.202Z</time></trkpt><trkpt lat="45.6510763" lon="11.9110303"><ele>35.714285714285715</ele><time>2026-04-24T10:15:17.201Z</time></trkpt><trkpt lat="45.6510043" lon="11.9110464"><ele>35.57142857142857</ele><time>2026-04-24T10:15:18.201Z</time></trkpt><trkpt lat="45.6509277" lon="11.9110588"><ele>35.42857142857143</ele><time>2026-04-24T10:15:19.201Z</time></trkpt><trkpt lat="45.6508554" lon="11.9110552"><ele>35.285714285714285</ele><time>2026-04-24T10:15:20.201Z</time></trkpt><trkpt lat="45.6507814" lon="11.9110432"><ele>35.142857142857146</ele><time>2026-04-24T10:15:21.202Z</time></trkpt><trkpt lat="45.6507105" lon="11.9110297"><ele>35.0</ele><time>2026-04-24T10:15:22.201Z</time></trkpt><trkpt lat="45.6506404" lon="11.9110198"><ele>35.0</ele><time>2026-04-24T10:15:23.201Z</time></trkpt><trkpt lat="45.6505715" lon="11.9110113"><ele>35.0</ele><time>2026-04-24T10:15:24.201Z</time></trkpt><trkpt lat="45.6505009" lon="11.9110003"><ele>35.0</ele><time>2026-04-24T10:15:25.201Z</time></trkpt><trkpt lat="45.6504329" lon="11.9109926"><ele>35.0</ele><time>2026-04-24T10:15:26.201Z</time></trkpt><trkpt lat="45.6503624" lon="11.9109905"><ele>35.0</ele><time>2026-04-24T10:15:27.201Z</time></trkpt><trkpt lat="45.6502896" lon="11.9110034"><ele>35.0</ele><time>2026-04-24T10:15:28.201Z</time></trkpt><trkpt lat="45.6502186" lon="11.9110211"><ele>35.0</ele><time>2026-04-24T10:15:29.201Z</time></trkpt><trkpt lat="45.6501466" lon="11.9110391"><ele>34.714285714285715</ele><time>2026-04-24T10:15:30.201Z</time></trkpt><trkpt lat="45.6500756" lon="11.9110625"><ele>34.42857142857143</ele><time>2026-04-24T10:15:31.202Z</time></trkpt><trkpt lat="45.6500056" lon="11.9110942"><ele>34.14285714285714</ele><time>2026-04-24T10:15:32.201Z</time></trkpt><trkpt lat="45.6499378" lon="11.9111204"><ele>33.85714285714286</ele><time>2026-04-24T10:15:33.202Z</time></trkpt><trkpt lat="45.6498689" lon="11.9111567"><ele>33.57142857142857</ele><time>2026-04-24T10:15:34.202Z</time></trkpt><trkpt lat="45.6498016" lon="11.9111949"><ele>33.285714285714285</ele><time>2026-04-24T10:15:35.201Z</time></trkpt><trkpt lat="45.6497347" lon="11.9112237"><ele>33.0</ele><time>2026-04-24T10:15:36.201Z</time></trkpt><trkpt lat="45.6496689" lon="11.9112452"><ele>33.0</ele><time>2026-04-24T10:15:37.201Z</time></trkpt><trkpt lat="45.6496029" lon="11.9112685"><ele>33.0</ele><time>2026-04-24T10:15:38.201Z</time></trkpt><trkpt lat="45.6495358" lon="11.9112923"><ele>33.0</ele><time>2026-04-24T10:15:39.201Z</time></trkpt><trkpt lat="45.6494716" lon="11.9113143"><ele>33.0</ele><time>2026-04-24T10:15:40.201Z</time></trkpt><trkpt lat="45.6494054" lon="11.9113426"><ele>33.0</ele><time>2026-04-24T10:15:41.201Z</time></trkpt><trkpt lat="45.6493428" lon="11.9113749"><ele>33.0</ele><time>2026-04-24T10:15:42.201Z</time></trkpt><trkpt lat="45.6492745" lon="11.9114082"><ele>33.0</ele><time>2026-04-24T10:15:43.201Z</time></trkpt><trkpt lat="45.6492093" lon="11.9114465"><ele>33.14285714285714</ele><time>2026-04-24T10:15:44.201Z</time></trkpt><trkpt lat="45.6491459" lon="11.9114893"><ele>33.285714285714285</ele><time>2026-04-24T10:15:45.201Z</time></trkpt><trkpt lat="45.649082" lon="11.9115376"><ele>33.42857142857143</ele><time>2026-04-24T10:15:46.201Z</time></trkpt><trkpt lat="45.6490191" lon="11.9115902"><ele>33.57142857142857</ele><time>2026-04-24T10:15:47.201Z</time></trkpt><trkpt lat="45.6489559" lon="11.9116441"><ele>33.714285714285715</ele><time>2026-04-24T10:15:48.201Z</time></trkpt><trkpt lat="45.6488947" lon="11.9116956"><ele>33.857142857142854</ele><time>2026-04-24T10:15:49.201Z</time></trkpt><trkpt lat="45.6488308" lon="11.9117406"><ele>34.0</ele><time>2026-04-24T10:15:50.202Z</time></trkpt><trkpt lat="45.648769" lon="11.9117803"><ele>33.99999999999999</ele><time>2026-04-24T10:15:51.201Z</time></trkpt><trkpt lat="45.6487069" lon="11.9118099"><ele>34.0</ele><time>2026-04-24T10:15:52.201Z</time></trkpt><trkpt lat="45.6486442" lon="11.9118366"><ele>34.0</ele><time>2026-04-24T10:15:53.201Z</time></trkpt><trkpt lat="45.6485815" lon="11.9118673"><ele>34.0</ele><time>2026-04-24T10:15:54.201Z</time></trkpt><trkpt lat="45.6485196" lon="11.9118979"><ele>34.0</ele><time>2026-04-24T10:15:55.201Z</time></trkpt><trkpt lat="45.6484587" lon="11.9119325"><ele>33.99999999999999</ele><time>2026-04-24T10:15:56.201Z</time></trkpt><trkpt lat="45.6483929" lon="11.9119586"><ele>34.0</ele><time>2026-04-24T10:15:57.201Z</time></trkpt><trkpt lat="45.648328" lon="11.911988"><ele>33.99999999999999</ele><time>2026-04-24T10:15:58.202Z</time></trkpt><trkpt lat="45.6482618" lon="11.912018"><ele>34.0</ele><time>2026-04-24T10:15:59.201Z</time></trkpt><trkpt lat="45.648195" lon="11.912048"><ele>34.0</ele><time>2026-04-24T10:16:00.201Z</time></trkpt><trkpt lat="45.6481295" lon="11.912081"><ele>34.0</ele><time>2026-04-24T10:16:01.201Z</time></trkpt><trkpt lat="45.648064" lon="11.9121102"><ele>34.0</ele><time>2026-04-24T10:16:02.201Z</time></trkpt><trkpt lat="45.6479935" lon="11.9121403"><ele>33.99999999999999</ele><time>2026-04-24T10:16:03.201Z</time></trkpt><trkpt lat="45.6479284" lon="11.9121738"><ele>34.0</ele><time>2026-04-24T10:16:04.201Z</time></trkpt><trkpt lat="45.647865" lon="11.9122045"><ele>33.99999999999999</ele><time>2026-04-24T10:16:05.201Z</time></trkpt><trkpt lat="45.6477976" lon="11.9122359"><ele>34.0</ele><time>2026-04-24T10:16:06.202Z</time></trkpt><trkpt lat="45.6477314" lon="11.9122667"><ele>34.0</ele><time>2026-04-24T10:16:07.202Z</time></trkpt><trkpt lat="45.6476643" lon="11.9122994"><ele>34.0</ele><time>2026-04-24T10:16:08.201Z</time></trkpt><trkpt lat="45.6476024" lon="11.9123303"><ele>34.0</ele><time>2026-04-24T10:16:09.201Z</time></trkpt><trkpt lat="45.6475333" lon="11.912362"><ele>33.99999999999999</ele><time>2026-04-24T10:16:10.201Z</time></trkpt><trkpt lat="45.6474652" lon="11.9123905"><ele>34.0</ele><time>2026-04-24T10:16:11.201Z</time></trkpt><trkpt lat="45.6474014" lon="11.9124226"><ele>33.99999999999999</ele><time>2026-04-24T10:16:12.202Z</time></trkpt><trkpt lat="45.6473341" lon="11.9124584"><ele>34.0</ele><time>2026-04-24T10:16:13.201Z</time></trkpt><trkpt lat="45.6472657" lon="11.912491"><ele>34.0</ele><time>2026-04-24T10:16:14.201Z</time></trkpt><trkpt lat="45.6471967" lon="11.9125245"><ele>34.0</ele><time>2026-04-24T10:16:15.201Z</time></trkpt><trkpt lat="45.6471262" lon="11.9125547"><ele>34.0</ele><time>2026-04-24T10:16:16.201Z</time></trkpt><trkpt lat="45.6470596" lon="11.9125862"><ele>33.99999999999999</ele><time>2026-04-24T10:16:17.201Z</time></trkpt><trkpt lat="45.646992" lon="11.9126182"><ele>34.0</ele><time>2026-04-24T10:16:18.201Z</time></trkpt><trkpt lat="45.6469246" lon="11.9126473"><ele>33.71428571428571</ele><time>2026-04-24T10:16:19.202Z</time></trkpt><trkpt lat="45.6468585" lon="11.9126814"><ele>33.42857142857143</ele><time>2026-04-24T10:16:20.201Z</time></trkpt><trkpt lat="45.6467915" lon="11.9127211"><ele>33.14285714285714</ele><time>2026-04-24T10:16:21.201Z</time></trkpt><trkpt lat="45.6467212" lon="11.9127583"><ele>32.857142857142854</ele><time>2026-04-24T10:16:22.201Z</time></trkpt><trkpt lat="45.646649" lon="11.9127941"><ele>32.57142857142857</ele><time>2026-04-24T10:16:23.201Z</time></trkpt><trkpt lat="45.6465819" lon="11.9128274"><ele>32.285714285714285</ele><time>2026-04-24T10:16:24.201Z</time></trkpt><trkpt lat="45.6465178" lon="11.9128592"><ele>32.0</ele><time>2026-04-24T10:16:25.201Z</time></trkpt><trkpt lat="45.64645" lon="11.9128906"><ele>32.0</ele><time>2026-04-24T10:16:26.201Z</time></trkpt><trkpt lat="45.6463819" lon="11.9129266"><ele>31.999999999999996</ele><time>2026-04-24T10:16:27.201Z</time></trkpt><trkpt lat="45.6463138" lon="11.9129608"><ele>32.0</ele><time>2026-04-24T10:16:28.201Z</time></trkpt><trkpt lat="45.6462443" lon="11.9129945"><ele>32.0</ele><time>2026-04-24T10:16:29.202Z</time></trkpt><trkpt lat="45.6461728" lon="11.9130282"><ele>31.999999999999996</ele><time>2026-04-24T10:16:30.201Z</time></trkpt><trkpt lat="45.6461076" lon="11.9130624"><ele>32.0</ele><time>2026-04-24T10:16:31.2Z</time></trkpt><trkpt lat="45.646043" lon="11.913093"><ele>32.0</ele><time>2026-04-24T10:16:32.2Z</time></trkpt><trkpt lat="45.6459785" lon="11.9131216"><ele>32.14285714285714</ele><time>2026-04-24T10:16:33.2Z</time></trkpt><trkpt lat="45.6459122" lon="11.9131525"><ele>32.285714285714285</ele><time>2026-04-24T10:16:34.201Z</time></trkpt><trkpt lat="45.6458484" lon="11.9131835"><ele>32.42857142857143</ele><time>2026-04-24T10:16:35.2Z</time></trkpt><trkpt lat="45.6457826" lon="11.9132151"><ele>32.57142857142857</ele><time>2026-04-24T10:16:36.2Z</time></trkpt><trkpt lat="45.645717" lon="11.9132506"><ele>32.714285714285715</ele><time>2026-04-24T10:16:37.2Z</time></trkpt><trkpt lat="45.6456538" lon="11.913281"><ele>32.857142857142854</ele><time>2026-04-24T10:16:38.201Z</time></trkpt><trkpt lat="45.6455892" lon="11.9133105"><ele>33.0</ele><time>2026-04-24T10:16:39.201Z</time></trkpt><trkpt lat="45.645528" lon="11.9133377"><ele>33.0</ele><time>2026-04-24T10:16:40.2Z</time></trkpt><trkpt lat="45.6454662" lon="11.9133649"><ele>33.0</ele><time>2026-04-24T10:16:41.2Z</time></trkpt><trkpt lat="45.6454033" lon="11.9133974"><ele>33.0</ele><time>2026-04-24T10:16:42.201Z</time></trkpt><trkpt lat="45.6453355" lon="11.9134288"><ele>33.0</ele><time>2026-04-24T10:16:43.2Z</time></trkpt><trkpt lat="45.6452707" lon="11.913468"><ele>33.0</ele><time>2026-04-24T10:16:44.2Z</time></trkpt><trkpt lat="45.6452103" lon="11.9135022"><ele>33.0</ele><time>2026-04-24T10:16:45.2Z</time></trkpt><trkpt lat="45.6451493" lon="11.9135283"><ele>33.0</ele><time>2026-04-24T10:16:46.2Z</time></trkpt><trkpt lat="45.6450846" lon="11.9135582"><ele>33.14285714285714</ele><time>2026-04-24T10:16:47.2Z</time></trkpt><trkpt lat="45.6450222" lon="11.9135797"><ele>33.285714285714285</ele><time>2026-04-24T10:16:48.2Z</time></trkpt><trkpt lat="45.6449569" lon="11.9136082"><ele>33.42857142857143</ele><time>2026-04-24T10:16:49.201Z</time></trkpt><trkpt lat="45.6448901" lon="11.9136332"><ele>33.57142857142857</ele><time>2026-04-24T10:16:50.2Z</time></trkpt><trkpt lat="45.6448209" lon="11.9136543"><ele>33.714285714285715</ele><time>2026-04-24T10:16:51.2Z</time></trkpt><trkpt lat="45.6447538" lon="11.913683"><ele>33.857142857142854</ele><time>2026-04-24T10:16:52.2Z</time></trkpt><trkpt lat="45.6446874" lon="11.9137088"><ele>34.0</ele><time>2026-04-24T10:16:53.201Z</time></trkpt><trkpt lat="45.6446191" lon="11.9137332"><ele>33.99999999999999</ele><time>2026-04-24T10:16:54.2Z</time></trkpt><trkpt lat="45.6445518" lon="11.9137586"><ele>34.0</ele><time>2026-04-24T10:16:55.2Z</time></trkpt><trkpt lat="45.6444839" lon="11.913787"><ele>34.0</ele><time>2026-04-24T10:16:56.2Z</time></trkpt><trkpt lat="45.6444142" lon="11.9138109"><ele>34.0</ele><time>2026-04-24T10:16:57.2Z</time></trkpt><trkpt lat="45.6443427" lon="11.9138317"><ele>34.0</ele><time>2026-04-24T10:16:58.2Z</time></trkpt><trkpt lat="45.6442735" lon="11.9138522"><ele>33.99999999999999</ele><time>2026-04-24T10:16:59.2Z</time></trkpt><trkpt lat="45.6442044" lon="11.9138749"><ele>34.0</ele><time>2026-04-24T10:17:00.2Z</time></trkpt><trkpt lat="45.644137" lon="11.9138997"><ele>33.833333333333336</ele><time>2026-04-24T10:17:01.2Z</time></trkpt><trkpt lat="45.644073" lon="11.9139254"><ele>33.66666666666667</ele><time>2026-04-24T10:17:02.2Z</time></trkpt><trkpt lat="45.6440077" lon="11.9139421"><ele>33.5</ele><time>2026-04-24T10:17:03.2Z</time></trkpt><trkpt lat="45.6438895" lon="11.9139841"><ele>33.333333333333336</ele><time>2026-04-24T10:17:05.2Z</time></trkpt><trkpt lat="45.6438262" lon="11.9140066"><ele>33.166666666666664</ele><time>2026-04-24T10:17:06.201Z</time></trkpt><trkpt lat="45.6437022" lon="11.9140431"><ele>33.0</ele><time>2026-04-24T10:17:08.2Z</time></trkpt><trkpt lat="45.6436386" lon="11.9140617"><ele>33.14285714285714</ele><time>2026-04-24T10:17:09.2Z</time></trkpt><trkpt lat="45.6435759" lon="11.9140832"><ele>33.285714285714285</ele><time>2026-04-24T10:17:10.2Z</time></trkpt><trkpt lat="45.6435128" lon="11.914109"><ele>33.42857142857143</ele><time>2026-04-24T10:17:11.2Z</time></trkpt><trkpt lat="45.6434505" lon="11.9141272"><ele>33.57142857142857</ele><time>2026-04-24T10:17:12.2Z</time></trkpt><trkpt lat="45.6433858" lon="11.9141512"><ele>33.714285714285715</ele><time>2026-04-24T10:17:13.2Z</time></trkpt><trkpt lat="45.6433226" lon="11.9141764"><ele>33.857142857142854</ele><time>2026-04-24T10:17:14.2Z</time></trkpt><trkpt lat="45.6432575" lon="11.9141932"><ele>34.0</ele><time>2026-04-24T10:17:15.2Z</time></trkpt><trkpt lat="45.6431946" lon="11.9142149"><ele>34.0</ele><time>2026-04-24T10:17:16.201Z</time></trkpt><trkpt lat="45.6431314" lon="11.9142351"><ele>34.0</ele><time>2026-04-24T10:17:17.2Z</time></trkpt><trkpt lat="45.6430675" lon="11.9142569"><ele>34.0</ele><time>2026-04-24T10:17:18.2Z</time></trkpt><trkpt lat="45.6429398" lon="11.9143038"><ele>34.0</ele><time>2026-04-24T10:17:20.2Z</time></trkpt><trkpt lat="45.6428719" lon="11.9143286"><ele>34.0</ele><time>2026-04-24T10:17:21.2Z</time></trkpt><trkpt lat="45.6428056" lon="11.9143507"><ele>34.0</ele><time>2026-04-24T10:17:22.2Z</time></trkpt><trkpt lat="45.6427406" lon="11.9143759"><ele>33.99999999999999</ele><time>2026-04-24T10:17:23.2Z</time></trkpt><trkpt lat="45.6426772" lon="11.9144019"><ele>34.0</ele><time>2026-04-24T10:17:24.2Z</time></trkpt><trkpt lat="45.6426157" lon="11.9144218"><ele>34.0</ele><time>2026-04-24T10:17:25.2Z</time></trkpt><trkpt lat="45.642551" lon="11.9144457"><ele>34.0</ele><time>2026-04-24T10:17:26.2Z</time></trkpt><trkpt lat="45.6424873" lon="11.9144699"><ele>34.0</ele><time>2026-04-24T10:17:27.2Z</time></trkpt><trkpt lat="45.6424222" lon="11.9144939"><ele>33.99999999999999</ele><time>2026-04-24T10:17:28.2Z</time></trkpt><trkpt lat="45.6423566" lon="11.9145159"><ele>34.0</ele><time>2026-04-24T10:17:29.201Z</time></trkpt><trkpt lat="45.6422925" lon="11.914539"><ele>34.0</ele><time>2026-04-24T10:17:30.2Z</time></trkpt><trkpt lat="45.642226" lon="11.9145623"><ele>34.0</ele><time>2026-04-24T10:17:31.201Z</time></trkpt><trkpt lat="45.6421623" lon="11.9145893"><ele>34.0</ele><time>2026-04-24T10:17:32.2Z</time></trkpt><trkpt lat="45.6420999" lon="11.9146181"><ele>34.0</ele><time>2026-04-24T10:17:33.2Z</time></trkpt><trkpt lat="45.6419801" lon="11.9146666"><ele>34.0</ele><time>2026-04-24T10:17:35.2Z</time></trkpt><trkpt lat="45.6419176" lon="11.9146982"><ele>34.0</ele><time>2026-04-24T10:17:36.2Z</time></trkpt><trkpt lat="45.6418561" lon="11.9147314"><ele>33.99999999999999</ele><time>2026-04-24T10:17:37.2Z</time></trkpt><trkpt lat="45.6417925" lon="11.9147618"><ele>34.0</ele><time>2026-04-24T10:17:38.2Z</time></trkpt><trkpt lat="45.6417303" lon="11.9147933"><ele>34.0</ele><time>2026-04-24T10:17:39.201Z</time></trkpt><trkpt lat="45.6416697" lon="11.9148191"><ele>34.0</ele><time>2026-04-24T10:17:40.2Z</time></trkpt><trkpt lat="45.641609" lon="11.9148455"><ele>34.0</ele><time>2026-04-24T10:17:41.2Z</time></trkpt><trkpt lat="45.6415473" lon="11.9148757"><ele>33.99999999999999</ele><time>2026-04-24T10:17:42.2Z</time></trkpt><trkpt lat="45.6414851" lon="11.9148944"><ele>34.0</ele><time>2026-04-24T10:17:43.2Z</time></trkpt><trkpt lat="45.6414225" lon="11.914924"><ele>33.99999999999999</ele><time>2026-04-24T10:17:44.2Z</time></trkpt><trkpt lat="45.6413602" lon="11.9149549"><ele>34.0</ele><time>2026-04-24T10:17:45.201Z</time></trkpt><trkpt lat="45.6412958" lon="11.9149831"><ele>34.0</ele><time>2026-04-24T10:17:46.2Z</time></trkpt><trkpt lat="45.6412322" lon="11.9150122"><ele>34.0</ele><time>2026-04-24T10:17:47.2Z</time></trkpt><trkpt lat="45.6411673" lon="11.9150397"><ele>34.0</ele><time>2026-04-24T10:17:48.2Z</time></trkpt><trkpt lat="45.6411034" lon="11.9150707"><ele>33.99999999999999</ele><time>2026-04-24T10:17:49.2Z</time></trkpt><trkpt lat="45.6410369" lon="11.9150987"><ele>34.0</ele><time>2026-04-24T10:17:50.201Z</time></trkpt><trkpt lat="45.6409708" lon="11.9151244"><ele>33.57142857142857</ele><time>2026-04-24T10:17:51.2Z</time></trkpt><trkpt lat="45.6409083" lon="11.9151579"><ele>33.14285714285714</ele><time>2026-04-24T10:17:52.201Z</time></trkpt><trkpt lat="45.6408444" lon="11.9151935"><ele>32.714285714285715</ele><time>2026-04-24T10:17:53.2Z</time></trkpt><trkpt lat="45.6407828" lon="11.9152209"><ele>32.285714285714285</ele><time>2026-04-24T10:17:54.201Z</time></trkpt><trkpt lat="45.6407191" lon="11.9152432"><ele>31.85714285714286</ele><time>2026-04-24T10:17:55.2Z</time></trkpt><trkpt lat="45.6406568" lon="11.9152753"><ele>31.42857142857143</ele><time>2026-04-24T10:17:56.201Z</time></trkpt><trkpt lat="45.6405896" lon="11.915303"><ele>31.0</ele><time>2026-04-24T10:17:57.2Z</time></trkpt><trkpt lat="45.6405209" lon="11.9153374"><ele>31.0</ele><time>2026-04-24T10:17:58.2Z</time></trkpt><trkpt lat="45.6404544" lon="11.9153658"><ele>31.000000000000004</ele><time>2026-04-24T10:17:59.2Z</time></trkpt><trkpt lat="45.6403883" lon="11.9153944"><ele>31.0</ele><time>2026-04-24T10:18:00.2Z</time></trkpt><trkpt lat="45.6403251" lon="11.9154245"><ele>31.0</ele><time>2026-04-24T10:18:01.201Z</time></trkpt><trkpt lat="45.6402603" lon="11.9154571"><ele>31.000000000000004</ele><time>2026-04-24T10:18:02.2Z</time></trkpt><trkpt lat="45.6401905" lon="11.915488"><ele>31.0</ele><time>2026-04-24T10:18:03.2Z</time></trkpt><trkpt lat="45.6401233" lon="11.9155222"><ele>31.0</ele><time>2026-04-24T10:18:04.2Z</time></trkpt><trkpt lat="45.6400549" lon="11.9155527"><ele>31.142857142857146</ele><time>2026-04-24T10:18:05.2Z</time></trkpt><trkpt lat="45.6399847" lon="11.9155857"><ele>31.28571428571429</ele><time>2026-04-24T10:18:06.2Z</time></trkpt><trkpt lat="45.6399156" lon="11.915617"><ele>31.42857142857143</ele><time>2026-04-24T10:18:07.2Z</time></trkpt><trkpt lat="45.639843" lon="11.9156535"><ele>31.57142857142857</ele><time>2026-04-24T10:18:08.2Z</time></trkpt><trkpt lat="45.6397743" lon="11.9156863"><ele>31.71428571428571</ele><time>2026-04-24T10:18:09.2Z</time></trkpt><trkpt lat="45.6397069" lon="11.9157213"><ele>31.857142857142854</ele><time>2026-04-24T10:18:10.2Z</time></trkpt><trkpt lat="45.6396383" lon="11.9157539"><ele>32.0</ele><time>2026-04-24T10:18:11.2Z</time></trkpt><trkpt lat="45.639575" lon="11.9157827"><ele>32.0</ele><time>2026-04-24T10:18:12.2Z</time></trkpt><trkpt lat="45.6395067" lon="11.9158133"><ele>31.999999999999996</ele><time>2026-04-24T10:18:13.2Z</time></trkpt><trkpt lat="45.6394343" lon="11.9158368"><ele>32.0</ele><time>2026-04-24T10:18:14.2Z</time></trkpt><trkpt lat="45.639364" lon="11.9158642"><ele>32.0</ele><time>2026-04-24T10:18:15.2Z</time></trkpt><trkpt lat="45.6392961" lon="11.915886"><ele>31.999999999999996</ele><time>2026-04-24T10:18:16.2Z</time></trkpt><trkpt lat="45.6392261" lon="11.9159077"><ele>32.0</ele><time>2026-04-24T10:18:17.2Z</time></trkpt><trkpt lat="45.6391557" lon="11.9159351"><ele>32.0</ele><time>2026-04-24T10:18:18.2Z</time></trkpt><trkpt lat="45.6390899" lon="11.915943"><ele>32.0</ele><time>2026-04-24T10:18:19.2Z</time></trkpt><trkpt lat="45.639022" lon="11.9159404"><ele>31.999999999999996</ele><time>2026-04-24T10:18:20.201Z</time></trkpt><trkpt lat="45.6389534" lon="11.9159543"><ele>32.0</ele><time>2026-04-24T10:18:21.2Z</time></trkpt><trkpt lat="45.6388845" lon="11.9159672"><ele>32.0</ele><time>2026-04-24T10:18:22.2Z</time></trkpt><trkpt lat="45.6388177" lon="11.9159912"><ele>31.999999999999996</ele><time>2026-04-24T10:18:23.2Z</time></trkpt><trkpt lat="45.6387535" lon="11.9160112"><ele>32.0</ele><time>2026-04-24T10:18:24.2Z</time></trkpt><trkpt lat="45.6386874" lon="11.9160231"><ele>32.0</ele><time>2026-04-24T10:18:25.2Z</time></trkpt><trkpt lat="45.6386215" lon="11.9160404"><ele>31.857142857142854</ele><time>2026-04-24T10:18:26.2Z</time></trkpt><trkpt lat="45.6385573" lon="11.9160588"><ele>31.71428571428571</ele><time>2026-04-24T10:18:27.201Z</time></trkpt><trkpt lat="45.6384922" lon="11.916076"><ele>31.57142857142857</ele><time>2026-04-24T10:18:28.2Z</time></trkpt><trkpt lat="45.6384289" lon="11.9160918"><ele>31.42857142857143</ele><time>2026-04-24T10:18:29.201Z</time></trkpt><trkpt lat="45.6383625" lon="11.9161072"><ele>31.28571428571429</ele><time>2026-04-24T10:18:30.2Z</time></trkpt><trkpt lat="45.638295" lon="11.9161177"><ele>31.142857142857146</ele><time>2026-04-24T10:18:31.2Z</time></trkpt><trkpt lat="45.6382283" lon="11.9161373"><ele>31.0</ele><time>2026-04-24T10:18:32.201Z</time></trkpt><trkpt lat="45.638162" lon="11.9161519"><ele>31.0</ele><time>2026-04-24T10:18:33.201Z</time></trkpt><trkpt lat="45.6380974" lon="11.9161699"><ele>31.000000000000004</ele><time>2026-04-24T10:18:34.2Z</time></trkpt><trkpt lat="45.6380309" lon="11.91619"><ele>31.0</ele><time>2026-04-24T10:18:35.2Z</time></trkpt><trkpt lat="45.6379615" lon="11.9162113"><ele>31.0</ele><time>2026-04-24T10:18:36.2Z</time></trkpt><trkpt lat="45.6378938" lon="11.9162293"><ele>31.000000000000004</ele><time>2026-04-24T10:18:37.2Z</time></trkpt><trkpt lat="45.6378272" lon="11.9162459"><ele>31.0</ele><time>2026-04-24T10:18:38.201Z</time></trkpt><trkpt lat="45.6377598" lon="11.9162647"><ele>31.0</ele><time>2026-04-24T10:18:39.2Z</time></trkpt><trkpt lat="45.6376943" lon="11.9162839"><ele>30.857142857142858</ele><time>2026-04-24T10:18:40.2Z</time></trkpt><trkpt lat="45.6376262" lon="11.916301"><ele>30.714285714285715</ele><time>2026-04-24T10:18:41.2Z</time></trkpt><trkpt lat="45.6375593" lon="11.9163176"><ele>30.571428571428573</ele><time>2026-04-24T10:18:42.201Z</time></trkpt><trkpt lat="45.6374897" lon="11.9163358"><ele>30.42857142857143</ele><time>2026-04-24T10:18:43.2Z</time></trkpt><trkpt lat="45.6374205" lon="11.916354"><ele>30.285714285714285</ele><time>2026-04-24T10:18:44.201Z</time></trkpt><trkpt lat="45.6373501" lon="11.9163743"><ele>30.142857142857146</ele><time>2026-04-24T10:18:45.2Z</time></trkpt><trkpt lat="45.63728" lon="11.9163912"><ele>30.0</ele><time>2026-04-24T10:18:46.2Z</time></trkpt><trkpt lat="45.6372102" lon="11.9164054"><ele>30.0</ele><time>2026-04-24T10:18:47.2Z</time></trkpt><trkpt lat="45.6371411" lon="11.9164273"><ele>30.0</ele><time>2026-04-24T10:18:48.201Z</time></trkpt><trkpt lat="45.6370699" lon="11.9164468"><ele>30.0</ele><time>2026-04-24T10:18:49.201Z</time></trkpt><trkpt lat="45.6370003" lon="11.9164647"><ele>30.0</ele><time>2026-04-24T10:18:50.201Z</time></trkpt><trkpt lat="45.6369333" lon="11.9164833"><ele>30.0</ele><time>2026-04-24T10:18:51.2Z</time></trkpt><trkpt lat="45.636868" lon="11.9165025"><ele>30.0</ele><time>2026-04-24T10:18:52.2Z</time></trkpt><trkpt lat="45.6367981" lon="11.9165211"><ele>30.0</ele><time>2026-04-24T10:18:53.2Z</time></trkpt><trkpt lat="45.636728" lon="11.9165393"><ele>30.0</ele><time>2026-04-24T10:18:54.2Z</time></trkpt><trkpt lat="45.6366586" lon="11.9165595"><ele>30.0</ele><time>2026-04-24T10:18:55.2Z</time></trkpt><trkpt lat="45.6365892" lon="11.9165744"><ele>30.0</ele><time>2026-04-24T10:18:56.2Z</time></trkpt><trkpt lat="45.63652" lon="11.9165949"><ele>30.0</ele><time>2026-04-24T10:18:57.2Z</time></trkpt><trkpt lat="45.6364517" lon="11.9166127"><ele>30.0</ele><time>2026-04-24T10:18:58.2Z</time></trkpt><trkpt lat="45.6363844" lon="11.91663"><ele>30.0</ele><time>2026-04-24T10:18:59.2Z</time></trkpt><trkpt lat="45.6363174" lon="11.9166491"><ele>30.0</ele><time>2026-04-24T10:19:00.201Z</time></trkpt><trkpt lat="45.6362491" lon="11.9166688"><ele>30.0</ele><time>2026-04-24T10:19:01.2Z</time></trkpt><trkpt lat="45.6361774" lon="11.91668"><ele>30.0</ele><time>2026-04-24T10:19:02.2Z</time></trkpt><trkpt lat="45.6361064" lon="11.9166952"><ele>30.0</ele><time>2026-04-24T10:19:03.2Z</time></trkpt><trkpt lat="45.6360408" lon="11.9167154"><ele>30.0</ele><time>2026-04-24T10:19:04.2Z</time></trkpt><trkpt lat="45.6359771" lon="11.9167356"><ele>30.0</ele><time>2026-04-24T10:19:05.2Z</time></trkpt><trkpt lat="45.6359149" lon="11.9167575"><ele>30.0</ele><time>2026-04-24T10:19:06.2Z</time></trkpt><trkpt lat="45.6358514" lon="11.9167768"><ele>30.0</ele><time>2026-04-24T10:19:07.2Z</time></trkpt><trkpt lat="45.6357858" lon="11.9167974"><ele>30.0</ele><time>2026-04-24T10:19:08.201Z</time></trkpt><trkpt lat="45.6357205" lon="11.9168199"><ele>30.0</ele><time>2026-04-24T10:19:09.2Z</time></trkpt><trkpt lat="45.635611" lon="11.9168632"><ele>30.0</ele><time>2026-04-24T10:19:11.201Z</time></trkpt><trkpt lat="45.635547" lon="11.9168881"><ele>30.0</ele><time>2026-04-24T10:19:12.2Z</time></trkpt><trkpt lat="45.6354805" lon="11.916918"><ele>30.0</ele><time>2026-04-24T10:19:13.2Z</time></trkpt><trkpt lat="45.6354162" lon="11.9169426"><ele>30.0</ele><time>2026-04-24T10:19:14.2Z</time></trkpt><trkpt lat="45.6353497" lon="11.916964"><ele>30.142857142857146</ele><time>2026-04-24T10:19:15.2Z</time></trkpt><trkpt lat="45.6352826" lon="11.9169864"><ele>30.285714285714285</ele><time>2026-04-24T10:19:16.2Z</time></trkpt><trkpt lat="45.6352165" lon="11.9170047"><ele>30.42857142857143</ele><time>2026-04-24T10:19:17.2Z</time></trkpt><trkpt lat="45.6351461" lon="11.9170224"><ele>30.571428571428573</ele><time>2026-04-24T10:19:18.2Z</time></trkpt><trkpt lat="45.6350811" lon="11.9170488"><ele>30.714285714285715</ele><time>2026-04-24T10:19:19.2Z</time></trkpt><trkpt lat="45.635017" lon="11.9170741"><ele>30.857142857142858</ele><time>2026-04-24T10:19:20.2Z</time></trkpt><trkpt lat="45.6349509" lon="11.9170873"><ele>31.0</ele><time>2026-04-24T10:19:21.2Z</time></trkpt><trkpt lat="45.6348826" lon="11.9171088"><ele>31.0</ele><time>2026-04-24T10:19:22.2Z</time></trkpt><trkpt lat="45.6348149" lon="11.9171292"><ele>31.000000000000004</ele><time>2026-04-24T10:19:23.2Z</time></trkpt><trkpt lat="45.6347441" lon="11.9171443"><ele>31.0</ele><time>2026-04-24T10:19:24.2Z</time></trkpt><trkpt lat="45.6346772" lon="11.9171651"><ele>31.0</ele><time>2026-04-24T10:19:25.2Z</time></trkpt><trkpt lat="45.634609" lon="11.9171878"><ele>31.000000000000004</ele><time>2026-04-24T10:19:26.2Z</time></trkpt><trkpt lat="45.6345413" lon="11.9172126"><ele>31.0</ele><time>2026-04-24T10:19:27.2Z</time></trkpt><trkpt lat="45.6344735" lon="11.9172341"><ele>31.0</ele><time>2026-04-24T10:19:28.201Z</time></trkpt><trkpt lat="45.6344047" lon="11.9172523"><ele>31.142857142857146</ele><time>2026-04-24T10:19:29.2Z</time></trkpt><trkpt lat="45.6343382" lon="11.9172705"><ele>31.28571428571429</ele><time>2026-04-24T10:19:30.201Z</time></trkpt><trkpt lat="45.6342693" lon="11.917293"><ele>31.42857142857143</ele><time>2026-04-24T10:19:31.2Z</time></trkpt><trkpt lat="45.634203" lon="11.91731"><ele>31.57142857142857</ele><time>2026-04-24T10:19:32.2Z</time></trkpt><trkpt lat="45.6341344" lon="11.917324"><ele>31.71428571428571</ele><time>2026-04-24T10:19:33.201Z</time></trkpt><trkpt lat="45.634069" lon="11.917343"><ele>31.857142857142854</ele><time>2026-04-24T10:19:34.2Z</time></trkpt><trkpt lat="45.6340011" lon="11.9173621"><ele>32.0</ele><time>2026-04-24T10:19:35.2Z</time></trkpt><trkpt lat="45.6339379" lon="11.9173938"><ele>32.0</ele><time>2026-04-24T10:19:36.201Z</time></trkpt><trkpt lat="45.6338702" lon="11.9174148"><ele>31.999999999999996</ele><time>2026-04-24T10:19:37.2Z</time></trkpt><trkpt lat="45.633803" lon="11.9174353"><ele>32.0</ele><time>2026-04-24T10:19:38.2Z</time></trkpt><trkpt lat="45.633738" lon="11.9174569"><ele>32.0</ele><time>2026-04-24T10:19:39.2Z</time></trkpt><trkpt lat="45.6336697" lon="11.9174747"><ele>31.999999999999996</ele><time>2026-04-24T10:19:40.201Z</time></trkpt><trkpt lat="45.6335998" lon="11.9174957"><ele>32.0</ele><time>2026-04-24T10:19:41.2Z</time></trkpt><trkpt lat="45.6335332" lon="11.9175136"><ele>32.0</ele><time>2026-04-24T10:19:42.2Z</time></trkpt><trkpt lat="45.6334656" lon="11.9175344"><ele>31.857142857142854</ele><time>2026-04-24T10:19:43.2Z</time></trkpt><trkpt lat="45.6333965" lon="11.9175567"><ele>31.71428571428571</ele><time>2026-04-24T10:19:44.2Z</time></trkpt><trkpt lat="45.6333291" lon="11.9175768"><ele>31.57142857142857</ele><time>2026-04-24T10:19:45.2Z</time></trkpt><trkpt lat="45.6332597" lon="11.917595"><ele>31.42857142857143</ele><time>2026-04-24T10:19:46.201Z</time></trkpt><trkpt lat="45.6331876" lon="11.9176149"><ele>31.28571428571429</ele><time>2026-04-24T10:19:47.2Z</time></trkpt><trkpt lat="45.633115" lon="11.917626"><ele>31.142857142857146</ele><time>2026-04-24T10:19:48.2Z</time></trkpt><trkpt lat="45.6330448" lon="11.9176458"><ele>31.0</ele><time>2026-04-24T10:19:49.2Z</time></trkpt><trkpt lat="45.632978" lon="11.9176682"><ele>30.857142857142858</ele><time>2026-04-24T10:19:50.2Z</time></trkpt><trkpt lat="45.6329088" lon="11.9176897"><ele>30.714285714285715</ele><time>2026-04-24T10:19:51.2Z</time></trkpt><trkpt lat="45.6328412" lon="11.9177085"><ele>30.571428571428573</ele><time>2026-04-24T10:19:52.2Z</time></trkpt><trkpt lat="45.6327728" lon="11.917727"><ele>30.42857142857143</ele><time>2026-04-24T10:19:53.2Z</time></trkpt><trkpt lat="45.6327032" lon="11.9177483"><ele>30.285714285714285</ele><time>2026-04-24T10:19:54.2Z</time></trkpt><trkpt lat="45.6326347" lon="11.9177618"><ele>30.142857142857146</ele><time>2026-04-24T10:19:55.2Z</time></trkpt><trkpt lat="45.6325663" lon="11.917781"><ele>30.0</ele><time>2026-04-24T10:19:56.2Z</time></trkpt><trkpt lat="45.6324977" lon="11.9177995"><ele>30.0</ele><time>2026-04-24T10:19:57.2Z</time></trkpt><trkpt lat="45.6324253" lon="11.9178191"><ele>30.0</ele><time>2026-04-24T10:19:58.2Z</time></trkpt><trkpt lat="45.6323534" lon="11.917832"><ele>30.0</ele><time>2026-04-24T10:19:59.2Z</time></trkpt><trkpt lat="45.6322845" lon="11.9178569"><ele>30.0</ele><time>2026-04-24T10:20:00.201Z</time></trkpt><trkpt lat="45.6322132" lon="11.9178783"><ele>30.0</ele><time>2026-04-24T10:20:01.2Z</time></trkpt><trkpt lat="45.632141" lon="11.9178965"><ele>30.0</ele><time>2026-04-24T10:20:02.2Z</time></trkpt><trkpt lat="45.6320742" lon="11.9179177"><ele>30.0</ele><time>2026-04-24T10:20:03.199Z</time></trkpt><trkpt lat="45.6320027" lon="11.9179364"><ele>30.0</ele><time>2026-04-24T10:20:04.199Z</time></trkpt><trkpt lat="45.6319344" lon="11.9179575"><ele>30.0</ele><time>2026-04-24T10:20:05.199Z</time></trkpt><trkpt lat="45.6318686" lon="11.9179762"><ele>30.0</ele><time>2026-04-24T10:20:06.199Z</time></trkpt><trkpt lat="45.6318035" lon="11.917998"><ele>30.0</ele><time>2026-04-24T10:20:07.199Z</time></trkpt><trkpt lat="45.6317318" lon="11.9180178"><ele>30.0</ele><time>2026-04-24T10:20:08.199Z</time></trkpt><trkpt lat="45.6316691" lon="11.9180356"><ele>30.0</ele><time>2026-04-24T10:20:09.199Z</time></trkpt><trkpt lat="45.6316057" lon="11.918058"><ele>30.0</ele><time>2026-04-24T10:20:10.199Z</time></trkpt><trkpt lat="45.6315425" lon="11.9180832"><ele>30.0</ele><time>2026-04-24T10:20:11.199Z</time></trkpt><trkpt lat="45.631478" lon="11.9181088"><ele>30.0</ele><time>2026-04-24T10:20:12.199Z</time></trkpt><trkpt lat="45.6314168" lon="11.9181378"><ele>30.0</ele><time>2026-04-24T10:20:13.2Z</time></trkpt><trkpt lat="45.6313551" lon="11.9181721"><ele>30.0</ele><time>2026-04-24T10:20:14.199Z</time></trkpt><trkpt lat="45.6312917" lon="11.9182168"><ele>30.0</ele><time>2026-04-24T10:20:15.199Z</time></trkpt><trkpt lat="45.6312292" lon="11.9182646"><ele>30.0</ele><time>2026-04-24T10:20:16.199Z</time></trkpt><trkpt lat="45.6311675" lon="11.9183191"><ele>30.0</ele><time>2026-04-24T10:20:17.199Z</time></trkpt><trkpt lat="45.6311103" lon="11.9183688"><ele>29.833333333333332</ele><time>2026-04-24T10:20:18.199Z</time></trkpt><trkpt lat="45.6309968" lon="11.9184655"><ele>29.666666666666664</ele><time>2026-04-24T10:20:20.199Z</time></trkpt><trkpt lat="45.6309394" lon="11.9185284"><ele>29.5</ele><time>2026-04-24T10:20:21.199Z</time></trkpt><trkpt lat="45.6308844" lon="11.9185883"><ele>29.333333333333332</ele><time>2026-04-24T10:20:22.199Z</time></trkpt><trkpt lat="45.6308303" lon="11.9186553"><ele>29.166666666666664</ele><time>2026-04-24T10:20:23.199Z</time></trkpt><trkpt lat="45.630778" lon="11.9187171"><ele>29.0</ele><time>2026-04-24T10:20:24.199Z</time></trkpt><trkpt lat="45.6307238" lon="11.9187787"><ele>28.999999999999996</ele><time>2026-04-24T10:20:25.199Z</time></trkpt><trkpt lat="45.6306721" lon="11.9188382"><ele>29.0</ele><time>2026-04-24T10:20:26.199Z</time></trkpt><trkpt lat="45.6305803" lon="11.9189501"><ele>29.0</ele><time>2026-04-24T10:20:28.199Z</time></trkpt><trkpt lat="45.6305254" lon="11.9190075"><ele>29.0</ele><time>2026-04-24T10:20:29.199Z</time></trkpt><trkpt lat="45.6304719" lon="11.9190727"><ele>28.999999999999996</ele><time>2026-04-24T10:20:30.2Z</time></trkpt><trkpt lat="45.630422" lon="11.9191285"><ele>29.0</ele><time>2026-04-24T10:20:31.199Z</time></trkpt><trkpt lat="45.6303719" lon="11.9191861"><ele>29.25</ele><time>2026-04-24T10:20:32.2Z</time></trkpt><trkpt lat="45.6302811" lon="11.9193014"><ele>29.5</ele><time>2026-04-24T10:20:34.199Z</time></trkpt><trkpt lat="45.6301828" lon="11.9194148"><ele>29.75</ele><time>2026-04-24T10:20:36.2Z</time></trkpt><trkpt lat="45.6300864" lon="11.9195307"><ele>30.0</ele><time>2026-04-24T10:20:38.199Z</time></trkpt><trkpt lat="45.6299888" lon="11.9196376"><ele>30.0</ele><time>2026-04-24T10:20:40.199Z</time></trkpt><trkpt lat="45.6298913" lon="11.919748"><ele>30.0</ele><time>2026-04-24T10:20:42.199Z</time></trkpt><trkpt lat="45.6298408" lon="11.9198044"><ele>30.0</ele><time>2026-04-24T10:20:43.199Z</time></trkpt><trkpt lat="45.6297881" lon="11.9198651"><ele>30.0</ele><time>2026-04-24T10:20:44.2Z</time></trkpt><trkpt lat="45.6297342" lon="11.9199206"><ele>30.0</ele><time>2026-04-24T10:20:45.199Z</time></trkpt><trkpt lat="45.6296801" lon="11.9199813"><ele>30.0</ele><time>2026-04-24T10:20:46.199Z</time></trkpt><trkpt lat="45.6296266" lon="11.9200377"><ele>30.142857142857146</ele><time>2026-04-24T10:20:47.2Z</time></trkpt><trkpt lat="45.6295716" lon="11.9200993"><ele>30.285714285714285</ele><time>2026-04-24T10:20:48.199Z</time></trkpt><trkpt lat="45.6295218" lon="11.9201603"><ele>30.42857142857143</ele><time>2026-04-24T10:20:49.199Z</time></trkpt><trkpt lat="45.6294717" lon="11.9202186"><ele>30.571428571428573</ele><time>2026-04-24T10:20:50.199Z</time></trkpt><trkpt lat="45.6294209" lon="11.9202742"><ele>30.714285714285715</ele><time>2026-04-24T10:20:51.199Z</time></trkpt><trkpt lat="45.6293668" lon="11.9203314"><ele>30.857142857142858</ele><time>2026-04-24T10:20:52.199Z</time></trkpt><trkpt lat="45.6293145" lon="11.9203831"><ele>31.0</ele><time>2026-04-24T10:20:53.199Z</time></trkpt><trkpt lat="45.6292583" lon="11.9204238"><ele>31.0</ele><time>2026-04-24T10:20:54.199Z</time></trkpt><trkpt lat="45.6291468" lon="11.9205053"><ele>31.000000000000004</ele><time>2026-04-24T10:20:56.2Z</time></trkpt><trkpt lat="45.6290893" lon="11.9205483"><ele>31.0</ele><time>2026-04-24T10:20:57.2Z</time></trkpt><trkpt lat="45.6290286" lon="11.9205795"><ele>31.0</ele><time>2026-04-24T10:20:58.2Z</time></trkpt><trkpt lat="45.6289693" lon="11.9206176"><ele>31.000000000000004</ele><time>2026-04-24T10:20:59.199Z</time></trkpt><trkpt lat="45.628908" lon="11.9206483"><ele>31.0</ele><time>2026-04-24T10:21:00.199Z</time></trkpt><trkpt lat="45.6288452" lon="11.9206718"><ele>31.0</ele><time>2026-04-24T10:21:01.199Z</time></trkpt><trkpt lat="45.628778" lon="11.9206922"><ele>31.0</ele><time>2026-04-24T10:21:02.199Z</time></trkpt><trkpt lat="45.6287131" lon="11.9207145"><ele>31.000000000000004</ele><time>2026-04-24T10:21:03.199Z</time></trkpt><trkpt lat="45.6286436" lon="11.9207345"><ele>31.0</ele><time>2026-04-24T10:21:04.199Z</time></trkpt><trkpt lat="45.6285746" lon="11.9207463"><ele>31.0</ele><time>2026-04-24T10:21:05.199Z</time></trkpt><trkpt lat="45.6285054" lon="11.9207579"><ele>31.000000000000004</ele><time>2026-04-24T10:21:06.199Z</time></trkpt><trkpt lat="45.6284356" lon="11.9207655"><ele>31.0</ele><time>2026-04-24T10:21:07.199Z</time></trkpt><trkpt lat="45.6283659" lon="11.9207683"><ele>31.0</ele><time>2026-04-24T10:21:08.2Z</time></trkpt><trkpt lat="45.6282947" lon="11.9207768"><ele>30.857142857142858</ele><time>2026-04-24T10:21:09.199Z</time></trkpt><trkpt lat="45.6282292" lon="11.9207809"><ele>30.714285714285715</ele><time>2026-04-24T10:21:10.2Z</time></trkpt><trkpt lat="45.628162" lon="11.9207822"><ele>30.571428571428573</ele><time>2026-04-24T10:21:11.199Z</time></trkpt><trkpt lat="45.628098" lon="11.9207833"><ele>30.42857142857143</ele><time>2026-04-24T10:21:12.2Z</time></trkpt><trkpt lat="45.6280343" lon="11.9207818"><ele>30.285714285714285</ele><time>2026-04-24T10:21:13.199Z</time></trkpt><trkpt lat="45.6279687" lon="11.9207823"><ele>30.142857142857146</ele><time>2026-04-24T10:21:14.199Z</time></trkpt><trkpt lat="45.6279019" lon="11.9207912"><ele>30.0</ele><time>2026-04-24T10:21:15.199Z</time></trkpt><trkpt lat="45.6278305" lon="11.9208034"><ele>29.857142857142858</ele><time>2026-04-24T10:21:16.199Z</time></trkpt><trkpt lat="45.6277644" lon="11.9208116"><ele>29.714285714285715</ele><time>2026-04-24T10:21:17.199Z</time></trkpt><trkpt lat="45.6276948" lon="11.920819"><ele>29.571428571428573</ele><time>2026-04-24T10:21:18.199Z</time></trkpt><trkpt lat="45.6276244" lon="11.9208225"><ele>29.42857142857143</ele><time>2026-04-24T10:21:19.199Z</time></trkpt><trkpt lat="45.6275523" lon="11.9208273"><ele>29.285714285714285</ele><time>2026-04-24T10:21:20.2Z</time></trkpt><trkpt lat="45.6274834" lon="11.9208371"><ele>29.142857142857146</ele><time>2026-04-24T10:21:21.2Z</time></trkpt><trkpt lat="45.6274161" lon="11.920849"><ele>29.000000000000004</ele><time>2026-04-24T10:21:22.199Z</time></trkpt><trkpt lat="45.6273478" lon="11.9208608"><ele>29.000000000000004</ele><time>2026-04-24T10:21:23.199Z</time></trkpt><trkpt lat="45.6272763" lon="11.9208754"><ele>29.0</ele><time>2026-04-24T10:21:24.199Z</time></trkpt><trkpt lat="45.627207" lon="11.9208927"><ele>29.000000000000004</ele><time>2026-04-24T10:21:25.2Z</time></trkpt><trkpt lat="45.6271321" lon="11.9209092"><ele>29.000000000000004</ele><time>2026-04-24T10:21:26.199Z</time></trkpt><trkpt lat="45.6270625" lon="11.9209248"><ele>29.0</ele><time>2026-04-24T10:21:27.2Z</time></trkpt><trkpt lat="45.6269899" lon="11.9209399"><ele>29.000000000000004</ele><time>2026-04-24T10:21:28.199Z</time></trkpt><trkpt lat="45.6269159" lon="11.9209489"><ele>29.000000000000004</ele><time>2026-04-24T10:21:29.199Z</time></trkpt><trkpt lat="45.6268433" lon="11.9209507"><ele>29.000000000000004</ele><time>2026-04-24T10:21:30.199Z</time></trkpt><trkpt lat="45.6267729" lon="11.9209467"><ele>29.0</ele><time>2026-04-24T10:21:31.199Z</time></trkpt><trkpt lat="45.6267039" lon="11.9209431"><ele>29.000000000000004</ele><time>2026-04-24T10:21:32.2Z</time></trkpt><trkpt lat="45.626629" lon="11.920932"><ele>29.000000000000004</ele><time>2026-04-24T10:21:33.199Z</time></trkpt><trkpt lat="45.6265551" lon="11.9209247"><ele>29.0</ele><time>2026-04-24T10:21:34.2Z</time></trkpt><trkpt lat="45.6264809" lon="11.9209186"><ele>29.000000000000004</ele><time>2026-04-24T10:21:35.199Z</time></trkpt><trkpt lat="45.6264126" lon="11.9209085"><ele>29.000000000000004</ele><time>2026-04-24T10:21:36.199Z</time></trkpt><trkpt lat="45.6263485" lon="11.920886"><ele>29.000000000000004</ele><time>2026-04-24T10:21:37.199Z</time></trkpt><trkpt lat="45.6262833" lon="11.920873"><ele>29.0</ele><time>2026-04-24T10:21:38.199Z</time></trkpt><trkpt lat="45.626214" lon="11.9208645"><ele>29.000000000000004</ele><time>2026-04-24T10:21:39.2Z</time></trkpt><trkpt lat="45.6261442" lon="11.9208575"><ele>29.000000000000004</ele><time>2026-04-24T10:21:40.199Z</time></trkpt><trkpt lat="45.6260762" lon="11.9208485"><ele>29.0</ele><time>2026-04-24T10:21:41.2Z</time></trkpt><trkpt lat="45.6260091" lon="11.9208421"><ele>29.000000000000004</ele><time>2026-04-24T10:21:42.2Z</time></trkpt><trkpt lat="45.6259403" lon="11.9208347"><ele>29.000000000000004</ele><time>2026-04-24T10:21:43.199Z</time></trkpt><trkpt lat="45.6258733" lon="11.9208279"><ele>29.142857142857146</ele><time>2026-04-24T10:21:44.199Z</time></trkpt><trkpt lat="45.6258045" lon="11.9208189"><ele>29.285714285714285</ele><time>2026-04-24T10:21:45.199Z</time></trkpt><trkpt lat="45.6257411" lon="11.9208039"><ele>29.42857142857143</ele><time>2026-04-24T10:21:46.2Z</time></trkpt><trkpt lat="45.6256754" lon="11.9207901"><ele>29.571428571428573</ele><time>2026-04-24T10:21:47.199Z</time></trkpt><trkpt lat="45.6256109" lon="11.920778"><ele>29.714285714285715</ele><time>2026-04-24T10:21:48.199Z</time></trkpt><trkpt lat="45.6255438" lon="11.9207663"><ele>29.857142857142858</ele><time>2026-04-24T10:21:49.2Z</time></trkpt><trkpt lat="45.6254748" lon="11.9207558"><ele>30.0</ele><time>2026-04-24T10:21:50.199Z</time></trkpt><trkpt lat="45.6254033" lon="11.9207465"><ele>30.0</ele><time>2026-04-24T10:21:51.199Z</time></trkpt><trkpt lat="45.6253313" lon="11.9207373"><ele>30.0</ele><time>2026-04-24T10:21:52.199Z</time></trkpt><trkpt lat="45.6252615" lon="11.920733"><ele>30.0</ele><time>2026-04-24T10:21:53.2Z</time></trkpt><trkpt lat="45.6251929" lon="11.9207247"><ele>30.0</ele><time>2026-04-24T10:21:54.2Z</time></trkpt><trkpt lat="45.6251242" lon="11.9207183"><ele>30.0</ele><time>2026-04-24T10:21:55.199Z</time></trkpt><trkpt lat="45.6250534" lon="11.9207105"><ele>30.0</ele><time>2026-04-24T10:21:56.199Z</time></trkpt><trkpt lat="45.6249828" lon="11.9207012"><ele>30.0</ele><time>2026-04-24T10:21:57.199Z</time></trkpt><trkpt lat="45.6249196" lon="11.9206906"><ele>30.0</ele><time>2026-04-24T10:21:58.199Z</time></trkpt><trkpt lat="45.6248514" lon="11.9206834"><ele>30.0</ele><time>2026-04-24T10:21:59.199Z</time></trkpt><trkpt lat="45.624782" lon="11.9206783"><ele>30.0</ele><time>2026-04-24T10:22:00.199Z</time></trkpt><trkpt lat="45.6247127" lon="11.9206715"><ele>30.0</ele><time>2026-04-24T10:22:01.199Z</time></trkpt><trkpt lat="45.6246453" lon="11.9206637"><ele>30.0</ele><time>2026-04-24T10:22:02.199Z</time></trkpt><trkpt lat="45.6245778" lon="11.9206546"><ele>30.0</ele><time>2026-04-24T10:22:03.2Z</time></trkpt><trkpt lat="45.624513" lon="11.9206469"><ele>30.0</ele><time>2026-04-24T10:22:04.199Z</time></trkpt><trkpt lat="45.6244491" lon="11.9206371"><ele>30.0</ele><time>2026-04-24T10:22:05.199Z</time></trkpt><trkpt lat="45.6243843" lon="11.9206307"><ele>30.0</ele><time>2026-04-24T10:22:06.199Z</time></trkpt><trkpt lat="45.6243186" lon="11.9206232"><ele>30.0</ele><time>2026-04-24T10:22:07.199Z</time></trkpt><trkpt lat="45.6242533" lon="11.9206174"><ele>30.0</ele><time>2026-04-24T10:22:08.199Z</time></trkpt><trkpt lat="45.6241877" lon="11.9206118"><ele>30.0</ele><time>2026-04-24T10:22:09.199Z</time></trkpt><trkpt lat="45.624123" lon="11.9205973"><ele>30.0</ele><time>2026-04-24T10:22:10.199Z</time></trkpt><trkpt lat="45.6240563" lon="11.9205903"><ele>30.0</ele><time>2026-04-24T10:22:11.2Z</time></trkpt><trkpt lat="45.6239899" lon="11.9205908"><ele>30.0</ele><time>2026-04-24T10:22:12.199Z</time></trkpt><trkpt lat="45.6239207" lon="11.9205875"><ele>30.0</ele><time>2026-04-24T10:22:13.199Z</time></trkpt><trkpt lat="45.6238505" lon="11.920579"><ele>30.0</ele><time>2026-04-24T10:22:14.2Z</time></trkpt><trkpt lat="45.6237797" lon="11.9205668"><ele>30.0</ele><time>2026-04-24T10:22:15.2Z</time></trkpt><trkpt lat="45.6237093" lon="11.9205538"><ele>30.0</ele><time>2026-04-24T10:22:16.2Z</time></trkpt><trkpt lat="45.6236412" lon="11.9205398"><ele>30.0</ele><time>2026-04-24T10:22:17.199Z</time></trkpt><trkpt lat="45.6235736" lon="11.9205151"><ele>30.0</ele><time>2026-04-24T10:22:18.199Z</time></trkpt><trkpt lat="45.6235023" lon="11.9204926"><ele>29.857142857142858</ele><time>2026-04-24T10:22:19.199Z</time></trkpt><trkpt lat="45.6234323" lon="11.9204715"><ele>29.714285714285715</ele><time>2026-04-24T10:22:20.199Z</time></trkpt><trkpt lat="45.623367" lon="11.9204404"><ele>29.571428571428573</ele><time>2026-04-24T10:22:21.199Z</time></trkpt><trkpt lat="45.6233013" lon="11.9203984"><ele>29.42857142857143</ele><time>2026-04-24T10:22:22.199Z</time></trkpt><trkpt lat="45.623235" lon="11.9203559"><ele>29.285714285714285</ele><time>2026-04-24T10:22:23.199Z</time></trkpt><trkpt lat="45.6231752" lon="11.9203109"><ele>29.142857142857146</ele><time>2026-04-24T10:22:24.199Z</time></trkpt><trkpt lat="45.6231187" lon="11.9202669"><ele>29.000000000000004</ele><time>2026-04-24T10:22:25.199Z</time></trkpt><trkpt lat="45.6230643" lon="11.9202158"><ele>29.000000000000004</ele><time>2026-04-24T10:22:26.2Z</time></trkpt><trkpt lat="45.6230098" lon="11.9201627"><ele>29.0</ele><time>2026-04-24T10:22:27.199Z</time></trkpt><trkpt lat="45.622951" lon="11.9201099"><ele>29.000000000000004</ele><time>2026-04-24T10:22:28.199Z</time></trkpt><trkpt lat="45.6228941" lon="11.9200586"><ele>29.000000000000004</ele><time>2026-04-24T10:22:29.199Z</time></trkpt><trkpt lat="45.6228337" lon="11.9200044"><ele>29.0</ele><time>2026-04-24T10:22:30.199Z</time></trkpt><trkpt lat="45.6227763" lon="11.9199514"><ele>29.000000000000004</ele><time>2026-04-24T10:22:31.199Z</time></trkpt><trkpt lat="45.622717" lon="11.9198961"><ele>29.000000000000004</ele><time>2026-04-24T10:22:32.199Z</time></trkpt><trkpt lat="45.6226599" lon="11.9198395"><ele>28.71428571428572</ele><time>2026-04-24T10:22:33.199Z</time></trkpt><trkpt lat="45.6226001" lon="11.9197824"><ele>28.42857142857143</ele><time>2026-04-24T10:22:34.199Z</time></trkpt><trkpt lat="45.6225384" lon="11.9197247"><ele>28.142857142857146</ele><time>2026-04-24T10:22:35.199Z</time></trkpt><trkpt lat="45.6224757" lon="11.9196685"><ele>27.85714285714286</ele><time>2026-04-24T10:22:36.199Z</time></trkpt><trkpt lat="45.6224148" lon="11.9196113"><ele>27.57142857142857</ele><time>2026-04-24T10:22:37.2Z</time></trkpt><trkpt lat="45.6223574" lon="11.9195538"><ele>27.285714285714285</ele><time>2026-04-24T10:22:38.199Z</time></trkpt><trkpt lat="45.6222973" lon="11.9194942"><ele>27.0</ele><time>2026-04-24T10:22:39.199Z</time></trkpt><trkpt lat="45.6222383" lon="11.9194349"><ele>27.0</ele><time>2026-04-24T10:22:40.199Z</time></trkpt><trkpt lat="45.6221788" lon="11.9193754"><ele>27.0</ele><time>2026-04-24T10:22:41.199Z</time></trkpt><trkpt lat="45.6221168" lon="11.9193194"><ele>27.0</ele><time>2026-04-24T10:22:42.199Z</time></trkpt><trkpt lat="45.6220542" lon="11.9192598"><ele>27.0</ele><time>2026-04-24T10:22:43.199Z</time></trkpt><trkpt lat="45.6219913" lon="11.9192047"><ele>27.0</ele><time>2026-04-24T10:22:44.199Z</time></trkpt><trkpt lat="45.6219271" lon="11.919154"><ele>27.0</ele><time>2026-04-24T10:22:45.2Z</time></trkpt><trkpt lat="45.6218611" lon="11.9191148"><ele>27.0</ele><time>2026-04-24T10:22:46.199Z</time></trkpt><trkpt lat="45.6217984" lon="11.9190691"><ele>27.0</ele><time>2026-04-24T10:22:47.199Z</time></trkpt><trkpt lat="45.6217319" lon="11.9190251"><ele>27.0</ele><time>2026-04-24T10:22:48.199Z</time></trkpt><trkpt lat="45.6216638" lon="11.9189874"><ele>27.0</ele><time>2026-04-24T10:22:49.2Z</time></trkpt><trkpt lat="45.6215915" lon="11.918954"><ele>27.0</ele><time>2026-04-24T10:22:50.199Z</time></trkpt><trkpt lat="45.6215201" lon="11.9189231"><ele>27.0</ele><time>2026-04-24T10:22:51.199Z</time></trkpt><trkpt lat="45.6214509" lon="11.9188953"><ele>27.0</ele><time>2026-04-24T10:22:52.2Z</time></trkpt><trkpt lat="45.6213777" lon="11.9188679"><ele>27.0</ele><time>2026-04-24T10:22:53.199Z</time></trkpt><trkpt lat="45.6212994" lon="11.9188444"><ele>27.0</ele><time>2026-04-24T10:22:54.2Z</time></trkpt><trkpt lat="45.6212229" lon="11.9188202"><ele>27.0</ele><time>2026-04-24T10:22:55.199Z</time></trkpt><trkpt lat="45.6211491" lon="11.9187995"><ele>27.0</ele><time>2026-04-24T10:22:56.199Z</time></trkpt><trkpt lat="45.6210766" lon="11.9187777"><ele>27.0</ele><time>2026-04-24T10:22:57.199Z</time></trkpt><trkpt lat="45.6210036" lon="11.9187494"><ele>27.0</ele><time>2026-04-24T10:22:58.199Z</time></trkpt><trkpt lat="45.6209334" lon="11.9187292"><ele>27.0</ele><time>2026-04-24T10:22:59.2Z</time></trkpt><trkpt lat="45.6208584" lon="11.9187061"><ele>26.833333333333332</ele><time>2026-04-24T10:23:00.2Z</time></trkpt><trkpt lat="45.6207834" lon="11.9186802"><ele>26.666666666666664</ele><time>2026-04-24T10:23:01.2Z</time></trkpt><trkpt lat="45.6207072" lon="11.9186569"><ele>26.5</ele><time>2026-04-24T10:23:02.199Z</time></trkpt><trkpt lat="45.6206364" lon="11.918632"><ele>26.333333333333332</ele><time>2026-04-24T10:23:03.199Z</time></trkpt><trkpt lat="45.6205635" lon="11.9186082"><ele>26.166666666666664</ele><time>2026-04-24T10:23:04.199Z</time></trkpt><trkpt lat="45.6204909" lon="11.9185868"><ele>26.0</ele><time>2026-04-24T10:23:05.199Z</time></trkpt><trkpt lat="45.6204183" lon="11.9185647"><ele>25.999999999999996</ele><time>2026-04-24T10:23:06.2Z</time></trkpt><trkpt lat="45.6203463" lon="11.9185405"><ele>26.0</ele><time>2026-04-24T10:23:07.199Z</time></trkpt><trkpt lat="45.6202704" lon="11.9185183"><ele>26.0</ele><time>2026-04-24T10:23:08.199Z</time></trkpt><trkpt lat="45.6201966" lon="11.918496"><ele>26.0</ele><time>2026-04-24T10:23:09.199Z</time></trkpt><trkpt lat="45.6201245" lon="11.9184687"><ele>25.999999999999996</ele><time>2026-04-24T10:23:10.2Z</time></trkpt><trkpt lat="45.6200476" lon="11.918444"><ele>26.0</ele><time>2026-04-24T10:23:11.199Z</time></trkpt><trkpt lat="45.6199719" lon="11.918421"><ele>26.142857142857142</ele><time>2026-04-24T10:23:12.199Z</time></trkpt><trkpt lat="45.6198959" lon="11.9183989"><ele>26.28571428571429</ele><time>2026-04-24T10:23:13.199Z</time></trkpt><trkpt lat="45.6198235" lon="11.9183798"><ele>26.42857142857143</ele><time>2026-04-24T10:23:14.199Z</time></trkpt><trkpt lat="45.6197526" lon="11.9183545"><ele>26.57142857142857</ele><time>2026-04-24T10:23:15.2Z</time></trkpt><trkpt lat="45.6196851" lon="11.918331"><ele>26.714285714285715</ele><time>2026-04-24T10:23:16.199Z</time></trkpt><trkpt lat="45.619618" lon="11.9183089"><ele>26.857142857142858</ele><time>2026-04-24T10:23:17.199Z</time></trkpt><trkpt lat="45.6195529" lon="11.9182862"><ele>27.0</ele><time>2026-04-24T10:23:18.2Z</time></trkpt><trkpt lat="45.6194855" lon="11.9182648"><ele>26.857142857142858</ele><time>2026-04-24T10:23:19.199Z</time></trkpt><trkpt lat="45.6194185" lon="11.9182531"><ele>26.714285714285715</ele><time>2026-04-24T10:23:20.199Z</time></trkpt><trkpt lat="45.6193509" lon="11.918235"><ele>26.57142857142857</ele><time>2026-04-24T10:23:21.199Z</time></trkpt><trkpt lat="45.6192817" lon="11.9182181"><ele>26.42857142857143</ele><time>2026-04-24T10:23:22.199Z</time></trkpt><trkpt lat="45.6192116" lon="11.9182005"><ele>26.28571428571429</ele><time>2026-04-24T10:23:23.199Z</time></trkpt><trkpt lat="45.6191404" lon="11.9181869"><ele>26.142857142857142</ele><time>2026-04-24T10:23:24.199Z</time></trkpt><trkpt lat="45.6190698" lon="11.9181768"><ele>26.0</ele><time>2026-04-24T10:23:25.2Z</time></trkpt><trkpt lat="45.6189994" lon="11.918167"><ele>26.0</ele><time>2026-04-24T10:23:26.199Z</time></trkpt><trkpt lat="45.6189255" lon="11.9181579"><ele>26.0</ele><time>2026-04-24T10:23:27.199Z</time></trkpt><trkpt lat="45.6188538" lon="11.9181464"><ele>26.0</ele><time>2026-04-24T10:23:28.199Z</time></trkpt><trkpt lat="45.6187857" lon="11.9181279"><ele>26.0</ele><time>2026-04-24T10:23:29.199Z</time></trkpt><trkpt lat="45.618714" lon="11.9181172"><ele>26.0</ele><time>2026-04-24T10:23:30.199Z</time></trkpt><trkpt lat="45.6186408" lon="11.9181077"><ele>26.0</ele><time>2026-04-24T10:23:31.199Z</time></trkpt><trkpt lat="45.6185697" lon="11.9180986"><ele>26.0</ele><time>2026-04-24T10:23:32.199Z</time></trkpt><trkpt lat="45.6184997" lon="11.9180881"><ele>25.999999999999996</ele><time>2026-04-24T10:23:33.199Z</time></trkpt><trkpt lat="45.6184333" lon="11.9180802"><ele>26.0</ele><time>2026-04-24T10:23:34.199Z</time></trkpt><trkpt lat="45.6183682" lon="11.9180696"><ele>26.0</ele><time>2026-04-24T10:23:35.2Z</time></trkpt><trkpt lat="45.6182395" lon="11.9180467"><ele>26.0</ele><time>2026-04-24T10:23:37.199Z</time></trkpt><trkpt lat="45.6181716" lon="11.9180343"><ele>25.999999999999996</ele><time>2026-04-24T10:23:38.2Z</time></trkpt><trkpt lat="45.618105" lon="11.9180303"><ele>26.0</ele><time>2026-04-24T10:23:39.199Z</time></trkpt><trkpt lat="45.618038" lon="11.9180169"><ele>26.0</ele><time>2026-04-24T10:23:40.199Z</time></trkpt><trkpt lat="45.6179663" lon="11.9180066"><ele>26.0</ele><time>2026-04-24T10:23:41.199Z</time></trkpt><trkpt lat="45.6178966" lon="11.9179949"><ele>26.0</ele><time>2026-04-24T10:23:42.199Z</time></trkpt><trkpt lat="45.6178249" lon="11.9179832"><ele>26.0</ele><time>2026-04-24T10:23:43.199Z</time></trkpt><trkpt lat="45.6177506" lon="11.9179723"><ele>26.0</ele><time>2026-04-24T10:23:44.199Z</time></trkpt><trkpt lat="45.6176769" lon="11.9179527"><ele>26.0</ele><time>2026-04-24T10:23:45.199Z</time></trkpt><trkpt lat="45.6176024" lon="11.9179369"><ele>26.0</ele><time>2026-04-24T10:23:46.199Z</time></trkpt><trkpt lat="45.617529" lon="11.9179252"><ele>26.142857142857142</ele><time>2026-04-24T10:23:47.199Z</time></trkpt><trkpt lat="45.6174552" lon="11.9179157"><ele>26.28571428571429</ele><time>2026-04-24T10:23:48.199Z</time></trkpt><trkpt lat="45.61738" lon="11.917905"><ele>26.42857142857143</ele><time>2026-04-24T10:23:49.2Z</time></trkpt><trkpt lat="45.6173108" lon="11.9178937"><ele>26.57142857142857</ele><time>2026-04-24T10:23:50.199Z</time></trkpt><trkpt lat="45.6172407" lon="11.9178906"><ele>26.714285714285715</ele><time>2026-04-24T10:23:51.199Z</time></trkpt><trkpt lat="45.6171696" lon="11.9178834"><ele>26.857142857142858</ele><time>2026-04-24T10:23:52.199Z</time></trkpt><trkpt lat="45.617098" lon="11.9178769"><ele>27.0</ele><time>2026-04-24T10:23:53.198Z</time></trkpt><trkpt lat="45.617026" lon="11.9178649"><ele>27.142857142857142</ele><time>2026-04-24T10:23:54.198Z</time></trkpt><trkpt lat="45.6169551" lon="11.9178581"><ele>27.285714285714285</ele><time>2026-04-24T10:23:55.198Z</time></trkpt><trkpt lat="45.6168834" lon="11.917854"><ele>27.42857142857143</ele><time>2026-04-24T10:23:56.198Z</time></trkpt><trkpt lat="45.6168112" lon="11.9178455"><ele>27.57142857142857</ele><time>2026-04-24T10:23:57.199Z</time></trkpt><trkpt lat="45.6167414" lon="11.9178367"><ele>27.714285714285715</ele><time>2026-04-24T10:23:58.198Z</time></trkpt><trkpt lat="45.6166704" lon="11.9178348"><ele>27.857142857142858</ele><time>2026-04-24T10:23:59.198Z</time></trkpt><trkpt lat="45.6166005" lon="11.9178302"><ele>28.0</ele><time>2026-04-24T10:24:00.198Z</time></trkpt><trkpt lat="45.6165263" lon="11.917826"><ele>28.0</ele><time>2026-04-24T10:24:01.198Z</time></trkpt><trkpt lat="45.6164562" lon="11.9178256"><ele>28.0</ele><time>2026-04-24T10:24:02.199Z</time></trkpt><trkpt lat="45.6163866" lon="11.9178204"><ele>28.0</ele><time>2026-04-24T10:24:03.198Z</time></trkpt><trkpt lat="45.6163161" lon="11.917813"><ele>28.0</ele><time>2026-04-24T10:24:04.198Z</time></trkpt><trkpt lat="45.616247" lon="11.9178048"><ele>28.0</ele><time>2026-04-24T10:24:05.199Z</time></trkpt><trkpt lat="45.6161775" lon="11.9178"><ele>28.0</ele><time>2026-04-24T10:24:06.198Z</time></trkpt><trkpt lat="45.6161076" lon="11.9177915"><ele>28.0</ele><time>2026-04-24T10:24:07.199Z</time></trkpt><trkpt lat="45.6160377" lon="11.9177871"><ele>28.0</ele><time>2026-04-24T10:24:08.198Z</time></trkpt><trkpt lat="45.6159665" lon="11.9177848"><ele>28.0</ele><time>2026-04-24T10:24:09.199Z</time></trkpt><trkpt lat="45.6158959" lon="11.9177794"><ele>28.0</ele><time>2026-04-24T10:24:10.198Z</time></trkpt><trkpt lat="45.6158252" lon="11.9177732"><ele>28.0</ele><time>2026-04-24T10:24:11.198Z</time></trkpt><trkpt lat="45.6157574" lon="11.91777"><ele>28.0</ele><time>2026-04-24T10:24:12.198Z</time></trkpt><trkpt lat="45.6156891" lon="11.9177621"><ele>28.0</ele><time>2026-04-24T10:24:13.198Z</time></trkpt><trkpt lat="45.6156245" lon="11.9177493"><ele>28.0</ele><time>2026-04-24T10:24:14.198Z</time></trkpt><trkpt lat="45.6155578" lon="11.9177365"><ele>28.0</ele><time>2026-04-24T10:24:15.198Z</time></trkpt><trkpt lat="45.6154914" lon="11.9177265"><ele>28.0</ele><time>2026-04-24T10:24:16.198Z</time></trkpt><trkpt lat="45.6154212" lon="11.9177153"><ele>28.0</ele><time>2026-04-24T10:24:17.198Z</time></trkpt><trkpt lat="45.6153552" lon="11.9176984"><ele>28.0</ele><time>2026-04-24T10:24:18.198Z</time></trkpt><trkpt lat="45.6152896" lon="11.917679"><ele>28.0</ele><time>2026-04-24T10:24:19.199Z</time></trkpt><trkpt lat="45.6152241" lon="11.9176617"><ele>28.0</ele><time>2026-04-24T10:24:20.199Z</time></trkpt><trkpt lat="45.6151584" lon="11.9176389"><ele>28.0</ele><time>2026-04-24T10:24:21.198Z</time></trkpt><trkpt lat="45.6150944" lon="11.9176164"><ele>28.0</ele><time>2026-04-24T10:24:22.198Z</time></trkpt><trkpt lat="45.6150303" lon="11.917595"><ele>28.0</ele><time>2026-04-24T10:24:23.199Z</time></trkpt><trkpt lat="45.6149651" lon="11.9175737"><ele>28.0</ele><time>2026-04-24T10:24:24.198Z</time></trkpt><trkpt lat="45.6148995" lon="11.9175512"><ele>28.0</ele><time>2026-04-24T10:24:25.198Z</time></trkpt><trkpt lat="45.6148325" lon="11.9175284"><ele>28.0</ele><time>2026-04-24T10:24:26.198Z</time></trkpt><trkpt lat="45.6147691" lon="11.9175007"><ele>28.0</ele><time>2026-04-24T10:24:27.198Z</time></trkpt><trkpt lat="45.6147" lon="11.9174761"><ele>28.0</ele><time>2026-04-24T10:24:28.198Z</time></trkpt><trkpt lat="45.6146366" lon="11.9174495"><ele>28.142857142857142</ele><time>2026-04-24T10:24:29.198Z</time></trkpt><trkpt lat="45.6145709" lon="11.9174247"><ele>28.285714285714285</ele><time>2026-04-24T10:24:30.199Z</time></trkpt><trkpt lat="45.6145058" lon="11.9173997"><ele>28.42857142857143</ele><time>2026-04-24T10:24:31.198Z</time></trkpt><trkpt lat="45.6144392" lon="11.9173761"><ele>28.571428571428573</ele><time>2026-04-24T10:24:32.199Z</time></trkpt><trkpt lat="45.6143719" lon="11.9173479"><ele>28.714285714285715</ele><time>2026-04-24T10:24:33.198Z</time></trkpt><trkpt lat="45.6143074" lon="11.9173188"><ele>28.85714285714286</ele><time>2026-04-24T10:24:34.198Z</time></trkpt><trkpt lat="45.6142389" lon="11.9172922"><ele>29.000000000000004</ele><time>2026-04-24T10:24:35.199Z</time></trkpt><trkpt lat="45.6141705" lon="11.9172687"><ele>28.666666666666664</ele><time>2026-04-24T10:24:36.198Z</time></trkpt><trkpt lat="45.6141049" lon="11.9172465"><ele>28.333333333333332</ele><time>2026-04-24T10:24:37.198Z</time></trkpt><trkpt lat="45.6140369" lon="11.9172329"><ele>28.0</ele><time>2026-04-24T10:24:38.198Z</time></trkpt><trkpt lat="45.613971" lon="11.917221"><ele>27.666666666666664</ele><time>2026-04-24T10:24:39.199Z</time></trkpt><trkpt lat="45.6139051" lon="11.9172059"><ele>27.333333333333332</ele><time>2026-04-24T10:24:40.198Z</time></trkpt><trkpt lat="45.6138407" lon="11.9171983"><ele>27.0</ele><time>2026-04-24T10:24:41.198Z</time></trkpt><trkpt lat="45.6137164" lon="11.9171785"><ele>27.25</ele><time>2026-04-24T10:24:43.198Z</time></trkpt><trkpt lat="45.6135954" lon="11.917165"><ele>27.5</ele><time>2026-04-24T10:24:45.198Z</time></trkpt><trkpt lat="45.6134833" lon="11.9171536"><ele>27.75</ele><time>2026-04-24T10:24:47.199Z</time></trkpt><trkpt lat="45.6133679" lon="11.9171348"><ele>28.0</ele><time>2026-04-24T10:24:49.198Z</time></trkpt><trkpt lat="45.6132544" lon="11.9171186"><ele>28.0</ele><time>2026-04-24T10:24:51.199Z</time></trkpt><trkpt lat="45.6131317" lon="11.9171153"><ele>28.0</ele><time>2026-04-24T10:24:53.198Z</time></trkpt><trkpt lat="45.6130121" lon="11.9171008"><ele>28.0</ele><time>2026-04-24T10:24:55.199Z</time></trkpt><trkpt lat="45.6128908" lon="11.9170853"><ele>28.0</ele><time>2026-04-24T10:24:57.198Z</time></trkpt><trkpt lat="45.612767" lon="11.9170747"><ele>28.142857142857142</ele><time>2026-04-24T10:24:59.199Z</time></trkpt><trkpt lat="45.6126999" lon="11.9170645"><ele>28.285714285714285</ele><time>2026-04-24T10:25:00.198Z</time></trkpt><trkpt lat="45.6126348" lon="11.9170553"><ele>28.42857142857143</ele><time>2026-04-24T10:25:01.198Z</time></trkpt><trkpt lat="45.6125695" lon="11.9170433"><ele>28.571428571428573</ele><time>2026-04-24T10:25:02.198Z</time></trkpt><trkpt lat="45.6125062" lon="11.9170317"><ele>28.714285714285715</ele><time>2026-04-24T10:25:03.199Z</time></trkpt><trkpt lat="45.6124433" lon="11.9170206"><ele>28.85714285714286</ele><time>2026-04-24T10:25:04.198Z</time></trkpt><trkpt lat="45.6123804" lon="11.9170117"><ele>29.000000000000004</ele><time>2026-04-24T10:25:05.199Z</time></trkpt><trkpt lat="45.6122687" lon="11.9169934"><ele>29.0</ele><time>2026-04-24T10:25:07.198Z</time></trkpt><trkpt lat="45.6121525" lon="11.9169677"><ele>29.0</ele><time>2026-04-24T10:25:09.198Z</time></trkpt><trkpt lat="45.6120458" lon="11.9169531"><ele>29.0</ele><time>2026-04-24T10:25:11.198Z</time></trkpt><trkpt lat="45.6119457" lon="11.9169567"><ele>29.0</ele><time>2026-04-24T10:25:13.198Z</time></trkpt><trkpt lat="45.6118519" lon="11.9169765"><ele>29.0</ele><time>2026-04-24T10:25:15.198Z</time></trkpt><trkpt lat="45.6117614" lon="11.9169967"><ele>28.71428571428572</ele><time>2026-04-24T10:25:17.198Z</time></trkpt><trkpt lat="45.6116815" lon="11.9170075"><ele>28.42857142857143</ele><time>2026-04-24T10:25:20.199Z</time></trkpt><trkpt lat="45.611702" lon="11.9169422"><ele>28.142857142857146</ele><time>2026-04-24T10:27:06.198Z</time></trkpt><trkpt lat="45.611753" lon="11.9168724"><ele>27.85714285714286</ele><time>2026-04-24T10:27:13.198Z</time></trkpt><trkpt lat="45.6117386" lon="11.9167289"><ele>27.57142857142857</ele><time>2026-04-24T10:27:50.197Z</time></trkpt><trkpt lat="45.611688" lon="11.9168025"><ele>27.285714285714285</ele><time>2026-04-24T10:28:17.197Z</time></trkpt><trkpt lat="45.6116466" lon="11.9168711"><ele>27.0</ele><time>2026-04-24T10:28:49.197Z</time></trkpt><trkpt lat="45.6116767" lon="11.9169605"><ele>27.0</ele><time>2026-04-24T10:29:36.197Z</time></trkpt><trkpt lat="45.6116609" lon="11.9170667"><ele>27.0</ele><time>2026-04-24T10:34:29.196Z</time></trkpt><trkpt lat="45.6115806" lon="11.9170806"><ele>27.0</ele><time>2026-04-24T10:36:20.195Z</time></trkpt><trkpt lat="45.6115036" lon="11.9171196"><ele>27.0</ele><time>2026-04-24T10:36:23.195Z</time></trkpt><trkpt lat="45.6114418" lon="11.9171644"><ele>27.0</ele><time>2026-04-24T10:36:25.195Z</time></trkpt><trkpt lat="45.6113827" lon="11.9171995"><ele>27.0</ele><time>2026-04-24T10:36:27.195Z</time></trkpt><trkpt lat="45.6112965" lon="11.9172683"><ele>27.0</ele><time>2026-04-24T10:36:30.195Z</time></trkpt><trkpt lat="45.6112246" lon="11.9173061"><ele>27.0</ele><time>2026-04-24T10:36:32.195Z</time></trkpt><trkpt lat="45.6111564" lon="11.9173586"><ele>27.0</ele><time>2026-04-24T10:36:34.195Z</time></trkpt><trkpt lat="45.6110887" lon="11.9174223"><ele>27.0</ele><time>2026-04-24T10:36:36.195Z</time></trkpt><trkpt lat="45.6110092" lon="11.9174768"><ele>27.0</ele><time>2026-04-24T10:36:38.195Z</time></trkpt><trkpt lat="45.6109225" lon="11.9175351"><ele>27.0</ele><time>2026-04-24T10:36:40.195Z</time></trkpt><trkpt lat="45.6108423" lon="11.9175957"><ele>27.400000000000002</ele><time>2026-04-24T10:36:42.195Z</time></trkpt><trkpt lat="45.610763" lon="11.9176716"><ele>27.800000000000004</ele><time>2026-04-24T10:36:44.196Z</time></trkpt><trkpt lat="45.6106812" lon="11.9177518"><ele>28.2</ele><time>2026-04-24T10:36:46.195Z</time></trkpt><trkpt lat="45.6105997" lon="11.9178164"><ele>28.6</ele><time>2026-04-24T10:36:48.195Z</time></trkpt><trkpt lat="45.610518" lon="11.9178891"><ele>29.0</ele><time>2026-04-24T10:36:50.195Z</time></trkpt><trkpt lat="45.6104502" lon="11.9179659"><ele>28.999999999999996</ele><time>2026-04-24T10:36:52.195Z</time></trkpt><trkpt lat="45.6103785" lon="11.9180487"><ele>29.0</ele><time>2026-04-24T10:36:54.196Z</time></trkpt><trkpt lat="45.6103192" lon="11.9181231"><ele>29.0</ele><time>2026-04-24T10:36:56.195Z</time></trkpt><trkpt lat="45.6103209" lon="11.9182354"><ele>29.0</ele><time>2026-04-24T10:36:58.195Z</time></trkpt><trkpt lat="45.610362" lon="11.9183459"><ele>28.999999999999996</ele><time>2026-04-24T10:37:00.195Z</time></trkpt><trkpt lat="45.6104152" lon="11.9184512"><ele>29.0</ele><time>2026-04-24T10:37:02.195Z</time></trkpt><trkpt lat="45.6104752" lon="11.9185673"><ele>28.799999999999997</ele><time>2026-04-24T10:37:04.196Z</time></trkpt><trkpt lat="45.6105133" lon="11.918689"><ele>28.599999999999998</ele><time>2026-04-24T10:37:06.195Z</time></trkpt><trkpt lat="45.6105598" lon="11.9188074"><ele>28.4</ele><time>2026-04-24T10:37:08.195Z</time></trkpt><trkpt lat="45.6105986" lon="11.9189302"><ele>28.2</ele><time>2026-04-24T10:37:10.195Z</time></trkpt><trkpt lat="45.6106364" lon="11.9190518"><ele>28.0</ele><time>2026-04-24T10:37:12.195Z</time></trkpt><trkpt lat="45.6106618" lon="11.9191711"><ele>27.599999999999998</ele><time>2026-04-24T10:37:14.195Z</time></trkpt><trkpt lat="45.6106735" lon="11.9192988"><ele>27.199999999999996</ele><time>2026-04-24T10:37:16.195Z</time></trkpt><trkpt lat="45.610685" lon="11.9194194"><ele>26.8</ele><time>2026-04-24T10:37:18.195Z</time></trkpt><trkpt lat="45.6106702" lon="11.9195392"><ele>26.4</ele><time>2026-04-24T10:37:20.196Z</time></trkpt><trkpt lat="45.6106139" lon="11.919648"><ele>26.0</ele><time>2026-04-24T10:37:22.195Z</time></trkpt><trkpt lat="45.6105334" lon="11.9197334"><ele>26.0</ele><time>2026-04-24T10:37:24.196Z</time></trkpt><trkpt lat="45.6104481" lon="11.9198175"><ele>26.0</ele><time>2026-04-24T10:37:26.196Z</time></trkpt><trkpt lat="45.6103736" lon="11.9199084"><ele>26.0</ele><time>2026-04-24T10:37:28.195Z</time></trkpt><trkpt lat="45.6102948" lon="11.9199904"><ele>26.0</ele><time>2026-04-24T10:37:30.195Z</time></trkpt><trkpt lat="45.6102194" lon="11.9200789"><ele>26.0</ele><time>2026-04-24T10:37:32.195Z</time></trkpt><trkpt lat="45.6101409" lon="11.9201829"><ele>25.8</ele><time>2026-04-24T10:37:34.195Z</time></trkpt><trkpt lat="45.6100692" lon="11.9202748"><ele>25.6</ele><time>2026-04-24T10:37:36.196Z</time></trkpt><trkpt lat="45.6099874" lon="11.9203636"><ele>25.4</ele><time>2026-04-24T10:37:38.195Z</time></trkpt><trkpt lat="45.6099065" lon="11.9204456"><ele>25.2</ele><time>2026-04-24T10:37:40.195Z</time></trkpt><trkpt lat="45.609835" lon="11.9205283"><ele>25.0</ele><time>2026-04-24T10:37:42.195Z</time></trkpt><trkpt lat="45.6097692" lon="11.9206211"><ele>25.0</ele><time>2026-04-24T10:37:44.196Z</time></trkpt><trkpt lat="45.6097513" lon="11.920756"><ele>25.0</ele><time>2026-04-24T10:37:46.195Z</time></trkpt><trkpt lat="45.6097879" lon="11.920892"><ele>25.0</ele><time>2026-04-24T10:37:48.195Z</time></trkpt><trkpt lat="45.6098519" lon="11.9210287"><ele>25.0</ele><time>2026-04-24T10:37:50.195Z</time></trkpt><trkpt lat="45.6099221" lon="11.9211516"><ele>25.0</ele><time>2026-04-24T10:37:52.195Z</time></trkpt><trkpt lat="45.6099744" lon="11.9212869"><ele>25.2</ele><time>2026-04-24T10:37:54.195Z</time></trkpt><trkpt lat="45.6099697" lon="11.9214458"><ele>25.4</ele><time>2026-04-24T10:37:56.196Z</time></trkpt><trkpt lat="45.6099615" lon="11.9215924"><ele>25.6</ele><time>2026-04-24T10:37:58.195Z</time></trkpt><trkpt lat="45.6099561" lon="11.9217461"><ele>25.8</ele><time>2026-04-24T10:38:00.196Z</time></trkpt><trkpt lat="45.6099169" lon="11.9218836"><ele>26.0</ele><time>2026-04-24T10:38:02.195Z</time></trkpt><trkpt lat="45.609857" lon="11.9219997"><ele>26.0</ele><time>2026-04-24T10:38:04.195Z</time></trkpt><trkpt lat="45.6097861" lon="11.922111"><ele>26.0</ele><time>2026-04-24T10:38:06.195Z</time></trkpt><trkpt lat="45.6096918" lon="11.9222074"><ele>26.0</ele><time>2026-04-24T10:38:08.195Z</time></trkpt><trkpt lat="45.6095978" lon="11.9223097"><ele>26.0</ele><time>2026-04-24T10:38:10.195Z</time></trkpt><trkpt lat="45.6095116" lon="11.9224117"><ele>26.0</ele><time>2026-04-24T10:38:12.195Z</time></trkpt><trkpt lat="45.6094288" lon="11.9225147"><ele>26.0</ele><time>2026-04-24T10:38:14.196Z</time></trkpt><trkpt lat="45.6093453" lon="11.9226108"><ele>26.0</ele><time>2026-04-24T10:38:16.195Z</time></trkpt><trkpt lat="45.6092567" lon="11.922715"><ele>26.0</ele><time>2026-04-24T10:38:18.195Z</time></trkpt><trkpt lat="45.6091738" lon="11.9228237"><ele>26.0</ele><time>2026-04-24T10:38:20.195Z</time></trkpt><trkpt lat="45.6090979" lon="11.9229274"><ele>26.4</ele><time>2026-04-24T10:38:22.195Z</time></trkpt><trkpt lat="45.6090165" lon="11.9230123"><ele>26.8</ele><time>2026-04-24T10:38:24.195Z</time></trkpt><trkpt lat="45.6089478" lon="11.9230879"><ele>27.199999999999996</ele><time>2026-04-24T10:38:26.195Z</time></trkpt><trkpt lat="45.6088898" lon="11.9231785"><ele>27.599999999999998</ele><time>2026-04-24T10:38:28.195Z</time></trkpt><trkpt lat="45.6088826" lon="11.923304"><ele>28.0</ele><time>2026-04-24T10:38:30.195Z</time></trkpt><trkpt lat="45.6089094" lon="11.9234429"><ele>28.0</ele><time>2026-04-24T10:38:32.195Z</time></trkpt><trkpt lat="45.6089602" lon="11.9235689"><ele>27.999999999999996</ele><time>2026-04-24T10:38:34.195Z</time></trkpt><trkpt lat="45.6090215" lon="11.9236857"><ele>27.999999999999996</ele><time>2026-04-24T10:38:36.195Z</time></trkpt><trkpt lat="45.6090857" lon="11.923808"><ele>28.0</ele><time>2026-04-24T10:38:38.195Z</time></trkpt><trkpt lat="45.6091478" lon="11.9239355"><ele>28.0</ele><time>2026-04-24T10:38:40.196Z</time></trkpt><trkpt lat="45.6092129" lon="11.924068"><ele>28.0</ele><time>2026-04-24T10:38:42.195Z</time></trkpt><trkpt lat="45.609286" lon="11.9242058"><ele>28.0</ele><time>2026-04-24T10:38:44.195Z</time></trkpt><trkpt lat="45.6093575" lon="11.9243463"><ele>28.0</ele><time>2026-04-24T10:38:46.195Z</time></trkpt><trkpt lat="45.6094343" lon="11.9244768"><ele>28.0</ele><time>2026-04-24T10:38:48.196Z</time></trkpt><trkpt lat="45.6095026" lon="11.9246083"><ele>27.5</ele><time>2026-04-24T10:38:50.195Z</time></trkpt><trkpt lat="45.6095651" lon="11.924746"><ele>27.0</ele><time>2026-04-24T10:38:52.196Z</time></trkpt><trkpt lat="45.6096422" lon="11.9248736"><ele>26.5</ele><time>2026-04-24T10:38:54.195Z</time></trkpt><trkpt lat="45.6097225" lon="11.9249994"><ele>26.0</ele><time>2026-04-24T10:38:56.196Z</time></trkpt><trkpt lat="45.609813" lon="11.9251095"><ele>25.999999999999996</ele><time>2026-04-24T10:38:58.196Z</time></trkpt><trkpt lat="45.6099039" lon="11.9252058"><ele>26.0</ele><time>2026-04-24T10:39:00.195Z</time></trkpt><trkpt lat="45.61" lon="11.9253119"><ele>26.0</ele><time>2026-04-24T10:39:02.196Z</time></trkpt><trkpt lat="45.6100567" lon="11.9253611"><ele>26.0</ele><time>2026-04-24T10:39:03.195Z</time></trkpt><trkpt lat="45.6101132" lon="11.9254073"><ele>25.999999999999996</ele><time>2026-04-24T10:39:04.195Z</time></trkpt><trkpt lat="45.6101676" lon="11.925457"><ele>26.0</ele><time>2026-04-24T10:39:05.196Z</time></trkpt><trkpt lat="45.6102225" lon="11.9255054"><ele>26.0</ele><time>2026-04-24T10:39:06.195Z</time></trkpt><trkpt lat="45.6103245" lon="11.9255957"><ele>26.0</ele><time>2026-04-24T10:39:08.196Z</time></trkpt><trkpt lat="45.6104248" lon="11.9256793"><ele>26.0</ele><time>2026-04-24T10:39:10.196Z</time></trkpt><trkpt lat="45.6105237" lon="11.9257716"><ele>26.0</ele><time>2026-04-24T10:39:12.195Z</time></trkpt><trkpt lat="45.6106207" lon="11.9258692"><ele>26.6</ele><time>2026-04-24T10:39:14.195Z</time></trkpt><trkpt lat="45.6107" lon="11.9259881"><ele>27.200000000000003</ele><time>2026-04-24T10:39:16.195Z</time></trkpt><trkpt lat="45.6107502" lon="11.9261261"><ele>27.799999999999997</ele><time>2026-04-24T10:39:18.195Z</time></trkpt><trkpt lat="45.6108066" lon="11.9262541"><ele>28.4</ele><time>2026-04-24T10:39:20.196Z</time></trkpt><trkpt lat="45.6109101" lon="11.9263204"><ele>29.0</ele><time>2026-04-24T10:39:22.196Z</time></trkpt><trkpt lat="45.6110026" lon="11.9264063"><ele>28.999999999999996</ele><time>2026-04-24T10:39:24.195Z</time></trkpt><trkpt lat="45.6110806" lon="11.92651"><ele>29.0</ele><time>2026-04-24T10:39:26.194Z</time></trkpt><trkpt lat="45.61116" lon="11.9265917"><ele>29.0</ele><time>2026-04-24T10:39:28.194Z</time></trkpt><trkpt lat="45.6112272" lon="11.926661"><ele>29.0</ele><time>2026-04-24T10:39:30.195Z</time></trkpt><trkpt lat="45.6112852" lon="11.9267185"><ele>28.999999999999996</ele><time>2026-04-24T10:39:32.195Z</time></trkpt><trkpt lat="45.6113388" lon="11.9267804"><ele>29.0</ele><time>2026-04-24T10:39:34.194Z</time></trkpt><trkpt lat="45.6113952" lon="11.9268378"><ele>28.71428571428572</ele><time>2026-04-24T10:39:36.194Z</time></trkpt><trkpt lat="45.6114573" lon="11.9268904"><ele>28.42857142857143</ele><time>2026-04-24T10:39:38.194Z</time></trkpt><trkpt lat="45.6115135" lon="11.9269471"><ele>28.142857142857146</ele><time>2026-04-24T10:39:40.194Z</time></trkpt><trkpt lat="45.6115693" lon="11.9269994"><ele>27.85714285714286</ele><time>2026-04-24T10:39:42.194Z</time></trkpt><trkpt lat="45.6116524" lon="11.9270681"><ele>27.57142857142857</ele><time>2026-04-24T10:39:45.194Z</time></trkpt><trkpt lat="45.6117097" lon="11.9271212"><ele>27.285714285714285</ele><time>2026-04-24T10:39:47.194Z</time></trkpt><trkpt lat="45.6117764" lon="11.9271776"><ele>27.0</ele><time>2026-04-24T10:39:49.194Z</time></trkpt><trkpt lat="45.6118345" lon="11.9272292"><ele>27.0</ele><time>2026-04-24T10:39:51.194Z</time></trkpt><trkpt lat="45.6118918" lon="11.9272732"><ele>27.0</ele><time>2026-04-24T10:39:53.194Z</time></trkpt><trkpt lat="45.6119563" lon="11.9273322"><ele>27.0</ele><time>2026-04-24T10:39:55.194Z</time></trkpt><trkpt lat="45.6120236" lon="11.9273892"><ele>27.0</ele><time>2026-04-24T10:39:57.194Z</time></trkpt><trkpt lat="45.612085" lon="11.9274534"><ele>27.0</ele><time>2026-04-24T10:39:59.195Z</time></trkpt><trkpt lat="45.6121578" lon="11.9275126"><ele>27.0</ele><time>2026-04-24T10:40:01.195Z</time></trkpt><trkpt lat="45.6122366" lon="11.9275723"><ele>26.833333333333332</ele><time>2026-04-24T10:40:03.195Z</time></trkpt><trkpt lat="45.612307" lon="11.9276297"><ele>26.666666666666664</ele><time>2026-04-24T10:40:05.194Z</time></trkpt><trkpt lat="45.6123716" lon="11.927692"><ele>26.5</ele><time>2026-04-24T10:40:07.194Z</time></trkpt><trkpt lat="45.6124453" lon="11.927762"><ele>26.333333333333332</ele><time>2026-04-24T10:40:09.194Z</time></trkpt><trkpt lat="45.6125223" lon="11.9278352"><ele>26.166666666666664</ele><time>2026-04-24T10:40:11.194Z</time></trkpt><trkpt lat="45.6125955" lon="11.9279085"><ele>26.0</ele><time>2026-04-24T10:40:13.194Z</time></trkpt><trkpt lat="45.6126803" lon="11.927988"><ele>25.999999999999996</ele><time>2026-04-24T10:40:15.194Z</time></trkpt><trkpt lat="45.6127851" lon="11.9280628"><ele>26.0</ele><time>2026-04-24T10:40:17.194Z</time></trkpt><trkpt lat="45.6129038" lon="11.9281209"><ele>26.0</ele><time>2026-04-24T10:40:19.194Z</time></trkpt><trkpt lat="45.6129669" lon="11.9281517"><ele>26.0</ele><time>2026-04-24T10:40:20.194Z</time></trkpt><trkpt lat="45.613031" lon="11.9281749"><ele>25.999999999999996</ele><time>2026-04-24T10:40:21.194Z</time></trkpt><trkpt lat="45.6130996" lon="11.9281938"><ele>26.0</ele><time>2026-04-24T10:40:22.194Z</time></trkpt><trkpt lat="45.613172" lon="11.9282079"><ele>25.999999999999996</ele><time>2026-04-24T10:40:23.194Z</time></trkpt><trkpt lat="45.613243" lon="11.9282163"><ele>26.0</ele><time>2026-04-24T10:40:24.194Z</time></trkpt><trkpt lat="45.6133169" lon="11.9282185"><ele>26.0</ele><time>2026-04-24T10:40:25.194Z</time></trkpt><trkpt lat="45.6133921" lon="11.9282246"><ele>26.0</ele><time>2026-04-24T10:40:26.194Z</time></trkpt><trkpt lat="45.6134746" lon="11.9282281"><ele>25.999999999999996</ele><time>2026-04-24T10:40:27.194Z</time></trkpt><trkpt lat="45.6135556" lon="11.9282394"><ele>26.0</ele><time>2026-04-24T10:40:28.194Z</time></trkpt><trkpt lat="45.6136333" lon="11.9282574"><ele>25.999999999999996</ele><time>2026-04-24T10:40:29.195Z</time></trkpt><trkpt lat="45.6137103" lon="11.9282805"><ele>26.0</ele><time>2026-04-24T10:40:30.194Z</time></trkpt><trkpt lat="45.6137826" lon="11.9283181"><ele>26.0</ele><time>2026-04-24T10:40:31.194Z</time></trkpt><trkpt lat="45.6138448" lon="11.9283727"><ele>26.0</ele><time>2026-04-24T10:40:32.194Z</time></trkpt><trkpt lat="45.6138949" lon="11.9284423"><ele>25.999999999999996</ele><time>2026-04-24T10:40:33.194Z</time></trkpt><trkpt lat="45.6139348" lon="11.9285122"><ele>26.0</ele><time>2026-04-24T10:40:34.195Z</time></trkpt><trkpt lat="45.6139737" lon="11.9286486"><ele>26.0</ele><time>2026-04-24T10:40:36.194Z</time></trkpt><trkpt lat="45.6139209" lon="11.9287393"><ele>26.0</ele><time>2026-04-24T10:40:38.194Z</time></trkpt><trkpt lat="45.6138301" lon="11.9287758"><ele>26.0</ele><time>2026-04-24T10:40:40.195Z</time></trkpt><trkpt lat="45.6137255" lon="11.9288201"><ele>26.0</ele><time>2026-04-24T10:40:42.195Z</time></trkpt><trkpt lat="45.6136142" lon="11.9288573"><ele>26.0</ele><time>2026-04-24T10:40:44.194Z</time></trkpt><trkpt lat="45.613499" lon="11.9288939"><ele>25.8</ele><time>2026-04-24T10:40:46.195Z</time></trkpt><trkpt lat="45.6133818" lon="11.9289231"><ele>25.6</ele><time>2026-04-24T10:40:48.194Z</time></trkpt><trkpt lat="45.6132644" lon="11.9289677"><ele>25.4</ele><time>2026-04-24T10:40:50.194Z</time></trkpt><trkpt lat="45.6132024" lon="11.9289865"><ele>25.2</ele><time>2026-04-24T10:40:51.194Z</time></trkpt><trkpt lat="45.6130834" lon="11.9290247"><ele>25.0</ele><time>2026-04-24T10:40:53.195Z</time></trkpt><trkpt lat="45.6129629" lon="11.9290612"><ele>25.000000000000004</ele><time>2026-04-24T10:40:55.194Z</time></trkpt><trkpt lat="45.6128438" lon="11.9291103"><ele>25.0</ele><time>2026-04-24T10:40:57.194Z</time></trkpt><trkpt lat="45.6127828" lon="11.9291351"><ele>25.0</ele><time>2026-04-24T10:40:58.194Z</time></trkpt><trkpt lat="45.6127168" lon="11.9291532"><ele>25.0</ele><time>2026-04-24T10:40:59.194Z</time></trkpt><trkpt lat="45.6126482" lon="11.929173"><ele>25.000000000000004</ele><time>2026-04-24T10:41:00.195Z</time></trkpt><trkpt lat="45.6125827" lon="11.9291906"><ele>25.0</ele><time>2026-04-24T10:41:01.194Z</time></trkpt><trkpt lat="45.6125169" lon="11.9292082"><ele>25.000000000000004</ele><time>2026-04-24T10:41:02.194Z</time></trkpt><trkpt lat="45.6124495" lon="11.9292337"><ele>25.0</ele><time>2026-04-24T10:41:03.194Z</time></trkpt><trkpt lat="45.6123882" lon="11.9292577"><ele>25.0</ele><time>2026-04-24T10:41:04.194Z</time></trkpt><trkpt lat="45.6123239" lon="11.9292757"><ele>25.0</ele><time>2026-04-24T10:41:05.194Z</time></trkpt><trkpt lat="45.6122597" lon="11.9292959"><ele>25.0</ele><time>2026-04-24T10:41:06.194Z</time></trkpt><trkpt lat="45.6121941" lon="11.9293152"><ele>25.000000000000004</ele><time>2026-04-24T10:41:07.194Z</time></trkpt><trkpt lat="45.6121263" lon="11.9293357"><ele>25.0</ele><time>2026-04-24T10:41:08.194Z</time></trkpt><trkpt lat="45.6120602" lon="11.9293612"><ele>25.000000000000004</ele><time>2026-04-24T10:41:09.194Z</time></trkpt><trkpt lat="45.6119949" lon="11.9293791"><ele>25.0</ele><time>2026-04-24T10:41:10.194Z</time></trkpt><trkpt lat="45.6119286" lon="11.9293984"><ele>25.0</ele><time>2026-04-24T10:41:11.195Z</time></trkpt><trkpt lat="45.6118633" lon="11.9294163"><ele>25.0</ele><time>2026-04-24T10:41:12.195Z</time></trkpt><trkpt lat="45.6117975" lon="11.929433"><ele>25.0</ele><time>2026-04-24T10:41:13.194Z</time></trkpt><trkpt lat="45.6117304" lon="11.9294518"><ele>25.000000000000004</ele><time>2026-04-24T10:41:14.195Z</time></trkpt><trkpt lat="45.6116626" lon="11.9294717"><ele>25.0</ele><time>2026-04-24T10:41:15.195Z</time></trkpt><trkpt lat="45.6115961" lon="11.9294929"><ele>25.000000000000004</ele><time>2026-04-24T10:41:16.194Z</time></trkpt><trkpt lat="45.6115296" lon="11.9295106"><ele>25.0</ele><time>2026-04-24T10:41:17.194Z</time></trkpt><trkpt lat="45.6114621" lon="11.9295299"><ele>25.0</ele><time>2026-04-24T10:41:18.194Z</time></trkpt><trkpt lat="45.6113949" lon="11.9295521"><ele>25.0</ele><time>2026-04-24T10:41:19.194Z</time></trkpt><trkpt lat="45.6113295" lon="11.9295751"><ele>25.0</ele><time>2026-04-24T10:41:20.194Z</time></trkpt><trkpt lat="45.6112628" lon="11.9295996"><ele>25.000000000000004</ele><time>2026-04-24T10:41:21.194Z</time></trkpt><trkpt lat="45.6111941" lon="11.9296222"><ele>25.0</ele><time>2026-04-24T10:41:22.194Z</time></trkpt><trkpt lat="45.6111289" lon="11.9296463"><ele>25.000000000000004</ele><time>2026-04-24T10:41:23.194Z</time></trkpt><trkpt lat="45.6110658" lon="11.9296713"><ele>25.0</ele><time>2026-04-24T10:41:24.195Z</time></trkpt><trkpt lat="45.6110028" lon="11.9296937"><ele>25.0</ele><time>2026-04-24T10:41:25.194Z</time></trkpt><trkpt lat="45.610937" lon="11.9297136"><ele>25.0</ele><time>2026-04-24T10:41:26.194Z</time></trkpt><trkpt lat="45.6108691" lon="11.9297368"><ele>25.0</ele><time>2026-04-24T10:41:27.194Z</time></trkpt><trkpt lat="45.610807" lon="11.9297568"><ele>25.000000000000004</ele><time>2026-04-24T10:41:28.195Z</time></trkpt><trkpt lat="45.6107431" lon="11.9297749"><ele>25.0</ele><time>2026-04-24T10:41:29.195Z</time></trkpt><trkpt lat="45.6106805" lon="11.9297989"><ele>25.000000000000004</ele><time>2026-04-24T10:41:30.194Z</time></trkpt><trkpt lat="45.6106165" lon="11.9298223"><ele>25.0</ele><time>2026-04-24T10:41:31.194Z</time></trkpt><trkpt lat="45.6105543" lon="11.929844"><ele>25.0</ele><time>2026-04-24T10:41:32.195Z</time></trkpt><trkpt lat="45.610492" lon="11.9298644"><ele>25.0</ele><time>2026-04-24T10:41:33.195Z</time></trkpt><trkpt lat="45.6104287" lon="11.9298846"><ele>25.0</ele><time>2026-04-24T10:41:34.194Z</time></trkpt><trkpt lat="45.6103643" lon="11.9299067"><ele>25.000000000000004</ele><time>2026-04-24T10:41:35.195Z</time></trkpt><trkpt lat="45.6102964" lon="11.9299257"><ele>25.0</ele><time>2026-04-24T10:41:36.194Z</time></trkpt><trkpt lat="45.6102317" lon="11.929947"><ele>25.000000000000004</ele><time>2026-04-24T10:41:37.194Z</time></trkpt><trkpt lat="45.6101679" lon="11.9299715"><ele>25.0</ele><time>2026-04-24T10:41:38.194Z</time></trkpt><trkpt lat="45.610102" lon="11.93"><ele>25.0</ele><time>2026-04-24T10:41:39.194Z</time></trkpt><trkpt lat="45.6100335" lon="11.9300195"><ele>25.0</ele><time>2026-04-24T10:41:40.194Z</time></trkpt><trkpt lat="45.6099622" lon="11.9300455"><ele>25.0</ele><time>2026-04-24T10:41:41.194Z</time></trkpt><trkpt lat="45.6098945" lon="11.9300687"><ele>25.000000000000004</ele><time>2026-04-24T10:41:42.194Z</time></trkpt><trkpt lat="45.6098262" lon="11.930094"><ele>25.0</ele><time>2026-04-24T10:41:43.194Z</time></trkpt><trkpt lat="45.6097591" lon="11.9301178"><ele>25.000000000000004</ele><time>2026-04-24T10:41:44.194Z</time></trkpt><trkpt lat="45.6096946" lon="11.9301422"><ele>25.0</ele><time>2026-04-24T10:41:45.194Z</time></trkpt><trkpt lat="45.6096308" lon="11.9301661"><ele>25.0</ele><time>2026-04-24T10:41:46.194Z</time></trkpt><trkpt lat="45.60957" lon="11.9301921"><ele>25.0</ele><time>2026-04-24T10:41:47.194Z</time></trkpt><trkpt lat="45.6094477" lon="11.9302375"><ele>25.000000000000004</ele><time>2026-04-24T10:41:49.194Z</time></trkpt><trkpt lat="45.6093834" lon="11.930264"><ele>25.0</ele><time>2026-04-24T10:41:50.194Z</time></trkpt><trkpt lat="45.6092595" lon="11.9302998"><ele>24.857142857142858</ele><time>2026-04-24T10:41:52.194Z</time></trkpt><trkpt lat="45.6091948" lon="11.9303218"><ele>24.714285714285715</ele><time>2026-04-24T10:41:53.195Z</time></trkpt><trkpt lat="45.6091289" lon="11.9303447"><ele>24.57142857142857</ele><time>2026-04-24T10:41:54.194Z</time></trkpt><trkpt lat="45.6090658" lon="11.9303679"><ele>24.42857142857143</ele><time>2026-04-24T10:41:55.194Z</time></trkpt><trkpt lat="45.6090043" lon="11.9303908"><ele>24.285714285714285</ele><time>2026-04-24T10:41:56.194Z</time></trkpt><trkpt lat="45.608941" lon="11.9304138"><ele>24.142857142857142</ele><time>2026-04-24T10:41:57.194Z</time></trkpt><trkpt lat="45.608876" lon="11.9304315"><ele>24.0</ele><time>2026-04-24T10:41:58.195Z</time></trkpt><trkpt lat="45.6088141" lon="11.930455"><ele>23.999999999999996</ele><time>2026-04-24T10:41:59.194Z</time></trkpt><trkpt lat="45.6087495" lon="11.9304739"><ele>24.0</ele><time>2026-04-24T10:42:00.194Z</time></trkpt><trkpt lat="45.608686" lon="11.9304962"><ele>24.0</ele><time>2026-04-24T10:42:01.194Z</time></trkpt><trkpt lat="45.6086202" lon="11.9305186"><ele>24.0</ele><time>2026-04-24T10:42:02.194Z</time></trkpt><trkpt lat="45.6085533" lon="11.9305405"><ele>24.0</ele><time>2026-04-24T10:42:03.194Z</time></trkpt><trkpt lat="45.6084864" lon="11.9305602"><ele>23.999999999999996</ele><time>2026-04-24T10:42:04.194Z</time></trkpt><trkpt lat="45.6084216" lon="11.9305789"><ele>24.0</ele><time>2026-04-24T10:42:05.194Z</time></trkpt><trkpt lat="45.6083532" lon="11.9305946"><ele>24.0</ele><time>2026-04-24T10:42:06.194Z</time></trkpt><trkpt lat="45.6082888" lon="11.9306141"><ele>24.0</ele><time>2026-04-24T10:42:07.194Z</time></trkpt><trkpt lat="45.6082252" lon="11.9306372"><ele>24.0</ele><time>2026-04-24T10:42:08.194Z</time></trkpt><trkpt lat="45.6081013" lon="11.9306833"><ele>24.0</ele><time>2026-04-24T10:42:10.195Z</time></trkpt><trkpt lat="45.6080376" lon="11.9307003"><ele>24.0</ele><time>2026-04-24T10:42:11.194Z</time></trkpt><trkpt lat="45.6079748" lon="11.9307183"><ele>24.0</ele><time>2026-04-24T10:42:12.194Z</time></trkpt><trkpt lat="45.6078489" lon="11.9307529"><ele>24.142857142857142</ele><time>2026-04-24T10:42:14.194Z</time></trkpt><trkpt lat="45.607785" lon="11.9307806"><ele>24.285714285714285</ele><time>2026-04-24T10:42:15.194Z</time></trkpt><trkpt lat="45.6077191" lon="11.930804"><ele>24.42857142857143</ele><time>2026-04-24T10:42:16.194Z</time></trkpt><trkpt lat="45.6076535" lon="11.9308275"><ele>24.57142857142857</ele><time>2026-04-24T10:42:17.194Z</time></trkpt><trkpt lat="45.60759" lon="11.9308503"><ele>24.714285714285715</ele><time>2026-04-24T10:42:18.194Z</time></trkpt><trkpt lat="45.6075247" lon="11.9308698"><ele>24.857142857142858</ele><time>2026-04-24T10:42:19.194Z</time></trkpt><trkpt lat="45.6074597" lon="11.930886"><ele>25.0</ele><time>2026-04-24T10:42:20.194Z</time></trkpt><trkpt lat="45.6073974" lon="11.9309072"><ele>25.000000000000004</ele><time>2026-04-24T10:42:21.195Z</time></trkpt><trkpt lat="45.6073363" lon="11.930929"><ele>25.0</ele><time>2026-04-24T10:42:22.195Z</time></trkpt><trkpt lat="45.6072128" lon="11.9309682"><ele>25.0</ele><time>2026-04-24T10:42:24.194Z</time></trkpt><trkpt lat="45.6070861" lon="11.9310053"><ele>25.0</ele><time>2026-04-24T10:42:26.194Z</time></trkpt><trkpt lat="45.6070237" lon="11.9310256"><ele>25.000000000000004</ele><time>2026-04-24T10:42:27.194Z</time></trkpt><trkpt lat="45.6069618" lon="11.9310493"><ele>25.0</ele><time>2026-04-24T10:42:28.195Z</time></trkpt><trkpt lat="45.6068964" lon="11.9310721"><ele>24.857142857142858</ele><time>2026-04-24T10:42:29.194Z</time></trkpt><trkpt lat="45.6068335" lon="11.9310964"><ele>24.714285714285715</ele><time>2026-04-24T10:42:30.194Z</time></trkpt><trkpt lat="45.6067684" lon="11.9311212"><ele>24.57142857142857</ele><time>2026-04-24T10:42:31.195Z</time></trkpt><trkpt lat="45.6067058" lon="11.9311394"><ele>24.42857142857143</ele><time>2026-04-24T10:42:32.195Z</time></trkpt><trkpt lat="45.6066434" lon="11.9311593"><ele>24.285714285714285</ele><time>2026-04-24T10:42:33.195Z</time></trkpt><trkpt lat="45.6065811" lon="11.9311768"><ele>24.142857142857142</ele><time>2026-04-24T10:42:34.194Z</time></trkpt><trkpt lat="45.6064672" lon="11.9312208"><ele>24.0</ele><time>2026-04-24T10:42:36.194Z</time></trkpt><trkpt lat="45.60636" lon="11.9312502"><ele>23.999999999999996</ele><time>2026-04-24T10:42:38.194Z</time></trkpt><trkpt lat="45.6062717" lon="11.931276"><ele>24.0</ele><time>2026-04-24T10:42:40.194Z</time></trkpt><trkpt lat="45.6062058" lon="11.9313133"><ele>24.0</ele><time>2026-04-24T10:42:42.194Z</time></trkpt><trkpt lat="45.6061408" lon="11.9313313"><ele>24.0</ele><time>2026-04-24T10:42:50.194Z</time></trkpt><trkpt lat="45.6060711" lon="11.931355"><ele>24.0</ele><time>2026-04-24T10:42:53.195Z</time></trkpt><trkpt lat="45.6059991" lon="11.931367"><ele>23.999999999999996</ele><time>2026-04-24T10:42:55.194Z</time></trkpt><trkpt lat="45.6059248" lon="11.9313953"><ele>24.0</ele><time>2026-04-24T10:42:57.195Z</time></trkpt><trkpt lat="45.6058313" lon="11.9314223"><ele>24.2</ele><time>2026-04-24T10:42:59.195Z</time></trkpt><trkpt lat="45.6057311" lon="11.9314523"><ele>24.4</ele><time>2026-04-24T10:43:01.193Z</time></trkpt><trkpt lat="45.6056287" lon="11.9314906"><ele>24.6</ele><time>2026-04-24T10:43:03.194Z</time></trkpt><trkpt lat="45.6055213" lon="11.9315191"><ele>24.8</ele><time>2026-04-24T10:43:05.194Z</time></trkpt><trkpt lat="45.6054091" lon="11.9315625"><ele>25.0</ele><time>2026-04-24T10:43:07.194Z</time></trkpt><trkpt lat="45.6052868" lon="11.9315972"><ele>25.000000000000004</ele><time>2026-04-24T10:43:09.194Z</time></trkpt><trkpt lat="45.6052216" lon="11.9316241"><ele>25.0</ele><time>2026-04-24T10:43:10.193Z</time></trkpt><trkpt lat="45.6051582" lon="11.9316446"><ele>25.0</ele><time>2026-04-24T10:43:11.194Z</time></trkpt><trkpt lat="45.6050956" lon="11.9316678"><ele>25.0</ele><time>2026-04-24T10:43:12.194Z</time></trkpt><trkpt lat="45.6050304" lon="11.9316978"><ele>25.0</ele><time>2026-04-24T10:43:13.193Z</time></trkpt><trkpt lat="45.6049636" lon="11.931718"><ele>25.000000000000004</ele><time>2026-04-24T10:43:14.193Z</time></trkpt><trkpt lat="45.604896" lon="11.931739"><ele>25.0</ele><time>2026-04-24T10:43:15.193Z</time></trkpt><trkpt lat="45.6048279" lon="11.9317582"><ele>25.2</ele><time>2026-04-24T10:43:16.193Z</time></trkpt><trkpt lat="45.6047058" lon="11.9317931"><ele>25.4</ele><time>2026-04-24T10:43:18.193Z</time></trkpt><trkpt lat="45.6045861" lon="11.9318395"><ele>25.6</ele><time>2026-04-24T10:43:20.194Z</time></trkpt><trkpt lat="45.6045219" lon="11.9318587"><ele>25.8</ele><time>2026-04-24T10:43:21.193Z</time></trkpt><trkpt lat="45.6044573" lon="11.931877"><ele>26.0</ele><time>2026-04-24T10:43:22.194Z</time></trkpt><trkpt lat="45.6043879" lon="11.931898"><ele>26.0</ele><time>2026-04-24T10:43:23.193Z</time></trkpt><trkpt lat="45.6043202" lon="11.9319218"><ele>26.0</ele><time>2026-04-24T10:43:24.193Z</time></trkpt><trkpt lat="45.6042547" lon="11.9319462"><ele>26.0</ele><time>2026-04-24T10:43:25.194Z</time></trkpt><trkpt lat="45.6041848" lon="11.9319714"><ele>26.0</ele><time>2026-04-24T10:43:26.193Z</time></trkpt><trkpt lat="45.604119" lon="11.9319899"><ele>26.0</ele><time>2026-04-24T10:43:27.193Z</time></trkpt><trkpt lat="45.6040528" lon="11.9320119"><ele>26.0</ele><time>2026-04-24T10:43:28.193Z</time></trkpt><trkpt lat="45.6039896" lon="11.9320344"><ele>26.0</ele><time>2026-04-24T10:43:29.193Z</time></trkpt><trkpt lat="45.6039216" lon="11.9320567"><ele>26.0</ele><time>2026-04-24T10:43:30.194Z</time></trkpt><trkpt lat="45.6038565" lon="11.9320794"><ele>26.0</ele><time>2026-04-24T10:43:31.193Z</time></trkpt><trkpt lat="45.6037932" lon="11.9321096"><ele>26.0</ele><time>2026-04-24T10:43:32.193Z</time></trkpt><trkpt lat="45.6037322" lon="11.9321331"><ele>26.0</ele><time>2026-04-24T10:43:33.193Z</time></trkpt><trkpt lat="45.6036672" lon="11.9321511"><ele>26.0</ele><time>2026-04-24T10:43:34.194Z</time></trkpt><trkpt lat="45.6036012" lon="11.9321672"><ele>26.0</ele><time>2026-04-24T10:43:35.194Z</time></trkpt><trkpt lat="45.6035367" lon="11.9321859"><ele>26.0</ele><time>2026-04-24T10:43:36.193Z</time></trkpt><trkpt lat="45.6034706" lon="11.9322094"><ele>25.833333333333332</ele><time>2026-04-24T10:43:37.193Z</time></trkpt><trkpt lat="45.6034015" lon="11.9322359"><ele>25.666666666666664</ele><time>2026-04-24T10:43:38.193Z</time></trkpt><trkpt lat="45.603333" lon="11.9322604"><ele>25.5</ele><time>2026-04-24T10:43:39.193Z</time></trkpt><trkpt lat="45.603268" lon="11.9322799"><ele>25.333333333333336</ele><time>2026-04-24T10:43:40.193Z</time></trkpt><trkpt lat="45.6032042" lon="11.9323044"><ele>25.166666666666668</ele><time>2026-04-24T10:43:41.194Z</time></trkpt><trkpt lat="45.6031377" lon="11.9323277"><ele>25.0</ele><time>2026-04-24T10:43:42.194Z</time></trkpt><trkpt lat="45.6030186" lon="11.9323672"><ele>25.000000000000004</ele><time>2026-04-24T10:43:44.193Z</time></trkpt><trkpt lat="45.602957" lon="11.9323888"><ele>25.0</ele><time>2026-04-24T10:43:45.193Z</time></trkpt><trkpt lat="45.6028957" lon="11.9324106"><ele>25.0</ele><time>2026-04-24T10:43:46.193Z</time></trkpt><trkpt lat="45.6028337" lon="11.9324303"><ele>25.0</ele><time>2026-04-24T10:43:47.193Z</time></trkpt><trkpt lat="45.6027721" lon="11.9324539"><ele>25.000000000000004</ele><time>2026-04-24T10:43:48.193Z</time></trkpt><trkpt lat="45.6026559" lon="11.9325067"><ele>25.0</ele><time>2026-04-24T10:43:50.193Z</time></trkpt><trkpt lat="45.6025373" lon="11.9325541"><ele>24.833333333333336</ele><time>2026-04-24T10:43:52.193Z</time></trkpt><trkpt lat="45.6024751" lon="11.9325786"><ele>24.666666666666668</ele><time>2026-04-24T10:43:53.193Z</time></trkpt><trkpt lat="45.6023531" lon="11.9326272"><ele>24.5</ele><time>2026-04-24T10:43:55.193Z</time></trkpt><trkpt lat="45.6022934" lon="11.9326605"><ele>24.333333333333336</ele><time>2026-04-24T10:43:56.193Z</time></trkpt><trkpt lat="45.6021796" lon="11.9327388"><ele>24.166666666666668</ele><time>2026-04-24T10:43:58.193Z</time></trkpt><trkpt lat="45.6021257" lon="11.9327879"><ele>24.0</ele><time>2026-04-24T10:43:59.193Z</time></trkpt><trkpt lat="45.6020309" lon="11.9328939"><ele>24.25</ele><time>2026-04-24T10:44:01.193Z</time></trkpt><trkpt lat="45.6019382" lon="11.9330043"><ele>24.5</ele><time>2026-04-24T10:44:03.193Z</time></trkpt><trkpt lat="45.6018435" lon="11.9331036"><ele>24.75</ele><time>2026-04-24T10:44:05.193Z</time></trkpt><trkpt lat="45.6017474" lon="11.9331833"><ele>25.0</ele><time>2026-04-24T10:44:07.194Z</time></trkpt><trkpt lat="45.6016409" lon="11.9332407"><ele>25.0</ele><time>2026-04-24T10:44:09.193Z</time></trkpt><trkpt lat="45.6015292" lon="11.9332958"><ele>25.0</ele><time>2026-04-24T10:44:11.193Z</time></trkpt><trkpt lat="45.6014668" lon="11.9333213"><ele>25.0</ele><time>2026-04-24T10:44:12.193Z</time></trkpt><trkpt lat="45.6013498" lon="11.9333759"><ele>25.0</ele><time>2026-04-24T10:44:14.193Z</time></trkpt><trkpt lat="45.6012353" lon="11.9334253"><ele>25.0</ele><time>2026-04-24T10:44:16.193Z</time></trkpt><trkpt lat="45.6011244" lon="11.9334734"><ele>25.0</ele><time>2026-04-24T10:44:18.193Z</time></trkpt><trkpt lat="45.6010037" lon="11.9335181"><ele>25.0</ele><time>2026-04-24T10:44:20.193Z</time></trkpt><trkpt lat="45.600891" lon="11.933565"><ele>25.0</ele><time>2026-04-24T10:44:22.193Z</time></trkpt><trkpt lat="45.6008304" lon="11.9335901"><ele>25.0</ele><time>2026-04-24T10:44:23.193Z</time></trkpt><trkpt lat="45.6007194" lon="11.9336284"><ele>25.0</ele><time>2026-04-24T10:44:25.193Z</time></trkpt><trkpt lat="45.6006104" lon="11.9336681"><ele>25.0</ele><time>2026-04-24T10:44:27.193Z</time></trkpt><trkpt lat="45.6005103" lon="11.9336979"><ele>25.0</ele><time>2026-04-24T10:44:29.193Z</time></trkpt><trkpt lat="45.6004131" lon="11.9337226"><ele>25.0</ele><time>2026-04-24T10:44:31.194Z</time></trkpt><trkpt lat="45.6003162" lon="11.9337532"><ele>25.0</ele><time>2026-04-24T10:44:33.194Z</time></trkpt><trkpt lat="45.600227" lon="11.9337905"><ele>25.0</ele><time>2026-04-24T10:44:35.194Z</time></trkpt><trkpt lat="45.6001616" lon="11.9338231"><ele>25.0</ele><time>2026-04-24T10:44:37.193Z</time></trkpt><trkpt lat="45.6000936" lon="11.9338669"><ele>25.0</ele><time>2026-04-24T10:44:41.194Z</time></trkpt><trkpt lat="45.6000146" lon="11.9339029"><ele>25.0</ele><time>2026-04-24T10:44:44.194Z</time></trkpt><trkpt lat="45.5999397" lon="11.9339405"><ele>25.0</ele><time>2026-04-24T10:44:46.193Z</time></trkpt><trkpt lat="45.5998462" lon="11.9340148"><ele>25.0</ele><time>2026-04-24T10:44:48.193Z</time></trkpt><trkpt lat="45.5997281" lon="11.9340729"><ele>25.000000000000004</ele><time>2026-04-24T10:44:50.193Z</time></trkpt><trkpt lat="45.5996642" lon="11.9340951"><ele>25.0</ele><time>2026-04-24T10:44:51.194Z</time></trkpt><trkpt lat="45.5995456" lon="11.9341477"><ele>25.0</ele><time>2026-04-24T10:44:53.193Z</time></trkpt><trkpt lat="45.5994834" lon="11.934177"><ele>25.0</ele><time>2026-04-24T10:44:54.193Z</time></trkpt><trkpt lat="45.5994218" lon="11.934209"><ele>25.0</ele><time>2026-04-24T10:44:55.194Z</time></trkpt><trkpt lat="45.5993596" lon="11.9342281"><ele>25.000000000000004</ele><time>2026-04-24T10:44:56.193Z</time></trkpt><trkpt lat="45.5992979" lon="11.9342503"><ele>25.0</ele><time>2026-04-24T10:44:57.193Z</time></trkpt><trkpt lat="45.5991723" lon="11.9343008"><ele>25.142857142857146</ele><time>2026-04-24T10:44:59.193Z</time></trkpt><trkpt lat="45.5991106" lon="11.934332"><ele>25.285714285714285</ele><time>2026-04-24T10:45:00.193Z</time></trkpt><trkpt lat="45.5990471" lon="11.9343593"><ele>25.42857142857143</ele><time>2026-04-24T10:45:01.193Z</time></trkpt><trkpt lat="45.5989833" lon="11.9343842"><ele>25.571428571428573</ele><time>2026-04-24T10:45:02.193Z</time></trkpt><trkpt lat="45.5989152" lon="11.9344103"><ele>25.714285714285715</ele><time>2026-04-24T10:45:03.193Z</time></trkpt><trkpt lat="45.59885" lon="11.9344391"><ele>25.857142857142858</ele><time>2026-04-24T10:45:04.193Z</time></trkpt><trkpt lat="45.598785" lon="11.9344689"><ele>26.0</ele><time>2026-04-24T10:45:05.193Z</time></trkpt><trkpt lat="45.5987235" lon="11.9345048"><ele>25.857142857142858</ele><time>2026-04-24T10:45:06.194Z</time></trkpt><trkpt lat="45.5986592" lon="11.934537"><ele>25.714285714285715</ele><time>2026-04-24T10:45:07.193Z</time></trkpt><trkpt lat="45.5985966" lon="11.9345577"><ele>25.571428571428573</ele><time>2026-04-24T10:45:08.193Z</time></trkpt><trkpt lat="45.598533" lon="11.9345829"><ele>25.42857142857143</ele><time>2026-04-24T10:45:09.193Z</time></trkpt><trkpt lat="45.5984724" lon="11.9346116"><ele>25.285714285714285</ele><time>2026-04-24T10:45:10.194Z</time></trkpt><trkpt lat="45.5984133" lon="11.9346446"><ele>25.142857142857146</ele><time>2026-04-24T10:45:11.193Z</time></trkpt><trkpt lat="45.5983487" lon="11.9346803"><ele>25.0</ele><time>2026-04-24T10:45:12.193Z</time></trkpt><trkpt lat="45.5982838" lon="11.9347077"><ele>25.0</ele><time>2026-04-24T10:45:13.193Z</time></trkpt><trkpt lat="45.5982193" lon="11.9347328"><ele>25.0</ele><time>2026-04-24T10:45:14.193Z</time></trkpt><trkpt lat="45.5980999" lon="11.9347877"><ele>25.0</ele><time>2026-04-24T10:45:16.193Z</time></trkpt><trkpt lat="45.5979836" lon="11.9348472"><ele>25.0</ele><time>2026-04-24T10:45:18.194Z</time></trkpt><trkpt lat="45.5978656" lon="11.9349028"><ele>25.0</ele><time>2026-04-24T10:45:20.193Z</time></trkpt><trkpt lat="45.5978054" lon="11.9349319"><ele>24.714285714285715</ele><time>2026-04-24T10:45:21.193Z</time></trkpt><trkpt lat="45.5977438" lon="11.9349623"><ele>24.42857142857143</ele><time>2026-04-24T10:45:22.193Z</time></trkpt><trkpt lat="45.597681" lon="11.9349866"><ele>24.142857142857146</ele><time>2026-04-24T10:45:23.193Z</time></trkpt><trkpt lat="45.5976171" lon="11.9350103"><ele>23.857142857142858</ele><time>2026-04-24T10:45:24.193Z</time></trkpt><trkpt lat="45.5975562" lon="11.9350331"><ele>23.57142857142857</ele><time>2026-04-24T10:45:25.193Z</time></trkpt><trkpt lat="45.5974951" lon="11.9350599"><ele>23.28571428571429</ele><time>2026-04-24T10:45:26.193Z</time></trkpt><trkpt lat="45.5974344" lon="11.9350869"><ele>23.0</ele><time>2026-04-24T10:45:27.193Z</time></trkpt><trkpt lat="45.5973724" lon="11.9351122"><ele>23.0</ele><time>2026-04-24T10:45:28.194Z</time></trkpt><trkpt lat="45.5973108" lon="11.9351411"><ele>23.0</ele><time>2026-04-24T10:45:29.193Z</time></trkpt><trkpt lat="45.5972466" lon="11.9351667"><ele>23.0</ele><time>2026-04-24T10:45:30.193Z</time></trkpt><trkpt lat="45.5971819" lon="11.9351886"><ele>23.0</ele><time>2026-04-24T10:45:31.193Z</time></trkpt><trkpt lat="45.5971189" lon="11.9352056"><ele>23.0</ele><time>2026-04-24T10:45:32.193Z</time></trkpt><trkpt lat="45.5970581" lon="11.9352328"><ele>23.0</ele><time>2026-04-24T10:45:33.193Z</time></trkpt><trkpt lat="45.5969379" lon="11.9352695"><ele>23.0</ele><time>2026-04-24T10:45:35.193Z</time></trkpt><trkpt lat="45.5968161" lon="11.9353014"><ele>23.0</ele><time>2026-04-24T10:45:37.193Z</time></trkpt><trkpt lat="45.5967532" lon="11.9353157"><ele>23.0</ele><time>2026-04-24T10:45:38.193Z</time></trkpt><trkpt lat="45.5966899" lon="11.9353319"><ele>23.0</ele><time>2026-04-24T10:45:39.193Z</time></trkpt><trkpt lat="45.5965675" lon="11.9353705"><ele>23.0</ele><time>2026-04-24T10:45:41.193Z</time></trkpt><trkpt lat="45.5964421" lon="11.9354105"><ele>23.0</ele><time>2026-04-24T10:45:43.193Z</time></trkpt><trkpt lat="45.5963165" lon="11.9354439"><ele>23.0</ele><time>2026-04-24T10:45:45.194Z</time></trkpt><trkpt lat="45.5961966" lon="11.9354818"><ele>23.0</ele><time>2026-04-24T10:45:47.193Z</time></trkpt><trkpt lat="45.5960794" lon="11.9355252"><ele>23.0</ele><time>2026-04-24T10:45:49.194Z</time></trkpt><trkpt lat="45.595968" lon="11.9355675"><ele>23.0</ele><time>2026-04-24T10:45:51.193Z</time></trkpt><trkpt lat="45.5958659" lon="11.9356192"><ele>22.833333333333336</ele><time>2026-04-24T10:45:53.193Z</time></trkpt><trkpt lat="45.5958034" lon="11.9356497"><ele>22.666666666666668</ele><time>2026-04-24T10:45:54.193Z</time></trkpt><trkpt lat="45.5956812" lon="11.9356955"><ele>22.5</ele><time>2026-04-24T10:45:56.193Z</time></trkpt><trkpt lat="45.59556" lon="11.9357345"><ele>22.333333333333332</ele><time>2026-04-24T10:45:58.193Z</time></trkpt><trkpt lat="45.5954984" lon="11.9357569"><ele>22.166666666666664</ele><time>2026-04-24T10:45:59.193Z</time></trkpt><trkpt lat="45.5954351" lon="11.9357806"><ele>22.0</ele><time>2026-04-24T10:46:00.193Z</time></trkpt><trkpt lat="45.5953745" lon="11.9358051"><ele>22.200000000000003</ele><time>2026-04-24T10:46:01.193Z</time></trkpt><trkpt lat="45.5953094" lon="11.9358262"><ele>22.4</ele><time>2026-04-24T10:46:02.193Z</time></trkpt><trkpt lat="45.5951862" lon="11.9358769"><ele>22.6</ele><time>2026-04-24T10:46:04.193Z</time></trkpt><trkpt lat="45.5951203" lon="11.9359006"><ele>22.799999999999997</ele><time>2026-04-24T10:46:05.193Z</time></trkpt><trkpt lat="45.5949972" lon="11.9359372"><ele>23.0</ele><time>2026-04-24T10:46:07.194Z</time></trkpt><trkpt lat="45.5948818" lon="11.9359769"><ele>23.0</ele><time>2026-04-24T10:46:09.193Z</time></trkpt><trkpt lat="45.5947723" lon="11.93601"><ele>23.0</ele><time>2026-04-24T10:46:11.193Z</time></trkpt><trkpt lat="45.5946743" lon="11.9360413"><ele>23.0</ele><time>2026-04-24T10:46:13.193Z</time></trkpt><trkpt lat="45.5945817" lon="11.9360737"><ele>23.0</ele><time>2026-04-24T10:46:15.193Z</time></trkpt><trkpt lat="45.5944917" lon="11.9361024"><ele>23.0</ele><time>2026-04-24T10:46:17.193Z</time></trkpt><trkpt lat="45.5944061" lon="11.9361437"><ele>23.0</ele><time>2026-04-24T10:46:19.193Z</time></trkpt><trkpt lat="45.5943192" lon="11.9361756"><ele>23.0</ele><time>2026-04-24T10:46:21.193Z</time></trkpt><trkpt lat="45.5942404" lon="11.9361998"><ele>23.0</ele><time>2026-04-24T10:46:23.193Z</time></trkpt><trkpt lat="45.5941634" lon="11.9362277"><ele>23.0</ele><time>2026-04-24T10:46:25.193Z</time></trkpt><trkpt lat="45.5940979" lon="11.9362412"><ele>23.0</ele><time>2026-04-24T10:46:27.193Z</time></trkpt><trkpt lat="45.5940248" lon="11.9362462"><ele>23.0</ele><time>2026-04-24T10:46:29.193Z</time></trkpt><trkpt lat="45.5939447" lon="11.9362642"><ele>23.0</ele><time>2026-04-24T10:46:31.193Z</time></trkpt><trkpt lat="45.5938769" lon="11.9362784"><ele>23.0</ele><time>2026-04-24T10:46:33.193Z</time></trkpt><trkpt lat="45.5937902" lon="11.9363034"><ele>23.0</ele><time>2026-04-24T10:46:36.192Z</time></trkpt><trkpt lat="45.5937225" lon="11.936318"><ele>23.0</ele><time>2026-04-24T10:46:39.192Z</time></trkpt><trkpt lat="45.5936295" lon="11.936361"><ele>23.0</ele><time>2026-04-24T10:46:42.193Z</time></trkpt><trkpt lat="45.5935551" lon="11.9363932"><ele>23.0</ele><time>2026-04-24T10:46:44.192Z</time></trkpt><trkpt lat="45.5934672" lon="11.9364177"><ele>22.75</ele><time>2026-04-24T10:46:46.192Z</time></trkpt><trkpt lat="45.5933631" lon="11.9364669"><ele>22.5</ele><time>2026-04-24T10:46:48.192Z</time></trkpt><trkpt lat="45.593245" lon="11.9365108"><ele>22.25</ele><time>2026-04-24T10:46:50.192Z</time></trkpt><trkpt lat="45.5931328" lon="11.936544"><ele>22.0</ele><time>2026-04-24T10:46:52.192Z</time></trkpt><trkpt lat="45.5930127" lon="11.9365857"><ele>22.0</ele><time>2026-04-24T10:46:54.192Z</time></trkpt><trkpt lat="45.5928953" lon="11.9366268"><ele>22.0</ele><time>2026-04-24T10:46:56.192Z</time></trkpt><trkpt lat="45.5927743" lon="11.9366696"><ele>22.0</ele><time>2026-04-24T10:46:58.192Z</time></trkpt><trkpt lat="45.5926578" lon="11.9367058"><ele>22.0</ele><time>2026-04-24T10:47:00.192Z</time></trkpt><trkpt lat="45.5925915" lon="11.9367292"><ele>22.0</ele><time>2026-04-24T10:47:01.192Z</time></trkpt><trkpt lat="45.5925288" lon="11.9367556"><ele>22.0</ele><time>2026-04-24T10:47:02.193Z</time></trkpt><trkpt lat="45.5924638" lon="11.9367784"><ele>22.0</ele><time>2026-04-24T10:47:03.192Z</time></trkpt><trkpt lat="45.5924002" lon="11.9368058"><ele>22.0</ele><time>2026-04-24T10:47:04.192Z</time></trkpt><trkpt lat="45.5923342" lon="11.9368278"><ele>22.0</ele><time>2026-04-24T10:47:05.192Z</time></trkpt><trkpt lat="45.5922683" lon="11.9368501"><ele>22.0</ele><time>2026-04-24T10:47:06.192Z</time></trkpt><trkpt lat="45.5922015" lon="11.9368757"><ele>22.0</ele><time>2026-04-24T10:47:07.192Z</time></trkpt><trkpt lat="45.5921331" lon="11.9369002"><ele>22.0</ele><time>2026-04-24T10:47:08.192Z</time></trkpt><trkpt lat="45.5920661" lon="11.9369208"><ele>22.0</ele><time>2026-04-24T10:47:09.193Z</time></trkpt><trkpt lat="45.5919992" lon="11.9369414"><ele>22.0</ele><time>2026-04-24T10:47:10.192Z</time></trkpt><trkpt lat="45.591931" lon="11.9369682"><ele>22.0</ele><time>2026-04-24T10:47:11.192Z</time></trkpt><trkpt lat="45.5918662" lon="11.9369924"><ele>22.0</ele><time>2026-04-24T10:47:12.192Z</time></trkpt><trkpt lat="45.5918009" lon="11.9370165"><ele>22.0</ele><time>2026-04-24T10:47:13.193Z</time></trkpt><trkpt lat="45.5917351" lon="11.9370415"><ele>22.0</ele><time>2026-04-24T10:47:14.192Z</time></trkpt><trkpt lat="45.5916725" lon="11.9370653"><ele>22.0</ele><time>2026-04-24T10:47:15.193Z</time></trkpt><trkpt lat="45.5915519" lon="11.9371037"><ele>22.0</ele><time>2026-04-24T10:47:17.193Z</time></trkpt><trkpt lat="45.5914295" lon="11.9371414"><ele>22.0</ele><time>2026-04-24T10:47:19.192Z</time></trkpt><trkpt lat="45.5913661" lon="11.9371622"><ele>22.0</ele><time>2026-04-24T10:47:20.192Z</time></trkpt><trkpt lat="45.5913026" lon="11.9371847"><ele>22.0</ele><time>2026-04-24T10:47:21.193Z</time></trkpt><trkpt lat="45.591238" lon="11.9372108"><ele>22.0</ele><time>2026-04-24T10:47:22.192Z</time></trkpt><trkpt lat="45.5911723" lon="11.9372344"><ele>22.0</ele><time>2026-04-24T10:47:23.192Z</time></trkpt><trkpt lat="45.5911075" lon="11.9372593"><ele>22.166666666666664</ele><time>2026-04-24T10:47:24.192Z</time></trkpt><trkpt lat="45.5910421" lon="11.937284"><ele>22.333333333333332</ele><time>2026-04-24T10:47:25.192Z</time></trkpt><trkpt lat="45.5909751" lon="11.9373035"><ele>22.5</ele><time>2026-04-24T10:47:26.193Z</time></trkpt><trkpt lat="45.5909077" lon="11.9373249"><ele>22.666666666666668</ele><time>2026-04-24T10:47:27.192Z</time></trkpt><trkpt lat="45.5908438" lon="11.9373524"><ele>22.833333333333336</ele><time>2026-04-24T10:47:28.192Z</time></trkpt><trkpt lat="45.590726" lon="11.9373998"><ele>23.0</ele><time>2026-04-24T10:47:30.192Z</time></trkpt><trkpt lat="45.590604" lon="11.937432"><ele>23.0</ele><time>2026-04-24T10:47:32.192Z</time></trkpt><trkpt lat="45.5904814" lon="11.9374731"><ele>23.0</ele><time>2026-04-24T10:47:34.193Z</time></trkpt><trkpt lat="45.5903571" lon="11.9374986"><ele>23.0</ele><time>2026-04-24T10:47:36.192Z</time></trkpt><trkpt lat="45.5902934" lon="11.9375066"><ele>23.0</ele><time>2026-04-24T10:47:37.192Z</time></trkpt><trkpt lat="45.5902288" lon="11.9375126"><ele>23.0</ele><time>2026-04-24T10:47:38.192Z</time></trkpt><trkpt lat="45.5901644" lon="11.9375207"><ele>23.0</ele><time>2026-04-24T10:47:39.192Z</time></trkpt><trkpt lat="45.5900973" lon="11.9375316"><ele>22.857142857142858</ele><time>2026-04-24T10:47:40.192Z</time></trkpt><trkpt lat="45.5900313" lon="11.9375367"><ele>22.71428571428571</ele><time>2026-04-24T10:47:41.192Z</time></trkpt><trkpt lat="45.5899652" lon="11.9375418"><ele>22.57142857142857</ele><time>2026-04-24T10:47:42.193Z</time></trkpt><trkpt lat="45.5899001" lon="11.937546"><ele>22.42857142857143</ele><time>2026-04-24T10:47:43.192Z</time></trkpt><trkpt lat="45.5897791" lon="11.9375591"><ele>22.285714285714285</ele><time>2026-04-24T10:47:45.192Z</time></trkpt><trkpt lat="45.5897157" lon="11.9375673"><ele>22.142857142857142</ele><time>2026-04-24T10:47:46.192Z</time></trkpt><trkpt lat="45.5896526" lon="11.9375703"><ele>22.0</ele><time>2026-04-24T10:47:47.192Z</time></trkpt><trkpt lat="45.5895896" lon="11.9375756"><ele>21.6</ele><time>2026-04-24T10:47:48.192Z</time></trkpt><trkpt lat="45.5894629" lon="11.9375943"><ele>21.200000000000003</ele><time>2026-04-24T10:47:50.192Z</time></trkpt><trkpt lat="45.5893986" lon="11.937603"><ele>20.8</ele><time>2026-04-24T10:47:51.192Z</time></trkpt><trkpt lat="45.5892757" lon="11.9376231"><ele>20.4</ele><time>2026-04-24T10:47:53.192Z</time></trkpt><trkpt lat="45.5891536" lon="11.9376436"><ele>20.0</ele><time>2026-04-24T10:47:55.192Z</time></trkpt><trkpt lat="45.5890906" lon="11.9376574"><ele>20.0</ele><time>2026-04-24T10:47:56.193Z</time></trkpt><trkpt lat="45.5889787" lon="11.9376864"><ele>20.0</ele><time>2026-04-24T10:47:58.192Z</time></trkpt><trkpt lat="45.5888857" lon="11.9377125"><ele>20.0</ele><time>2026-04-24T10:48:00.193Z</time></trkpt><trkpt lat="45.5887833" lon="11.9377307"><ele>20.0</ele><time>2026-04-24T10:48:02.193Z</time></trkpt><trkpt lat="45.5886712" lon="11.9377556"><ele>20.0</ele><time>2026-04-24T10:48:04.192Z</time></trkpt><trkpt lat="45.5885534" lon="11.9377778"><ele>20.166666666666668</ele><time>2026-04-24T10:48:06.192Z</time></trkpt><trkpt lat="45.5884377" lon="11.9377952"><ele>20.333333333333336</ele><time>2026-04-24T10:48:08.192Z</time></trkpt><trkpt lat="45.5883156" lon="11.9378132"><ele>20.5</ele><time>2026-04-24T10:48:10.192Z</time></trkpt><trkpt lat="45.5882525" lon="11.9378233"><ele>20.666666666666668</ele><time>2026-04-24T10:48:11.192Z</time></trkpt><trkpt lat="45.5881868" lon="11.9378352"><ele>20.833333333333332</ele><time>2026-04-24T10:48:12.192Z</time></trkpt><trkpt lat="45.5881233" lon="11.9378425"><ele>21.0</ele><time>2026-04-24T10:48:13.192Z</time></trkpt><trkpt lat="45.5880045" lon="11.937864"><ele>21.0</ele><time>2026-04-24T10:48:15.192Z</time></trkpt><trkpt lat="45.5878839" lon="11.9378864"><ele>21.0</ele><time>2026-04-24T10:48:17.192Z</time></trkpt><trkpt lat="45.5877603" lon="11.9379064"><ele>21.0</ele><time>2026-04-24T10:48:19.193Z</time></trkpt><trkpt lat="45.5876954" lon="11.9379165"><ele>21.0</ele><time>2026-04-24T10:48:20.192Z</time></trkpt><trkpt lat="45.5876316" lon="11.9379274"><ele>21.0</ele><time>2026-04-24T10:48:21.192Z</time></trkpt><trkpt lat="45.5875653" lon="11.9379382"><ele>21.0</ele><time>2026-04-24T10:48:22.192Z</time></trkpt><trkpt lat="45.5875003" lon="11.9379502"><ele>21.0</ele><time>2026-04-24T10:48:23.192Z</time></trkpt><trkpt lat="45.5874348" lon="11.9379637"><ele>21.0</ele><time>2026-04-24T10:48:24.193Z</time></trkpt><trkpt lat="45.5873705" lon="11.9379738"><ele>21.0</ele><time>2026-04-24T10:48:25.192Z</time></trkpt><trkpt lat="45.5873067" lon="11.9379858"><ele>21.0</ele><time>2026-04-24T10:48:26.192Z</time></trkpt><trkpt lat="45.5871797" lon="11.9380014"><ele>21.0</ele><time>2026-04-24T10:48:28.192Z</time></trkpt><trkpt lat="45.5871155" lon="11.9380081"><ele>21.0</ele><time>2026-04-24T10:48:29.192Z</time></trkpt><trkpt lat="45.5870512" lon="11.9380178"><ele>21.0</ele><time>2026-04-24T10:48:30.192Z</time></trkpt><trkpt lat="45.5869286" lon="11.9380374"><ele>21.0</ele><time>2026-04-24T10:48:32.192Z</time></trkpt><trkpt lat="45.5868658" lon="11.9380458"><ele>21.0</ele><time>2026-04-24T10:48:33.192Z</time></trkpt><trkpt lat="45.5867442" lon="11.9380604"><ele>21.0</ele><time>2026-04-24T10:48:35.193Z</time></trkpt><trkpt lat="45.5866756" lon="11.9380743"><ele>21.0</ele><time>2026-04-24T10:48:36.192Z</time></trkpt><trkpt lat="45.5866107" lon="11.9380839"><ele>21.0</ele><time>2026-04-24T10:48:37.193Z</time></trkpt><trkpt lat="45.5865471" lon="11.9380946"><ele>21.0</ele><time>2026-04-24T10:48:38.192Z</time></trkpt><trkpt lat="45.5864811" lon="11.9381045"><ele>21.0</ele><time>2026-04-24T10:48:39.193Z</time></trkpt><trkpt lat="45.5864148" lon="11.938116"><ele>21.0</ele><time>2026-04-24T10:48:40.192Z</time></trkpt><trkpt lat="45.586347" lon="11.9381283"><ele>21.0</ele><time>2026-04-24T10:48:41.193Z</time></trkpt><trkpt lat="45.5862803" lon="11.9381408"><ele>21.0</ele><time>2026-04-24T10:48:42.192Z</time></trkpt><trkpt lat="45.5862126" lon="11.9381523"><ele>21.0</ele><time>2026-04-24T10:48:43.193Z</time></trkpt><trkpt lat="45.5861436" lon="11.9381613"><ele>21.0</ele><time>2026-04-24T10:48:44.193Z</time></trkpt><trkpt lat="45.5860791" lon="11.93818"><ele>21.0</ele><time>2026-04-24T10:48:45.192Z</time></trkpt><trkpt lat="45.585958" lon="11.938204"><ele>21.0</ele><time>2026-04-24T10:48:47.193Z</time></trkpt><trkpt lat="45.5858333" lon="11.9382225"><ele>21.0</ele><time>2026-04-24T10:48:49.192Z</time></trkpt><trkpt lat="45.585769" lon="11.9382308"><ele>21.0</ele><time>2026-04-24T10:48:50.192Z</time></trkpt><trkpt lat="45.5857031" lon="11.9382407"><ele>21.0</ele><time>2026-04-24T10:48:51.193Z</time></trkpt><trkpt lat="45.5856385" lon="11.938249"><ele>21.0</ele><time>2026-04-24T10:48:52.193Z</time></trkpt><trkpt lat="45.5855724" lon="11.9382599"><ele>21.0</ele><time>2026-04-24T10:48:53.192Z</time></trkpt><trkpt lat="45.5855049" lon="11.9382754"><ele>21.0</ele><time>2026-04-24T10:48:54.192Z</time></trkpt><trkpt lat="45.5853866" lon="11.9383002"><ele>21.0</ele><time>2026-04-24T10:48:56.192Z</time></trkpt><trkpt lat="45.5852659" lon="11.938318"><ele>21.0</ele><time>2026-04-24T10:48:58.193Z</time></trkpt><trkpt lat="45.5851462" lon="11.9383361"><ele>21.0</ele><time>2026-04-24T10:49:00.192Z</time></trkpt><trkpt lat="45.5850824" lon="11.9383499"><ele>21.0</ele><time>2026-04-24T10:49:01.192Z</time></trkpt><trkpt lat="45.5849568" lon="11.9383691"><ele>21.0</ele><time>2026-04-24T10:49:03.192Z</time></trkpt><trkpt lat="45.5848931" lon="11.9383795"><ele>21.0</ele><time>2026-04-24T10:49:04.192Z</time></trkpt><trkpt lat="45.5848279" lon="11.9383878"><ele>21.0</ele><time>2026-04-24T10:49:05.192Z</time></trkpt><trkpt lat="45.5847623" lon="11.9384019"><ele>21.0</ele><time>2026-04-24T10:49:06.192Z</time></trkpt><trkpt lat="45.5846978" lon="11.9384183"><ele>21.0</ele><time>2026-04-24T10:49:07.192Z</time></trkpt><trkpt lat="45.5846338" lon="11.9384329"><ele>21.0</ele><time>2026-04-24T10:49:08.193Z</time></trkpt><trkpt lat="45.5845697" lon="11.9384404"><ele>21.0</ele><time>2026-04-24T10:49:09.192Z</time></trkpt><trkpt lat="45.5845018" lon="11.9384533"><ele>21.0</ele><time>2026-04-24T10:49:10.192Z</time></trkpt><trkpt lat="45.584435" lon="11.9384651"><ele>21.0</ele><time>2026-04-24T10:49:11.192Z</time></trkpt><trkpt lat="45.5843701" lon="11.9384759"><ele>21.0</ele><time>2026-04-24T10:49:12.193Z</time></trkpt><trkpt lat="45.584304" lon="11.9384818"><ele>21.0</ele><time>2026-04-24T10:49:13.192Z</time></trkpt><trkpt lat="45.584238" lon="11.9384973"><ele>21.0</ele><time>2026-04-24T10:49:14.192Z</time></trkpt><trkpt lat="45.584175" lon="11.9385112"><ele>20.75</ele><time>2026-04-24T10:49:15.193Z</time></trkpt><trkpt lat="45.5840565" lon="11.9385228"><ele>20.5</ele><time>2026-04-24T10:49:17.192Z</time></trkpt><trkpt lat="45.5839429" lon="11.9385371"><ele>20.25</ele><time>2026-04-24T10:49:19.192Z</time></trkpt><trkpt lat="45.5838161" lon="11.9385614"><ele>20.0</ele><time>2026-04-24T10:49:21.193Z</time></trkpt><trkpt lat="45.5836922" lon="11.9385871"><ele>20.75</ele><time>2026-04-24T10:49:23.192Z</time></trkpt><trkpt lat="45.5835762" lon="11.9386018"><ele>21.5</ele><time>2026-04-24T10:49:25.192Z</time></trkpt><trkpt lat="45.5834607" lon="11.938626"><ele>22.25</ele><time>2026-04-24T10:49:27.192Z</time></trkpt><trkpt lat="45.583339" lon="11.9386517"><ele>23.0</ele><time>2026-04-24T10:49:29.193Z</time></trkpt><trkpt lat="45.5832166" lon="11.9386817"><ele>23.0</ele><time>2026-04-24T10:49:31.192Z</time></trkpt><trkpt lat="45.5830966" lon="11.9387076"><ele>23.0</ele><time>2026-04-24T10:49:33.192Z</time></trkpt><trkpt lat="45.5829811" lon="11.9387282"><ele>23.0</ele><time>2026-04-24T10:49:35.192Z</time></trkpt><trkpt lat="45.5828692" lon="11.9387396"><ele>23.0</ele><time>2026-04-24T10:49:37.192Z</time></trkpt><trkpt lat="45.5827585" lon="11.9387548"><ele>22.75</ele><time>2026-04-24T10:49:39.192Z</time></trkpt><trkpt lat="45.5826483" lon="11.9387614"><ele>22.5</ele><time>2026-04-24T10:49:41.192Z</time></trkpt><trkpt lat="45.5825335" lon="11.9387856"><ele>22.25</ele><time>2026-04-24T10:49:43.192Z</time></trkpt><trkpt lat="45.5824174" lon="11.9387999"><ele>22.0</ele><time>2026-04-24T10:49:45.192Z</time></trkpt><trkpt lat="45.5823116" lon="11.9388204"><ele>22.0</ele><time>2026-04-24T10:49:47.193Z</time></trkpt><trkpt lat="45.5822132" lon="11.9388288"><ele>22.0</ele><time>2026-04-24T10:49:49.193Z</time></trkpt><trkpt lat="45.582119" lon="11.9388432"><ele>22.0</ele><time>2026-04-24T10:49:51.192Z</time></trkpt><trkpt lat="45.582024" lon="11.9388462"><ele>22.0</ele><time>2026-04-24T10:49:53.192Z</time></trkpt><trkpt lat="45.58194" lon="11.938833"><ele>22.0</ele><time>2026-04-24T10:49:55.192Z</time></trkpt><trkpt lat="45.5818774" lon="11.9387994"><ele>22.0</ele><time>2026-04-24T10:49:57.193Z</time></trkpt><trkpt lat="45.5817994" lon="11.9387775"><ele>22.333333333333332</ele><time>2026-04-24T10:50:00.192Z</time></trkpt><trkpt lat="45.5817178" lon="11.9387919"><ele>22.666666666666664</ele><time>2026-04-24T10:50:02.192Z</time></trkpt><trkpt lat="45.5816447" lon="11.9388003"><ele>23.0</ele><time>2026-04-24T10:50:04.193Z</time></trkpt><trkpt lat="45.5816501" lon="11.9387042"><ele>23.333333333333332</ele><time>2026-04-24T10:50:06.192Z</time></trkpt><trkpt lat="45.5817405" lon="11.9386422"><ele>23.666666666666668</ele><time>2026-04-24T10:50:08.192Z</time></trkpt><trkpt lat="45.5818332" lon="11.9385941"><ele>24.0</ele><time>2026-04-24T10:50:10.192Z</time></trkpt><trkpt lat="45.5818824" lon="11.9385205"><ele>24.0</ele><time>2026-04-24T10:50:12.191Z</time></trkpt><trkpt lat="45.5818067" lon="11.9384855"><ele>24.0</ele><time>2026-04-24T10:50:15.191Z</time></trkpt><trkpt lat="45.5817519" lon="11.9385367"><ele>24.0</ele><time>2026-04-24T10:50:17.191Z</time></trkpt><trkpt lat="45.5816719" lon="11.9385761"><ele>24.0</ele><time>2026-04-24T10:50:19.191Z</time></trkpt><trkpt lat="45.5815829" lon="11.9386147"><ele>24.0</ele><time>2026-04-24T10:50:21.191Z</time></trkpt><trkpt lat="45.5814832" lon="11.9386767"><ele>24.0</ele><time>2026-04-24T10:50:23.191Z</time></trkpt><trkpt lat="45.5813902" lon="11.9387303"><ele>24.0</ele><time>2026-04-24T10:50:25.192Z</time></trkpt><trkpt lat="45.5812893" lon="11.938761"><ele>24.0</ele><time>2026-04-24T10:50:27.191Z</time></trkpt><trkpt lat="45.5811842" lon="11.9387992"><ele>24.0</ele><time>2026-04-24T10:50:29.191Z</time></trkpt><trkpt lat="45.5810794" lon="11.9388314"><ele>24.0</ele><time>2026-04-24T10:50:31.191Z</time></trkpt><trkpt lat="45.5809755" lon="11.9388758"><ele>24.0</ele><time>2026-04-24T10:50:33.191Z</time></trkpt><trkpt lat="45.5808672" lon="11.9389162"><ele>23.6</ele><time>2026-04-24T10:50:35.191Z</time></trkpt><trkpt lat="45.5807621" lon="11.9389473"><ele>23.2</ele><time>2026-04-24T10:50:37.192Z</time></trkpt><trkpt lat="45.5806639" lon="11.93898"><ele>22.8</ele><time>2026-04-24T10:50:39.192Z</time></trkpt><trkpt lat="45.5805716" lon="11.9390111"><ele>22.400000000000002</ele><time>2026-04-24T10:50:41.191Z</time></trkpt><trkpt lat="45.5804758" lon="11.9390407"><ele>22.0</ele><time>2026-04-24T10:50:43.191Z</time></trkpt><trkpt lat="45.5803843" lon="11.9390571"><ele>22.200000000000003</ele><time>2026-04-24T10:50:45.191Z</time></trkpt><trkpt lat="45.5803036" lon="11.9390608"><ele>22.4</ele><time>2026-04-24T10:50:47.191Z</time></trkpt><trkpt lat="45.5802143" lon="11.9390214"><ele>22.6</ele><time>2026-04-24T10:50:49.191Z</time></trkpt><trkpt lat="45.5801151" lon="11.9389676"><ele>22.799999999999997</ele><time>2026-04-24T10:50:51.191Z</time></trkpt><trkpt lat="45.5800073" lon="11.9389088"><ele>23.0</ele><time>2026-04-24T10:50:53.191Z</time></trkpt><trkpt lat="45.5798937" lon="11.9388546"><ele>23.0</ele><time>2026-04-24T10:50:55.191Z</time></trkpt><trkpt lat="45.5797824" lon="11.9388034"><ele>23.0</ele><time>2026-04-24T10:50:57.191Z</time></trkpt><trkpt lat="45.579666" lon="11.9387603"><ele>23.0</ele><time>2026-04-24T10:50:59.191Z</time></trkpt><trkpt lat="45.5795603" lon="11.9387036"><ele>23.0</ele><time>2026-04-24T10:51:01.191Z</time></trkpt><trkpt lat="45.5794568" lon="11.9386332"><ele>23.0</ele><time>2026-04-24T10:51:03.191Z</time></trkpt><trkpt lat="45.5793474" lon="11.9385653"><ele>23.0</ele><time>2026-04-24T10:51:05.191Z</time></trkpt><trkpt lat="45.5792365" lon="11.9385009"><ele>23.0</ele><time>2026-04-24T10:51:07.191Z</time></trkpt><trkpt lat="45.5791267" lon="11.9384314"><ele>23.0</ele><time>2026-04-24T10:51:09.192Z</time></trkpt><trkpt lat="45.5790196" lon="11.9383707"><ele>23.0</ele><time>2026-04-24T10:51:11.192Z</time></trkpt><trkpt lat="45.578917" lon="11.9383474"><ele>23.0</ele><time>2026-04-24T10:51:13.191Z</time></trkpt><trkpt lat="45.5788198" lon="11.9382965"><ele>23.0</ele><time>2026-04-24T10:51:15.191Z</time></trkpt><trkpt lat="45.5787289" lon="11.9382123"><ele>23.0</ele><time>2026-04-24T10:51:17.192Z</time></trkpt><trkpt lat="45.5786274" lon="11.9381284"><ele>23.0</ele><time>2026-04-24T10:51:19.191Z</time></trkpt><trkpt lat="45.5785201" lon="11.9380437"><ele>23.0</ele><time>2026-04-24T10:51:21.191Z</time></trkpt><trkpt lat="45.5784649" lon="11.9379992"><ele>23.0</ele><time>2026-04-24T10:51:22.191Z</time></trkpt><trkpt lat="45.5784078" lon="11.93795"><ele>23.0</ele><time>2026-04-24T10:51:23.191Z</time></trkpt><trkpt lat="45.5783513" lon="11.9379027"><ele>23.0</ele><time>2026-04-24T10:51:24.191Z</time></trkpt><trkpt lat="45.578291" lon="11.9378545"><ele>23.0</ele><time>2026-04-24T10:51:25.191Z</time></trkpt><trkpt lat="45.5782339" lon="11.9378077"><ele>23.0</ele><time>2026-04-24T10:51:26.191Z</time></trkpt><trkpt lat="45.5781736" lon="11.9377613"><ele>23.0</ele><time>2026-04-24T10:51:27.191Z</time></trkpt><trkpt lat="45.5781139" lon="11.937715"><ele>23.0</ele><time>2026-04-24T10:51:28.191Z</time></trkpt><trkpt lat="45.5780567" lon="11.9376694"><ele>23.0</ele><time>2026-04-24T10:51:29.191Z</time></trkpt><trkpt lat="45.5780023" lon="11.9376166"><ele>23.0</ele><time>2026-04-24T10:51:30.191Z</time></trkpt><trkpt lat="45.5779428" lon="11.9375682"><ele>23.0</ele><time>2026-04-24T10:51:31.191Z</time></trkpt><trkpt lat="45.577887" lon="11.9375205"><ele>23.0</ele><time>2026-04-24T10:51:32.191Z</time></trkpt><trkpt lat="45.5778282" lon="11.9374762"><ele>23.0</ele><time>2026-04-24T10:51:33.191Z</time></trkpt><trkpt lat="45.5777708" lon="11.9374304"><ele>23.0</ele><time>2026-04-24T10:51:34.192Z</time></trkpt><trkpt lat="45.5777108" lon="11.9373838"><ele>23.0</ele><time>2026-04-24T10:51:35.191Z</time></trkpt><trkpt lat="45.5776511" lon="11.9373441"><ele>23.0</ele><time>2026-04-24T10:51:36.191Z</time></trkpt><trkpt lat="45.5775918" lon="11.9372964"><ele>23.0</ele><time>2026-04-24T10:51:37.191Z</time></trkpt><trkpt lat="45.577529" lon="11.9372449"><ele>23.0</ele><time>2026-04-24T10:51:38.191Z</time></trkpt><trkpt lat="45.5774659" lon="11.9372021"><ele>23.0</ele><time>2026-04-24T10:51:39.191Z</time></trkpt><trkpt lat="45.5774065" lon="11.9371503"><ele>23.0</ele><time>2026-04-24T10:51:40.191Z</time></trkpt><trkpt lat="45.577348" lon="11.937101"><ele>23.0</ele><time>2026-04-24T10:51:41.191Z</time></trkpt><trkpt lat="45.5772891" lon="11.9370527"><ele>23.0</ele><time>2026-04-24T10:51:42.191Z</time></trkpt><trkpt lat="45.5772325" lon="11.937008"><ele>23.0</ele><time>2026-04-24T10:51:43.191Z</time></trkpt><trkpt lat="45.5771742" lon="11.936963"><ele>23.0</ele><time>2026-04-24T10:51:44.191Z</time></trkpt><trkpt lat="45.5771156" lon="11.9369136"><ele>23.0</ele><time>2026-04-24T10:51:45.192Z</time></trkpt><trkpt lat="45.5770609" lon="11.936864"><ele>23.0</ele><time>2026-04-24T10:51:46.192Z</time></trkpt><trkpt lat="45.5769568" lon="11.9367628"><ele>23.0</ele><time>2026-04-24T10:51:48.191Z</time></trkpt><trkpt lat="45.576902" lon="11.9367131"><ele>22.5</ele><time>2026-04-24T10:51:49.192Z</time></trkpt><trkpt lat="45.5768023" lon="11.9366026"><ele>22.0</ele><time>2026-04-24T10:51:51.191Z</time></trkpt><trkpt lat="45.5767015" lon="11.9364972"><ele>21.5</ele><time>2026-04-24T10:51:53.191Z</time></trkpt><trkpt lat="45.5766018" lon="11.9363931"><ele>21.0</ele><time>2026-04-24T10:51:55.192Z</time></trkpt><trkpt lat="45.5765366" lon="11.9362557"><ele>21.0</ele><time>2026-04-24T10:51:57.191Z</time></trkpt><trkpt lat="45.5764461" lon="11.9361677"><ele>21.0</ele><time>2026-04-24T10:51:59.192Z</time></trkpt><trkpt lat="45.5763651" lon="11.9362397"><ele>21.0</ele><time>2026-04-24T10:52:01.191Z</time></trkpt><trkpt lat="45.5763371" lon="11.9363867"><ele>21.0</ele><time>2026-04-24T10:52:03.191Z</time></trkpt><trkpt lat="45.5762956" lon="11.9364608"><ele>21.0</ele><time>2026-04-24T10:52:04.192Z</time></trkpt><trkpt lat="45.5762033" lon="11.9365751"><ele>21.333333333333332</ele><time>2026-04-24T10:52:06.191Z</time></trkpt><trkpt lat="45.5760937" lon="11.936658"><ele>21.666666666666668</ele><time>2026-04-24T10:52:08.191Z</time></trkpt><trkpt lat="45.5760399" lon="11.9367069"><ele>22.0</ele><time>2026-04-24T10:52:09.192Z</time></trkpt><trkpt lat="45.5759836" lon="11.9367594"><ele>22.333333333333336</ele><time>2026-04-24T10:52:10.191Z</time></trkpt><trkpt lat="45.5759312" lon="11.9368177"><ele>22.666666666666668</ele><time>2026-04-24T10:52:11.191Z</time></trkpt><trkpt lat="45.5758789" lon="11.9368785"><ele>23.0</ele><time>2026-04-24T10:52:12.192Z</time></trkpt><trkpt lat="45.5758327" lon="11.9369498"><ele>23.0</ele><time>2026-04-24T10:52:13.191Z</time></trkpt><trkpt lat="45.5757896" lon="11.937027"><ele>23.0</ele><time>2026-04-24T10:52:14.191Z</time></trkpt><trkpt lat="45.5757185" lon="11.9371792"><ele>23.0</ele><time>2026-04-24T10:52:16.191Z</time></trkpt><trkpt lat="45.5756953" lon="11.9372698"><ele>23.0</ele><time>2026-04-24T10:52:17.191Z</time></trkpt><trkpt lat="45.5756551" lon="11.9374444"><ele>23.0</ele><time>2026-04-24T10:52:19.192Z</time></trkpt><trkpt lat="45.5756334" lon="11.9375326"><ele>23.0</ele><time>2026-04-24T10:52:20.192Z</time></trkpt><trkpt lat="45.5756148" lon="11.9376243"><ele>23.0</ele><time>2026-04-24T10:52:21.191Z</time></trkpt><trkpt lat="45.575595" lon="11.9377151"><ele>23.0</ele><time>2026-04-24T10:52:22.191Z</time></trkpt><trkpt lat="45.5755737" lon="11.9378073"><ele>23.0</ele><time>2026-04-24T10:52:23.191Z</time></trkpt><trkpt lat="45.5755561" lon="11.9379012"><ele>23.0</ele><time>2026-04-24T10:52:24.192Z</time></trkpt><trkpt lat="45.5755226" lon="11.9380724"><ele>23.0</ele><time>2026-04-24T10:52:26.191Z</time></trkpt><trkpt lat="45.5754807" lon="11.9382268"><ele>23.0</ele><time>2026-04-24T10:52:28.191Z</time></trkpt><trkpt lat="45.5754516" lon="11.9383815"><ele>23.0</ele><time>2026-04-24T10:52:30.191Z</time></trkpt><trkpt lat="45.575425" lon="11.9385364"><ele>23.0</ele><time>2026-04-24T10:52:32.192Z</time></trkpt><trkpt lat="45.5753969" lon="11.9386917"><ele>23.0</ele><time>2026-04-24T10:52:34.192Z</time></trkpt><trkpt lat="45.5753699" lon="11.9388398"><ele>23.0</ele><time>2026-04-24T10:52:36.191Z</time></trkpt><trkpt lat="45.5753471" lon="11.9389739"><ele>22.666666666666668</ele><time>2026-04-24T10:52:38.192Z</time></trkpt><trkpt lat="45.5753294" lon="11.9390995"><ele>22.333333333333336</ele><time>2026-04-24T10:52:40.191Z</time></trkpt><trkpt lat="45.5753103" lon="11.9392226"><ele>22.0</ele><time>2026-04-24T10:52:42.191Z</time></trkpt><trkpt lat="45.5752885" lon="11.9393446"><ele>21.666666666666668</ele><time>2026-04-24T10:52:44.191Z</time></trkpt><trkpt lat="45.5752694" lon="11.9394628"><ele>21.333333333333332</ele><time>2026-04-24T10:52:46.192Z</time></trkpt><trkpt lat="45.5752547" lon="11.9395665"><ele>21.0</ele><time>2026-04-24T10:52:48.191Z</time></trkpt><trkpt lat="45.5752266" lon="11.9396872"><ele>21.0</ele><time>2026-04-24T10:52:51.191Z</time></trkpt><trkpt lat="45.5751681" lon="11.939759"><ele>21.0</ele><time>2026-04-24T10:52:54.191Z</time></trkpt><trkpt lat="45.5751049" lon="11.9398576"><ele>21.0</ele><time>2026-04-24T10:52:57.191Z</time></trkpt><trkpt lat="45.575031" lon="11.9399104"><ele>21.0</ele><time>2026-04-24T10:52:59.191Z</time></trkpt><trkpt lat="45.5749378" lon="11.9399227"><ele>21.0</ele><time>2026-04-24T10:53:01.191Z</time></trkpt><trkpt lat="45.5748511" lon="11.9399274"><ele>21.0</ele><time>2026-04-24T10:53:03.191Z</time></trkpt><trkpt lat="45.5747591" lon="11.9399193"><ele>21.0</ele><time>2026-04-24T10:53:05.191Z</time></trkpt><trkpt lat="45.5746542" lon="11.9399226"><ele>21.0</ele><time>2026-04-24T10:53:07.191Z</time></trkpt><trkpt lat="45.5745439" lon="11.9399125"><ele>21.0</ele><time>2026-04-24T10:53:09.191Z</time></trkpt><trkpt lat="45.5744271" lon="11.9399135"><ele>21.0</ele><time>2026-04-24T10:53:11.191Z</time></trkpt><trkpt lat="45.5743125" lon="11.9399157"><ele>21.0</ele><time>2026-04-24T10:53:13.191Z</time></trkpt><trkpt lat="45.5741971" lon="11.9399207"><ele>21.200000000000003</ele><time>2026-04-24T10:53:15.191Z</time></trkpt><trkpt lat="45.5740753" lon="11.9399285"><ele>21.400000000000002</ele><time>2026-04-24T10:53:17.191Z</time></trkpt><trkpt lat="45.5740111" lon="11.9399268"><ele>21.6</ele><time>2026-04-24T10:53:18.191Z</time></trkpt><trkpt lat="45.5739468" lon="11.9399229"><ele>21.8</ele><time>2026-04-24T10:53:19.191Z</time></trkpt><trkpt lat="45.5738297" lon="11.9399247"><ele>22.0</ele><time>2026-04-24T10:53:21.191Z</time></trkpt><trkpt lat="45.5737075" lon="11.9399217"><ele>22.0</ele><time>2026-04-24T10:53:23.191Z</time></trkpt><trkpt lat="45.5735854" lon="11.9399212"><ele>22.0</ele><time>2026-04-24T10:53:25.191Z</time></trkpt><trkpt lat="45.5734612" lon="11.9399243"><ele>22.0</ele><time>2026-04-24T10:53:27.191Z</time></trkpt><trkpt lat="45.5733406" lon="11.9399303"><ele>22.0</ele><time>2026-04-24T10:53:29.191Z</time></trkpt><trkpt lat="45.5732232" lon="11.9399422"><ele>22.0</ele><time>2026-04-24T10:53:31.191Z</time></trkpt><trkpt lat="45.5731006" lon="11.9399455"><ele>22.0</ele><time>2026-04-24T10:53:33.191Z</time></trkpt><trkpt lat="45.5730363" lon="11.9399451"><ele>22.0</ele><time>2026-04-24T10:53:34.192Z</time></trkpt><trkpt lat="45.5729182" lon="11.9399455"><ele>22.0</ele><time>2026-04-24T10:53:36.192Z</time></trkpt><trkpt lat="45.5727934" lon="11.9399486"><ele>22.0</ele><time>2026-04-24T10:53:38.191Z</time></trkpt><trkpt lat="45.5727284" lon="11.939953"><ele>21.833333333333332</ele><time>2026-04-24T10:53:39.191Z</time></trkpt><trkpt lat="45.5726033" lon="11.9399579"><ele>21.666666666666664</ele><time>2026-04-24T10:53:41.192Z</time></trkpt><trkpt lat="45.5724781" lon="11.9399586"><ele>21.5</ele><time>2026-04-24T10:53:43.191Z</time></trkpt><trkpt lat="45.5724131" lon="11.939956"><ele>21.333333333333332</ele><time>2026-04-24T10:53:44.191Z</time></trkpt><trkpt lat="45.5723472" lon="11.9399564"><ele>21.166666666666668</ele><time>2026-04-24T10:53:45.191Z</time></trkpt><trkpt lat="45.5722815" lon="11.939959"><ele>21.0</ele><time>2026-04-24T10:53:46.191Z</time></trkpt><trkpt lat="45.572158" lon="11.9399609"><ele>21.0</ele><time>2026-04-24T10:53:48.191Z</time></trkpt><trkpt lat="45.572095" lon="11.9399624"><ele>21.0</ele><time>2026-04-24T10:53:49.192Z</time></trkpt><trkpt lat="45.5720297" lon="11.9399659"><ele>21.0</ele><time>2026-04-24T10:53:50.192Z</time></trkpt><trkpt lat="45.5719072" lon="11.9399696"><ele>21.0</ele><time>2026-04-24T10:53:52.191Z</time></trkpt><trkpt lat="45.5717828" lon="11.9399791"><ele>21.0</ele><time>2026-04-24T10:53:54.19Z</time></trkpt><trkpt lat="45.5717192" lon="11.9399813"><ele>21.0</ele><time>2026-04-24T10:53:55.191Z</time></trkpt><trkpt lat="45.5716552" lon="11.9399854"><ele>20.833333333333332</ele><time>2026-04-24T10:53:56.19Z</time></trkpt><trkpt lat="45.5715277" lon="11.9399942"><ele>20.666666666666668</ele><time>2026-04-24T10:53:58.19Z</time></trkpt><trkpt lat="45.5714615" lon="11.9399966"><ele>20.5</ele><time>2026-04-24T10:53:59.19Z</time></trkpt><trkpt lat="45.5713946" lon="11.9399973"><ele>20.333333333333336</ele><time>2026-04-24T10:54:00.19Z</time></trkpt><trkpt lat="45.5713273" lon="11.9399992"><ele>20.166666666666668</ele><time>2026-04-24T10:54:01.19Z</time></trkpt><trkpt lat="45.5712634" lon="11.9400007"><ele>20.0</ele><time>2026-04-24T10:54:02.191Z</time></trkpt><trkpt lat="45.571143" lon="11.9400055"><ele>20.0</ele><time>2026-04-24T10:54:04.19Z</time></trkpt><trkpt lat="45.5710798" lon="11.9400113"><ele>20.0</ele><time>2026-04-24T10:54:05.19Z</time></trkpt><trkpt lat="45.5709599" lon="11.940018"><ele>20.0</ele><time>2026-04-24T10:54:07.19Z</time></trkpt><trkpt lat="45.5708949" lon="11.9400181"><ele>20.0</ele><time>2026-04-24T10:54:08.19Z</time></trkpt><trkpt lat="45.5708292" lon="11.9400219"><ele>20.0</ele><time>2026-04-24T10:54:09.19Z</time></trkpt><trkpt lat="45.5707605" lon="11.9400294"><ele>20.0</ele><time>2026-04-24T10:54:10.19Z</time></trkpt><trkpt lat="45.5706346" lon="11.9400232"><ele>20.0</ele><time>2026-04-24T10:54:12.19Z</time></trkpt><trkpt lat="45.5705706" lon="11.9400211"><ele>20.0</ele><time>2026-04-24T10:54:13.191Z</time></trkpt><trkpt lat="45.5704435" lon="11.9400108"><ele>20.0</ele><time>2026-04-24T10:54:15.19Z</time></trkpt><trkpt lat="45.5703769" lon="11.9400095"><ele>20.0</ele><time>2026-04-24T10:54:16.19Z</time></trkpt><trkpt lat="45.5703132" lon="11.9400041"><ele>20.0</ele><time>2026-04-24T10:54:17.19Z</time></trkpt><trkpt lat="45.5701941" lon="11.9399906"><ele>20.0</ele><time>2026-04-24T10:54:19.19Z</time></trkpt><trkpt lat="45.5700702" lon="11.9399697"><ele>19.833333333333336</ele><time>2026-04-24T10:54:21.19Z</time></trkpt><trkpt lat="45.5699451" lon="11.9399518"><ele>19.666666666666668</ele><time>2026-04-24T10:54:23.19Z</time></trkpt><trkpt lat="45.5698826" lon="11.939938"><ele>19.5</ele><time>2026-04-24T10:54:24.19Z</time></trkpt><trkpt lat="45.5698195" lon="11.9399274"><ele>19.333333333333332</ele><time>2026-04-24T10:54:25.19Z</time></trkpt><trkpt lat="45.5697548" lon="11.9399108"><ele>19.166666666666664</ele><time>2026-04-24T10:54:26.19Z</time></trkpt><trkpt lat="45.5696328" lon="11.9398738"><ele>19.0</ele><time>2026-04-24T10:54:28.19Z</time></trkpt><trkpt lat="45.5695172" lon="11.9398342"><ele>19.6</ele><time>2026-04-24T10:54:30.191Z</time></trkpt><trkpt lat="45.5694065" lon="11.9397786"><ele>20.2</ele><time>2026-04-24T10:54:32.191Z</time></trkpt><trkpt lat="45.5692929" lon="11.9397183"><ele>20.8</ele><time>2026-04-24T10:54:34.19Z</time></trkpt><trkpt lat="45.5691997" lon="11.9396782"><ele>21.400000000000002</ele><time>2026-04-24T10:54:36.19Z</time></trkpt><trkpt lat="45.5691123" lon="11.9396325"><ele>22.0</ele><time>2026-04-24T10:54:38.19Z</time></trkpt><trkpt lat="45.5690322" lon="11.939573"><ele>22.0</ele><time>2026-04-24T10:54:40.19Z</time></trkpt><trkpt lat="45.5689433" lon="11.9395418"><ele>22.0</ele><time>2026-04-24T10:54:42.19Z</time></trkpt><trkpt lat="45.5688543" lon="11.9395223"><ele>22.0</ele><time>2026-04-24T10:54:44.191Z</time></trkpt><trkpt lat="45.5687573" lon="11.9394746"><ele>22.0</ele><time>2026-04-24T10:54:46.19Z</time></trkpt><trkpt lat="45.5686498" lon="11.9394311"><ele>22.0</ele><time>2026-04-24T10:54:48.19Z</time></trkpt><trkpt lat="45.5685458" lon="11.9393711"><ele>22.0</ele><time>2026-04-24T10:54:50.19Z</time></trkpt><trkpt lat="45.5684333" lon="11.9393221"><ele>22.0</ele><time>2026-04-24T10:54:52.19Z</time></trkpt><trkpt lat="45.5683248" lon="11.9392748"><ele>22.0</ele><time>2026-04-24T10:54:54.19Z</time></trkpt><trkpt lat="45.568213" lon="11.9392263"><ele>22.0</ele><time>2026-04-24T10:54:56.19Z</time></trkpt><trkpt lat="45.5680964" lon="11.9391721"><ele>22.0</ele><time>2026-04-24T10:54:58.19Z</time></trkpt><trkpt lat="45.5679796" lon="11.9391212"><ele>22.0</ele><time>2026-04-24T10:55:00.191Z</time></trkpt><trkpt lat="45.5678646" lon="11.939071"><ele>22.0</ele><time>2026-04-24T10:55:02.19Z</time></trkpt><trkpt lat="45.5677503" lon="11.9390243"><ele>22.0</ele><time>2026-04-24T10:55:04.19Z</time></trkpt><trkpt lat="45.5676879" lon="11.9389973"><ele>22.0</ele><time>2026-04-24T10:55:05.19Z</time></trkpt><trkpt lat="45.5675687" lon="11.9389435"><ele>22.0</ele><time>2026-04-24T10:55:07.19Z</time></trkpt><trkpt lat="45.5674492" lon="11.938892"><ele>22.0</ele><time>2026-04-24T10:55:09.191Z</time></trkpt><trkpt lat="45.5673349" lon="11.9388369"><ele>22.0</ele><time>2026-04-24T10:55:11.19Z</time></trkpt><trkpt lat="45.5672731" lon="11.9388116"><ele>22.0</ele><time>2026-04-24T10:55:12.19Z</time></trkpt><trkpt lat="45.5672113" lon="11.9387837"><ele>22.0</ele><time>2026-04-24T10:55:13.19Z</time></trkpt><trkpt lat="45.5671503" lon="11.9387505"><ele>22.0</ele><time>2026-04-24T10:55:14.19Z</time></trkpt><trkpt lat="45.5670889" lon="11.9387259"><ele>22.0</ele><time>2026-04-24T10:55:15.19Z</time></trkpt><trkpt lat="45.5669788" lon="11.9386705"><ele>22.0</ele><time>2026-04-24T10:55:17.19Z</time></trkpt><trkpt lat="45.5668668" lon="11.9386173"><ele>22.0</ele><time>2026-04-24T10:55:19.19Z</time></trkpt><trkpt lat="45.5667502" lon="11.9385668"><ele>22.0</ele><time>2026-04-24T10:55:21.19Z</time></trkpt><trkpt lat="45.5666343" lon="11.9385148"><ele>22.0</ele><time>2026-04-24T10:55:23.19Z</time></trkpt><trkpt lat="45.5665742" lon="11.9384859"><ele>22.0</ele><time>2026-04-24T10:55:24.19Z</time></trkpt><trkpt lat="45.5664567" lon="11.9384336"><ele>22.0</ele><time>2026-04-24T10:55:26.19Z</time></trkpt><trkpt lat="45.566396" lon="11.9384051"><ele>22.0</ele><time>2026-04-24T10:55:27.19Z</time></trkpt><trkpt lat="45.5663336" lon="11.9383748"><ele>22.0</ele><time>2026-04-24T10:55:28.19Z</time></trkpt><trkpt lat="45.5662168" lon="11.9383218"><ele>22.0</ele><time>2026-04-24T10:55:30.19Z</time></trkpt><trkpt lat="45.5661073" lon="11.9382725"><ele>21.75</ele><time>2026-04-24T10:55:32.19Z</time></trkpt><trkpt lat="45.565997" lon="11.9382276"><ele>21.5</ele><time>2026-04-24T10:55:34.19Z</time></trkpt><trkpt lat="45.5658847" lon="11.9381726"><ele>21.25</ele><time>2026-04-24T10:55:36.191Z</time></trkpt><trkpt lat="45.565771" lon="11.9381182"><ele>21.0</ele><time>2026-04-24T10:55:38.19Z</time></trkpt><trkpt lat="45.5656559" lon="11.9380598"><ele>21.0</ele><time>2026-04-24T10:55:40.19Z</time></trkpt><trkpt lat="45.5655358" lon="11.9380108"><ele>21.0</ele><time>2026-04-24T10:55:42.19Z</time></trkpt><trkpt lat="45.5654154" lon="11.9379607"><ele>21.0</ele><time>2026-04-24T10:55:44.19Z</time></trkpt><trkpt lat="45.5652996" lon="11.9379119"><ele>21.0</ele><time>2026-04-24T10:55:46.19Z</time></trkpt><trkpt lat="45.5651872" lon="11.9378614"><ele>20.75</ele><time>2026-04-24T10:55:48.19Z</time></trkpt><trkpt lat="45.5650701" lon="11.9378082"><ele>20.5</ele><time>2026-04-24T10:55:50.19Z</time></trkpt><trkpt lat="45.5649538" lon="11.9377553"><ele>20.25</ele><time>2026-04-24T10:55:52.191Z</time></trkpt><trkpt lat="45.5648418" lon="11.9376994"><ele>20.0</ele><time>2026-04-24T10:55:54.19Z</time></trkpt><trkpt lat="45.5647306" lon="11.9376457"><ele>20.0</ele><time>2026-04-24T10:55:56.19Z</time></trkpt><trkpt lat="45.5646187" lon="11.9375939"><ele>20.0</ele><time>2026-04-24T10:55:58.19Z</time></trkpt><trkpt lat="45.5645042" lon="11.9375454"><ele>20.0</ele><time>2026-04-24T10:56:00.19Z</time></trkpt><trkpt lat="45.564387" lon="11.9374924"><ele>20.0</ele><time>2026-04-24T10:56:02.19Z</time></trkpt><trkpt lat="45.564274" lon="11.9374418"><ele>20.4</ele><time>2026-04-24T10:56:04.191Z</time></trkpt><trkpt lat="45.5641692" lon="11.9373982"><ele>20.8</ele><time>2026-04-24T10:56:06.191Z</time></trkpt><trkpt lat="45.5640678" lon="11.9373544"><ele>21.200000000000003</ele><time>2026-04-24T10:56:08.19Z</time></trkpt><trkpt lat="45.5639605" lon="11.9373032"><ele>21.6</ele><time>2026-04-24T10:56:10.19Z</time></trkpt><trkpt lat="45.5638502" lon="11.9372545"><ele>22.0</ele><time>2026-04-24T10:56:12.19Z</time></trkpt><trkpt lat="45.5637624" lon="11.9372168"><ele>22.0</ele><time>2026-04-24T10:56:14.19Z</time></trkpt><trkpt lat="45.5636749" lon="11.9371754"><ele>22.0</ele><time>2026-04-24T10:56:16.19Z</time></trkpt><trkpt lat="45.5635787" lon="11.9371343"><ele>22.0</ele><time>2026-04-24T10:56:18.19Z</time></trkpt><trkpt lat="45.5634792" lon="11.9370908"><ele>22.0</ele><time>2026-04-24T10:56:20.19Z</time></trkpt><trkpt lat="45.5633942" lon="11.9370505"><ele>22.0</ele><time>2026-04-24T10:56:22.191Z</time></trkpt><trkpt lat="45.5633172" lon="11.9370185"><ele>22.0</ele><time>2026-04-24T10:56:24.19Z</time></trkpt><trkpt lat="45.5632514" lon="11.9369856"><ele>22.0</ele><time>2026-04-24T10:56:26.19Z</time></trkpt><trkpt lat="45.5631718" lon="11.9369418"><ele>22.0</ele><time>2026-04-24T10:56:29.19Z</time></trkpt><trkpt lat="45.5630975" lon="11.9369"><ele>22.0</ele><time>2026-04-24T10:56:46.19Z</time></trkpt><trkpt lat="45.5630015" lon="11.9368681"><ele>22.0</ele><time>2026-04-24T10:56:49.19Z</time></trkpt><trkpt lat="45.562935" lon="11.9368369"><ele>22.0</ele><time>2026-04-24T10:56:51.19Z</time></trkpt><trkpt lat="45.5628498" lon="11.9368092"><ele>22.0</ele><time>2026-04-24T10:56:53.191Z</time></trkpt><trkpt lat="45.5627595" lon="11.9367593"><ele>22.0</ele><time>2026-04-24T10:56:55.19Z</time></trkpt><trkpt lat="45.5626693" lon="11.9367239"><ele>22.0</ele><time>2026-04-24T10:56:57.19Z</time></trkpt><trkpt lat="45.5625733" lon="11.936678"><ele>22.0</ele><time>2026-04-24T10:56:59.19Z</time></trkpt><trkpt lat="45.5624732" lon="11.9366336"><ele>22.0</ele><time>2026-04-24T10:57:01.191Z</time></trkpt><trkpt lat="45.5623696" lon="11.9365849"><ele>22.25</ele><time>2026-04-24T10:57:03.19Z</time></trkpt><trkpt lat="45.5622559" lon="11.9365315"><ele>22.5</ele><time>2026-04-24T10:57:05.19Z</time></trkpt><trkpt lat="45.5621364" lon="11.9364798"><ele>22.75</ele><time>2026-04-24T10:57:07.19Z</time></trkpt><trkpt lat="45.5620176" lon="11.9364296"><ele>23.0</ele><time>2026-04-24T10:57:09.19Z</time></trkpt><trkpt lat="45.5619099" lon="11.9363801"><ele>23.0</ele><time>2026-04-24T10:57:11.191Z</time></trkpt><trkpt lat="45.5617917" lon="11.9363277"><ele>23.0</ele><time>2026-04-24T10:57:13.19Z</time></trkpt><trkpt lat="45.5616757" lon="11.9362763"><ele>23.0</ele><time>2026-04-24T10:57:15.19Z</time></trkpt><trkpt lat="45.5616162" lon="11.936245"><ele>23.0</ele><time>2026-04-24T10:57:16.19Z</time></trkpt><trkpt lat="45.5615536" lon="11.936217"><ele>23.0</ele><time>2026-04-24T10:57:17.19Z</time></trkpt><trkpt lat="45.5614364" lon="11.9361643"><ele>23.0</ele><time>2026-04-24T10:57:19.19Z</time></trkpt><trkpt lat="45.5613179" lon="11.9361071"><ele>23.0</ele><time>2026-04-24T10:57:21.19Z</time></trkpt><trkpt lat="45.5611966" lon="11.9360576"><ele>23.0</ele><time>2026-04-24T10:57:23.19Z</time></trkpt><trkpt lat="45.5610791" lon="11.9360009"><ele>23.0</ele><time>2026-04-24T10:57:25.19Z</time></trkpt><trkpt lat="45.5610183" lon="11.9359697"><ele>23.0</ele><time>2026-04-24T10:57:26.191Z</time></trkpt><trkpt lat="45.560955" lon="11.9359455"><ele>22.799999999999997</ele><time>2026-04-24T10:57:27.189Z</time></trkpt><trkpt lat="45.5608937" lon="11.9359201"><ele>22.6</ele><time>2026-04-24T10:57:28.189Z</time></trkpt><trkpt lat="45.560781" lon="11.9358656"><ele>22.4</ele><time>2026-04-24T10:57:30.189Z</time></trkpt><trkpt lat="45.5606646" lon="11.9358185"><ele>22.200000000000003</ele><time>2026-04-24T10:57:32.189Z</time></trkpt><trkpt lat="45.5605501" lon="11.9357679"><ele>22.0</ele><time>2026-04-24T10:57:34.189Z</time></trkpt><trkpt lat="45.5604861" lon="11.9357379"><ele>22.0</ele><time>2026-04-24T10:57:35.189Z</time></trkpt><trkpt lat="45.5604196" lon="11.9357021"><ele>22.0</ele><time>2026-04-24T10:57:36.189Z</time></trkpt><trkpt lat="45.560353" lon="11.935673"><ele>22.0</ele><time>2026-04-24T10:57:37.19Z</time></trkpt><trkpt lat="45.5602871" lon="11.935649"><ele>22.0</ele><time>2026-04-24T10:57:38.19Z</time></trkpt><trkpt lat="45.5602197" lon="11.935618"><ele>22.0</ele><time>2026-04-24T10:57:39.189Z</time></trkpt><trkpt lat="45.5601462" lon="11.935594"><ele>22.0</ele><time>2026-04-24T10:57:40.189Z</time></trkpt><trkpt lat="45.560076" lon="11.9355646"><ele>22.0</ele><time>2026-04-24T10:57:41.189Z</time></trkpt><trkpt lat="45.5600064" lon="11.9355343"><ele>21.714285714285715</ele><time>2026-04-24T10:57:42.189Z</time></trkpt><trkpt lat="45.5599382" lon="11.935497"><ele>21.428571428571427</ele><time>2026-04-24T10:57:43.189Z</time></trkpt><trkpt lat="45.5598707" lon="11.9354655"><ele>21.142857142857142</ele><time>2026-04-24T10:57:44.189Z</time></trkpt><trkpt lat="45.5598028" lon="11.9354352"><ele>20.857142857142858</ele><time>2026-04-24T10:57:45.19Z</time></trkpt><trkpt lat="45.5597335" lon="11.9354145"><ele>20.571428571428573</ele><time>2026-04-24T10:57:46.189Z</time></trkpt><trkpt lat="45.5596647" lon="11.9353898"><ele>20.285714285714285</ele><time>2026-04-24T10:57:47.189Z</time></trkpt><trkpt lat="45.5595921" lon="11.9353586"><ele>20.0</ele><time>2026-04-24T10:57:48.189Z</time></trkpt><trkpt lat="45.5595211" lon="11.9353285"><ele>20.0</ele><time>2026-04-24T10:57:49.189Z</time></trkpt><trkpt lat="45.5594493" lon="11.9352996"><ele>20.0</ele><time>2026-04-24T10:57:50.189Z</time></trkpt><trkpt lat="45.5593819" lon="11.9352674"><ele>20.0</ele><time>2026-04-24T10:57:51.19Z</time></trkpt><trkpt lat="45.5593137" lon="11.9352389"><ele>20.0</ele><time>2026-04-24T10:57:52.19Z</time></trkpt><trkpt lat="45.5592442" lon="11.9352114"><ele>20.0</ele><time>2026-04-24T10:57:53.189Z</time></trkpt><trkpt lat="45.5591755" lon="11.9351813"><ele>20.0</ele><time>2026-04-24T10:57:54.189Z</time></trkpt><trkpt lat="45.5591099" lon="11.935149"><ele>20.0</ele><time>2026-04-24T10:57:55.19Z</time></trkpt><trkpt lat="45.5590499" lon="11.9351193"><ele>20.0</ele><time>2026-04-24T10:57:56.19Z</time></trkpt><trkpt lat="45.5589873" lon="11.9350948"><ele>20.0</ele><time>2026-04-24T10:57:57.189Z</time></trkpt><trkpt lat="45.5589224" lon="11.9350658"><ele>20.0</ele><time>2026-04-24T10:57:58.189Z</time></trkpt><trkpt lat="45.5588541" lon="11.9350339"><ele>20.0</ele><time>2026-04-24T10:57:59.19Z</time></trkpt><trkpt lat="45.5587882" lon="11.9350012"><ele>20.0</ele><time>2026-04-24T10:58:00.189Z</time></trkpt><trkpt lat="45.5587219" lon="11.9349721"><ele>20.0</ele><time>2026-04-24T10:58:01.189Z</time></trkpt><trkpt lat="45.5586591" lon="11.93495"><ele>20.0</ele><time>2026-04-24T10:58:02.189Z</time></trkpt><trkpt lat="45.5585387" lon="11.9349036"><ele>20.0</ele><time>2026-04-24T10:58:04.189Z</time></trkpt><trkpt lat="45.5584777" lon="11.9348723"><ele>20.0</ele><time>2026-04-24T10:58:05.189Z</time></trkpt><trkpt lat="45.5583665" lon="11.9348275"><ele>20.0</ele><time>2026-04-24T10:58:07.189Z</time></trkpt><trkpt lat="45.5582537" lon="11.9347728"><ele>20.0</ele><time>2026-04-24T10:58:09.189Z</time></trkpt><trkpt lat="45.5581345" lon="11.9347122"><ele>20.0</ele><time>2026-04-24T10:58:11.189Z</time></trkpt><trkpt lat="45.5580747" lon="11.9346815"><ele>20.0</ele><time>2026-04-24T10:58:12.19Z</time></trkpt><trkpt lat="45.5579553" lon="11.9346325"><ele>20.0</ele><time>2026-04-24T10:58:14.189Z</time></trkpt><trkpt lat="45.5578931" lon="11.9346137"><ele>20.0</ele><time>2026-04-24T10:58:15.189Z</time></trkpt><trkpt lat="45.5577749" lon="11.934565"><ele>20.0</ele><time>2026-04-24T10:58:17.19Z</time></trkpt><trkpt lat="45.5577134" lon="11.9345416"><ele>20.0</ele><time>2026-04-24T10:58:18.189Z</time></trkpt><trkpt lat="45.5576507" lon="11.9345132"><ele>20.0</ele><time>2026-04-24T10:58:19.189Z</time></trkpt><trkpt lat="45.557587" lon="11.9344824"><ele>19.833333333333336</ele><time>2026-04-24T10:58:20.189Z</time></trkpt><trkpt lat="45.5575252" lon="11.93445"><ele>19.666666666666668</ele><time>2026-04-24T10:58:21.189Z</time></trkpt><trkpt lat="45.5574637" lon="11.9344183"><ele>19.5</ele><time>2026-04-24T10:58:22.189Z</time></trkpt><trkpt lat="45.557345" lon="11.9343611"><ele>19.333333333333332</ele><time>2026-04-24T10:58:24.189Z</time></trkpt><trkpt lat="45.5572842" lon="11.9343367"><ele>19.166666666666664</ele><time>2026-04-24T10:58:25.189Z</time></trkpt><trkpt lat="45.5571667" lon="11.9342786"><ele>19.0</ele><time>2026-04-24T10:58:27.19Z</time></trkpt><trkpt lat="45.5570487" lon="11.9342277"><ele>19.142857142857142</ele><time>2026-04-24T10:58:29.189Z</time></trkpt><trkpt lat="45.5569884" lon="11.9341983"><ele>19.28571428571429</ele><time>2026-04-24T10:58:30.189Z</time></trkpt><trkpt lat="45.5569286" lon="11.9341676"><ele>19.42857142857143</ele><time>2026-04-24T10:58:31.189Z</time></trkpt><trkpt lat="45.556868" lon="11.9341385"><ele>19.57142857142857</ele><time>2026-04-24T10:58:32.189Z</time></trkpt><trkpt lat="45.556805" lon="11.9341101"><ele>19.714285714285715</ele><time>2026-04-24T10:58:33.189Z</time></trkpt><trkpt lat="45.5567403" lon="11.9340848"><ele>19.857142857142858</ele><time>2026-04-24T10:58:34.189Z</time></trkpt><trkpt lat="45.5566789" lon="11.9340541"><ele>20.0</ele><time>2026-04-24T10:58:35.189Z</time></trkpt><trkpt lat="45.5566163" lon="11.9340258"><ele>20.0</ele><time>2026-04-24T10:58:36.19Z</time></trkpt><trkpt lat="45.5564953" lon="11.9339789"><ele>20.0</ele><time>2026-04-24T10:58:38.189Z</time></trkpt><trkpt lat="45.5564326" lon="11.9339507"><ele>20.0</ele><time>2026-04-24T10:58:39.19Z</time></trkpt><trkpt lat="45.5563227" lon="11.9338952"><ele>20.0</ele><time>2026-04-24T10:58:41.189Z</time></trkpt><trkpt lat="45.5562237" lon="11.9338532"><ele>20.0</ele><time>2026-04-24T10:58:43.19Z</time></trkpt><trkpt lat="45.556129" lon="11.9338075"><ele>20.4</ele><time>2026-04-24T10:58:45.189Z</time></trkpt><trkpt lat="45.5560207" lon="11.9337511"><ele>20.8</ele><time>2026-04-24T10:58:47.19Z</time></trkpt><trkpt lat="45.5559605" lon="11.9337087"><ele>21.200000000000003</ele><time>2026-04-24T10:58:48.189Z</time></trkpt><trkpt lat="45.5558983" lon="11.9336787"><ele>21.6</ele><time>2026-04-24T10:58:49.189Z</time></trkpt><trkpt lat="45.5557855" lon="11.9336267"><ele>22.0</ele><time>2026-04-24T10:58:51.189Z</time></trkpt><trkpt lat="45.5556739" lon="11.9335719"><ele>22.0</ele><time>2026-04-24T10:58:53.189Z</time></trkpt><trkpt lat="45.5555566" lon="11.9335232"><ele>22.0</ele><time>2026-04-24T10:58:55.189Z</time></trkpt><trkpt lat="45.5554463" lon="11.9334753"><ele>22.0</ele><time>2026-04-24T10:58:57.19Z</time></trkpt><trkpt lat="45.5553396" lon="11.9334295"><ele>22.0</ele><time>2026-04-24T10:58:59.189Z</time></trkpt><trkpt lat="45.5552364" lon="11.9333807"><ele>21.833333333333332</ele><time>2026-04-24T10:59:01.189Z</time></trkpt><trkpt lat="45.5551319" lon="11.9333373"><ele>21.666666666666664</ele><time>2026-04-24T10:59:03.189Z</time></trkpt><trkpt lat="45.5550499" lon="11.9332793"><ele>21.5</ele><time>2026-04-24T10:59:05.189Z</time></trkpt><trkpt lat="45.5549887" lon="11.9332439"><ele>21.333333333333332</ele><time>2026-04-24T10:59:07.19Z</time></trkpt><trkpt lat="45.5549162" lon="11.9331928"><ele>21.166666666666668</ele><time>2026-04-24T10:59:10.189Z</time></trkpt><trkpt lat="45.5548471" lon="11.9331622"><ele>21.0</ele><time>2026-04-24T10:59:12.189Z</time></trkpt><trkpt lat="45.5547711" lon="11.9331422"><ele>21.0</ele><time>2026-04-24T10:59:14.189Z</time></trkpt><trkpt lat="45.5546714" lon="11.9331161"><ele>21.0</ele><time>2026-04-24T10:59:16.189Z</time></trkpt><trkpt lat="45.5545559" lon="11.9330622"><ele>21.0</ele><time>2026-04-24T10:59:18.189Z</time></trkpt><trkpt lat="45.5544367" lon="11.933003"><ele>21.0</ele><time>2026-04-24T10:59:20.189Z</time></trkpt><trkpt lat="45.5543742" lon="11.932968"><ele>21.0</ele><time>2026-04-24T10:59:21.189Z</time></trkpt><trkpt lat="45.5542515" lon="11.9329202"><ele>20.833333333333332</ele><time>2026-04-24T10:59:23.189Z</time></trkpt><trkpt lat="45.5541359" lon="11.9328663"><ele>20.666666666666668</ele><time>2026-04-24T10:59:25.189Z</time></trkpt><trkpt lat="45.5540228" lon="11.932816"><ele>20.5</ele><time>2026-04-24T10:59:27.189Z</time></trkpt><trkpt lat="45.5539601" lon="11.9327897"><ele>20.333333333333336</ele><time>2026-04-24T10:59:28.19Z</time></trkpt><trkpt lat="45.5539008" lon="11.9327545"><ele>20.166666666666668</ele><time>2026-04-24T10:59:29.189Z</time></trkpt><trkpt lat="45.5538325" lon="11.9327219"><ele>20.0</ele><time>2026-04-24T10:59:30.189Z</time></trkpt><trkpt lat="45.5537713" lon="11.9326944"><ele>20.0</ele><time>2026-04-24T10:59:31.189Z</time></trkpt><trkpt lat="45.5537076" lon="11.9326615"><ele>20.0</ele><time>2026-04-24T10:59:32.189Z</time></trkpt><trkpt lat="45.5536453" lon="11.9326326"><ele>20.0</ele><time>2026-04-24T10:59:33.189Z</time></trkpt><trkpt lat="45.5535817" lon="11.9325996"><ele>20.0</ele><time>2026-04-24T10:59:34.19Z</time></trkpt><trkpt lat="45.5535202" lon="11.9325695"><ele>20.0</ele><time>2026-04-24T10:59:35.189Z</time></trkpt><trkpt lat="45.553457" lon="11.9325439"><ele>20.0</ele><time>2026-04-24T10:59:36.189Z</time></trkpt><trkpt lat="45.5533328" lon="11.9324996"><ele>20.166666666666668</ele><time>2026-04-24T10:59:38.189Z</time></trkpt><trkpt lat="45.5532715" lon="11.9324758"><ele>20.333333333333336</ele><time>2026-04-24T10:59:39.189Z</time></trkpt><trkpt lat="45.5532123" lon="11.9324445"><ele>20.5</ele><time>2026-04-24T10:59:40.189Z</time></trkpt><trkpt lat="45.5530978" lon="11.9323904"><ele>20.666666666666668</ele><time>2026-04-24T10:59:42.189Z</time></trkpt><trkpt lat="45.552981" lon="11.9323354"><ele>20.833333333333332</ele><time>2026-04-24T10:59:44.189Z</time></trkpt><trkpt lat="45.5529212" lon="11.932307"><ele>21.0</ele><time>2026-04-24T10:59:45.189Z</time></trkpt><trkpt lat="45.5528581" lon="11.9322846"><ele>21.25</ele><time>2026-04-24T10:59:46.189Z</time></trkpt><trkpt lat="45.5527396" lon="11.9322344"><ele>21.5</ele><time>2026-04-24T10:59:48.189Z</time></trkpt><trkpt lat="45.5526245" lon="11.9321759"><ele>21.75</ele><time>2026-04-24T10:59:50.19Z</time></trkpt><trkpt lat="45.5525177" lon="11.9321171"><ele>22.0</ele><time>2026-04-24T10:59:52.189Z</time></trkpt><trkpt lat="45.5524122" lon="11.9320672"><ele>22.0</ele><time>2026-04-24T10:59:54.189Z</time></trkpt><trkpt lat="45.5523023" lon="11.9320299"><ele>22.0</ele><time>2026-04-24T10:59:56.19Z</time></trkpt><trkpt lat="45.5522077" lon="11.9319878"><ele>22.0</ele><time>2026-04-24T10:59:58.189Z</time></trkpt><trkpt lat="45.552112" lon="11.931935"><ele>22.0</ele><time>2026-04-24T11:00:00.189Z</time></trkpt><trkpt lat="45.5520198" lon="11.9318827"><ele>22.0</ele><time>2026-04-24T11:00:02.189Z</time></trkpt><trkpt lat="45.551958" lon="11.9318475"><ele>21.857142857142858</ele><time>2026-04-24T11:00:04.189Z</time></trkpt><trkpt lat="45.5518833" lon="11.9318276"><ele>21.714285714285715</ele><time>2026-04-24T11:00:16.19Z</time></trkpt><trkpt lat="45.5518149" lon="11.9318342"><ele>21.57142857142857</ele><time>2026-04-24T11:00:19.189Z</time></trkpt><trkpt lat="45.5517834" lon="11.9319291"><ele>21.42857142857143</ele><time>2026-04-24T11:00:22.189Z</time></trkpt><trkpt lat="45.5517671" lon="11.932018"><ele>21.285714285714285</ele><time>2026-04-24T11:00:24.189Z</time></trkpt><trkpt lat="45.5517078" lon="11.9321101"><ele>21.142857142857142</ele><time>2026-04-24T11:00:27.19Z</time></trkpt><trkpt lat="45.5516416" lon="11.9320699"><ele>21.0</ele><time>2026-04-24T11:00:29.189Z</time></trkpt><trkpt lat="45.5515594" lon="11.9320387"><ele>21.0</ele><time>2026-04-24T11:00:31.189Z</time></trkpt><trkpt lat="45.5514642" lon="11.9320216"><ele>21.0</ele><time>2026-04-24T11:00:33.189Z</time></trkpt><trkpt lat="45.5513716" lon="11.9319957"><ele>21.0</ele><time>2026-04-24T11:00:35.189Z</time></trkpt><trkpt lat="45.5512787" lon="11.9319627"><ele>21.0</ele><time>2026-04-24T11:00:37.189Z</time></trkpt><trkpt lat="45.5511861" lon="11.9319244"><ele>21.0</ele><time>2026-04-24T11:00:39.189Z</time></trkpt><trkpt lat="45.5510992" lon="11.9318937"><ele>21.0</ele><time>2026-04-24T11:00:41.189Z</time></trkpt><trkpt lat="45.5510155" lon="11.9318605"><ele>21.0</ele><time>2026-04-24T11:00:43.189Z</time></trkpt><trkpt lat="45.5509281" lon="11.9318302"><ele>21.0</ele><time>2026-04-24T11:00:45.189Z</time></trkpt><trkpt lat="45.5508402" lon="11.931792"><ele>21.0</ele><time>2026-04-24T11:00:47.189Z</time></trkpt><trkpt lat="45.5507494" lon="11.9317482"><ele>21.0</ele><time>2026-04-24T11:00:49.189Z</time></trkpt><trkpt lat="45.5506625" lon="11.9317031"><ele>21.0</ele><time>2026-04-24T11:00:51.189Z</time></trkpt><trkpt lat="45.5505744" lon="11.9316619"><ele>21.0</ele><time>2026-04-24T11:00:53.19Z</time></trkpt><trkpt lat="45.5504786" lon="11.9316182"><ele>21.0</ele><time>2026-04-24T11:00:55.189Z</time></trkpt><trkpt lat="45.5503869" lon="11.931571"><ele>21.0</ele><time>2026-04-24T11:00:57.189Z</time></trkpt><trkpt lat="45.5502932" lon="11.9315207"><ele>21.0</ele><time>2026-04-24T11:00:59.188Z</time></trkpt><trkpt lat="45.5501987" lon="11.9314764"><ele>21.0</ele><time>2026-04-24T11:01:01.188Z</time></trkpt><trkpt lat="45.5501052" lon="11.9314299"><ele>21.0</ele><time>2026-04-24T11:01:03.188Z</time></trkpt><trkpt lat="45.5500123" lon="11.9313739"><ele>21.0</ele><time>2026-04-24T11:01:05.188Z</time></trkpt><trkpt lat="45.5499206" lon="11.9313221"><ele>21.0</ele><time>2026-04-24T11:01:07.188Z</time></trkpt><trkpt lat="45.5498211" lon="11.9312687"><ele>21.0</ele><time>2026-04-24T11:01:09.188Z</time></trkpt><trkpt lat="45.5497112" lon="11.9312066"><ele>21.0</ele><time>2026-04-24T11:01:11.188Z</time></trkpt><trkpt lat="45.5496532" lon="11.9311707"><ele>21.0</ele><time>2026-04-24T11:01:12.188Z</time></trkpt><trkpt lat="45.5495908" lon="11.931136"><ele>21.0</ele><time>2026-04-24T11:01:13.189Z</time></trkpt><trkpt lat="45.5495285" lon="11.9311062"><ele>21.0</ele><time>2026-04-24T11:01:14.188Z</time></trkpt><trkpt lat="45.5494646" lon="11.9310789"><ele>21.0</ele><time>2026-04-24T11:01:15.188Z</time></trkpt><trkpt lat="45.5494035" lon="11.9310406"><ele>21.0</ele><time>2026-04-24T11:01:16.188Z</time></trkpt><trkpt lat="45.5493369" lon="11.9310006"><ele>21.0</ele><time>2026-04-24T11:01:17.188Z</time></trkpt><trkpt lat="45.5492713" lon="11.9309705"><ele>20.857142857142858</ele><time>2026-04-24T11:01:18.188Z</time></trkpt><trkpt lat="45.5492065" lon="11.9309358"><ele>20.714285714285715</ele><time>2026-04-24T11:01:19.188Z</time></trkpt><trkpt lat="45.5491408" lon="11.9308995"><ele>20.57142857142857</ele><time>2026-04-24T11:01:20.188Z</time></trkpt><trkpt lat="45.5490783" lon="11.9308691"><ele>20.42857142857143</ele><time>2026-04-24T11:01:21.188Z</time></trkpt><trkpt lat="45.5490134" lon="11.9308335"><ele>20.285714285714285</ele><time>2026-04-24T11:01:22.189Z</time></trkpt><trkpt lat="45.5489461" lon="11.930799"><ele>20.142857142857142</ele><time>2026-04-24T11:01:23.189Z</time></trkpt><trkpt lat="45.5488756" lon="11.9307725"><ele>20.0</ele><time>2026-04-24T11:01:24.188Z</time></trkpt><trkpt lat="45.548808" lon="11.930741"><ele>20.0</ele><time>2026-04-24T11:01:25.189Z</time></trkpt><trkpt lat="45.5487401" lon="11.9307104"><ele>20.0</ele><time>2026-04-24T11:01:26.188Z</time></trkpt><trkpt lat="45.5486727" lon="11.9306794"><ele>20.0</ele><time>2026-04-24T11:01:27.188Z</time></trkpt><trkpt lat="45.5486057" lon="11.9306471"><ele>20.0</ele><time>2026-04-24T11:01:28.188Z</time></trkpt><trkpt lat="45.5485406" lon="11.9306177"><ele>20.0</ele><time>2026-04-24T11:01:29.188Z</time></trkpt><trkpt lat="45.548474" lon="11.9305889"><ele>20.0</ele><time>2026-04-24T11:01:30.188Z</time></trkpt><trkpt lat="45.5484022" lon="11.9305575"><ele>20.0</ele><time>2026-04-24T11:01:31.188Z</time></trkpt><trkpt lat="45.5483282" lon="11.9305358"><ele>20.0</ele><time>2026-04-24T11:01:32.189Z</time></trkpt><trkpt lat="45.5482553" lon="11.9305066"><ele>20.0</ele><time>2026-04-24T11:01:33.188Z</time></trkpt><trkpt lat="45.5481846" lon="11.9304747"><ele>20.0</ele><time>2026-04-24T11:01:34.188Z</time></trkpt><trkpt lat="45.5481163" lon="11.9304437"><ele>20.0</ele><time>2026-04-24T11:01:35.188Z</time></trkpt><trkpt lat="45.5480481" lon="11.9304129"><ele>20.0</ele><time>2026-04-24T11:01:36.188Z</time></trkpt><trkpt lat="45.5479771" lon="11.9303862"><ele>20.0</ele><time>2026-04-24T11:01:37.188Z</time></trkpt><trkpt lat="45.5479093" lon="11.9303571"><ele>20.0</ele><time>2026-04-24T11:01:38.188Z</time></trkpt><trkpt lat="45.5478426" lon="11.9303305"><ele>20.142857142857142</ele><time>2026-04-24T11:01:39.188Z</time></trkpt><trkpt lat="45.5477805" lon="11.9303033"><ele>20.285714285714285</ele><time>2026-04-24T11:01:40.188Z</time></trkpt><trkpt lat="45.5477186" lon="11.9302741"><ele>20.42857142857143</ele><time>2026-04-24T11:01:41.188Z</time></trkpt><trkpt lat="45.5476507" lon="11.9302519"><ele>20.57142857142857</ele><time>2026-04-24T11:01:42.189Z</time></trkpt><trkpt lat="45.5475837" lon="11.9302297"><ele>20.714285714285715</ele><time>2026-04-24T11:01:43.188Z</time></trkpt><trkpt lat="45.54752" lon="11.930201"><ele>20.857142857142858</ele><time>2026-04-24T11:01:44.189Z</time></trkpt><trkpt lat="45.5474554" lon="11.9301743"><ele>21.0</ele><time>2026-04-24T11:01:45.188Z</time></trkpt><trkpt lat="45.5473939" lon="11.9301536"><ele>21.0</ele><time>2026-04-24T11:01:46.188Z</time></trkpt><trkpt lat="45.5473286" lon="11.9301238"><ele>21.0</ele><time>2026-04-24T11:01:47.188Z</time></trkpt><trkpt lat="45.5472641" lon="11.9300966"><ele>21.0</ele><time>2026-04-24T11:01:48.188Z</time></trkpt><trkpt lat="45.5471973" lon="11.9300725"><ele>21.0</ele><time>2026-04-24T11:01:49.188Z</time></trkpt><trkpt lat="45.5471296" lon="11.9300404"><ele>21.0</ele><time>2026-04-24T11:01:50.188Z</time></trkpt><trkpt lat="45.5450179" lon="11.9290831"><ele>20.400000000000002</ele><time>2026-04-24T11:02:27.189Z</time></trkpt><trkpt lat="45.5449641" lon="11.9290329"><ele>19.8</ele><time>2026-04-24T11:02:28.189Z</time></trkpt><trkpt lat="45.5448986" lon="11.9290138"><ele>19.200000000000003</ele><time>2026-04-24T11:02:29.188Z</time></trkpt><trkpt lat="45.5447873" lon="11.9289722"><ele>18.6</ele><time>2026-04-24T11:02:31.188Z</time></trkpt><trkpt lat="45.544672" lon="11.9289262"><ele>18.0</ele><time>2026-04-24T11:02:33.188Z</time></trkpt><trkpt lat="45.5445591" lon="11.9288646"><ele>18.0</ele><time>2026-04-24T11:02:35.188Z</time></trkpt><trkpt lat="45.5444395" lon="11.9288102"><ele>18.0</ele><time>2026-04-24T11:02:37.189Z</time></trkpt><trkpt lat="45.5443221" lon="11.9287584"><ele>18.0</ele><time>2026-04-24T11:02:39.188Z</time></trkpt><trkpt lat="45.5442104" lon="11.9287122"><ele>18.0</ele><time>2026-04-24T11:02:41.188Z</time></trkpt><trkpt lat="45.5441035" lon="11.9286612"><ele>18.0</ele><time>2026-04-24T11:02:43.188Z</time></trkpt><trkpt lat="45.5440002" lon="11.9286148"><ele>18.0</ele><time>2026-04-24T11:02:45.188Z</time></trkpt><trkpt lat="45.5438912" lon="11.9285686"><ele>18.0</ele><time>2026-04-24T11:02:47.188Z</time></trkpt><trkpt lat="45.543783" lon="11.9285207"><ele>18.0</ele><time>2026-04-24T11:02:49.188Z</time></trkpt><trkpt lat="45.5436725" lon="11.9284733"><ele>18.166666666666668</ele><time>2026-04-24T11:02:51.188Z</time></trkpt><trkpt lat="45.5435628" lon="11.928424"><ele>18.333333333333332</ele><time>2026-04-24T11:02:53.188Z</time></trkpt><trkpt lat="45.5434414" lon="11.9283769"><ele>18.5</ele><time>2026-04-24T11:02:55.188Z</time></trkpt><trkpt lat="45.5433766" lon="11.9283567"><ele>18.666666666666664</ele><time>2026-04-24T11:02:56.188Z</time></trkpt><trkpt lat="45.5433138" lon="11.9283312"><ele>18.833333333333332</ele><time>2026-04-24T11:02:57.189Z</time></trkpt><trkpt lat="45.5432518" lon="11.9283104"><ele>19.0</ele><time>2026-04-24T11:02:58.189Z</time></trkpt><trkpt lat="45.5431884" lon="11.928296"><ele>19.0</ele><time>2026-04-24T11:02:59.189Z</time></trkpt><trkpt lat="45.5431241" lon="11.9282825"><ele>19.0</ele><time>2026-04-24T11:03:00.188Z</time></trkpt><trkpt lat="45.543056" lon="11.9282677"><ele>19.0</ele><time>2026-04-24T11:03:01.188Z</time></trkpt><trkpt lat="45.5429874" lon="11.9282478"><ele>19.0</ele><time>2026-04-24T11:03:02.188Z</time></trkpt><trkpt lat="45.5429211" lon="11.9282254"><ele>19.0</ele><time>2026-04-24T11:03:03.188Z</time></trkpt><trkpt lat="45.5428547" lon="11.9282019"><ele>19.0</ele><time>2026-04-24T11:03:04.188Z</time></trkpt><trkpt lat="45.5427887" lon="11.9281771"><ele>19.0</ele><time>2026-04-24T11:03:05.188Z</time></trkpt><trkpt lat="45.5427251" lon="11.9281493"><ele>19.0</ele><time>2026-04-24T11:03:06.188Z</time></trkpt><trkpt lat="45.5426637" lon="11.9281163"><ele>19.0</ele><time>2026-04-24T11:03:07.188Z</time></trkpt><trkpt lat="45.5426016" lon="11.9280769"><ele>19.0</ele><time>2026-04-24T11:03:08.188Z</time></trkpt><trkpt lat="45.5425422" lon="11.9280323"><ele>19.0</ele><time>2026-04-24T11:03:09.188Z</time></trkpt><trkpt lat="45.5424818" lon="11.9279899"><ele>19.0</ele><time>2026-04-24T11:03:10.188Z</time></trkpt><trkpt lat="45.5424223" lon="11.9279496"><ele>19.0</ele><time>2026-04-24T11:03:11.188Z</time></trkpt><trkpt lat="45.5423605" lon="11.9279039"><ele>19.0</ele><time>2026-04-24T11:03:12.188Z</time></trkpt><trkpt lat="45.5422986" lon="11.9278592"><ele>19.0</ele><time>2026-04-24T11:03:13.188Z</time></trkpt><trkpt lat="45.5422339" lon="11.9278187"><ele>19.0</ele><time>2026-04-24T11:03:14.189Z</time></trkpt><trkpt lat="45.5421679" lon="11.927783"><ele>19.0</ele><time>2026-04-24T11:03:15.188Z</time></trkpt><trkpt lat="45.5421024" lon="11.9277462"><ele>19.0</ele><time>2026-04-24T11:03:16.188Z</time></trkpt><trkpt lat="45.5420349" lon="11.9277138"><ele>19.0</ele><time>2026-04-24T11:03:17.188Z</time></trkpt><trkpt lat="45.5419655" lon="11.9276866"><ele>19.0</ele><time>2026-04-24T11:03:18.188Z</time></trkpt><trkpt lat="45.5418975" lon="11.9276652"><ele>19.0</ele><time>2026-04-24T11:03:19.188Z</time></trkpt><trkpt lat="45.5418306" lon="11.9276433"><ele>19.0</ele><time>2026-04-24T11:03:20.189Z</time></trkpt><trkpt lat="45.5417673" lon="11.9276207"><ele>19.0</ele><time>2026-04-24T11:03:21.188Z</time></trkpt><trkpt lat="45.5416984" lon="11.9276055"><ele>19.0</ele><time>2026-04-24T11:03:22.188Z</time></trkpt><trkpt lat="45.5416301" lon="11.9275871"><ele>19.0</ele><time>2026-04-24T11:03:23.188Z</time></trkpt><trkpt lat="45.5415623" lon="11.9275687"><ele>19.0</ele><time>2026-04-24T11:03:24.189Z</time></trkpt><trkpt lat="45.5414911" lon="11.9275492"><ele>19.0</ele><time>2026-04-24T11:03:25.188Z</time></trkpt><trkpt lat="45.5414201" lon="11.9275304"><ele>19.0</ele><time>2026-04-24T11:03:26.188Z</time></trkpt><trkpt lat="45.541349" lon="11.9275115"><ele>18.857142857142858</ele><time>2026-04-24T11:03:27.189Z</time></trkpt><trkpt lat="45.5412791" lon="11.9274933"><ele>18.714285714285715</ele><time>2026-04-24T11:03:28.188Z</time></trkpt><trkpt lat="45.5412133" lon="11.9274733"><ele>18.571428571428573</ele><time>2026-04-24T11:03:29.188Z</time></trkpt><trkpt lat="45.5411483" lon="11.9274501"><ele>18.42857142857143</ele><time>2026-04-24T11:03:30.188Z</time></trkpt><trkpt lat="45.5410855" lon="11.9274212"><ele>18.285714285714285</ele><time>2026-04-24T11:03:31.188Z</time></trkpt><trkpt lat="45.5410194" lon="11.9273938"><ele>18.142857142857146</ele><time>2026-04-24T11:03:32.189Z</time></trkpt><trkpt lat="45.5409527" lon="11.9273674"><ele>18.0</ele><time>2026-04-24T11:03:33.188Z</time></trkpt><trkpt lat="45.5408877" lon="11.9273375"><ele>17.857142857142858</ele><time>2026-04-24T11:03:34.188Z</time></trkpt><trkpt lat="45.5408228" lon="11.9273119"><ele>17.714285714285715</ele><time>2026-04-24T11:03:35.188Z</time></trkpt><trkpt lat="45.5407566" lon="11.9272734"><ele>17.57142857142857</ele><time>2026-04-24T11:03:36.189Z</time></trkpt><trkpt lat="45.5406905" lon="11.9272413"><ele>17.42857142857143</ele><time>2026-04-24T11:03:37.188Z</time></trkpt><trkpt lat="45.5406231" lon="11.9272061"><ele>17.285714285714285</ele><time>2026-04-24T11:03:38.189Z</time></trkpt><trkpt lat="45.5405585" lon="11.9271671"><ele>17.142857142857142</ele><time>2026-04-24T11:03:39.189Z</time></trkpt><trkpt lat="45.5404929" lon="11.9271293"><ele>17.0</ele><time>2026-04-24T11:03:40.188Z</time></trkpt><trkpt lat="45.5404276" lon="11.9270934"><ele>17.142857142857142</ele><time>2026-04-24T11:03:41.188Z</time></trkpt><trkpt lat="45.5403597" lon="11.927058"><ele>17.285714285714285</ele><time>2026-04-24T11:03:42.188Z</time></trkpt><trkpt lat="45.5402958" lon="11.9270233"><ele>17.42857142857143</ele><time>2026-04-24T11:03:43.188Z</time></trkpt><trkpt lat="45.5402352" lon="11.9269901"><ele>17.57142857142857</ele><time>2026-04-24T11:03:44.188Z</time></trkpt><trkpt lat="45.540175" lon="11.9269551"><ele>17.714285714285715</ele><time>2026-04-24T11:03:45.188Z</time></trkpt><trkpt lat="45.5401136" lon="11.9269171"><ele>17.857142857142858</ele><time>2026-04-24T11:03:46.188Z</time></trkpt><trkpt lat="45.5400501" lon="11.9268761"><ele>18.0</ele><time>2026-04-24T11:03:47.188Z</time></trkpt><trkpt lat="45.5399887" lon="11.9268445"><ele>18.000000000000004</ele><time>2026-04-24T11:03:48.188Z</time></trkpt><trkpt lat="45.539923" lon="11.9268116"><ele>18.0</ele><time>2026-04-24T11:03:49.188Z</time></trkpt><trkpt lat="45.5398613" lon="11.9267764"><ele>18.0</ele><time>2026-04-24T11:03:50.188Z</time></trkpt><trkpt lat="45.539798" lon="11.9267427"><ele>18.0</ele><time>2026-04-24T11:03:51.188Z</time></trkpt><trkpt lat="45.5397361" lon="11.9267099"><ele>18.0</ele><time>2026-04-24T11:03:52.188Z</time></trkpt><trkpt lat="45.53967" lon="11.9266779"><ele>18.000000000000004</ele><time>2026-04-24T11:03:53.188Z</time></trkpt><trkpt lat="45.5396051" lon="11.926648"><ele>18.0</ele><time>2026-04-24T11:03:54.189Z</time></trkpt><trkpt lat="45.5395419" lon="11.9266167"><ele>18.2</ele><time>2026-04-24T11:03:55.188Z</time></trkpt><trkpt lat="45.5394804" lon="11.9265933"><ele>18.4</ele><time>2026-04-24T11:03:56.188Z</time></trkpt><trkpt lat="45.5393692" lon="11.9265403"><ele>18.599999999999998</ele><time>2026-04-24T11:03:58.188Z</time></trkpt><trkpt lat="45.5393086" lon="11.9265146"><ele>18.8</ele><time>2026-04-24T11:03:59.189Z</time></trkpt><trkpt lat="45.539187" lon="11.926463"><ele>19.0</ele><time>2026-04-24T11:04:01.188Z</time></trkpt><trkpt lat="45.5390686" lon="11.9264179"><ele>19.0</ele><time>2026-04-24T11:04:03.188Z</time></trkpt><trkpt lat="45.5389573" lon="11.9263753"><ele>19.0</ele><time>2026-04-24T11:04:05.188Z</time></trkpt><trkpt lat="45.5388966" lon="11.9263492"><ele>19.0</ele><time>2026-04-24T11:04:06.189Z</time></trkpt><trkpt lat="45.5388352" lon="11.9263229"><ele>19.0</ele><time>2026-04-24T11:04:07.188Z</time></trkpt><trkpt lat="45.5387732" lon="11.9262975"><ele>19.0</ele><time>2026-04-24T11:04:08.188Z</time></trkpt><trkpt lat="45.5387117" lon="11.9262711"><ele>19.0</ele><time>2026-04-24T11:04:09.188Z</time></trkpt><trkpt lat="45.5385955" lon="11.9262158"><ele>19.0</ele><time>2026-04-24T11:04:11.188Z</time></trkpt><trkpt lat="45.538531" lon="11.9261877"><ele>19.0</ele><time>2026-04-24T11:04:12.189Z</time></trkpt><trkpt lat="45.5384701" lon="11.9261614"><ele>19.0</ele><time>2026-04-24T11:04:13.188Z</time></trkpt><trkpt lat="45.5383564" lon="11.9261087"><ele>19.0</ele><time>2026-04-24T11:04:15.188Z</time></trkpt><trkpt lat="45.5382484" lon="11.9260666"><ele>19.0</ele><time>2026-04-24T11:04:17.189Z</time></trkpt><trkpt lat="45.5381438" lon="11.9260254"><ele>19.0</ele><time>2026-04-24T11:04:19.188Z</time></trkpt><trkpt lat="45.5380288" lon="11.9259695"><ele>19.0</ele><time>2026-04-24T11:04:21.188Z</time></trkpt><trkpt lat="45.5379151" lon="11.9259183"><ele>19.0</ele><time>2026-04-24T11:04:23.188Z</time></trkpt><trkpt lat="45.5378122" lon="11.9258615"><ele>19.0</ele><time>2026-04-24T11:04:25.189Z</time></trkpt><trkpt lat="45.5377126" lon="11.9258148"><ele>19.0</ele><time>2026-04-24T11:04:27.188Z</time></trkpt><trkpt lat="45.5376256" lon="11.9257818"><ele>19.0</ele><time>2026-04-24T11:04:29.188Z</time></trkpt><trkpt lat="45.5375656" lon="11.925751"><ele>19.0</ele><time>2026-04-24T11:04:32.189Z</time></trkpt><trkpt lat="45.5374778" lon="11.9257244"><ele>19.0</ele><time>2026-04-24T11:04:39.187Z</time></trkpt><trkpt lat="45.5374145" lon="11.925684"><ele>19.0</ele><time>2026-04-24T11:04:41.187Z</time></trkpt><trkpt lat="45.5373214" lon="11.9256418"><ele>19.0</ele><time>2026-04-24T11:04:43.187Z</time></trkpt><trkpt lat="45.5372206" lon="11.9256074"><ele>19.0</ele><time>2026-04-24T11:04:45.187Z</time></trkpt><trkpt lat="45.5371116" lon="11.9255692"><ele>19.0</ele><time>2026-04-24T11:04:47.187Z</time></trkpt><trkpt lat="45.5369921" lon="11.925528"><ele>19.0</ele><time>2026-04-24T11:04:49.188Z</time></trkpt><trkpt lat="45.5368726" lon="11.9254856"><ele>19.0</ele><time>2026-04-24T11:04:51.187Z</time></trkpt><trkpt lat="45.5368102" lon="11.9254584"><ele>19.0</ele><time>2026-04-24T11:04:52.187Z</time></trkpt><trkpt lat="45.5367489" lon="11.925433"><ele>18.71428571428571</ele><time>2026-04-24T11:04:53.188Z</time></trkpt><trkpt lat="45.5366873" lon="11.9254046"><ele>18.42857142857143</ele><time>2026-04-24T11:04:54.187Z</time></trkpt><trkpt lat="45.5366188" lon="11.9253794"><ele>18.142857142857142</ele><time>2026-04-24T11:04:55.187Z</time></trkpt><trkpt lat="45.5365482" lon="11.9253556"><ele>17.857142857142854</ele><time>2026-04-24T11:04:56.187Z</time></trkpt><trkpt lat="45.5364816" lon="11.9253255"><ele>17.57142857142857</ele><time>2026-04-24T11:04:57.187Z</time></trkpt><trkpt lat="45.5364164" lon="11.9252947"><ele>17.285714285714285</ele><time>2026-04-24T11:04:58.187Z</time></trkpt><trkpt lat="45.5363499" lon="11.9252641"><ele>17.0</ele><time>2026-04-24T11:04:59.187Z</time></trkpt><trkpt lat="45.5362813" lon="11.9252404"><ele>16.999999999999996</ele><time>2026-04-24T11:05:00.188Z</time></trkpt><trkpt lat="45.5362168" lon="11.9252104"><ele>17.0</ele><time>2026-04-24T11:05:01.187Z</time></trkpt><trkpt lat="45.5361494" lon="11.9251798"><ele>17.0</ele><time>2026-04-24T11:05:02.187Z</time></trkpt><trkpt lat="45.5360828" lon="11.9251476"><ele>17.0</ele><time>2026-04-24T11:05:03.187Z</time></trkpt><trkpt lat="45.5360119" lon="11.9251226"><ele>17.0</ele><time>2026-04-24T11:05:04.187Z</time></trkpt><trkpt lat="45.5359424" lon="11.9250987"><ele>16.999999999999996</ele><time>2026-04-24T11:05:05.187Z</time></trkpt><trkpt lat="45.5358759" lon="11.925075"><ele>17.0</ele><time>2026-04-24T11:05:06.187Z</time></trkpt><trkpt lat="45.5358161" lon="11.9250403"><ele>17.142857142857142</ele><time>2026-04-24T11:05:07.187Z</time></trkpt><trkpt lat="45.5357558" lon="11.9250133"><ele>17.285714285714285</ele><time>2026-04-24T11:05:08.187Z</time></trkpt><trkpt lat="45.5356904" lon="11.9249842"><ele>17.42857142857143</ele><time>2026-04-24T11:05:09.188Z</time></trkpt><trkpt lat="45.5356226" lon="11.9249487"><ele>17.57142857142857</ele><time>2026-04-24T11:05:10.187Z</time></trkpt><trkpt lat="45.5355587" lon="11.9249163"><ele>17.714285714285715</ele><time>2026-04-24T11:05:11.187Z</time></trkpt><trkpt lat="45.5354959" lon="11.9248872"><ele>17.857142857142858</ele><time>2026-04-24T11:05:12.187Z</time></trkpt><trkpt lat="45.5354327" lon="11.9248576"><ele>18.0</ele><time>2026-04-24T11:05:13.187Z</time></trkpt><trkpt lat="45.535369" lon="11.9248235"><ele>17.714285714285715</ele><time>2026-04-24T11:05:14.187Z</time></trkpt><trkpt lat="45.5353026" lon="11.9247896"><ele>17.42857142857143</ele><time>2026-04-24T11:05:15.187Z</time></trkpt><trkpt lat="45.5352395" lon="11.9247627"><ele>17.142857142857142</ele><time>2026-04-24T11:05:16.187Z</time></trkpt><trkpt lat="45.5351766" lon="11.9247372"><ele>16.857142857142858</ele><time>2026-04-24T11:05:17.187Z</time></trkpt><trkpt lat="45.5351114" lon="11.9247092"><ele>16.57142857142857</ele><time>2026-04-24T11:05:18.187Z</time></trkpt><trkpt lat="45.5350478" lon="11.9246875"><ele>16.285714285714285</ele><time>2026-04-24T11:05:19.187Z</time></trkpt><trkpt lat="45.5349858" lon="11.924658"><ele>16.0</ele><time>2026-04-24T11:05:20.187Z</time></trkpt><trkpt lat="45.534923" lon="11.9246316"><ele>16.0</ele><time>2026-04-24T11:05:21.188Z</time></trkpt><trkpt lat="45.5348604" lon="11.9246093"><ele>15.999999999999998</ele><time>2026-04-24T11:05:22.188Z</time></trkpt><trkpt lat="45.5347977" lon="11.924581"><ele>16.0</ele><time>2026-04-24T11:05:23.187Z</time></trkpt><trkpt lat="45.5347355" lon="11.924551"><ele>16.0</ele><time>2026-04-24T11:05:24.187Z</time></trkpt><trkpt lat="45.5346708" lon="11.9245243"><ele>15.999999999999998</ele><time>2026-04-24T11:05:25.188Z</time></trkpt><trkpt lat="45.5346103" lon="11.9244954"><ele>16.0</ele><time>2026-04-24T11:05:26.187Z</time></trkpt><trkpt lat="45.5345458" lon="11.9244715"><ele>16.0</ele><time>2026-04-24T11:05:27.188Z</time></trkpt><trkpt lat="45.5344825" lon="11.9244449"><ele>15.999999999999998</ele><time>2026-04-24T11:05:28.187Z</time></trkpt><trkpt lat="45.5344149" lon="11.9244182"><ele>16.0</ele><time>2026-04-24T11:05:29.187Z</time></trkpt><trkpt lat="45.5343471" lon="11.9243917"><ele>16.0</ele><time>2026-04-24T11:05:30.187Z</time></trkpt><trkpt lat="45.5342838" lon="11.9243653"><ele>16.0</ele><time>2026-04-24T11:05:31.187Z</time></trkpt><trkpt lat="45.5342232" lon="11.9243399"><ele>15.999999999999998</ele><time>2026-04-24T11:05:32.187Z</time></trkpt><trkpt lat="45.5341613" lon="11.9243095"><ele>16.0</ele><time>2026-04-24T11:05:33.187Z</time></trkpt><trkpt lat="45.5340442" lon="11.9242617"><ele>15.999999999999998</ele><time>2026-04-24T11:05:35.188Z</time></trkpt><trkpt lat="45.5339273" lon="11.9242086"><ele>16.0</ele><time>2026-04-24T11:05:37.188Z</time></trkpt><trkpt lat="45.5338056" lon="11.9241588"><ele>16.0</ele><time>2026-04-24T11:05:39.187Z</time></trkpt><trkpt lat="45.5337445" lon="11.9241307"><ele>16.0</ele><time>2026-04-24T11:05:40.187Z</time></trkpt><trkpt lat="45.5336826" lon="11.9241004"><ele>15.999999999999998</ele><time>2026-04-24T11:05:41.187Z</time></trkpt><trkpt lat="45.5336217" lon="11.9240673"><ele>16.0</ele><time>2026-04-24T11:05:42.187Z</time></trkpt><trkpt lat="45.5335596" lon="11.9240437"><ele>16.0</ele><time>2026-04-24T11:05:43.187Z</time></trkpt><trkpt lat="45.5334981" lon="11.9240134"><ele>16.0</ele><time>2026-04-24T11:05:44.188Z</time></trkpt><trkpt lat="45.5334374" lon="11.9239871"><ele>16.0</ele><time>2026-04-24T11:05:45.187Z</time></trkpt><trkpt lat="45.5333208" lon="11.9239302"><ele>16.0</ele><time>2026-04-24T11:05:47.187Z</time></trkpt><trkpt lat="45.5332015" lon="11.9238728"><ele>16.0</ele><time>2026-04-24T11:05:49.188Z</time></trkpt><trkpt lat="45.5330806" lon="11.9238174"><ele>15.999999999999998</ele><time>2026-04-24T11:05:51.188Z</time></trkpt><trkpt lat="45.5330211" lon="11.9237867"><ele>16.0</ele><time>2026-04-24T11:05:52.187Z</time></trkpt><trkpt lat="45.5329589" lon="11.9237576"><ele>16.0</ele><time>2026-04-24T11:05:53.187Z</time></trkpt><trkpt lat="45.532896" lon="11.9237291"><ele>16.0</ele><time>2026-04-24T11:05:54.188Z</time></trkpt><trkpt lat="45.5328333" lon="11.9236974"><ele>15.999999999999998</ele><time>2026-04-24T11:05:55.187Z</time></trkpt><trkpt lat="45.5327723" lon="11.9236695"><ele>16.0</ele><time>2026-04-24T11:05:56.188Z</time></trkpt><trkpt lat="45.5326486" lon="11.9236097"><ele>16.0</ele><time>2026-04-24T11:05:58.187Z</time></trkpt><trkpt lat="45.5325879" lon="11.9235798"><ele>15.999999999999998</ele><time>2026-04-24T11:05:59.187Z</time></trkpt><trkpt lat="45.532524" lon="11.9235506"><ele>16.0</ele><time>2026-04-24T11:06:00.188Z</time></trkpt><trkpt lat="45.5324612" lon="11.9235249"><ele>16.0</ele><time>2026-04-24T11:06:01.187Z</time></trkpt><trkpt lat="45.5323998" lon="11.9234965"><ele>15.999999999999998</ele><time>2026-04-24T11:06:02.187Z</time></trkpt><trkpt lat="45.5323393" lon="11.9234675"><ele>16.0</ele><time>2026-04-24T11:06:03.188Z</time></trkpt><trkpt lat="45.5322782" lon="11.9234381"><ele>16.0</ele><time>2026-04-24T11:06:04.188Z</time></trkpt><trkpt lat="45.5322188" lon="11.923408"><ele>15.857142857142856</ele><time>2026-04-24T11:06:05.188Z</time></trkpt><trkpt lat="45.5321578" lon="11.9233787"><ele>15.714285714285712</ele><time>2026-04-24T11:06:06.187Z</time></trkpt><trkpt lat="45.532096" lon="11.9233502"><ele>15.571428571428571</ele><time>2026-04-24T11:06:07.188Z</time></trkpt><trkpt lat="45.5319802" lon="11.9233029"><ele>15.428571428571427</ele><time>2026-04-24T11:06:09.188Z</time></trkpt><trkpt lat="45.531918" lon="11.9232796"><ele>15.285714285714285</ele><time>2026-04-24T11:06:10.187Z</time></trkpt><trkpt lat="45.5318567" lon="11.9232467"><ele>15.142857142857142</ele><time>2026-04-24T11:06:11.187Z</time></trkpt><trkpt lat="45.5317929" lon="11.9232175"><ele>15.0</ele><time>2026-04-24T11:06:12.188Z</time></trkpt><trkpt lat="45.5317303" lon="11.9231863"><ele>15.4</ele><time>2026-04-24T11:06:13.187Z</time></trkpt><trkpt lat="45.5316662" lon="11.9231546"><ele>15.8</ele><time>2026-04-24T11:06:14.187Z</time></trkpt><trkpt lat="45.5316022" lon="11.9231178"><ele>16.2</ele><time>2026-04-24T11:06:15.187Z</time></trkpt><trkpt lat="45.5314853" lon="11.9230687"><ele>16.6</ele><time>2026-04-24T11:06:17.187Z</time></trkpt><trkpt lat="45.5313699" lon="11.9230466"><ele>17.0</ele><time>2026-04-24T11:06:19.187Z</time></trkpt><trkpt lat="45.5312609" lon="11.9229729"><ele>17.0</ele><time>2026-04-24T11:06:21.187Z</time></trkpt><trkpt lat="45.5311445" lon="11.9229072"><ele>17.0</ele><time>2026-04-24T11:06:23.187Z</time></trkpt><trkpt lat="45.5310237" lon="11.9228424"><ele>17.0</ele><time>2026-04-24T11:06:25.187Z</time></trkpt><trkpt lat="45.5309584" lon="11.9228111"><ele>17.0</ele><time>2026-04-24T11:06:26.187Z</time></trkpt><trkpt lat="45.5308965" lon="11.922784"><ele>17.0</ele><time>2026-04-24T11:06:27.187Z</time></trkpt><trkpt lat="45.5308307" lon="11.9227563"><ele>16.999999999999996</ele><time>2026-04-24T11:06:28.187Z</time></trkpt><trkpt lat="45.530767" lon="11.9227323"><ele>17.0</ele><time>2026-04-24T11:06:29.187Z</time></trkpt><trkpt lat="45.5307052" lon="11.922699"><ele>17.0</ele><time>2026-04-24T11:06:30.188Z</time></trkpt><trkpt lat="45.5306448" lon="11.9226712"><ele>17.0</ele><time>2026-04-24T11:06:31.187Z</time></trkpt><trkpt lat="45.5305832" lon="11.9226461"><ele>17.0</ele><time>2026-04-24T11:06:32.187Z</time></trkpt><trkpt lat="45.5305204" lon="11.922618"><ele>16.999999999999996</ele><time>2026-04-24T11:06:33.188Z</time></trkpt><trkpt lat="45.5304573" lon="11.9225883"><ele>17.0</ele><time>2026-04-24T11:06:34.187Z</time></trkpt><trkpt lat="45.5303942" lon="11.922557"><ele>16.666666666666668</ele><time>2026-04-24T11:06:35.187Z</time></trkpt><trkpt lat="45.5303316" lon="11.9225282"><ele>16.333333333333336</ele><time>2026-04-24T11:06:36.187Z</time></trkpt><trkpt lat="45.5302645" lon="11.9225021"><ele>16.0</ele><time>2026-04-24T11:06:37.188Z</time></trkpt><trkpt lat="45.5301457" lon="11.9224497"><ele>15.666666666666668</ele><time>2026-04-24T11:06:39.187Z</time></trkpt><trkpt lat="45.5300832" lon="11.9224245"><ele>15.333333333333334</ele><time>2026-04-24T11:06:40.187Z</time></trkpt><trkpt lat="45.5300221" lon="11.9223973"><ele>15.0</ele><time>2026-04-24T11:06:41.187Z</time></trkpt><trkpt lat="45.5299617" lon="11.9223669"><ele>15.0</ele><time>2026-04-24T11:06:42.187Z</time></trkpt><trkpt lat="45.5298995" lon="11.9223394"><ele>15.0</ele><time>2026-04-24T11:06:43.187Z</time></trkpt><trkpt lat="45.5298352" lon="11.9223156"><ele>15.0</ele><time>2026-04-24T11:06:44.188Z</time></trkpt><trkpt lat="45.529774" lon="11.9222849"><ele>15.0</ele><time>2026-04-24T11:06:45.187Z</time></trkpt><trkpt lat="45.5297118" lon="11.9222575"><ele>15.0</ele><time>2026-04-24T11:06:46.187Z</time></trkpt><trkpt lat="45.5296473" lon="11.9222249"><ele>15.0</ele><time>2026-04-24T11:06:47.187Z</time></trkpt><trkpt lat="45.5295826" lon="11.922196"><ele>15.0</ele><time>2026-04-24T11:06:48.188Z</time></trkpt><trkpt lat="45.5295199" lon="11.9221713"><ele>15.0</ele><time>2026-04-24T11:06:49.187Z</time></trkpt><trkpt lat="45.5294554" lon="11.9221435"><ele>15.0</ele><time>2026-04-24T11:06:50.187Z</time></trkpt><trkpt lat="45.5293922" lon="11.9221115"><ele>15.0</ele><time>2026-04-24T11:06:51.187Z</time></trkpt><trkpt lat="45.5293281" lon="11.9220839"><ele>15.0</ele><time>2026-04-24T11:06:52.187Z</time></trkpt><trkpt lat="45.5292658" lon="11.9220563"><ele>15.0</ele><time>2026-04-24T11:06:53.187Z</time></trkpt><trkpt lat="45.5292047" lon="11.9220266"><ele>15.0</ele><time>2026-04-24T11:06:54.187Z</time></trkpt><trkpt lat="45.5291412" lon="11.9219993"><ele>15.0</ele><time>2026-04-24T11:06:55.188Z</time></trkpt><trkpt lat="45.5290782" lon="11.9219721"><ele>15.0</ele><time>2026-04-24T11:06:56.187Z</time></trkpt><trkpt lat="45.5289638" lon="11.9219207"><ele>15.0</ele><time>2026-04-24T11:06:58.187Z</time></trkpt><trkpt lat="45.5288504" lon="11.9218611"><ele>15.0</ele><time>2026-04-24T11:07:00.187Z</time></trkpt><trkpt lat="45.5287321" lon="11.9218054"><ele>15.0</ele><time>2026-04-24T11:07:02.187Z</time></trkpt><trkpt lat="45.5286684" lon="11.9217729"><ele>15.0</ele><time>2026-04-24T11:07:03.187Z</time></trkpt><trkpt lat="45.5286061" lon="11.9217476"><ele>15.166666666666666</ele><time>2026-04-24T11:07:04.187Z</time></trkpt><trkpt lat="45.528543" lon="11.9217199"><ele>15.333333333333332</ele><time>2026-04-24T11:07:05.187Z</time></trkpt><trkpt lat="45.5284784" lon="11.9216896"><ele>15.5</ele><time>2026-04-24T11:07:06.188Z</time></trkpt><trkpt lat="45.5284153" lon="11.9216657"><ele>15.666666666666666</ele><time>2026-04-24T11:07:07.187Z</time></trkpt><trkpt lat="45.5283504" lon="11.9216371"><ele>15.833333333333332</ele><time>2026-04-24T11:07:08.187Z</time></trkpt><trkpt lat="45.5282384" lon="11.921586"><ele>16.0</ele><time>2026-04-24T11:07:10.187Z</time></trkpt><trkpt lat="45.5281375" lon="11.9215462"><ele>16.0</ele><time>2026-04-24T11:07:12.188Z</time></trkpt><trkpt lat="45.528033" lon="11.9214957"><ele>16.0</ele><time>2026-04-24T11:07:14.187Z</time></trkpt><trkpt lat="45.5279306" lon="11.9214434"><ele>16.0</ele><time>2026-04-24T11:07:16.187Z</time></trkpt><trkpt lat="45.5278369" lon="11.9213964"><ele>16.0</ele><time>2026-04-24T11:07:18.187Z</time></trkpt><trkpt lat="45.5277426" lon="11.921353"><ele>16.0</ele><time>2026-04-24T11:07:20.187Z</time></trkpt><trkpt lat="45.5276539" lon="11.9213197"><ele>16.166666666666664</ele><time>2026-04-24T11:07:22.187Z</time></trkpt><trkpt lat="45.5275675" lon="11.9212723"><ele>16.333333333333332</ele><time>2026-04-24T11:07:24.187Z</time></trkpt><trkpt lat="45.52748" lon="11.9212036"><ele>16.5</ele><time>2026-04-24T11:07:26.187Z</time></trkpt><trkpt lat="45.5274292" lon="11.9210904"><ele>16.666666666666668</ele><time>2026-04-24T11:07:28.187Z</time></trkpt><trkpt lat="45.5274445" lon="11.920958"><ele>16.833333333333336</ele><time>2026-04-24T11:07:30.188Z</time></trkpt><trkpt lat="45.5274518" lon="11.9208684"><ele>17.0</ele><time>2026-04-24T11:07:31.188Z</time></trkpt><trkpt lat="45.5274513" lon="11.9207755"><ele>17.142857142857142</ele><time>2026-04-24T11:07:32.188Z</time></trkpt><trkpt lat="45.5274565" lon="11.9206769"><ele>17.285714285714285</ele><time>2026-04-24T11:07:33.187Z</time></trkpt><trkpt lat="45.5274695" lon="11.9205817"><ele>17.42857142857143</ele><time>2026-04-24T11:07:34.187Z</time></trkpt><trkpt lat="45.5274822" lon="11.9204835"><ele>17.57142857142857</ele><time>2026-04-24T11:07:35.187Z</time></trkpt><trkpt lat="45.5274967" lon="11.9203875"><ele>17.714285714285715</ele><time>2026-04-24T11:07:36.187Z</time></trkpt><trkpt lat="45.5275137" lon="11.9202908"><ele>17.857142857142858</ele><time>2026-04-24T11:07:37.187Z</time></trkpt><trkpt lat="45.5275388" lon="11.9201969"><ele>18.0</ele><time>2026-04-24T11:07:38.188Z</time></trkpt><trkpt lat="45.5275675" lon="11.9201073"><ele>17.857142857142858</ele><time>2026-04-24T11:07:39.187Z</time></trkpt><trkpt lat="45.5275968" lon="11.9200181"><ele>17.714285714285715</ele><time>2026-04-24T11:07:40.187Z</time></trkpt><trkpt lat="45.5276289" lon="11.9199317"><ele>17.57142857142857</ele><time>2026-04-24T11:07:41.187Z</time></trkpt><trkpt lat="45.5276574" lon="11.9198447"><ele>17.42857142857143</ele><time>2026-04-24T11:07:42.188Z</time></trkpt><trkpt lat="45.5276838" lon="11.9197545"><ele>17.285714285714285</ele><time>2026-04-24T11:07:43.187Z</time></trkpt><trkpt lat="45.5277151" lon="11.9196623"><ele>17.142857142857142</ele><time>2026-04-24T11:07:44.187Z</time></trkpt><trkpt lat="45.5277479" lon="11.9195721"><ele>17.0</ele><time>2026-04-24T11:07:45.187Z</time></trkpt><trkpt lat="45.527779" lon="11.9194774"><ele>16.999999999999996</ele><time>2026-04-24T11:07:46.188Z</time></trkpt><trkpt lat="45.5278121" lon="11.9193873"><ele>17.0</ele><time>2026-04-24T11:07:47.187Z</time></trkpt><trkpt lat="45.5278482" lon="11.9192927"><ele>17.0</ele><time>2026-04-24T11:07:48.187Z</time></trkpt><trkpt lat="45.5278876" lon="11.9192075"><ele>17.0</ele><time>2026-04-24T11:07:49.187Z</time></trkpt><trkpt lat="45.5279235" lon="11.9191172"><ele>17.0</ele><time>2026-04-24T11:07:50.187Z</time></trkpt><trkpt lat="45.527961" lon="11.9190228"><ele>16.999999999999996</ele><time>2026-04-24T11:07:51.187Z</time></trkpt><trkpt lat="45.527997" lon="11.9189277"><ele>17.0</ele><time>2026-04-24T11:07:52.187Z</time></trkpt><trkpt lat="45.5280361" lon="11.9188349"><ele>17.285714285714285</ele><time>2026-04-24T11:07:53.187Z</time></trkpt><trkpt lat="45.5280767" lon="11.9187385"><ele>17.57142857142857</ele><time>2026-04-24T11:07:54.187Z</time></trkpt><trkpt lat="45.5281164" lon="11.9186462"><ele>17.857142857142854</ele><time>2026-04-24T11:07:55.187Z</time></trkpt><trkpt lat="45.5281601" lon="11.9185595"><ele>18.142857142857142</ele><time>2026-04-24T11:07:56.187Z</time></trkpt><trkpt lat="45.5282038" lon="11.9184763"><ele>18.42857142857143</ele><time>2026-04-24T11:07:57.187Z</time></trkpt><trkpt lat="45.5282457" lon="11.9183938"><ele>18.71428571428571</ele><time>2026-04-24T11:07:58.188Z</time></trkpt><trkpt lat="45.5282897" lon="11.9183169"><ele>19.0</ele><time>2026-04-24T11:07:59.187Z</time></trkpt><trkpt lat="45.5283364" lon="11.9182392"><ele>19.0</ele><time>2026-04-24T11:08:00.188Z</time></trkpt><trkpt lat="45.5283836" lon="11.9181756"><ele>19.0</ele><time>2026-04-24T11:08:01.187Z</time></trkpt><trkpt lat="45.5284707" lon="11.9180568"><ele>19.0</ele><time>2026-04-24T11:08:03.187Z</time></trkpt><trkpt lat="45.5285384" lon="11.917928"><ele>19.0</ele><time>2026-04-24T11:08:05.187Z</time></trkpt><trkpt lat="45.5285816" lon="11.9177796"><ele>19.0</ele><time>2026-04-24T11:08:07.187Z</time></trkpt><trkpt lat="45.5286063" lon="11.9176245"><ele>18.599999999999998</ele><time>2026-04-24T11:08:09.187Z</time></trkpt><trkpt lat="45.5286326" lon="11.9174729"><ele>18.2</ele><time>2026-04-24T11:08:11.186Z</time></trkpt><trkpt lat="45.5286673" lon="11.917316"><ele>17.799999999999997</ele><time>2026-04-24T11:08:13.186Z</time></trkpt><trkpt lat="45.5287325" lon="11.917208"><ele>17.4</ele><time>2026-04-24T11:08:15.186Z</time></trkpt><trkpt lat="45.5287539" lon="11.9170967"><ele>17.0</ele><time>2026-04-24T11:08:17.187Z</time></trkpt><trkpt lat="45.5287614" lon="11.9169792"><ele>17.0</ele><time>2026-04-24T11:08:19.186Z</time></trkpt><trkpt lat="45.5288008" lon="11.9168723"><ele>17.0</ele><time>2026-04-24T11:08:22.186Z</time></trkpt><trkpt lat="45.5288277" lon="11.9167869"><ele>17.0</ele><time>2026-04-24T11:08:39.186Z</time></trkpt><trkpt lat="45.5288525" lon="11.9166933"><ele>17.0</ele><time>2026-04-24T11:08:42.186Z</time></trkpt><trkpt lat="45.5288443" lon="11.9165758"><ele>17.0</ele><time>2026-04-24T11:08:49.186Z</time></trkpt><trkpt lat="45.5288609" lon="11.9164828"><ele>17.0</ele><time>2026-04-24T11:08:51.186Z</time></trkpt><trkpt lat="45.5288859" lon="11.9163611"><ele>17.166666666666668</ele><time>2026-04-24T11:08:54.186Z</time></trkpt><trkpt lat="45.5288315" lon="11.9162933"><ele>17.333333333333336</ele><time>2026-04-24T11:08:57.186Z</time></trkpt><trkpt lat="45.5287536" lon="11.916274"><ele>17.5</ele><time>2026-04-24T11:08:59.186Z</time></trkpt><trkpt lat="45.5286817" lon="11.9162569"><ele>17.666666666666668</ele><time>2026-04-24T11:09:01.186Z</time></trkpt><trkpt lat="45.5285978" lon="11.9162317"><ele>17.833333333333332</ele><time>2026-04-24T11:09:03.186Z</time></trkpt><trkpt lat="45.5285028" lon="11.9162119"><ele>18.0</ele><time>2026-04-24T11:09:05.186Z</time></trkpt><trkpt lat="45.5284085" lon="11.9161867"><ele>17.6</ele><time>2026-04-24T11:09:07.186Z</time></trkpt><trkpt lat="45.5283078" lon="11.9161548"><ele>17.200000000000003</ele><time>2026-04-24T11:09:09.187Z</time></trkpt><trkpt lat="45.5282064" lon="11.9161234"><ele>16.8</ele><time>2026-04-24T11:09:11.186Z</time></trkpt><trkpt lat="45.528092" lon="11.9160932"><ele>16.400000000000002</ele><time>2026-04-24T11:09:13.186Z</time></trkpt><trkpt lat="45.5279887" lon="11.9160513"><ele>16.0</ele><time>2026-04-24T11:09:15.186Z</time></trkpt><trkpt lat="45.5278878" lon="11.9160094"><ele>16.0</ele><time>2026-04-24T11:09:17.186Z</time></trkpt><trkpt lat="45.5277755" lon="11.9159746"><ele>16.0</ele><time>2026-04-24T11:09:19.186Z</time></trkpt><trkpt lat="45.527663" lon="11.9159476"><ele>16.0</ele><time>2026-04-24T11:09:21.187Z</time></trkpt><trkpt lat="45.5275505" lon="11.9159104"><ele>16.0</ele><time>2026-04-24T11:09:23.187Z</time></trkpt><trkpt lat="45.5274354" lon="11.9158748"><ele>15.75</ele><time>2026-04-24T11:09:25.186Z</time></trkpt><trkpt lat="45.5273164" lon="11.9158412"><ele>15.5</ele><time>2026-04-24T11:09:27.186Z</time></trkpt><trkpt lat="45.5271997" lon="11.9158049"><ele>15.25</ele><time>2026-04-24T11:09:29.186Z</time></trkpt><trkpt lat="45.5270848" lon="11.9157648"><ele>15.0</ele><time>2026-04-24T11:09:31.186Z</time></trkpt><trkpt lat="45.5269669" lon="11.9157296"><ele>15.5</ele><time>2026-04-24T11:09:33.186Z</time></trkpt><trkpt lat="45.5268518" lon="11.9156879"><ele>16.0</ele><time>2026-04-24T11:09:35.187Z</time></trkpt><trkpt lat="45.526736" lon="11.9156447"><ele>16.5</ele><time>2026-04-24T11:09:37.186Z</time></trkpt><trkpt lat="45.5266143" lon="11.9156026"><ele>17.0</ele><time>2026-04-24T11:09:39.186Z</time></trkpt><trkpt lat="45.526496" lon="11.9155657"><ele>17.0</ele><time>2026-04-24T11:09:41.186Z</time></trkpt><trkpt lat="45.5263731" lon="11.9155264"><ele>17.0</ele><time>2026-04-24T11:09:43.186Z</time></trkpt><trkpt lat="45.5262489" lon="11.915482"><ele>17.0</ele><time>2026-04-24T11:09:45.187Z</time></trkpt><trkpt lat="45.5261866" lon="11.9154566"><ele>17.0</ele><time>2026-04-24T11:09:46.186Z</time></trkpt><trkpt lat="45.5260682" lon="11.9154095"><ele>17.0</ele><time>2026-04-24T11:09:48.186Z</time></trkpt><trkpt lat="45.5259451" lon="11.9153723"><ele>16.833333333333336</ele><time>2026-04-24T11:09:50.186Z</time></trkpt><trkpt lat="45.525825" lon="11.915338"><ele>16.666666666666668</ele><time>2026-04-24T11:09:52.186Z</time></trkpt><trkpt lat="45.5257642" lon="11.9153145"><ele>16.5</ele><time>2026-04-24T11:09:53.186Z</time></trkpt><trkpt lat="45.5257009" lon="11.9152909"><ele>16.333333333333332</ele><time>2026-04-24T11:09:54.186Z</time></trkpt><trkpt lat="45.5256392" lon="11.9152634"><ele>16.166666666666664</ele><time>2026-04-24T11:09:55.186Z</time></trkpt><trkpt lat="45.5255773" lon="11.9152411"><ele>16.0</ele><time>2026-04-24T11:09:56.187Z</time></trkpt><trkpt lat="45.525463" lon="11.9151992"><ele>16.0</ele><time>2026-04-24T11:09:58.186Z</time></trkpt><trkpt lat="45.5253489" lon="11.9151525"><ele>16.0</ele><time>2026-04-24T11:10:00.186Z</time></trkpt><trkpt lat="45.5252321" lon="11.9151045"><ele>16.0</ele><time>2026-04-24T11:10:02.187Z</time></trkpt><trkpt lat="45.525123" lon="11.9150533"><ele>16.0</ele><time>2026-04-24T11:10:04.186Z</time></trkpt><trkpt lat="45.5250135" lon="11.9150161"><ele>16.0</ele><time>2026-04-24T11:10:06.186Z</time></trkpt><trkpt lat="45.5249038" lon="11.9149779"><ele>16.0</ele><time>2026-04-24T11:10:08.187Z</time></trkpt><trkpt lat="45.5247974" lon="11.9149365"><ele>16.0</ele><time>2026-04-24T11:10:10.187Z</time></trkpt><trkpt lat="45.5246945" lon="11.914893"><ele>16.0</ele><time>2026-04-24T11:10:12.186Z</time></trkpt><trkpt lat="45.5245865" lon="11.9148551"><ele>16.0</ele><time>2026-04-24T11:10:14.186Z</time></trkpt><trkpt lat="45.5244782" lon="11.9148175"><ele>16.0</ele><time>2026-04-24T11:10:16.186Z</time></trkpt><trkpt lat="45.5243626" lon="11.9147769"><ele>16.0</ele><time>2026-04-24T11:10:18.186Z</time></trkpt><trkpt lat="45.5242522" lon="11.9147378"><ele>16.0</ele><time>2026-04-24T11:10:20.187Z</time></trkpt><trkpt lat="45.5241377" lon="11.9146972"><ele>16.0</ele><time>2026-04-24T11:10:22.186Z</time></trkpt><trkpt lat="45.5240231" lon="11.9146504"><ele>16.0</ele><time>2026-04-24T11:10:24.186Z</time></trkpt><trkpt lat="45.5239075" lon="11.9146029"><ele>15.999999999999998</ele><time>2026-04-24T11:10:26.186Z</time></trkpt><trkpt lat="45.5238444" lon="11.9145832"><ele>16.0</ele><time>2026-04-24T11:10:27.187Z</time></trkpt><trkpt lat="45.5237811" lon="11.9145596"><ele>16.0</ele><time>2026-04-24T11:10:28.186Z</time></trkpt><trkpt lat="45.5237205" lon="11.9145326"><ele>15.999999999999998</ele><time>2026-04-24T11:10:29.186Z</time></trkpt><trkpt lat="45.5236552" lon="11.9145098"><ele>16.0</ele><time>2026-04-24T11:10:30.186Z</time></trkpt><trkpt lat="45.5235918" lon="11.9144834"><ele>16.0</ele><time>2026-04-24T11:10:31.186Z</time></trkpt><trkpt lat="45.5235291" lon="11.9144589"><ele>16.285714285714285</ele><time>2026-04-24T11:10:32.187Z</time></trkpt><trkpt lat="45.5234659" lon="11.9144367"><ele>16.57142857142857</ele><time>2026-04-24T11:10:33.186Z</time></trkpt><trkpt lat="45.5233968" lon="11.914416"><ele>16.857142857142858</ele><time>2026-04-24T11:10:34.186Z</time></trkpt><trkpt lat="45.5233285" lon="11.9143958"><ele>17.142857142857142</ele><time>2026-04-24T11:10:35.186Z</time></trkpt><trkpt lat="45.5232586" lon="11.9143738"><ele>17.42857142857143</ele><time>2026-04-24T11:10:36.186Z</time></trkpt><trkpt lat="45.5231881" lon="11.9143474"><ele>17.714285714285715</ele><time>2026-04-24T11:10:37.186Z</time></trkpt><trkpt lat="45.5231228" lon="11.9143216"><ele>18.0</ele><time>2026-04-24T11:10:38.187Z</time></trkpt><trkpt lat="45.5230557" lon="11.9142885"><ele>18.000000000000004</ele><time>2026-04-24T11:10:39.186Z</time></trkpt><trkpt lat="45.5229865" lon="11.9142607"><ele>18.0</ele><time>2026-04-24T11:10:40.186Z</time></trkpt><trkpt lat="45.5229238" lon="11.9142377"><ele>18.0</ele><time>2026-04-24T11:10:41.186Z</time></trkpt><trkpt lat="45.5228571" lon="11.9142135"><ele>18.0</ele><time>2026-04-24T11:10:42.186Z</time></trkpt><trkpt lat="45.5227863" lon="11.9141884"><ele>18.0</ele><time>2026-04-24T11:10:43.186Z</time></trkpt><trkpt lat="45.5227222" lon="11.9141632"><ele>18.000000000000004</ele><time>2026-04-24T11:10:44.186Z</time></trkpt><trkpt lat="45.5226524" lon="11.9141371"><ele>18.0</ele><time>2026-04-24T11:10:45.186Z</time></trkpt><trkpt lat="45.5225812" lon="11.9141109"><ele>17.857142857142858</ele><time>2026-04-24T11:10:46.186Z</time></trkpt><trkpt lat="45.5225126" lon="11.9140857"><ele>17.714285714285715</ele><time>2026-04-24T11:10:47.186Z</time></trkpt><trkpt lat="45.5224437" lon="11.9140613"><ele>17.57142857142857</ele><time>2026-04-24T11:10:48.186Z</time></trkpt><trkpt lat="45.5223771" lon="11.9140343"><ele>17.42857142857143</ele><time>2026-04-24T11:10:49.186Z</time></trkpt><trkpt lat="45.5223095" lon="11.9140087"><ele>17.285714285714285</ele><time>2026-04-24T11:10:50.186Z</time></trkpt><trkpt lat="45.5222419" lon="11.913982"><ele>17.142857142857142</ele><time>2026-04-24T11:10:51.186Z</time></trkpt><trkpt lat="45.5221723" lon="11.9139616"><ele>17.0</ele><time>2026-04-24T11:10:52.186Z</time></trkpt><trkpt lat="45.5221077" lon="11.9139319"><ele>16.999999999999996</ele><time>2026-04-24T11:10:53.187Z</time></trkpt><trkpt lat="45.5220455" lon="11.9139057"><ele>17.0</ele><time>2026-04-24T11:10:54.186Z</time></trkpt><trkpt lat="45.5219831" lon="11.913884"><ele>17.0</ele><time>2026-04-24T11:10:55.186Z</time></trkpt><trkpt lat="45.521921" lon="11.9138606"><ele>17.0</ele><time>2026-04-24T11:10:56.186Z</time></trkpt><trkpt lat="45.5218577" lon="11.9138358"><ele>17.0</ele><time>2026-04-24T11:10:57.187Z</time></trkpt><trkpt lat="45.5217872" lon="11.9138135"><ele>16.999999999999996</ele><time>2026-04-24T11:10:58.186Z</time></trkpt><trkpt lat="45.5217191" lon="11.9137881"><ele>17.0</ele><time>2026-04-24T11:10:59.186Z</time></trkpt><trkpt lat="45.5216567" lon="11.9137663"><ele>17.0</ele><time>2026-04-24T11:11:00.186Z</time></trkpt><trkpt lat="45.5215919" lon="11.9137437"><ele>17.0</ele><time>2026-04-24T11:11:01.186Z</time></trkpt><trkpt lat="45.5215279" lon="11.9137169"><ele>17.0</ele><time>2026-04-24T11:11:02.186Z</time></trkpt><trkpt lat="45.5214074" lon="11.9136781"><ele>17.0</ele><time>2026-04-24T11:11:04.186Z</time></trkpt><trkpt lat="45.5213441" lon="11.9136545"><ele>17.0</ele><time>2026-04-24T11:11:05.186Z</time></trkpt><trkpt lat="45.5212816" lon="11.9136286"><ele>17.0</ele><time>2026-04-24T11:11:06.187Z</time></trkpt><trkpt lat="45.5212189" lon="11.9136068"><ele>17.166666666666668</ele><time>2026-04-24T11:11:07.187Z</time></trkpt><trkpt lat="45.5211534" lon="11.9135834"><ele>17.333333333333336</ele><time>2026-04-24T11:11:08.186Z</time></trkpt><trkpt lat="45.5210896" lon="11.9135643"><ele>17.5</ele><time>2026-04-24T11:11:09.186Z</time></trkpt><trkpt lat="45.5210227" lon="11.9135398"><ele>17.666666666666668</ele><time>2026-04-24T11:11:10.186Z</time></trkpt><trkpt lat="45.5209041" lon="11.9134899"><ele>17.833333333333332</ele><time>2026-04-24T11:11:12.186Z</time></trkpt><trkpt lat="45.5207856" lon="11.9134437"><ele>18.0</ele><time>2026-04-24T11:11:14.186Z</time></trkpt><trkpt lat="45.5207219" lon="11.9134256"><ele>17.666666666666668</ele><time>2026-04-24T11:11:15.186Z</time></trkpt><trkpt lat="45.5206601" lon="11.9134016"><ele>17.333333333333332</ele><time>2026-04-24T11:11:16.186Z</time></trkpt><trkpt lat="45.5205972" lon="11.9133777"><ele>17.0</ele><time>2026-04-24T11:11:17.186Z</time></trkpt><trkpt lat="45.5204723" lon="11.9133302"><ele>16.666666666666664</ele><time>2026-04-24T11:11:19.186Z</time></trkpt><trkpt lat="45.5204107" lon="11.9133093"><ele>16.333333333333332</ele><time>2026-04-24T11:11:20.186Z</time></trkpt><trkpt lat="45.5203479" lon="11.9132905"><ele>16.0</ele><time>2026-04-24T11:11:21.186Z</time></trkpt><trkpt lat="45.520231" lon="11.913239"><ele>15.999999999999998</ele><time>2026-04-24T11:11:23.186Z</time></trkpt><trkpt lat="45.5201136" lon="11.9131919"><ele>16.0</ele><time>2026-04-24T11:11:25.186Z</time></trkpt><trkpt lat="45.5199955" lon="11.9131525"><ele>16.0</ele><time>2026-04-24T11:11:27.186Z</time></trkpt><trkpt lat="45.5199328" lon="11.913131"><ele>16.0</ele><time>2026-04-24T11:11:28.186Z</time></trkpt><trkpt lat="45.5198726" lon="11.9131026"><ele>15.999999999999998</ele><time>2026-04-24T11:11:29.186Z</time></trkpt><trkpt lat="45.5198111" lon="11.9130764"><ele>16.0</ele><time>2026-04-24T11:11:30.186Z</time></trkpt><trkpt lat="45.5197459" lon="11.9130536"><ele>16.0</ele><time>2026-04-24T11:11:31.186Z</time></trkpt><trkpt lat="45.5196776" lon="11.9130288"><ele>15.999999999999998</ele><time>2026-04-24T11:11:32.186Z</time></trkpt><trkpt lat="45.5196124" lon="11.9130057"><ele>16.0</ele><time>2026-04-24T11:11:33.186Z</time></trkpt><trkpt lat="45.5195499" lon="11.9129815"><ele>16.0</ele><time>2026-04-24T11:11:34.187Z</time></trkpt><trkpt lat="45.5194861" lon="11.9129592"><ele>15.999999999999998</ele><time>2026-04-24T11:11:35.186Z</time></trkpt><trkpt lat="45.5194235" lon="11.9129358"><ele>16.0</ele><time>2026-04-24T11:11:36.186Z</time></trkpt><trkpt lat="45.519362" lon="11.9129077"><ele>16.0</ele><time>2026-04-24T11:11:37.187Z</time></trkpt><trkpt lat="45.5192449" lon="11.9128645"><ele>15.8</ele><time>2026-04-24T11:11:39.187Z</time></trkpt><trkpt lat="45.5191218" lon="11.9128191"><ele>15.600000000000001</ele><time>2026-04-24T11:11:41.186Z</time></trkpt><trkpt lat="45.5189964" lon="11.9127718"><ele>15.4</ele><time>2026-04-24T11:11:43.185Z</time></trkpt><trkpt lat="45.518931" lon="11.9127485"><ele>15.2</ele><time>2026-04-24T11:11:44.185Z</time></trkpt><trkpt lat="45.5188647" lon="11.9127251"><ele>15.0</ele><time>2026-04-24T11:11:45.185Z</time></trkpt><trkpt lat="45.5188004" lon="11.9126987"><ele>15.142857142857142</ele><time>2026-04-24T11:11:46.185Z</time></trkpt><trkpt lat="45.5187331" lon="11.9126757"><ele>15.285714285714285</ele><time>2026-04-24T11:11:47.185Z</time></trkpt><trkpt lat="45.5186647" lon="11.9126513"><ele>15.428571428571427</ele><time>2026-04-24T11:11:48.185Z</time></trkpt><trkpt lat="45.5185939" lon="11.9126263"><ele>15.571428571428571</ele><time>2026-04-24T11:11:49.185Z</time></trkpt><trkpt lat="45.5185254" lon="11.9126025"><ele>15.714285714285712</ele><time>2026-04-24T11:11:50.185Z</time></trkpt><trkpt lat="45.5184555" lon="11.91258"><ele>15.857142857142856</ele><time>2026-04-24T11:11:51.185Z</time></trkpt><trkpt lat="45.518392" lon="11.912556"><ele>16.0</ele><time>2026-04-24T11:11:52.185Z</time></trkpt><trkpt lat="45.5183301" lon="11.9125331"><ele>16.142857142857142</ele><time>2026-04-24T11:11:53.185Z</time></trkpt><trkpt lat="45.5182648" lon="11.9125078"><ele>16.285714285714285</ele><time>2026-04-24T11:11:54.186Z</time></trkpt><trkpt lat="45.5182025" lon="11.9124852"><ele>16.428571428571427</ele><time>2026-04-24T11:11:55.185Z</time></trkpt><trkpt lat="45.5181369" lon="11.9124657"><ele>16.57142857142857</ele><time>2026-04-24T11:11:56.185Z</time></trkpt><trkpt lat="45.518071" lon="11.9124432"><ele>16.714285714285715</ele><time>2026-04-24T11:11:57.185Z</time></trkpt><trkpt lat="45.518007" lon="11.9124195"><ele>16.857142857142854</ele><time>2026-04-24T11:11:58.185Z</time></trkpt><trkpt lat="45.5179433" lon="11.9123952"><ele>17.0</ele><time>2026-04-24T11:11:59.185Z</time></trkpt><trkpt lat="45.5178796" lon="11.9123684"><ele>17.0</ele><time>2026-04-24T11:12:00.185Z</time></trkpt><trkpt lat="45.5178139" lon="11.912345"><ele>17.0</ele><time>2026-04-24T11:12:01.185Z</time></trkpt><trkpt lat="45.5177501" lon="11.9123195"><ele>17.0</ele><time>2026-04-24T11:12:02.185Z</time></trkpt><trkpt lat="45.5176884" lon="11.9122919"><ele>17.0</ele><time>2026-04-24T11:12:03.186Z</time></trkpt><trkpt lat="45.5176235" lon="11.9122721"><ele>17.0</ele><time>2026-04-24T11:12:04.185Z</time></trkpt><trkpt lat="45.5175042" lon="11.9122302"><ele>17.0</ele><time>2026-04-24T11:12:06.185Z</time></trkpt><trkpt lat="45.5173944" lon="11.912189"><ele>17.0</ele><time>2026-04-24T11:12:08.186Z</time></trkpt><trkpt lat="45.5172851" lon="11.9121466"><ele>17.0</ele><time>2026-04-24T11:12:10.185Z</time></trkpt><trkpt lat="45.5171838" lon="11.9121026"><ele>17.0</ele><time>2026-04-24T11:12:12.186Z</time></trkpt><trkpt lat="45.5170731" lon="11.9120667"><ele>17.0</ele><time>2026-04-24T11:12:14.185Z</time></trkpt><trkpt lat="45.5169607" lon="11.9120296"><ele>17.0</ele><time>2026-04-24T11:12:16.186Z</time></trkpt><trkpt lat="45.516852" lon="11.9119944"><ele>16.8</ele><time>2026-04-24T11:12:18.185Z</time></trkpt><trkpt lat="45.5167483" lon="11.9119528"><ele>16.6</ele><time>2026-04-24T11:12:20.186Z</time></trkpt><trkpt lat="45.5166519" lon="11.9119187"><ele>16.400000000000002</ele><time>2026-04-24T11:12:22.185Z</time></trkpt><trkpt lat="45.5165593" lon="11.9118883"><ele>16.2</ele><time>2026-04-24T11:12:24.185Z</time></trkpt><trkpt lat="45.5164714" lon="11.9118544"><ele>16.0</ele><time>2026-04-24T11:12:26.185Z</time></trkpt><trkpt lat="45.5163718" lon="11.9118138"><ele>16.0</ele><time>2026-04-24T11:12:28.185Z</time></trkpt><trkpt lat="45.5162714" lon="11.9117702"><ele>16.0</ele><time>2026-04-24T11:12:30.185Z</time></trkpt><trkpt lat="45.5161721" lon="11.9117398"><ele>16.0</ele><time>2026-04-24T11:12:32.185Z</time></trkpt><trkpt lat="45.5160708" lon="11.9117036"><ele>16.0</ele><time>2026-04-24T11:12:34.186Z</time></trkpt><trkpt lat="45.515963" lon="11.9116638"><ele>16.0</ele><time>2026-04-24T11:12:36.185Z</time></trkpt><trkpt lat="45.515852" lon="11.9116138"><ele>15.999999999999998</ele><time>2026-04-24T11:12:38.185Z</time></trkpt><trkpt lat="45.5157333" lon="11.9115713"><ele>16.0</ele><time>2026-04-24T11:12:40.185Z</time></trkpt><trkpt lat="45.5156088" lon="11.9115231"><ele>16.0</ele><time>2026-04-24T11:12:42.186Z</time></trkpt><trkpt lat="45.515545" lon="11.9115037"><ele>16.0</ele><time>2026-04-24T11:12:43.185Z</time></trkpt><trkpt lat="45.5154826" lon="11.9114842"><ele>15.999999999999998</ele><time>2026-04-24T11:12:44.185Z</time></trkpt><trkpt lat="45.5154197" lon="11.9114617"><ele>16.0</ele><time>2026-04-24T11:12:45.186Z</time></trkpt><trkpt lat="45.5153519" lon="11.9114332"><ele>16.0</ele><time>2026-04-24T11:12:46.185Z</time></trkpt><trkpt lat="45.5152824" lon="11.9114089"><ele>15.999999999999998</ele><time>2026-04-24T11:12:47.185Z</time></trkpt><trkpt lat="45.5152151" lon="11.9113856"><ele>16.0</ele><time>2026-04-24T11:12:48.186Z</time></trkpt><trkpt lat="45.5151503" lon="11.9113643"><ele>16.0</ele><time>2026-04-24T11:12:49.185Z</time></trkpt><trkpt lat="45.5150866" lon="11.9113421"><ele>15.999999999999998</ele><time>2026-04-24T11:12:50.186Z</time></trkpt><trkpt lat="45.5150221" lon="11.9113151"><ele>16.0</ele><time>2026-04-24T11:12:51.185Z</time></trkpt><trkpt lat="45.5149571" lon="11.9112913"><ele>16.0</ele><time>2026-04-24T11:12:52.186Z</time></trkpt><trkpt lat="45.5148906" lon="11.9112665"><ele>16.0</ele><time>2026-04-24T11:12:53.185Z</time></trkpt><trkpt lat="45.5148258" lon="11.9112416"><ele>15.999999999999998</ele><time>2026-04-24T11:12:54.185Z</time></trkpt><trkpt lat="45.5147605" lon="11.9112146"><ele>16.0</ele><time>2026-04-24T11:12:55.186Z</time></trkpt><trkpt lat="45.5146935" lon="11.9111945"><ele>16.0</ele><time>2026-04-24T11:12:56.185Z</time></trkpt><trkpt lat="45.5146284" lon="11.9111703"><ele>15.999999999999998</ele><time>2026-04-24T11:12:57.185Z</time></trkpt><trkpt lat="45.5145668" lon="11.9111489"><ele>16.0</ele><time>2026-04-24T11:12:58.186Z</time></trkpt><trkpt lat="45.5145045" lon="11.9111213"><ele>16.0</ele><time>2026-04-24T11:12:59.185Z</time></trkpt><trkpt lat="45.5144415" lon="11.9110982"><ele>15.833333333333332</ele><time>2026-04-24T11:13:00.185Z</time></trkpt><trkpt lat="45.5143797" lon="11.9110779"><ele>15.666666666666666</ele><time>2026-04-24T11:13:01.186Z</time></trkpt><trkpt lat="45.5143158" lon="11.9110567"><ele>15.5</ele><time>2026-04-24T11:13:02.185Z</time></trkpt><trkpt lat="45.5142549" lon="11.9110307"><ele>15.333333333333332</ele><time>2026-04-24T11:13:03.186Z</time></trkpt><trkpt lat="45.514191" lon="11.9110085"><ele>15.166666666666666</ele><time>2026-04-24T11:13:04.185Z</time></trkpt><trkpt lat="45.5140706" lon="11.9109598"><ele>15.0</ele><time>2026-04-24T11:13:06.185Z</time></trkpt><trkpt lat="45.513949" lon="11.9109121"><ele>14.857142857142858</ele><time>2026-04-24T11:13:08.185Z</time></trkpt><trkpt lat="45.5138876" lon="11.910889"><ele>14.714285714285714</ele><time>2026-04-24T11:13:09.185Z</time></trkpt><trkpt lat="45.5138261" lon="11.9108655"><ele>14.571428571428571</ele><time>2026-04-24T11:13:10.185Z</time></trkpt><trkpt lat="45.5137614" lon="11.910846"><ele>14.428571428571429</ele><time>2026-04-24T11:13:11.185Z</time></trkpt><trkpt lat="45.5136992" lon="11.9108204"><ele>14.285714285714285</ele><time>2026-04-24T11:13:12.185Z</time></trkpt><trkpt lat="45.5136359" lon="11.9107964"><ele>14.142857142857142</ele><time>2026-04-24T11:13:13.185Z</time></trkpt><trkpt lat="45.5135712" lon="11.9107726"><ele>14.0</ele><time>2026-04-24T11:13:14.185Z</time></trkpt><trkpt lat="45.5135067" lon="11.9107484"><ele>14.000000000000002</ele><time>2026-04-24T11:13:15.185Z</time></trkpt><trkpt lat="45.5134412" lon="11.9107247"><ele>14.0</ele><time>2026-04-24T11:13:16.185Z</time></trkpt><trkpt lat="45.5133766" lon="11.9107031"><ele>14.0</ele><time>2026-04-24T11:13:17.185Z</time></trkpt><trkpt lat="45.5133156" lon="11.910679"><ele>14.0</ele><time>2026-04-24T11:13:18.186Z</time></trkpt><trkpt lat="45.5131976" lon="11.910635"><ele>14.000000000000002</ele><time>2026-04-24T11:13:20.185Z</time></trkpt><trkpt lat="45.5130807" lon="11.9105968"><ele>14.0</ele><time>2026-04-24T11:13:22.185Z</time></trkpt><trkpt lat="45.5129633" lon="11.9105537"><ele>14.2</ele><time>2026-04-24T11:13:24.185Z</time></trkpt><trkpt lat="45.5128424" lon="11.910506"><ele>14.399999999999999</ele><time>2026-04-24T11:13:26.185Z</time></trkpt><trkpt lat="45.5127806" lon="11.910483"><ele>14.6</ele><time>2026-04-24T11:13:27.186Z</time></trkpt><trkpt lat="45.5127185" lon="11.9104547"><ele>14.8</ele><time>2026-04-24T11:13:28.185Z</time></trkpt><trkpt lat="45.5125944" lon="11.9104086"><ele>15.0</ele><time>2026-04-24T11:13:30.185Z</time></trkpt><trkpt lat="45.5125272" lon="11.9103915"><ele>15.0</ele><time>2026-04-24T11:13:31.186Z</time></trkpt><trkpt lat="45.51246" lon="11.9103705"><ele>15.0</ele><time>2026-04-24T11:13:32.185Z</time></trkpt><trkpt lat="45.5123928" lon="11.9103459"><ele>15.0</ele><time>2026-04-24T11:13:33.185Z</time></trkpt><trkpt lat="45.5123274" lon="11.9103205"><ele>15.0</ele><time>2026-04-24T11:13:34.185Z</time></trkpt><trkpt lat="45.5122622" lon="11.9102986"><ele>15.0</ele><time>2026-04-24T11:13:35.185Z</time></trkpt><trkpt lat="45.5121964" lon="11.9102808"><ele>15.0</ele><time>2026-04-24T11:13:36.185Z</time></trkpt><trkpt lat="45.5121341" lon="11.9102535"><ele>15.0</ele><time>2026-04-24T11:13:37.185Z</time></trkpt><trkpt lat="45.5120733" lon="11.9102289"><ele>15.0</ele><time>2026-04-24T11:13:38.185Z</time></trkpt><trkpt lat="45.5119507" lon="11.9101771"><ele>15.0</ele><time>2026-04-24T11:13:40.186Z</time></trkpt><trkpt lat="45.5118879" lon="11.9101524"><ele>15.0</ele><time>2026-04-24T11:13:41.185Z</time></trkpt><trkpt lat="45.511825" lon="11.9101323"><ele>15.0</ele><time>2026-04-24T11:13:42.186Z</time></trkpt><trkpt lat="45.5117052" lon="11.9100883"><ele>15.0</ele><time>2026-04-24T11:13:44.186Z</time></trkpt><trkpt lat="45.5115864" lon="11.9100423"><ele>14.8</ele><time>2026-04-24T11:13:46.185Z</time></trkpt><trkpt lat="45.5114654" lon="11.9099962"><ele>14.6</ele><time>2026-04-24T11:13:48.186Z</time></trkpt><trkpt lat="45.5114033" lon="11.9099768"><ele>14.399999999999999</ele><time>2026-04-24T11:13:49.185Z</time></trkpt><trkpt lat="45.5113401" lon="11.9099564"><ele>14.2</ele><time>2026-04-24T11:13:50.185Z</time></trkpt><trkpt lat="45.5112183" lon="11.9099091"><ele>14.0</ele><time>2026-04-24T11:13:52.185Z</time></trkpt><trkpt lat="45.5110995" lon="11.9098714"><ele>14.0</ele><time>2026-04-24T11:13:54.185Z</time></trkpt><trkpt lat="45.5109811" lon="11.9098216"><ele>14.0</ele><time>2026-04-24T11:13:56.185Z</time></trkpt><trkpt lat="45.5108591" lon="11.9097777"><ele>14.0</ele><time>2026-04-24T11:13:58.186Z</time></trkpt><trkpt lat="45.5107358" lon="11.9097343"><ele>14.0</ele><time>2026-04-24T11:14:00.185Z</time></trkpt><trkpt lat="45.5106112" lon="11.9096956"><ele>14.0</ele><time>2026-04-24T11:14:02.185Z</time></trkpt><trkpt lat="45.5105501" lon="11.909671"><ele>13.999999999999998</ele><time>2026-04-24T11:14:03.185Z</time></trkpt><trkpt lat="45.5104328" lon="11.9096343"><ele>13.999999999999998</ele><time>2026-04-24T11:14:05.185Z</time></trkpt><trkpt lat="45.5103217" lon="11.9095937"><ele>14.0</ele><time>2026-04-24T11:14:07.186Z</time></trkpt><trkpt lat="45.5102156" lon="11.9095423"><ele>14.0</ele><time>2026-04-24T11:14:09.185Z</time></trkpt><trkpt lat="45.5101164" lon="11.9095063"><ele>14.0</ele><time>2026-04-24T11:14:11.186Z</time></trkpt><trkpt lat="45.5100192" lon="11.9094629"><ele>13.999999999999998</ele><time>2026-04-24T11:14:13.185Z</time></trkpt><trkpt lat="45.5099239" lon="11.9094166"><ele>13.999999999999998</ele><time>2026-04-24T11:14:15.185Z</time></trkpt><trkpt lat="45.5098284" lon="11.9093693"><ele>14.0</ele><time>2026-04-24T11:14:17.185Z</time></trkpt><trkpt lat="45.5097362" lon="11.9093319"><ele>14.0</ele><time>2026-04-24T11:14:19.185Z</time></trkpt><trkpt lat="45.5096398" lon="11.9092969"><ele>14.0</ele><time>2026-04-24T11:14:21.185Z</time></trkpt><trkpt lat="45.5095396" lon="11.9092596"><ele>13.999999999999998</ele><time>2026-04-24T11:14:23.185Z</time></trkpt><trkpt lat="45.5094626" lon="11.9092221"><ele>13.999999999999998</ele><time>2026-04-24T11:14:25.185Z</time></trkpt><trkpt lat="45.5094182" lon="11.9090894"><ele>14.0</ele><time>2026-04-24T11:14:28.185Z</time></trkpt><trkpt lat="45.5094281" lon="11.9089395"><ele>14.0</ele><time>2026-04-24T11:14:30.185Z</time></trkpt><trkpt lat="45.5094604" lon="11.9087853"><ele>14.000000000000002</ele><time>2026-04-24T11:14:32.185Z</time></trkpt><trkpt lat="45.5094908" lon="11.9086183"><ele>14.0</ele><time>2026-04-24T11:14:34.185Z</time></trkpt><trkpt lat="45.5095237" lon="11.9084464"><ele>14.0</ele><time>2026-04-24T11:14:36.185Z</time></trkpt><trkpt lat="45.5095407" lon="11.9083589"><ele>14.0</ele><time>2026-04-24T11:14:37.185Z</time></trkpt><trkpt lat="45.5095579" lon="11.9082666"><ele>14.000000000000002</ele><time>2026-04-24T11:14:38.186Z</time></trkpt><trkpt lat="45.5095771" lon="11.9081683"><ele>14.0</ele><time>2026-04-24T11:14:39.185Z</time></trkpt><trkpt lat="45.5095967" lon="11.9080754"><ele>14.0</ele><time>2026-04-24T11:14:40.185Z</time></trkpt><trkpt lat="45.5096132" lon="11.907981"><ele>14.0</ele><time>2026-04-24T11:14:41.185Z</time></trkpt><trkpt lat="45.5096281" lon="11.9078812"><ele>14.0</ele><time>2026-04-24T11:14:42.186Z</time></trkpt><trkpt lat="45.509648" lon="11.9077762"><ele>14.0</ele><time>2026-04-24T11:14:43.185Z</time></trkpt><trkpt lat="45.5096658" lon="11.9076712"><ele>14.0</ele><time>2026-04-24T11:14:44.185Z</time></trkpt><trkpt lat="45.5096876" lon="11.9075772"><ele>14.0</ele><time>2026-04-24T11:14:45.185Z</time></trkpt><trkpt lat="45.5097066" lon="11.9074772"><ele>14.0</ele><time>2026-04-24T11:14:46.185Z</time></trkpt><trkpt lat="45.5097293" lon="11.9073807"><ele>14.142857142857142</ele><time>2026-04-24T11:14:47.185Z</time></trkpt><trkpt lat="45.5097515" lon="11.9072771"><ele>14.285714285714285</ele><time>2026-04-24T11:14:48.185Z</time></trkpt><trkpt lat="45.5097694" lon="11.9071793"><ele>14.428571428571429</ele><time>2026-04-24T11:14:49.186Z</time></trkpt><trkpt lat="45.5097881" lon="11.9070842"><ele>14.571428571428571</ele><time>2026-04-24T11:14:50.186Z</time></trkpt><trkpt lat="45.5098089" lon="11.9069872"><ele>14.714285714285714</ele><time>2026-04-24T11:14:51.185Z</time></trkpt><trkpt lat="45.5098259" lon="11.906884"><ele>14.857142857142858</ele><time>2026-04-24T11:14:52.186Z</time></trkpt><trkpt lat="45.5098466" lon="11.9067818"><ele>15.0</ele><time>2026-04-24T11:14:53.186Z</time></trkpt><trkpt lat="45.509865" lon="11.9066883"><ele>15.333333333333334</ele><time>2026-04-24T11:14:54.185Z</time></trkpt><trkpt lat="45.509882" lon="11.906595"><ele>15.666666666666668</ele><time>2026-04-24T11:14:55.185Z</time></trkpt><trkpt lat="45.5099017" lon="11.9065049"><ele>16.0</ele><time>2026-04-24T11:14:56.186Z</time></trkpt><trkpt lat="45.5099197" lon="11.9064145"><ele>16.333333333333336</ele><time>2026-04-24T11:14:57.185Z</time></trkpt><trkpt lat="45.5099392" lon="11.906321"><ele>16.666666666666668</ele><time>2026-04-24T11:14:58.185Z</time></trkpt><trkpt lat="45.509955" lon="11.9062289"><ele>17.0</ele><time>2026-04-24T11:14:59.185Z</time></trkpt><trkpt lat="45.5099864" lon="11.9060587"><ele>16.999999999999996</ele><time>2026-04-24T11:15:01.186Z</time></trkpt><trkpt lat="45.5100101" lon="11.9059689"><ele>17.0</ele><time>2026-04-24T11:15:02.185Z</time></trkpt><trkpt lat="45.5100354" lon="11.905884"><ele>17.0</ele><time>2026-04-24T11:15:03.186Z</time></trkpt><trkpt lat="45.5100611" lon="11.9058015"><ele>17.0</ele><time>2026-04-24T11:15:04.186Z</time></trkpt><trkpt lat="45.5100888" lon="11.90572"><ele>17.0</ele><time>2026-04-24T11:15:05.185Z</time></trkpt><trkpt lat="45.510114" lon="11.9056341"><ele>16.999999999999996</ele><time>2026-04-24T11:15:06.185Z</time></trkpt><trkpt lat="45.5101375" lon="11.9055463"><ele>17.0</ele><time>2026-04-24T11:15:07.185Z</time></trkpt><trkpt lat="45.5101605" lon="11.9054615"><ele>16.75</ele><time>2026-04-24T11:15:08.185Z</time></trkpt><trkpt lat="45.510192" lon="11.9052952"><ele>16.5</ele><time>2026-04-24T11:15:10.185Z</time></trkpt><trkpt lat="45.5102182" lon="11.9051305"><ele>16.25</ele><time>2026-04-24T11:15:12.186Z</time></trkpt><trkpt lat="45.5103212" lon="11.9050845"><ele>16.0</ele><time>2026-04-24T11:15:14.185Z</time></trkpt><trkpt lat="45.5104318" lon="11.9051325"><ele>16.0</ele><time>2026-04-24T11:15:16.184Z</time></trkpt><trkpt lat="45.5105386" lon="11.9051769"><ele>16.0</ele><time>2026-04-24T11:15:18.184Z</time></trkpt><trkpt lat="45.5106547" lon="11.9052173"><ele>16.0</ele><time>2026-04-24T11:15:20.184Z</time></trkpt><trkpt lat="45.510717" lon="11.9052439"><ele>16.0</ele><time>2026-04-24T11:15:21.184Z</time></trkpt><trkpt lat="45.5108297" lon="11.9053065"><ele>16.0</ele><time>2026-04-24T11:15:23.184Z</time></trkpt><trkpt lat="45.5108907" lon="11.9053315"><ele>16.0</ele><time>2026-04-24T11:15:24.184Z</time></trkpt><trkpt lat="45.5109565" lon="11.9053502"><ele>16.0</ele><time>2026-04-24T11:15:25.184Z</time></trkpt><trkpt lat="45.5110733" lon="11.9053994"><ele>16.0</ele><time>2026-04-24T11:15:27.184Z</time></trkpt><trkpt lat="45.5111358" lon="11.9054293"><ele>16.0</ele><time>2026-04-24T11:15:28.184Z</time></trkpt><trkpt lat="45.5111979" lon="11.9054624"><ele>16.0</ele><time>2026-04-24T11:15:29.184Z</time></trkpt><trkpt lat="45.5113207" lon="11.9055173"><ele>15.5</ele><time>2026-04-24T11:15:31.185Z</time></trkpt><trkpt lat="45.5114387" lon="11.9055631"><ele>15.0</ele><time>2026-04-24T11:15:33.184Z</time></trkpt><trkpt lat="45.5115499" lon="11.9055907"><ele>14.5</ele><time>2026-04-24T11:15:35.184Z</time></trkpt><trkpt lat="45.5116634" lon="11.9056175"><ele>14.0</ele><time>2026-04-24T11:15:37.184Z</time></trkpt><trkpt lat="45.5117709" lon="11.9056525"><ele>14.0</ele><time>2026-04-24T11:15:39.184Z</time></trkpt><trkpt lat="45.5118718" lon="11.9056878"><ele>13.999999999999998</ele><time>2026-04-24T11:15:41.184Z</time></trkpt><trkpt lat="45.5119559" lon="11.9056082"><ele>13.999999999999998</ele><time>2026-04-24T11:15:43.184Z</time></trkpt><trkpt lat="45.5119893" lon="11.9054663"><ele>14.0</ele><time>2026-04-24T11:15:45.184Z</time></trkpt><trkpt lat="45.5120186" lon="11.9053213"><ele>14.0</ele><time>2026-04-24T11:15:47.185Z</time></trkpt><trkpt lat="45.5120479" lon="11.9051779"><ele>14.000000000000002</ele><time>2026-04-24T11:15:49.184Z</time></trkpt><trkpt lat="45.5120833" lon="11.9050101"><ele>14.0</ele><time>2026-04-24T11:15:51.184Z</time></trkpt><trkpt lat="45.5121073" lon="11.9049219"><ele>14.0</ele><time>2026-04-24T11:15:52.185Z</time></trkpt><trkpt lat="45.5121304" lon="11.9048317"><ele>14.0</ele><time>2026-04-24T11:15:53.184Z</time></trkpt><trkpt lat="45.5121477" lon="11.9047381"><ele>14.000000000000002</ele><time>2026-04-24T11:15:54.184Z</time></trkpt><trkpt lat="45.5121615" lon="11.9046454"><ele>14.0</ele><time>2026-04-24T11:15:55.184Z</time></trkpt><trkpt lat="45.5121769" lon="11.9045499"><ele>14.0</ele><time>2026-04-24T11:15:56.184Z</time></trkpt><trkpt lat="45.5121925" lon="11.9044533"><ele>14.0</ele><time>2026-04-24T11:15:57.184Z</time></trkpt><trkpt lat="45.5122172" lon="11.9043539"><ele>14.0</ele><time>2026-04-24T11:15:58.184Z</time></trkpt><trkpt lat="45.5122383" lon="11.9042573"><ele>14.0</ele><time>2026-04-24T11:15:59.184Z</time></trkpt><trkpt lat="45.5122575" lon="11.9041558"><ele>14.0</ele><time>2026-04-24T11:16:00.184Z</time></trkpt><trkpt lat="45.5122808" lon="11.9040609"><ele>14.0</ele><time>2026-04-24T11:16:01.184Z</time></trkpt><trkpt lat="45.5123072" lon="11.903962"><ele>14.0</ele><time>2026-04-24T11:16:02.185Z</time></trkpt><trkpt lat="45.512331" lon="11.9038661"><ele>14.166666666666668</ele><time>2026-04-24T11:16:03.184Z</time></trkpt><trkpt lat="45.5123525" lon="11.9037606"><ele>14.333333333333334</ele><time>2026-04-24T11:16:04.184Z</time></trkpt><trkpt lat="45.5123739" lon="11.9036563"><ele>14.5</ele><time>2026-04-24T11:16:05.184Z</time></trkpt><trkpt lat="45.5123975" lon="11.9035708"><ele>14.666666666666668</ele><time>2026-04-24T11:16:06.184Z</time></trkpt><trkpt lat="45.5124159" lon="11.9034822"><ele>14.833333333333334</ele><time>2026-04-24T11:16:07.185Z</time></trkpt><trkpt lat="45.5124403" lon="11.903331"><ele>15.0</ele><time>2026-04-24T11:16:09.184Z</time></trkpt><trkpt lat="45.5124576" lon="11.9032435"><ele>14.6</ele><time>2026-04-24T11:16:10.184Z</time></trkpt><trkpt lat="45.512476" lon="11.9031568"><ele>14.2</ele><time>2026-04-24T11:16:11.184Z</time></trkpt><trkpt lat="45.5124993" lon="11.9029996"><ele>13.8</ele><time>2026-04-24T11:16:13.184Z</time></trkpt><trkpt lat="45.5125171" lon="11.9028686"><ele>13.4</ele><time>2026-04-24T11:16:15.184Z</time></trkpt><trkpt lat="45.5125391" lon="11.9027419"><ele>13.0</ele><time>2026-04-24T11:16:17.184Z</time></trkpt><trkpt lat="45.5125662" lon="11.9026167"><ele>13.0</ele><time>2026-04-24T11:16:19.184Z</time></trkpt><trkpt lat="45.5125918" lon="11.9025033"><ele>13.0</ele><time>2026-04-24T11:16:21.184Z</time></trkpt><trkpt lat="45.5126115" lon="11.9023861"><ele>13.0</ele><time>2026-04-24T11:16:23.184Z</time></trkpt><trkpt lat="45.5125861" lon="11.9022691"><ele>13.0</ele><time>2026-04-24T11:16:25.184Z</time></trkpt><trkpt lat="45.5124994" lon="11.9021916"><ele>13.0</ele><time>2026-04-24T11:16:27.184Z</time></trkpt><trkpt lat="45.5124134" lon="11.9021062"><ele>13.0</ele><time>2026-04-24T11:16:29.184Z</time></trkpt><trkpt lat="45.5123103" lon="11.9020552"><ele>13.0</ele><time>2026-04-24T11:16:31.184Z</time></trkpt><trkpt lat="45.5121935" lon="11.9020158"><ele>13.0</ele><time>2026-04-24T11:16:33.185Z</time></trkpt><trkpt lat="45.5120749" lon="11.901954"><ele>13.0</ele><time>2026-04-24T11:16:35.184Z</time></trkpt><trkpt lat="45.5120139" lon="11.9019194"><ele>13.0</ele><time>2026-04-24T11:16:36.185Z</time></trkpt><trkpt lat="45.5119573" lon="11.9018774"><ele>13.142857142857142</ele><time>2026-04-24T11:16:37.184Z</time></trkpt><trkpt lat="45.5118995" lon="11.9018262"><ele>13.285714285714286</ele><time>2026-04-24T11:16:38.185Z</time></trkpt><trkpt lat="45.5118406" lon="11.901774"><ele>13.428571428571429</ele><time>2026-04-24T11:16:39.184Z</time></trkpt><trkpt lat="45.5117853" lon="11.9017136"><ele>13.571428571428571</ele><time>2026-04-24T11:16:40.184Z</time></trkpt><trkpt lat="45.5117308" lon="11.9016563"><ele>13.714285714285715</ele><time>2026-04-24T11:16:41.184Z</time></trkpt><trkpt lat="45.5116802" lon="11.9015993"><ele>13.857142857142858</ele><time>2026-04-24T11:16:42.185Z</time></trkpt><trkpt lat="45.5116282" lon="11.9015461"><ele>14.0</ele><time>2026-04-24T11:16:43.185Z</time></trkpt><trkpt lat="45.5115187" lon="11.9014595"><ele>14.0</ele><time>2026-04-24T11:16:45.184Z</time></trkpt><trkpt lat="45.5114594" lon="11.9014232"><ele>14.0</ele><time>2026-04-24T11:16:46.185Z</time></trkpt><trkpt lat="45.511395" lon="11.9013971"><ele>14.0</ele><time>2026-04-24T11:16:47.184Z</time></trkpt><trkpt lat="45.5113295" lon="11.9013763"><ele>14.0</ele><time>2026-04-24T11:16:48.185Z</time></trkpt><trkpt lat="45.5112625" lon="11.9013634"><ele>14.0</ele><time>2026-04-24T11:16:49.184Z</time></trkpt><trkpt lat="45.5111937" lon="11.9013562"><ele>14.0</ele><time>2026-04-24T11:16:50.184Z</time></trkpt><trkpt lat="45.5111256" lon="11.9013527"><ele>14.0</ele><time>2026-04-24T11:16:51.184Z</time></trkpt><trkpt lat="45.5110601" lon="11.9013414"><ele>14.25</ele><time>2026-04-24T11:16:52.184Z</time></trkpt><trkpt lat="45.5109428" lon="11.9013"><ele>14.5</ele><time>2026-04-24T11:16:54.185Z</time></trkpt><trkpt lat="45.5108661" lon="11.9011751"><ele>14.75</ele><time>2026-04-24T11:16:56.184Z</time></trkpt><trkpt lat="45.5108694" lon="11.9010099"><ele>15.0</ele><time>2026-04-24T11:16:58.184Z</time></trkpt><trkpt lat="45.5109083" lon="11.9008378"><ele>15.0</ele><time>2026-04-24T11:17:00.184Z</time></trkpt><trkpt lat="45.5109286" lon="11.9006711"><ele>15.0</ele><time>2026-04-24T11:17:02.184Z</time></trkpt><trkpt lat="45.5109455" lon="11.9005815"><ele>15.0</ele><time>2026-04-24T11:17:03.184Z</time></trkpt><trkpt lat="45.5109745" lon="11.9004058"><ele>15.0</ele><time>2026-04-24T11:17:05.184Z</time></trkpt><trkpt lat="45.5109896" lon="11.9003169"><ele>15.0</ele><time>2026-04-24T11:17:06.184Z</time></trkpt><trkpt lat="45.511004" lon="11.9002271"><ele>15.0</ele><time>2026-04-24T11:17:07.185Z</time></trkpt><trkpt lat="45.5110148" lon="11.9001346"><ele>15.0</ele><time>2026-04-24T11:17:08.184Z</time></trkpt><trkpt lat="45.5110272" lon="11.9000425"><ele>15.0</ele><time>2026-04-24T11:17:09.184Z</time></trkpt><trkpt lat="45.5110437" lon="11.8999446"><ele>15.0</ele><time>2026-04-24T11:17:10.184Z</time></trkpt><trkpt lat="45.5110563" lon="11.8998535"><ele>15.0</ele><time>2026-04-24T11:17:11.184Z</time></trkpt><trkpt lat="45.5110701" lon="11.8997609"><ele>15.0</ele><time>2026-04-24T11:17:12.184Z</time></trkpt><trkpt lat="45.5110831" lon="11.8996659"><ele>15.0</ele><time>2026-04-24T11:17:13.184Z</time></trkpt><trkpt lat="45.511095" lon="11.8995713"><ele>15.0</ele><time>2026-04-24T11:17:14.184Z</time></trkpt><trkpt lat="45.5111092" lon="11.8994805"><ele>15.0</ele><time>2026-04-24T11:17:15.185Z</time></trkpt><trkpt lat="45.5111207" lon="11.899388"><ele>15.0</ele><time>2026-04-24T11:17:16.184Z</time></trkpt><trkpt lat="45.5111499" lon="11.8992086"><ele>15.0</ele><time>2026-04-24T11:17:18.184Z</time></trkpt><trkpt lat="45.5111644" lon="11.8991121"><ele>15.0</ele><time>2026-04-24T11:17:19.184Z</time></trkpt><trkpt lat="45.5111808" lon="11.8990224"><ele>15.0</ele><time>2026-04-24T11:17:20.184Z</time></trkpt><trkpt lat="45.5111999" lon="11.8989327"><ele>15.0</ele><time>2026-04-24T11:17:21.184Z</time></trkpt><trkpt lat="45.511216" lon="11.898839"><ele>14.857142857142858</ele><time>2026-04-24T11:17:22.185Z</time></trkpt><trkpt lat="45.5112334" lon="11.898746"><ele>14.714285714285714</ele><time>2026-04-24T11:17:23.184Z</time></trkpt><trkpt lat="45.5112511" lon="11.8986513"><ele>14.571428571428571</ele><time>2026-04-24T11:17:24.185Z</time></trkpt><trkpt lat="45.5112683" lon="11.8985571"><ele>14.428571428571429</ele><time>2026-04-24T11:17:25.184Z</time></trkpt><trkpt lat="45.5112867" lon="11.8984634"><ele>14.285714285714285</ele><time>2026-04-24T11:17:26.184Z</time></trkpt><trkpt lat="45.5113047" lon="11.8983726"><ele>14.142857142857142</ele><time>2026-04-24T11:17:27.184Z</time></trkpt><trkpt lat="45.5113201" lon="11.8982851"><ele>14.0</ele><time>2026-04-24T11:17:28.184Z</time></trkpt><trkpt lat="45.5113507" lon="11.8981179"><ele>14.2</ele><time>2026-04-24T11:17:30.184Z</time></trkpt><trkpt lat="45.5113797" lon="11.8979468"><ele>14.399999999999999</ele><time>2026-04-24T11:17:32.184Z</time></trkpt><trkpt lat="45.5114099" lon="11.8977783"><ele>14.6</ele><time>2026-04-24T11:17:34.185Z</time></trkpt><trkpt lat="45.5114263" lon="11.8976911"><ele>14.8</ele><time>2026-04-24T11:17:35.184Z</time></trkpt><trkpt lat="45.5114458" lon="11.8976032"><ele>15.0</ele><time>2026-04-24T11:17:36.184Z</time></trkpt><trkpt lat="45.5114796" lon="11.8974304"><ele>15.0</ele><time>2026-04-24T11:17:38.185Z</time></trkpt><trkpt lat="45.5114932" lon="11.8973414"><ele>15.0</ele><time>2026-04-24T11:17:39.185Z</time></trkpt><trkpt lat="45.5115168" lon="11.8971724"><ele>15.0</ele><time>2026-04-24T11:17:41.184Z</time></trkpt><trkpt lat="45.5115409" lon="11.8970103"><ele>15.0</ele><time>2026-04-24T11:17:43.185Z</time></trkpt><trkpt lat="45.5115533" lon="11.8969149"><ele>15.0</ele><time>2026-04-24T11:17:44.184Z</time></trkpt><trkpt lat="45.5115608" lon="11.8968257"><ele>15.0</ele><time>2026-04-24T11:17:45.184Z</time></trkpt><trkpt lat="45.5115756" lon="11.896652"><ele>15.5</ele><time>2026-04-24T11:17:47.184Z</time></trkpt><trkpt lat="45.5115808" lon="11.8965622"><ele>16.0</ele><time>2026-04-24T11:17:48.184Z</time></trkpt><trkpt lat="45.5115997" lon="11.8963887"><ele>16.5</ele><time>2026-04-24T11:17:50.184Z</time></trkpt><trkpt lat="45.5116081" lon="11.8962161"><ele>17.0</ele><time>2026-04-24T11:17:52.185Z</time></trkpt><trkpt lat="45.5116094" lon="11.8961245"><ele>17.5</ele><time>2026-04-24T11:17:53.184Z</time></trkpt><trkpt lat="45.5116099" lon="11.8960318"><ele>18.0</ele><time>2026-04-24T11:17:54.184Z</time></trkpt><trkpt lat="45.5116092" lon="11.895937"><ele>17.6</ele><time>2026-04-24T11:17:55.184Z</time></trkpt><trkpt lat="45.5116066" lon="11.8958398"><ele>17.200000000000003</ele><time>2026-04-24T11:17:56.184Z</time></trkpt><trkpt lat="45.5116019" lon="11.8956684"><ele>16.8</ele><time>2026-04-24T11:17:58.185Z</time></trkpt><trkpt lat="45.5115912" lon="11.8955015"><ele>16.400000000000002</ele><time>2026-04-24T11:18:00.184Z</time></trkpt><trkpt lat="45.5115806" lon="11.8953338"><ele>16.0</ele><time>2026-04-24T11:18:02.184Z</time></trkpt><trkpt lat="45.5115775" lon="11.8951653"><ele>16.0</ele><time>2026-04-24T11:18:04.184Z</time></trkpt><trkpt lat="45.5115639" lon="11.8949955"><ele>16.0</ele><time>2026-04-24T11:18:06.184Z</time></trkpt><trkpt lat="45.5115525" lon="11.8948355"><ele>16.0</ele><time>2026-04-24T11:18:08.184Z</time></trkpt><trkpt lat="45.511552" lon="11.8946791"><ele>16.0</ele><time>2026-04-24T11:18:10.185Z</time></trkpt><trkpt lat="45.5115417" lon="11.8945188"><ele>16.0</ele><time>2026-04-24T11:18:12.185Z</time></trkpt><trkpt lat="45.5115317" lon="11.894366"><ele>16.0</ele><time>2026-04-24T11:18:14.184Z</time></trkpt><trkpt lat="45.5115188" lon="11.8942254"><ele>16.0</ele><time>2026-04-24T11:18:16.184Z</time></trkpt><trkpt lat="45.5115038" lon="11.894093"><ele>16.0</ele><time>2026-04-24T11:18:18.184Z</time></trkpt><trkpt lat="45.5114941" lon="11.8939635"><ele>16.0</ele><time>2026-04-24T11:18:20.184Z</time></trkpt><trkpt lat="45.5114802" lon="11.8938401"><ele>16.0</ele><time>2026-04-24T11:18:22.184Z</time></trkpt><trkpt lat="45.5114276" lon="11.8937406"><ele>16.0</ele><time>2026-04-24T11:18:24.185Z</time></trkpt><trkpt lat="45.511331" lon="11.8937404"><ele>16.0</ele><time>2026-04-24T11:18:26.184Z</time></trkpt><trkpt lat="45.5112237" lon="11.8937732"><ele>16.0</ele><time>2026-04-24T11:18:28.184Z</time></trkpt><trkpt lat="45.511116" lon="11.8937954"><ele>16.0</ele><time>2026-04-24T11:18:30.184Z</time></trkpt><trkpt lat="45.5110174" lon="11.893828"><ele>16.0</ele><time>2026-04-24T11:18:32.184Z</time></trkpt><trkpt lat="45.5109209" lon="11.8938711"><ele>16.0</ele><time>2026-04-24T11:18:34.184Z</time></trkpt><trkpt lat="45.5108171" lon="11.8939196"><ele>16.0</ele><time>2026-04-24T11:18:36.184Z</time></trkpt><trkpt lat="45.5107085" lon="11.8939685"><ele>16.0</ele><time>2026-04-24T11:18:38.184Z</time></trkpt><trkpt lat="45.5105941" lon="11.8940242"><ele>16.0</ele><time>2026-04-24T11:18:40.184Z</time></trkpt><trkpt lat="45.5104869" lon="11.8940753"><ele>15.75</ele><time>2026-04-24T11:18:42.184Z</time></trkpt><trkpt lat="45.510384" lon="11.8941274"><ele>15.5</ele><time>2026-04-24T11:18:44.184Z</time></trkpt><trkpt lat="45.510269" lon="11.8941799"><ele>15.25</ele><time>2026-04-24T11:18:46.184Z</time></trkpt><trkpt lat="45.5101672" lon="11.8942222"><ele>15.0</ele><time>2026-04-24T11:18:48.183Z</time></trkpt><trkpt lat="45.5100533" lon="11.8942731"><ele>14.75</ele><time>2026-04-24T11:18:50.183Z</time></trkpt><trkpt lat="45.5099355" lon="11.8943309"><ele>14.5</ele><time>2026-04-24T11:18:52.183Z</time></trkpt><trkpt lat="45.5098197" lon="11.8943825"><ele>14.25</ele><time>2026-04-24T11:18:54.183Z</time></trkpt><trkpt lat="45.509714" lon="11.8944348"><ele>14.0</ele><time>2026-04-24T11:18:56.183Z</time></trkpt><trkpt lat="45.509607" lon="11.8944945"><ele>14.5</ele><time>2026-04-24T11:18:58.183Z</time></trkpt><trkpt lat="45.5094923" lon="11.8945545"><ele>15.0</ele><time>2026-04-24T11:19:00.183Z</time></trkpt><trkpt lat="45.5093722" lon="11.8946003"><ele>15.5</ele><time>2026-04-24T11:19:02.184Z</time></trkpt><trkpt lat="45.5092662" lon="11.8946357"><ele>16.0</ele><time>2026-04-24T11:19:04.183Z</time></trkpt><trkpt lat="45.5091638" lon="11.8946829"><ele>16.0</ele><time>2026-04-24T11:19:06.184Z</time></trkpt><trkpt lat="45.5090716" lon="11.8947322"><ele>16.0</ele><time>2026-04-24T11:19:08.183Z</time></trkpt><trkpt lat="45.5089803" lon="11.8947734"><ele>16.0</ele><time>2026-04-24T11:19:10.183Z</time></trkpt><trkpt lat="45.5088874" lon="11.8948182"><ele>16.0</ele><time>2026-04-24T11:19:12.183Z</time></trkpt><trkpt lat="45.508789" lon="11.8948585"><ele>16.0</ele><time>2026-04-24T11:19:14.183Z</time></trkpt><trkpt lat="45.5086903" lon="11.8949003"><ele>18.0</ele><time>2026-04-24T11:19:16.183Z</time></trkpt></trkseg></trk></gpx>